<?xml version="1.0" encoding="UTF-8" standalone="no" ?>
<gpx xmlns="http://www.topografix.com/GPX/1/1" xmlns:xsi="http://www.w3.org/2001/XMLSchema-instance" xsi:schemaLocation="http://www.topografix.com/GPX/1/1 http://www.topografix.com/GPX/1/1/gpx.xsd" version="1.1" creator="VisuGPX - https://www.visugpx.com">
  <metadata>
    <name>explo lynx</name>
  </metadata>
  <trk>
    <name><![CDATA[explo lynx_1]]></name>
    <trkseg>
      <trkpt lat="49.30627" lon="0.01896">
        <ele>111.3</ele>
        <time>2022-07-07T19:48:23Z</time>
      </trkpt>
      <trkpt lat="49.3064" lon="0.01929">
        <ele>110.1</ele>
        <time>2022-07-07T19:48:23Z</time>
      </trkpt>
      <trkpt lat="49.30644" lon="0.0194">
        <ele>109.9</ele>
        <time>2022-07-07T19:48:23Z</time>
      </trkpt>
      <trkpt lat="49.30633" lon="0.01956">
        <ele>111.6</ele>
        <time>2022-07-07T19:48:23Z</time>
      </trkpt>
      <trkpt lat="49.30621" lon="0.01972">
        <ele>112.9</ele>
        <time>2022-07-07T19:48:23Z</time>
      </trkpt>
      <trkpt lat="49.30607" lon="0.01987">
        <ele>113.9</ele>
        <time>2022-07-07T19:48:23Z</time>
      </trkpt>
      <trkpt lat="49.30593" lon="0.02">
        <ele>114.9</ele>
        <time>2022-07-07T19:48:23Z</time>
      </trkpt>
      <trkpt lat="49.30584" lon="0.02009">
        <ele>115.2</ele>
        <time>2022-07-07T19:48:23Z</time>
      </trkpt>
      <trkpt lat="49.30573" lon="0.02016">
        <ele>115.8</ele>
        <time>2022-07-07T19:48:23Z</time>
      </trkpt>
      <trkpt lat="49.30561" lon="0.02023">
        <ele>116.9</ele>
        <time>2022-07-07T19:48:23Z</time>
      </trkpt>
      <trkpt lat="49.30551" lon="0.02027">
        <ele>117.7</ele>
        <time>2022-07-07T19:48:23Z</time>
      </trkpt>
      <trkpt lat="49.30538" lon="0.02031">
        <ele>119</ele>
        <time>2022-07-07T19:48:23Z</time>
      </trkpt>
      <trkpt lat="49.30526" lon="0.02034">
        <ele>119.8</ele>
        <time>2022-07-07T19:48:23Z</time>
      </trkpt>
      <trkpt lat="49.30515" lon="0.02036">
        <ele>120.1</ele>
        <time>2022-07-07T19:48:23Z</time>
      </trkpt>
      <trkpt lat="49.30501" lon="0.02037">
        <ele>120.6</ele>
        <time>2022-07-07T19:48:23Z</time>
      </trkpt>
      <trkpt lat="49.30477" lon="0.02035">
        <ele>121.5</ele>
        <time>2022-07-07T19:48:23Z</time>
      </trkpt>
      <trkpt lat="49.30454" lon="0.02035">
        <ele>122.4</ele>
        <time>2022-07-07T19:48:23Z</time>
      </trkpt>
      <trkpt lat="49.30435" lon="0.02035">
        <ele>123.3</ele>
        <time>2022-07-07T19:48:23Z</time>
      </trkpt>
      <trkpt lat="49.3042" lon="0.02037">
        <ele>123.7</ele>
        <time>2022-07-07T19:48:23Z</time>
      </trkpt>
      <trkpt lat="49.30405" lon="0.02041">
        <ele>124.1</ele>
        <time>2022-07-07T19:48:23Z</time>
      </trkpt>
      <trkpt lat="49.3039" lon="0.02046">
        <ele>124.4</ele>
        <time>2022-07-07T19:48:23Z</time>
      </trkpt>
      <trkpt lat="49.3038" lon="0.02051">
        <ele>124.6</ele>
        <time>2022-07-07T19:48:23Z</time>
      </trkpt>
      <trkpt lat="49.3037" lon="0.02056">
        <ele>124.9</ele>
        <time>2022-07-07T19:48:23Z</time>
      </trkpt>
      <trkpt lat="49.3036" lon="0.02063">
        <ele>125.1</ele>
        <time>2022-07-07T19:48:23Z</time>
      </trkpt>
      <trkpt lat="49.30347" lon="0.02074">
        <ele>125.4</ele>
        <time>2022-07-07T19:48:23Z</time>
      </trkpt>
      <trkpt lat="49.30334" lon="0.02087">
        <ele>125.7</ele>
        <time>2022-07-07T19:48:23Z</time>
      </trkpt>
      <trkpt lat="49.30326" lon="0.02095">
        <ele>126</ele>
        <time>2022-07-07T19:48:23Z</time>
      </trkpt>
      <trkpt lat="49.30317" lon="0.02105">
        <ele>126.3</ele>
        <time>2022-07-07T19:48:23Z</time>
      </trkpt>
      <trkpt lat="49.303" lon="0.02123">
        <ele>126.7</ele>
        <time>2022-07-07T19:48:23Z</time>
      </trkpt>
      <trkpt lat="49.30276" lon="0.02153">
        <ele>127.1</ele>
        <time>2022-07-07T19:48:23Z</time>
      </trkpt>
      <trkpt lat="49.30253" lon="0.02184">
        <ele>127.7</ele>
        <time>2022-07-07T19:48:23Z</time>
      </trkpt>
      <trkpt lat="49.30233" lon="0.02212">
        <ele>127.9</ele>
        <time>2022-07-07T19:48:23Z</time>
      </trkpt>
      <trkpt lat="49.30214" lon="0.02239">
        <ele>128.4</ele>
        <time>2022-07-07T19:48:23Z</time>
      </trkpt>
      <trkpt lat="49.30197" lon="0.02261">
        <ele>128.5</ele>
        <time>2022-07-07T19:48:23Z</time>
      </trkpt>
      <trkpt lat="49.30183" lon="0.02278">
        <ele>128.8</ele>
        <time>2022-07-07T19:48:23Z</time>
      </trkpt>
      <trkpt lat="49.3017" lon="0.02293">
        <ele>128.8</ele>
        <time>2022-07-07T19:48:23Z</time>
      </trkpt>
      <trkpt lat="49.30159" lon="0.02304">
        <ele>128.9</ele>
        <time>2022-07-07T19:48:23Z</time>
      </trkpt>
      <trkpt lat="49.30145" lon="0.02319">
        <ele>128.6</ele>
        <time>2022-07-07T19:48:23Z</time>
      </trkpt>
      <trkpt lat="49.30132" lon="0.02332">
        <ele>128.4</ele>
        <time>2022-07-07T19:48:23Z</time>
      </trkpt>
      <trkpt lat="49.30123" lon="0.02342">
        <ele>128.2</ele>
        <time>2022-07-07T19:48:23Z</time>
      </trkpt>
      <trkpt lat="49.30115" lon="0.02354">
        <ele>128</ele>
        <time>2022-07-07T19:48:23Z</time>
      </trkpt>
      <trkpt lat="49.30104" lon="0.02373">
        <ele>128</ele>
        <time>2022-07-07T19:48:23Z</time>
      </trkpt>
      <trkpt lat="49.30083" lon="0.02416">
        <ele>127.8</ele>
        <time>2022-07-07T19:48:23Z</time>
      </trkpt>
      <trkpt lat="49.30049" lon="0.02491">
        <ele>126.6</ele>
        <time>2022-07-07T19:48:23Z</time>
      </trkpt>
      <trkpt lat="49.30039" lon="0.02514">
        <ele>126.3</ele>
        <time>2022-07-07T19:48:23Z</time>
      </trkpt>
      <trkpt lat="49.30037" lon="0.02525">
        <ele>126</ele>
        <time>2022-07-07T19:48:23Z</time>
      </trkpt>
      <trkpt lat="49.30033" lon="0.0254">
        <ele>125.8</ele>
        <time>2022-07-07T19:48:23Z</time>
      </trkpt>
      <trkpt lat="49.30032" lon="0.02547">
        <ele>125.7</ele>
        <time>2022-07-07T19:48:23Z</time>
      </trkpt>
      <trkpt lat="49.30032" lon="0.02555">
        <ele>125.6</ele>
        <time>2022-07-07T19:48:23Z</time>
      </trkpt>
      <trkpt lat="49.30033" lon="0.02568">
        <ele>125.6</ele>
        <time>2022-07-07T19:48:23Z</time>
      </trkpt>
      <trkpt lat="49.30039" lon="0.02575">
        <ele>125.5</ele>
        <time>2022-07-07T19:48:23Z</time>
      </trkpt>
      <trkpt lat="49.30066" lon="0.02605">
        <ele>125.3</ele>
        <time>2022-07-07T19:48:23Z</time>
      </trkpt>
      <trkpt lat="49.30096" lon="0.02639">
        <ele>124.8</ele>
        <time>2022-07-07T19:48:23Z</time>
      </trkpt>
      <trkpt lat="49.30111" lon="0.02656">
        <ele>124.2</ele>
        <time>2022-07-07T19:48:23Z</time>
      </trkpt>
      <trkpt lat="49.30122" lon="0.02671">
        <ele>123.8</ele>
        <time>2022-07-07T19:48:23Z</time>
      </trkpt>
      <trkpt lat="49.30135" lon="0.02687">
        <ele>123.9</ele>
        <time>2022-07-07T19:48:23Z</time>
      </trkpt>
      <trkpt lat="49.30147" lon="0.02703">
        <ele>124.1</ele>
        <time>2022-07-07T19:48:23Z</time>
      </trkpt>
      <trkpt lat="49.30165" lon="0.02728">
        <ele>123.9</ele>
        <time>2022-07-07T19:48:23Z</time>
      </trkpt>
      <trkpt lat="49.30184" lon="0.02756">
        <ele>123.2</ele>
        <time>2022-07-07T19:48:23Z</time>
      </trkpt>
      <trkpt lat="49.30206" lon="0.02793">
        <ele>122.7</ele>
        <time>2022-07-07T19:48:23Z</time>
      </trkpt>
      <trkpt lat="49.30228" lon="0.02829">
        <ele>122</ele>
        <time>2022-07-07T19:48:23Z</time>
      </trkpt>
      <trkpt lat="49.30234" lon="0.02839">
        <ele>121.8</ele>
        <time>2022-07-07T19:48:23Z</time>
      </trkpt>
      <trkpt lat="49.30254" lon="0.02874">
        <ele>121.3</ele>
        <time>2022-07-07T19:48:23Z</time>
      </trkpt>
      <trkpt lat="49.30282" lon="0.02928">
        <ele>120.2</ele>
        <time>2022-07-07T19:48:23Z</time>
      </trkpt>
      <trkpt lat="49.30326" lon="0.03011">
        <ele>118.9</ele>
        <time>2022-07-07T19:48:23Z</time>
      </trkpt>
      <trkpt lat="49.3035" lon="0.03059">
        <ele>117.9</ele>
        <time>2022-07-07T19:48:23Z</time>
      </trkpt>
      <trkpt lat="49.30358" lon="0.03075">
        <ele>117.6</ele>
        <time>2022-07-07T19:48:23Z</time>
      </trkpt>
      <trkpt lat="49.30362" lon="0.03084">
        <ele>117.4</ele>
        <time>2022-07-07T19:48:23Z</time>
      </trkpt>
      <trkpt lat="49.30385" lon="0.03138">
        <ele>114.4</ele>
        <time>2022-07-07T19:48:23Z</time>
      </trkpt>
      <trkpt lat="49.30416" lon="0.03209">
        <ele>110.2</ele>
        <time>2022-07-07T19:48:23Z</time>
      </trkpt>
      <trkpt lat="49.30421" lon="0.03222">
        <ele>109.5</ele>
        <time>2022-07-07T19:48:23Z</time>
      </trkpt>
      <trkpt lat="49.30425" lon="0.03235">
        <ele>108.5</ele>
        <time>2022-07-07T19:48:23Z</time>
      </trkpt>
      <trkpt lat="49.30428" lon="0.03251">
        <ele>107.7</ele>
        <time>2022-07-07T19:48:23Z</time>
      </trkpt>
      <trkpt lat="49.30434" lon="0.03278">
        <ele>105.7</ele>
        <time>2022-07-07T19:48:23Z</time>
      </trkpt>
      <trkpt lat="49.30447" lon="0.0335">
        <ele>99.8</ele>
        <time>2022-07-07T19:48:23Z</time>
      </trkpt>
      <trkpt lat="49.30457" lon="0.03403">
        <ele>95.4</ele>
        <time>2022-07-07T19:48:23Z</time>
      </trkpt>
      <trkpt lat="49.30466" lon="0.03444">
        <ele>92.6</ele>
        <time>2022-07-07T19:48:23Z</time>
      </trkpt>
      <trkpt lat="49.30479" lon="0.03496">
        <ele>89.5</ele>
        <time>2022-07-07T19:48:23Z</time>
      </trkpt>
      <trkpt lat="49.30487" lon="0.03537">
        <ele>86.7</ele>
        <time>2022-07-07T19:48:23Z</time>
      </trkpt>
      <trkpt lat="49.30492" lon="0.03564">
        <ele>85.2</ele>
        <time>2022-07-07T19:48:23Z</time>
      </trkpt>
      <trkpt lat="49.30496" lon="0.03593">
        <ele>83.4</ele>
        <time>2022-07-07T19:48:23Z</time>
      </trkpt>
      <trkpt lat="49.305" lon="0.03624">
        <ele>81.2</ele>
        <time>2022-07-07T19:48:23Z</time>
      </trkpt>
      <trkpt lat="49.30503" lon="0.03654">
        <ele>79.3</ele>
        <time>2022-07-07T19:48:23Z</time>
      </trkpt>
      <trkpt lat="49.30507" lon="0.03675">
        <ele>77.4</ele>
        <time>2022-07-07T19:48:23Z</time>
      </trkpt>
      <trkpt lat="49.30512" lon="0.03694">
        <ele>76.3</ele>
        <time>2022-07-07T19:48:23Z</time>
      </trkpt>
      <trkpt lat="49.30519" lon="0.03717">
        <ele>75.1</ele>
        <time>2022-07-07T19:48:23Z</time>
      </trkpt>
      <trkpt lat="49.30526" lon="0.03738">
        <ele>74.1</ele>
        <time>2022-07-07T19:48:23Z</time>
      </trkpt>
      <trkpt lat="49.30534" lon="0.03768">
        <ele>72.8</ele>
        <time>2022-07-07T19:48:23Z</time>
      </trkpt>
      <trkpt lat="49.30544" lon="0.03808">
        <ele>71</ele>
        <time>2022-07-07T19:48:23Z</time>
      </trkpt>
      <trkpt lat="49.30552" lon="0.03836">
        <ele>70</ele>
        <time>2022-07-07T19:48:23Z</time>
      </trkpt>
      <trkpt lat="49.30563" lon="0.03876">
        <ele>69.1</ele>
        <time>2022-07-07T19:48:23Z</time>
      </trkpt>
      <trkpt lat="49.30573" lon="0.03906">
        <ele>68.7</ele>
        <time>2022-07-07T19:48:23Z</time>
      </trkpt>
      <trkpt lat="49.30579" lon="0.03921">
        <ele>68.2</ele>
        <time>2022-07-07T19:48:23Z</time>
      </trkpt>
      <trkpt lat="49.30583" lon="0.03931">
        <ele>68.1</ele>
        <time>2022-07-07T19:48:23Z</time>
      </trkpt>
      <trkpt lat="49.30594" lon="0.03951">
        <ele>68</ele>
        <time>2022-07-07T19:48:23Z</time>
      </trkpt>
      <trkpt lat="49.30611" lon="0.03977">
        <ele>67.9</ele>
        <time>2022-07-07T19:48:23Z</time>
      </trkpt>
      <trkpt lat="49.30627" lon="0.04">
        <ele>68</ele>
        <time>2022-07-07T19:48:23Z</time>
      </trkpt>
      <trkpt lat="49.30639" lon="0.04016">
        <ele>67.9</ele>
        <time>2022-07-07T19:48:23Z</time>
      </trkpt>
      <trkpt lat="49.30641" lon="0.04022">
        <ele>67.9</ele>
        <time>2022-07-07T19:48:23Z</time>
      </trkpt>
      <trkpt lat="49.30661" lon="0.0407">
        <ele>67.5</ele>
        <time>2022-07-07T19:48:23Z</time>
      </trkpt>
      <trkpt lat="49.30657" lon="0.04075">
        <ele>67.2</ele>
        <time>2022-07-07T19:48:23Z</time>
      </trkpt>
      <trkpt lat="49.30656" lon="0.04083">
        <ele>67.2</ele>
        <time>2022-07-07T19:48:23Z</time>
      </trkpt>
      <trkpt lat="49.30657" lon="0.04091">
        <ele>67</ele>
        <time>2022-07-07T19:48:23Z</time>
      </trkpt>
      <trkpt lat="49.3066" lon="0.04112">
        <ele>66.9</ele>
        <time>2022-07-07T19:48:23Z</time>
      </trkpt>
      <trkpt lat="49.30658" lon="0.04127">
        <ele>66.5</ele>
        <time>2022-07-07T19:48:23Z</time>
      </trkpt>
      <trkpt lat="49.30658" lon="0.04148">
        <ele>66</ele>
        <time>2022-07-07T19:48:23Z</time>
      </trkpt>
      <trkpt lat="49.30657" lon="0.04182">
        <ele>65.5</ele>
        <time>2022-07-07T19:48:23Z</time>
      </trkpt>
      <trkpt lat="49.30657" lon="0.04207">
        <ele>64.7</ele>
        <time>2022-07-07T19:48:23Z</time>
      </trkpt>
      <trkpt lat="49.30656" lon="0.04228">
        <ele>63.2</ele>
        <time>2022-07-07T19:48:23Z</time>
      </trkpt>
      <trkpt lat="49.30652" lon="0.04244">
        <ele>62.7</ele>
        <time>2022-07-07T19:48:23Z</time>
      </trkpt>
      <trkpt lat="49.30641" lon="0.04268">
        <ele>61.3</ele>
        <time>2022-07-07T19:48:23Z</time>
      </trkpt>
      <trkpt lat="49.30611" lon="0.04331">
        <ele>57.6</ele>
        <time>2022-07-07T19:48:23Z</time>
      </trkpt>
      <trkpt lat="49.30584" lon="0.04385">
        <ele>54.9</ele>
        <time>2022-07-07T19:48:23Z</time>
      </trkpt>
      <trkpt lat="49.30558" lon="0.04438">
        <ele>50.1</ele>
        <time>2022-07-07T19:48:23Z</time>
      </trkpt>
      <trkpt lat="49.30538" lon="0.04477">
        <ele>46.9</ele>
        <time>2022-07-07T19:48:23Z</time>
      </trkpt>
      <trkpt lat="49.30525" lon="0.04507">
        <ele>45.5</ele>
        <time>2022-07-07T19:48:23Z</time>
      </trkpt>
      <trkpt lat="49.30521" lon="0.04518">
        <ele>45</ele>
        <time>2022-07-07T19:48:23Z</time>
      </trkpt>
      <trkpt lat="49.30513" lon="0.04541">
        <ele>43.7</ele>
        <time>2022-07-07T19:48:23Z</time>
      </trkpt>
      <trkpt lat="49.30502" lon="0.04577">
        <ele>43.4</ele>
        <time>2022-07-07T19:48:23Z</time>
      </trkpt>
      <trkpt lat="49.30492" lon="0.04605">
        <ele>43.6</ele>
        <time>2022-07-07T19:48:23Z</time>
      </trkpt>
      <trkpt lat="49.30484" lon="0.04627">
        <ele>43.9</ele>
        <time>2022-07-07T19:48:23Z</time>
      </trkpt>
      <trkpt lat="49.3046" lon="0.04682">
        <ele>47.2</ele>
        <time>2022-07-07T19:48:23Z</time>
      </trkpt>
      <trkpt lat="49.30431" lon="0.04745">
        <ele>49.5</ele>
        <time>2022-07-07T19:48:23Z</time>
      </trkpt>
      <trkpt lat="49.30377" lon="0.04858">
        <ele>50.4</ele>
        <time>2022-07-07T19:48:23Z</time>
      </trkpt>
      <trkpt lat="49.30357" lon="0.04904">
        <ele>51.5</ele>
        <time>2022-07-07T19:48:23Z</time>
      </trkpt>
      <trkpt lat="49.30346" lon="0.04931">
        <ele>52.5</ele>
        <time>2022-07-07T19:48:23Z</time>
      </trkpt>
      <trkpt lat="49.30339" lon="0.04952">
        <ele>52.9</ele>
        <time>2022-07-07T19:48:23Z</time>
      </trkpt>
      <trkpt lat="49.30334" lon="0.0497">
        <ele>53.5</ele>
        <time>2022-07-07T19:48:23Z</time>
      </trkpt>
      <trkpt lat="49.30322" lon="0.05015">
        <ele>55.4</ele>
        <time>2022-07-07T19:48:23Z</time>
      </trkpt>
      <trkpt lat="49.30316" lon="0.05061">
        <ele>55</ele>
        <time>2022-07-07T19:48:23Z</time>
      </trkpt>
      <trkpt lat="49.30316" lon="0.05072">
        <ele>54.8</ele>
        <time>2022-07-07T19:48:23Z</time>
      </trkpt>
      <trkpt lat="49.30315" lon="0.05107">
        <ele>54</ele>
        <time>2022-07-07T19:48:23Z</time>
      </trkpt>
      <trkpt lat="49.30316" lon="0.05139">
        <ele>53.4</ele>
        <time>2022-07-07T19:48:23Z</time>
      </trkpt>
      <trkpt lat="49.30316" lon="0.05155">
        <ele>53.1</ele>
        <time>2022-07-07T19:48:23Z</time>
      </trkpt>
      <trkpt lat="49.30317" lon="0.05204">
        <ele>52</ele>
        <time>2022-07-07T19:48:23Z</time>
      </trkpt>
      <trkpt lat="49.30316" lon="0.05253">
        <ele>50.2</ele>
        <time>2022-07-07T19:48:23Z</time>
      </trkpt>
      <trkpt lat="49.30313" lon="0.05278">
        <ele>50</ele>
        <time>2022-07-07T19:48:23Z</time>
      </trkpt>
      <trkpt lat="49.30309" lon="0.05305">
        <ele>49.5</ele>
        <time>2022-07-07T19:48:23Z</time>
      </trkpt>
      <trkpt lat="49.30299" lon="0.05384">
        <ele>47.3</ele>
        <time>2022-07-07T19:48:23Z</time>
      </trkpt>
      <trkpt lat="49.30295" lon="0.05413">
        <ele>45.7</ele>
        <time>2022-07-07T19:48:23Z</time>
      </trkpt>
      <trkpt lat="49.30293" lon="0.05423">
        <ele>45.6</ele>
        <time>2022-07-07T19:48:23Z</time>
      </trkpt>
      <trkpt lat="49.30281" lon="0.05483">
        <ele>45.1</ele>
        <time>2022-07-07T19:48:23Z</time>
      </trkpt>
      <trkpt lat="49.30277" lon="0.05498">
        <ele>44.9</ele>
        <time>2022-07-07T19:48:23Z</time>
      </trkpt>
      <trkpt lat="49.30275" lon="0.05504">
        <ele>44.8</ele>
        <time>2022-07-07T19:48:23Z</time>
      </trkpt>
      <trkpt lat="49.30273" lon="0.05512">
        <ele>44.8</ele>
        <time>2022-07-07T19:48:23Z</time>
      </trkpt>
      <trkpt lat="49.30269" lon="0.05526">
        <ele>44.8</ele>
        <time>2022-07-07T19:48:23Z</time>
      </trkpt>
      <trkpt lat="49.30251" lon="0.05576">
        <ele>46.5</ele>
        <time>2022-07-07T19:48:23Z</time>
      </trkpt>
      <trkpt lat="49.30241" lon="0.05604">
        <ele>48.9</ele>
        <time>2022-07-07T19:48:23Z</time>
      </trkpt>
      <trkpt lat="49.30221" lon="0.05662">
        <ele>53.8</ele>
        <time>2022-07-07T19:48:23Z</time>
      </trkpt>
      <trkpt lat="49.30198" lon="0.05724">
        <ele>57.5</ele>
        <time>2022-07-07T19:48:23Z</time>
      </trkpt>
      <trkpt lat="49.30169" lon="0.05782">
        <ele>59</ele>
        <time>2022-07-07T19:48:23Z</time>
      </trkpt>
      <trkpt lat="49.30147" lon="0.0582">
        <ele>59.7</ele>
        <time>2022-07-07T19:48:23Z</time>
      </trkpt>
      <trkpt lat="49.30143" lon="0.05825">
        <ele>59.9</ele>
        <time>2022-07-07T19:48:23Z</time>
      </trkpt>
      <trkpt lat="49.30129" lon="0.05848">
        <ele>60.1</ele>
        <time>2022-07-07T19:48:23Z</time>
      </trkpt>
      <trkpt lat="49.30121" lon="0.05861">
        <ele>60.3</ele>
        <time>2022-07-07T19:48:23Z</time>
      </trkpt>
      <trkpt lat="49.30092" lon="0.05903">
        <ele>61.2</ele>
        <time>2022-07-07T19:48:23Z</time>
      </trkpt>
      <trkpt lat="49.30065" lon="0.05944">
        <ele>61.9</ele>
        <time>2022-07-07T19:48:23Z</time>
      </trkpt>
      <trkpt lat="49.30055" lon="0.05959">
        <ele>62.1</ele>
        <time>2022-07-07T19:48:23Z</time>
      </trkpt>
      <trkpt lat="49.30023" lon="0.06016">
        <ele>62.3</ele>
        <time>2022-07-07T19:48:23Z</time>
      </trkpt>
      <trkpt lat="49.30007" lon="0.0605">
        <ele>62.1</ele>
        <time>2022-07-07T19:48:23Z</time>
      </trkpt>
      <trkpt lat="49.29986" lon="0.06117">
        <ele>62.6</ele>
        <time>2022-07-07T19:48:23Z</time>
      </trkpt>
      <trkpt lat="49.29965" lon="0.06188">
        <ele>62.7</ele>
        <time>2022-07-07T19:48:23Z</time>
      </trkpt>
      <trkpt lat="49.29953" lon="0.06227">
        <ele>62.6</ele>
        <time>2022-07-07T19:48:23Z</time>
      </trkpt>
      <trkpt lat="49.29948" lon="0.0624">
        <ele>62.6</ele>
        <time>2022-07-07T19:48:23Z</time>
      </trkpt>
      <trkpt lat="49.2994" lon="0.0626">
        <ele>62.6</ele>
        <time>2022-07-07T19:48:23Z</time>
      </trkpt>
      <trkpt lat="49.29917" lon="0.06313">
        <ele>61.2</ele>
        <time>2022-07-07T19:48:23Z</time>
      </trkpt>
      <trkpt lat="49.29894" lon="0.06361">
        <ele>60.4</ele>
        <time>2022-07-07T19:48:23Z</time>
      </trkpt>
      <trkpt lat="49.29867" lon="0.06419">
        <ele>58</ele>
        <time>2022-07-07T19:48:23Z</time>
      </trkpt>
      <trkpt lat="49.29853" lon="0.06448">
        <ele>56.8</ele>
        <time>2022-07-07T19:48:23Z</time>
      </trkpt>
      <trkpt lat="49.29835" lon="0.06484">
        <ele>57.4</ele>
        <time>2022-07-07T19:48:23Z</time>
      </trkpt>
      <trkpt lat="49.29808" lon="0.06537">
        <ele>59.6</ele>
        <time>2022-07-07T19:48:23Z</time>
      </trkpt>
      <trkpt lat="49.29782" lon="0.06592">
        <ele>61.9</ele>
        <time>2022-07-07T19:48:23Z</time>
      </trkpt>
      <trkpt lat="49.2977" lon="0.06618">
        <ele>62.9</ele>
        <time>2022-07-07T19:48:23Z</time>
      </trkpt>
      <trkpt lat="49.29732" lon="0.06695">
        <ele>66.4</ele>
        <time>2022-07-07T19:48:23Z</time>
      </trkpt>
      <trkpt lat="49.29696" lon="0.06768">
        <ele>69.3</ele>
        <time>2022-07-07T19:48:23Z</time>
      </trkpt>
      <trkpt lat="49.29643" lon="0.06862">
        <ele>71.1</ele>
        <time>2022-07-07T19:48:23Z</time>
      </trkpt>
      <trkpt lat="49.29592" lon="0.06951">
        <ele>71.8</ele>
        <time>2022-07-07T19:48:23Z</time>
      </trkpt>
      <trkpt lat="49.2955" lon="0.0702">
        <ele>71.5</ele>
        <time>2022-07-07T19:48:23Z</time>
      </trkpt>
      <trkpt lat="49.29544" lon="0.0703">
        <ele>71.5</ele>
        <time>2022-07-07T19:48:23Z</time>
      </trkpt>
      <trkpt lat="49.29503" lon="0.07091">
        <ele>71.4</ele>
        <time>2022-07-07T19:48:23Z</time>
      </trkpt>
      <trkpt lat="49.29438" lon="0.07188">
        <ele>70.9</ele>
        <time>2022-07-07T19:48:23Z</time>
      </trkpt>
      <trkpt lat="49.29351" lon="0.07323">
        <ele>68.4</ele>
        <time>2022-07-07T19:48:23Z</time>
      </trkpt>
      <trkpt lat="49.29293" lon="0.07408">
        <ele>67.3</ele>
        <time>2022-07-07T19:48:23Z</time>
      </trkpt>
      <trkpt lat="49.29287" lon="0.07416">
        <ele>67.3</ele>
        <time>2022-07-07T19:48:23Z</time>
      </trkpt>
      <trkpt lat="49.29225" lon="0.07505">
        <ele>66.7</ele>
        <time>2022-07-07T19:48:23Z</time>
      </trkpt>
      <trkpt lat="49.29123" lon="0.07653">
        <ele>62.8</ele>
        <time>2022-07-07T19:48:23Z</time>
      </trkpt>
      <trkpt lat="49.29102" lon="0.07695">
        <ele>61.1</ele>
        <time>2022-07-07T19:48:23Z</time>
      </trkpt>
      <trkpt lat="49.29099" lon="0.07701">
        <ele>60.9</ele>
        <time>2022-07-07T19:48:23Z</time>
      </trkpt>
      <trkpt lat="49.29092" lon="0.07718">
        <ele>60.3</ele>
        <time>2022-07-07T19:48:23Z</time>
      </trkpt>
      <trkpt lat="49.29074" lon="0.07753">
        <ele>58.4</ele>
        <time>2022-07-07T19:48:23Z</time>
      </trkpt>
      <trkpt lat="49.29065" lon="0.0777">
        <ele>57.9</ele>
        <time>2022-07-07T19:48:23Z</time>
      </trkpt>
      <trkpt lat="49.29051" lon="0.07788">
        <ele>56.5</ele>
        <time>2022-07-07T19:48:23Z</time>
      </trkpt>
      <trkpt lat="49.29034" lon="0.0781">
        <ele>55.1</ele>
        <time>2022-07-07T19:48:23Z</time>
      </trkpt>
      <trkpt lat="49.29002" lon="0.07846">
        <ele>52.3</ele>
        <time>2022-07-07T19:48:23Z</time>
      </trkpt>
      <trkpt lat="49.28979" lon="0.07869">
        <ele>50.5</ele>
        <time>2022-07-07T19:48:23Z</time>
      </trkpt>
      <trkpt lat="49.28963" lon="0.07888">
        <ele>48.9</ele>
        <time>2022-07-07T19:48:23Z</time>
      </trkpt>
      <trkpt lat="49.28933" lon="0.07921">
        <ele>47.2</ele>
        <time>2022-07-07T19:48:23Z</time>
      </trkpt>
      <trkpt lat="49.28889" lon="0.07971">
        <ele>43.9</ele>
        <time>2022-07-07T19:48:23Z</time>
      </trkpt>
      <trkpt lat="49.28846" lon="0.08016">
        <ele>41.5</ele>
        <time>2022-07-07T19:48:23Z</time>
      </trkpt>
      <trkpt lat="49.28827" lon="0.08036">
        <ele>40.6</ele>
        <time>2022-07-07T19:48:23Z</time>
      </trkpt>
      <trkpt lat="49.2881" lon="0.08056">
        <ele>40</ele>
        <time>2022-07-07T19:48:23Z</time>
      </trkpt>
      <trkpt lat="49.28801" lon="0.0807">
        <ele>39.8</ele>
        <time>2022-07-07T19:48:23Z</time>
      </trkpt>
      <trkpt lat="49.2879" lon="0.08088">
        <ele>39.8</ele>
        <time>2022-07-07T19:48:23Z</time>
      </trkpt>
      <trkpt lat="49.28778" lon="0.0811">
        <ele>39.9</ele>
        <time>2022-07-07T19:48:23Z</time>
      </trkpt>
      <trkpt lat="49.28766" lon="0.08133">
        <ele>40.7</ele>
        <time>2022-07-07T19:48:23Z</time>
      </trkpt>
      <trkpt lat="49.28759" lon="0.08149">
        <ele>41.2</ele>
        <time>2022-07-07T19:48:23Z</time>
      </trkpt>
      <trkpt lat="49.28752" lon="0.08163">
        <ele>41.7</ele>
        <time>2022-07-07T19:48:23Z</time>
      </trkpt>
      <trkpt lat="49.28741" lon="0.08194">
        <ele>43.1</ele>
        <time>2022-07-07T19:48:23Z</time>
      </trkpt>
      <trkpt lat="49.28731" lon="0.08225">
        <ele>44.5</ele>
        <time>2022-07-07T19:48:23Z</time>
      </trkpt>
      <trkpt lat="49.28724" lon="0.08255">
        <ele>46.2</ele>
        <time>2022-07-07T19:48:23Z</time>
      </trkpt>
      <trkpt lat="49.28718" lon="0.08282">
        <ele>48.1</ele>
        <time>2022-07-07T19:48:23Z</time>
      </trkpt>
      <trkpt lat="49.28713" lon="0.08306">
        <ele>49.4</ele>
        <time>2022-07-07T19:48:23Z</time>
      </trkpt>
      <trkpt lat="49.28709" lon="0.08321">
        <ele>49.9</ele>
        <time>2022-07-07T19:48:23Z</time>
      </trkpt>
      <trkpt lat="49.28705" lon="0.08334">
        <ele>50.3</ele>
        <time>2022-07-07T19:48:23Z</time>
      </trkpt>
      <trkpt lat="49.287" lon="0.08344">
        <ele>50.7</ele>
        <time>2022-07-07T19:48:23Z</time>
      </trkpt>
      <trkpt lat="49.28695" lon="0.08353">
        <ele>51.1</ele>
        <time>2022-07-07T19:48:23Z</time>
      </trkpt>
      <trkpt lat="49.2868" lon="0.08374">
        <ele>52.2</ele>
        <time>2022-07-07T19:48:23Z</time>
      </trkpt>
      <trkpt lat="49.28662" lon="0.08401">
        <ele>55</ele>
        <time>2022-07-07T19:48:23Z</time>
      </trkpt>
      <trkpt lat="49.28659" lon="0.08406">
        <ele>55.3</ele>
        <time>2022-07-07T19:48:23Z</time>
      </trkpt>
      <trkpt lat="49.28638" lon="0.08445">
        <ele>55.9</ele>
        <time>2022-07-07T19:48:23Z</time>
      </trkpt>
      <trkpt lat="49.28619" lon="0.08476">
        <ele>55.9</ele>
        <time>2022-07-07T19:48:23Z</time>
      </trkpt>
      <trkpt lat="49.28608" lon="0.08494">
        <ele>56</ele>
        <time>2022-07-07T19:48:23Z</time>
      </trkpt>
      <trkpt lat="49.28588" lon="0.08518">
        <ele>55.8</ele>
        <time>2022-07-07T19:48:23Z</time>
      </trkpt>
      <trkpt lat="49.28556" lon="0.08557">
        <ele>55.3</ele>
        <time>2022-07-07T19:48:23Z</time>
      </trkpt>
      <trkpt lat="49.28539" lon="0.08579">
        <ele>54.8</ele>
        <time>2022-07-07T19:48:23Z</time>
      </trkpt>
      <trkpt lat="49.28519" lon="0.08611">
        <ele>54.2</ele>
        <time>2022-07-07T19:48:23Z</time>
      </trkpt>
      <trkpt lat="49.28491" lon="0.08655">
        <ele>53.9</ele>
        <time>2022-07-07T19:48:23Z</time>
      </trkpt>
      <trkpt lat="49.28476" lon="0.08675">
        <ele>53.6</ele>
        <time>2022-07-07T19:48:23Z</time>
      </trkpt>
      <trkpt lat="49.28453" lon="0.08702">
        <ele>53.5</ele>
        <time>2022-07-07T19:48:23Z</time>
      </trkpt>
      <trkpt lat="49.28428" lon="0.08733">
        <ele>53.6</ele>
        <time>2022-07-07T19:48:23Z</time>
      </trkpt>
      <trkpt lat="49.28417" lon="0.08747">
        <ele>53.6</ele>
        <time>2022-07-07T19:48:23Z</time>
      </trkpt>
      <trkpt lat="49.28408" lon="0.08759">
        <ele>53.7</ele>
        <time>2022-07-07T19:48:23Z</time>
      </trkpt>
      <trkpt lat="49.28388" lon="0.08784">
        <ele>54.9</ele>
        <time>2022-07-07T19:48:23Z</time>
      </trkpt>
      <trkpt lat="49.2836" lon="0.08835">
        <ele>56.2</ele>
        <time>2022-07-07T19:48:23Z</time>
      </trkpt>
      <trkpt lat="49.28346" lon="0.08863">
        <ele>57.2</ele>
        <time>2022-07-07T19:48:23Z</time>
      </trkpt>
      <trkpt lat="49.28322" lon="0.08921">
        <ele>58.3</ele>
        <time>2022-07-07T19:48:23Z</time>
      </trkpt>
      <trkpt lat="49.28305" lon="0.08962">
        <ele>59.5</ele>
        <time>2022-07-07T19:48:23Z</time>
      </trkpt>
      <trkpt lat="49.28299" lon="0.08975">
        <ele>60.2</ele>
        <time>2022-07-07T19:48:23Z</time>
      </trkpt>
      <trkpt lat="49.28292" lon="0.08986">
        <ele>60.6</ele>
        <time>2022-07-07T19:48:23Z</time>
      </trkpt>
      <trkpt lat="49.28285" lon="0.08995">
        <ele>61.5</ele>
        <time>2022-07-07T19:48:23Z</time>
      </trkpt>
      <trkpt lat="49.28277" lon="0.09003">
        <ele>62.4</ele>
        <time>2022-07-07T19:48:23Z</time>
      </trkpt>
      <trkpt lat="49.28265" lon="0.09011">
        <ele>63.5</ele>
        <time>2022-07-07T19:48:23Z</time>
      </trkpt>
      <trkpt lat="49.28246" lon="0.0902">
        <ele>65.3</ele>
        <time>2022-07-07T19:48:23Z</time>
      </trkpt>
      <trkpt lat="49.28219" lon="0.09032">
        <ele>68.4</ele>
        <time>2022-07-07T19:48:23Z</time>
      </trkpt>
      <trkpt lat="49.28198" lon="0.09039">
        <ele>70.9</ele>
        <time>2022-07-07T19:48:23Z</time>
      </trkpt>
      <trkpt lat="49.2819" lon="0.09042">
        <ele>72.1</ele>
        <time>2022-07-07T19:48:23Z</time>
      </trkpt>
      <trkpt lat="49.28183" lon="0.09046">
        <ele>73.1</ele>
        <time>2022-07-07T19:48:23Z</time>
      </trkpt>
      <trkpt lat="49.28178" lon="0.09051">
        <ele>73.4</ele>
        <time>2022-07-07T19:48:23Z</time>
      </trkpt>
      <trkpt lat="49.28173" lon="0.09057">
        <ele>73.8</ele>
        <time>2022-07-07T19:48:23Z</time>
      </trkpt>
      <trkpt lat="49.28167" lon="0.09071">
        <ele>74</ele>
        <time>2022-07-07T19:48:23Z</time>
      </trkpt>
      <trkpt lat="49.28163" lon="0.09093">
        <ele>74.2</ele>
        <time>2022-07-07T19:48:23Z</time>
      </trkpt>
      <trkpt lat="49.2816" lon="0.09114">
        <ele>74.2</ele>
        <time>2022-07-07T19:48:23Z</time>
      </trkpt>
      <trkpt lat="49.28157" lon="0.0913">
        <ele>74.1</ele>
        <time>2022-07-07T19:48:23Z</time>
      </trkpt>
      <trkpt lat="49.28152" lon="0.09142">
        <ele>74.1</ele>
        <time>2022-07-07T19:48:23Z</time>
      </trkpt>
      <trkpt lat="49.28142" lon="0.09171">
        <ele>74.2</ele>
        <time>2022-07-07T19:48:23Z</time>
      </trkpt>
      <trkpt lat="49.28137" lon="0.09189">
        <ele>74.5</ele>
        <time>2022-07-07T19:48:23Z</time>
      </trkpt>
      <trkpt lat="49.28132" lon="0.09208">
        <ele>75</ele>
        <time>2022-07-07T19:48:23Z</time>
      </trkpt>
      <trkpt lat="49.28129" lon="0.0923">
        <ele>74.7</ele>
        <time>2022-07-07T19:48:23Z</time>
      </trkpt>
      <trkpt lat="49.28127" lon="0.09254">
        <ele>75.1</ele>
        <time>2022-07-07T19:48:23Z</time>
      </trkpt>
      <trkpt lat="49.28123" lon="0.09293">
        <ele>75.1</ele>
        <time>2022-07-07T19:48:23Z</time>
      </trkpt>
      <trkpt lat="49.2812" lon="0.0932">
        <ele>74.6</ele>
        <time>2022-07-07T19:48:23Z</time>
      </trkpt>
      <trkpt lat="49.28115" lon="0.09347">
        <ele>74.6</ele>
        <time>2022-07-07T19:48:23Z</time>
      </trkpt>
      <trkpt lat="49.28111" lon="0.09378">
        <ele>74.6</ele>
        <time>2022-07-07T19:48:23Z</time>
      </trkpt>
      <trkpt lat="49.28106" lon="0.09411">
        <ele>74.8</ele>
        <time>2022-07-07T19:48:23Z</time>
      </trkpt>
      <trkpt lat="49.28096" lon="0.0946">
        <ele>74.1</ele>
        <time>2022-07-07T19:48:23Z</time>
      </trkpt>
      <trkpt lat="49.2809" lon="0.09509">
        <ele>72.3</ele>
        <time>2022-07-07T19:48:23Z</time>
      </trkpt>
      <trkpt lat="49.28084" lon="0.09548">
        <ele>72.2</ele>
        <time>2022-07-07T19:48:23Z</time>
      </trkpt>
      <trkpt lat="49.28081" lon="0.09586">
        <ele>70.8</ele>
        <time>2022-07-07T19:48:23Z</time>
      </trkpt>
      <trkpt lat="49.28077" lon="0.09616">
        <ele>70.4</ele>
        <time>2022-07-07T19:48:23Z</time>
      </trkpt>
      <trkpt lat="49.28073" lon="0.09642">
        <ele>70.3</ele>
        <time>2022-07-07T19:48:23Z</time>
      </trkpt>
      <trkpt lat="49.28072" lon="0.09653">
        <ele>69.9</ele>
        <time>2022-07-07T19:48:23Z</time>
      </trkpt>
      <trkpt lat="49.28065" lon="0.09703">
        <ele>69.5</ele>
        <time>2022-07-07T19:48:23Z</time>
      </trkpt>
      <trkpt lat="49.2806" lon="0.09743">
        <ele>69.6</ele>
        <time>2022-07-07T19:48:23Z</time>
      </trkpt>
      <trkpt lat="49.28054" lon="0.09777">
        <ele>70.3</ele>
        <time>2022-07-07T19:48:23Z</time>
      </trkpt>
      <trkpt lat="49.28045" lon="0.09821">
        <ele>70.1</ele>
        <time>2022-07-07T19:48:23Z</time>
      </trkpt>
      <trkpt lat="49.28035" lon="0.09859">
        <ele>69.2</ele>
        <time>2022-07-07T19:48:23Z</time>
      </trkpt>
      <trkpt lat="49.28025" lon="0.09896">
        <ele>68.3</ele>
        <time>2022-07-07T19:48:23Z</time>
      </trkpt>
      <trkpt lat="49.28014" lon="0.09948">
        <ele>66.7</ele>
        <time>2022-07-07T19:48:23Z</time>
      </trkpt>
      <trkpt lat="49.28005" lon="0.09993">
        <ele>66.3</ele>
        <time>2022-07-07T19:48:23Z</time>
      </trkpt>
      <trkpt lat="49.28" lon="0.10029">
        <ele>66</ele>
        <time>2022-07-07T19:48:23Z</time>
      </trkpt>
      <trkpt lat="49.27999" lon="0.10042">
        <ele>66.2</ele>
        <time>2022-07-07T19:48:23Z</time>
      </trkpt>
      <trkpt lat="49.27998" lon="0.10055">
        <ele>65.7</ele>
        <time>2022-07-07T19:48:23Z</time>
      </trkpt>
      <trkpt lat="49.27999" lon="0.10071">
        <ele>64.9</ele>
        <time>2022-07-07T19:48:23Z</time>
      </trkpt>
      <trkpt lat="49.28002" lon="0.10084">
        <ele>64</ele>
        <time>2022-07-07T19:48:23Z</time>
      </trkpt>
      <trkpt lat="49.28005" lon="0.10092">
        <ele>63.6</ele>
        <time>2022-07-07T19:48:23Z</time>
      </trkpt>
      <trkpt lat="49.2801" lon="0.101">
        <ele>63.3</ele>
        <time>2022-07-07T19:48:23Z</time>
      </trkpt>
      <trkpt lat="49.28015" lon="0.10107">
        <ele>62.9</ele>
        <time>2022-07-07T19:48:23Z</time>
      </trkpt>
      <trkpt lat="49.28021" lon="0.10117">
        <ele>62.1</ele>
        <time>2022-07-07T19:48:23Z</time>
      </trkpt>
      <trkpt lat="49.28026" lon="0.10123">
        <ele>61.5</ele>
        <time>2022-07-07T19:48:23Z</time>
      </trkpt>
      <trkpt lat="49.28029" lon="0.10129">
        <ele>61.1</ele>
        <time>2022-07-07T19:48:23Z</time>
      </trkpt>
      <trkpt lat="49.28031" lon="0.10136">
        <ele>60.7</ele>
        <time>2022-07-07T19:48:23Z</time>
      </trkpt>
      <trkpt lat="49.28033" lon="0.10143">
        <ele>60.4</ele>
        <time>2022-07-07T19:48:23Z</time>
      </trkpt>
      <trkpt lat="49.28033" lon="0.10152">
        <ele>60.3</ele>
        <time>2022-07-07T19:48:23Z</time>
      </trkpt>
      <trkpt lat="49.28033" lon="0.10161">
        <ele>60.1</ele>
        <time>2022-07-07T19:48:23Z</time>
      </trkpt>
      <trkpt lat="49.28032" lon="0.1017">
        <ele>59.9</ele>
        <time>2022-07-07T19:48:23Z</time>
      </trkpt>
      <trkpt lat="49.2803" lon="0.10179">
        <ele>59.6</ele>
        <time>2022-07-07T19:48:23Z</time>
      </trkpt>
      <trkpt lat="49.28027" lon="0.10186">
        <ele>59.5</ele>
        <time>2022-07-07T19:48:23Z</time>
      </trkpt>
      <trkpt lat="49.28024" lon="0.10192">
        <ele>59.5</ele>
        <time>2022-07-07T19:48:23Z</time>
      </trkpt>
      <trkpt lat="49.2802" lon="0.10198">
        <ele>59.1</ele>
        <time>2022-07-07T19:48:23Z</time>
      </trkpt>
      <trkpt lat="49.28014" lon="0.10205">
        <ele>59</ele>
        <time>2022-07-07T19:48:23Z</time>
      </trkpt>
      <trkpt lat="49.28007" lon="0.10211">
        <ele>58.9</ele>
        <time>2022-07-07T19:48:23Z</time>
      </trkpt>
      <trkpt lat="49.27997" lon="0.10218">
        <ele>59.1</ele>
        <time>2022-07-07T19:48:23Z</time>
      </trkpt>
      <trkpt lat="49.27989" lon="0.10222">
        <ele>59.1</ele>
        <time>2022-07-07T19:48:23Z</time>
      </trkpt>
      <trkpt lat="49.27975" lon="0.10229">
        <ele>58.2</ele>
        <time>2022-07-07T19:48:23Z</time>
      </trkpt>
      <trkpt lat="49.27949" lon="0.10242">
        <ele>58.2</ele>
        <time>2022-07-07T19:48:23Z</time>
      </trkpt>
      <trkpt lat="49.2794" lon="0.10246">
        <ele>58</ele>
        <time>2022-07-07T19:48:23Z</time>
      </trkpt>
      <trkpt lat="49.27911" lon="0.10261">
        <ele>57.8</ele>
        <time>2022-07-07T19:48:23Z</time>
      </trkpt>
      <trkpt lat="49.279" lon="0.10267">
        <ele>57.6</ele>
        <time>2022-07-07T19:48:23Z</time>
      </trkpt>
      <trkpt lat="49.27892" lon="0.10273">
        <ele>57.6</ele>
        <time>2022-07-07T19:48:23Z</time>
      </trkpt>
      <trkpt lat="49.27887" lon="0.1028">
        <ele>57.6</ele>
        <time>2022-07-07T19:48:23Z</time>
      </trkpt>
      <trkpt lat="49.27878" lon="0.10296">
        <ele>57</ele>
        <time>2022-07-07T19:48:23Z</time>
      </trkpt>
      <trkpt lat="49.2787" lon="0.10315">
        <ele>56.2</ele>
        <time>2022-07-07T19:48:23Z</time>
      </trkpt>
      <trkpt lat="49.27859" lon="0.10346">
        <ele>55.4</ele>
        <time>2022-07-07T19:48:23Z</time>
      </trkpt>
      <trkpt lat="49.27848" lon="0.10381">
        <ele>55.4</ele>
        <time>2022-07-07T19:48:23Z</time>
      </trkpt>
      <trkpt lat="49.27846" lon="0.10387">
        <ele>55.5</ele>
        <time>2022-07-07T19:48:23Z</time>
      </trkpt>
      <trkpt lat="49.27842" lon="0.10395">
        <ele>56.1</ele>
        <time>2022-07-07T19:48:23Z</time>
      </trkpt>
      <trkpt lat="49.27838" lon="0.10403">
        <ele>56.6</ele>
        <time>2022-07-07T19:48:23Z</time>
      </trkpt>
      <trkpt lat="49.27832" lon="0.10419">
        <ele>56.4</ele>
        <time>2022-07-07T19:48:23Z</time>
      </trkpt>
      <trkpt lat="49.27816" lon="0.10458">
        <ele>59.4</ele>
        <time>2022-07-07T19:48:23Z</time>
      </trkpt>
      <trkpt lat="49.27807" lon="0.10478">
        <ele>61.7</ele>
        <time>2022-07-07T19:48:23Z</time>
      </trkpt>
      <trkpt lat="49.27797" lon="0.10501">
        <ele>63.2</ele>
        <time>2022-07-07T19:48:23Z</time>
      </trkpt>
      <trkpt lat="49.27782" lon="0.10537">
        <ele>66.8</ele>
        <time>2022-07-07T19:48:23Z</time>
      </trkpt>
      <trkpt lat="49.27776" lon="0.10551">
        <ele>67.4</ele>
        <time>2022-07-07T19:48:23Z</time>
      </trkpt>
      <trkpt lat="49.27772" lon="0.10565">
        <ele>67.9</ele>
        <time>2022-07-07T19:48:23Z</time>
      </trkpt>
      <trkpt lat="49.27772" lon="0.10575">
        <ele>68.3</ele>
        <time>2022-07-07T19:48:23Z</time>
      </trkpt>
      <trkpt lat="49.27772" lon="0.10585">
        <ele>68.8</ele>
        <time>2022-07-07T19:48:23Z</time>
      </trkpt>
      <trkpt lat="49.27772" lon="0.10594">
        <ele>69.5</ele>
        <time>2022-07-07T19:48:23Z</time>
      </trkpt>
      <trkpt lat="49.27774" lon="0.10606">
        <ele>70.5</ele>
        <time>2022-07-07T19:48:23Z</time>
      </trkpt>
      <trkpt lat="49.27775" lon="0.10614">
        <ele>71.2</ele>
        <time>2022-07-07T19:48:23Z</time>
      </trkpt>
      <trkpt lat="49.27778" lon="0.10622">
        <ele>71.6</ele>
        <time>2022-07-07T19:48:23Z</time>
      </trkpt>
      <trkpt lat="49.27784" lon="0.10638">
        <ele>72.3</ele>
        <time>2022-07-07T19:48:23Z</time>
      </trkpt>
      <trkpt lat="49.27788" lon="0.10647">
        <ele>72.8</ele>
        <time>2022-07-07T19:48:23Z</time>
      </trkpt>
      <trkpt lat="49.27791" lon="0.10654">
        <ele>73.5</ele>
        <time>2022-07-07T19:48:23Z</time>
      </trkpt>
      <trkpt lat="49.27794" lon="0.10661">
        <ele>74.2</ele>
        <time>2022-07-07T19:48:23Z</time>
      </trkpt>
      <trkpt lat="49.27801" lon="0.10676">
        <ele>75</ele>
        <time>2022-07-07T19:48:23Z</time>
      </trkpt>
      <trkpt lat="49.27807" lon="0.10689">
        <ele>75.1</ele>
        <time>2022-07-07T19:48:23Z</time>
      </trkpt>
      <trkpt lat="49.27814" lon="0.10706">
        <ele>76.1</ele>
        <time>2022-07-07T19:48:23Z</time>
      </trkpt>
      <trkpt lat="49.27818" lon="0.10716">
        <ele>76.9</ele>
        <time>2022-07-07T19:48:23Z</time>
      </trkpt>
      <trkpt lat="49.27821" lon="0.10726">
        <ele>77.4</ele>
        <time>2022-07-07T19:48:23Z</time>
      </trkpt>
      <trkpt lat="49.27825" lon="0.10742">
        <ele>78.2</ele>
        <time>2022-07-07T19:48:23Z</time>
      </trkpt>
      <trkpt lat="49.27834" lon="0.10781">
        <ele>81.5</ele>
        <time>2022-07-07T19:48:23Z</time>
      </trkpt>
      <trkpt lat="49.27842" lon="0.10815">
        <ele>84.1</ele>
        <time>2022-07-07T19:48:23Z</time>
      </trkpt>
      <trkpt lat="49.27853" lon="0.10862">
        <ele>86.4</ele>
        <time>2022-07-07T19:48:23Z</time>
      </trkpt>
      <trkpt lat="49.27857" lon="0.10877">
        <ele>86.9</ele>
        <time>2022-07-07T19:48:23Z</time>
      </trkpt>
      <trkpt lat="49.2786" lon="0.10897">
        <ele>87.8</ele>
        <time>2022-07-07T19:48:23Z</time>
      </trkpt>
      <trkpt lat="49.27861" lon="0.10906">
        <ele>88.1</ele>
        <time>2022-07-07T19:48:23Z</time>
      </trkpt>
      <trkpt lat="49.27861" lon="0.10919">
        <ele>88.4</ele>
        <time>2022-07-07T19:48:23Z</time>
      </trkpt>
      <trkpt lat="49.27861" lon="0.10927">
        <ele>88.5</ele>
        <time>2022-07-07T19:48:23Z</time>
      </trkpt>
      <trkpt lat="49.27859" lon="0.10941">
        <ele>88.6</ele>
        <time>2022-07-07T19:48:23Z</time>
      </trkpt>
      <trkpt lat="49.27857" lon="0.1095">
        <ele>88.6</ele>
        <time>2022-07-07T19:48:23Z</time>
      </trkpt>
      <trkpt lat="49.27855" lon="0.10959">
        <ele>88.6</ele>
        <time>2022-07-07T19:48:23Z</time>
      </trkpt>
      <trkpt lat="49.27851" lon="0.1097">
        <ele>88.7</ele>
        <time>2022-07-07T19:48:23Z</time>
      </trkpt>
      <trkpt lat="49.27841" lon="0.11005">
        <ele>89.3</ele>
        <time>2022-07-07T19:48:23Z</time>
      </trkpt>
      <trkpt lat="49.27831" lon="0.11042">
        <ele>89.4</ele>
        <time>2022-07-07T19:48:23Z</time>
      </trkpt>
      <trkpt lat="49.27828" lon="0.11057">
        <ele>89.5</ele>
        <time>2022-07-07T19:48:23Z</time>
      </trkpt>
      <trkpt lat="49.27823" lon="0.11081">
        <ele>88.6</ele>
        <time>2022-07-07T19:48:23Z</time>
      </trkpt>
      <trkpt lat="49.2782" lon="0.11107">
        <ele>87.5</ele>
        <time>2022-07-07T19:48:23Z</time>
      </trkpt>
      <trkpt lat="49.27817" lon="0.11127">
        <ele>86.1</ele>
        <time>2022-07-07T19:48:23Z</time>
      </trkpt>
      <trkpt lat="49.27806" lon="0.11129">
        <ele>85</ele>
        <time>2022-07-07T19:48:23Z</time>
      </trkpt>
      <trkpt lat="49.27799" lon="0.1113">
        <ele>84.2</ele>
        <time>2022-07-07T19:48:23Z</time>
      </trkpt>
      <trkpt lat="49.2779" lon="0.11129">
        <ele>83.4</ele>
        <time>2022-07-07T19:48:23Z</time>
      </trkpt>
      <trkpt lat="49.27779" lon="0.11129">
        <ele>82.1</ele>
        <time>2022-07-07T19:48:23Z</time>
      </trkpt>
      <trkpt lat="49.27768" lon="0.11128">
        <ele>81.1</ele>
        <time>2022-07-07T19:48:23Z</time>
      </trkpt>
      <trkpt lat="49.27752" lon="0.11127">
        <ele>79.3</ele>
        <time>2022-07-07T19:48:23Z</time>
      </trkpt>
      <trkpt lat="49.27735" lon="0.11126">
        <ele>77.4</ele>
        <time>2022-07-07T19:48:23Z</time>
      </trkpt>
      <trkpt lat="49.27723" lon="0.11125">
        <ele>76.7</ele>
        <time>2022-07-07T19:48:23Z</time>
      </trkpt>
      <trkpt lat="49.27713" lon="0.11126">
        <ele>76.6</ele>
        <time>2022-07-07T19:48:23Z</time>
      </trkpt>
      <trkpt lat="49.27693" lon="0.11132">
        <ele>74.6</ele>
        <time>2022-07-07T19:48:23Z</time>
      </trkpt>
      <trkpt lat="49.27671" lon="0.11141">
        <ele>70.6</ele>
        <time>2022-07-07T19:48:23Z</time>
      </trkpt>
      <trkpt lat="49.27661" lon="0.11146">
        <ele>69.4</ele>
        <time>2022-07-07T19:48:23Z</time>
      </trkpt>
      <trkpt lat="49.27646" lon="0.11154">
        <ele>67.9</ele>
        <time>2022-07-07T19:48:23Z</time>
      </trkpt>
      <trkpt lat="49.27641" lon="0.11158">
        <ele>67.5</ele>
        <time>2022-07-07T19:48:23Z</time>
      </trkpt>
      <trkpt lat="49.27635" lon="0.11169">
        <ele>66.7</ele>
        <time>2022-07-07T19:48:23Z</time>
      </trkpt>
      <trkpt lat="49.27632" lon="0.11176">
        <ele>66.1</ele>
        <time>2022-07-07T19:48:23Z</time>
      </trkpt>
      <trkpt lat="49.27629" lon="0.11187">
        <ele>65.7</ele>
        <time>2022-07-07T19:48:23Z</time>
      </trkpt>
      <trkpt lat="49.27627" lon="0.11202">
        <ele>64.7</ele>
        <time>2022-07-07T19:48:23Z</time>
      </trkpt>
      <trkpt lat="49.27622" lon="0.11239">
        <ele>61.9</ele>
        <time>2022-07-07T19:48:23Z</time>
      </trkpt>
      <trkpt lat="49.27621" lon="0.11248">
        <ele>60.8</ele>
        <time>2022-07-07T19:48:23Z</time>
      </trkpt>
      <trkpt lat="49.2762" lon="0.11258">
        <ele>59.4</ele>
        <time>2022-07-07T19:48:23Z</time>
      </trkpt>
      <trkpt lat="49.27617" lon="0.11276">
        <ele>58.4</ele>
        <time>2022-07-07T19:48:23Z</time>
      </trkpt>
      <trkpt lat="49.27614" lon="0.11283">
        <ele>58.2</ele>
        <time>2022-07-07T19:48:23Z</time>
      </trkpt>
      <trkpt lat="49.27609" lon="0.11291">
        <ele>57.8</ele>
        <time>2022-07-07T19:48:23Z</time>
      </trkpt>
      <trkpt lat="49.27604" lon="0.113">
        <ele>57.3</ele>
        <time>2022-07-07T19:48:23Z</time>
      </trkpt>
      <trkpt lat="49.27594" lon="0.11314">
        <ele>56.8</ele>
        <time>2022-07-07T19:48:23Z</time>
      </trkpt>
      <trkpt lat="49.27579" lon="0.1134">
        <ele>55.9</ele>
        <time>2022-07-07T19:48:23Z</time>
      </trkpt>
      <trkpt lat="49.2757" lon="0.11356">
        <ele>55.5</ele>
        <time>2022-07-07T19:48:23Z</time>
      </trkpt>
      <trkpt lat="49.27564" lon="0.11365">
        <ele>55.1</ele>
        <time>2022-07-07T19:48:23Z</time>
      </trkpt>
      <trkpt lat="49.27568" lon="0.11392">
        <ele>53.1</ele>
        <time>2022-07-07T19:48:23Z</time>
      </trkpt>
      <trkpt lat="49.2757" lon="0.11407">
        <ele>52</ele>
        <time>2022-07-07T19:48:23Z</time>
      </trkpt>
      <trkpt lat="49.27572" lon="0.1143">
        <ele>52</ele>
        <time>2022-07-07T19:48:23Z</time>
      </trkpt>
      <trkpt lat="49.27575" lon="0.11454">
        <ele>51</ele>
        <time>2022-07-07T19:48:23Z</time>
      </trkpt>
      <trkpt lat="49.27579" lon="0.11482">
        <ele>47.9</ele>
        <time>2022-07-07T19:48:23Z</time>
      </trkpt>
      <trkpt lat="49.2758" lon="0.11496">
        <ele>47.1</ele>
        <time>2022-07-07T19:48:23Z</time>
      </trkpt>
      <trkpt lat="49.27581" lon="0.11514">
        <ele>46.4</ele>
        <time>2022-07-07T19:48:23Z</time>
      </trkpt>
      <trkpt lat="49.27581" lon="0.11526">
        <ele>45.8</ele>
        <time>2022-07-07T19:48:23Z</time>
      </trkpt>
      <trkpt lat="49.27581" lon="0.11538">
        <ele>45.3</ele>
        <time>2022-07-07T19:48:23Z</time>
      </trkpt>
      <trkpt lat="49.2758" lon="0.11553">
        <ele>45</ele>
        <time>2022-07-07T19:48:23Z</time>
      </trkpt>
      <trkpt lat="49.27578" lon="0.11569">
        <ele>44.1</ele>
        <time>2022-07-07T19:48:23Z</time>
      </trkpt>
      <trkpt lat="49.27576" lon="0.11583">
        <ele>43.6</ele>
        <time>2022-07-07T19:48:23Z</time>
      </trkpt>
      <trkpt lat="49.27572" lon="0.11605">
        <ele>42.9</ele>
        <time>2022-07-07T19:48:23Z</time>
      </trkpt>
      <trkpt lat="49.27569" lon="0.11619">
        <ele>42.8</ele>
        <time>2022-07-07T19:48:23Z</time>
      </trkpt>
      <trkpt lat="49.27566" lon="0.11635">
        <ele>42.8</ele>
        <time>2022-07-07T19:48:23Z</time>
      </trkpt>
      <trkpt lat="49.2756" lon="0.1166">
        <ele>43</ele>
        <time>2022-07-07T19:48:23Z</time>
      </trkpt>
      <trkpt lat="49.27552" lon="0.11698">
        <ele>43.7</ele>
        <time>2022-07-07T19:48:23Z</time>
      </trkpt>
      <trkpt lat="49.27547" lon="0.11717">
        <ele>44.1</ele>
        <time>2022-07-07T19:48:23Z</time>
      </trkpt>
      <trkpt lat="49.27543" lon="0.11734">
        <ele>44.5</ele>
        <time>2022-07-07T19:48:23Z</time>
      </trkpt>
      <trkpt lat="49.27534" lon="0.11772">
        <ele>45.1</ele>
        <time>2022-07-07T19:48:23Z</time>
      </trkpt>
      <trkpt lat="49.27522" lon="0.11819">
        <ele>46.9</ele>
        <time>2022-07-07T19:48:23Z</time>
      </trkpt>
      <trkpt lat="49.27512" lon="0.11857">
        <ele>48</ele>
        <time>2022-07-07T19:48:23Z</time>
      </trkpt>
      <trkpt lat="49.27503" lon="0.11892">
        <ele>49.5</ele>
        <time>2022-07-07T19:48:23Z</time>
      </trkpt>
      <trkpt lat="49.27496" lon="0.11918">
        <ele>50.9</ele>
        <time>2022-07-07T19:48:23Z</time>
      </trkpt>
      <trkpt lat="49.27488" lon="0.1195">
        <ele>52.8</ele>
        <time>2022-07-07T19:48:23Z</time>
      </trkpt>
      <trkpt lat="49.27485" lon="0.11971">
        <ele>54</ele>
        <time>2022-07-07T19:48:23Z</time>
      </trkpt>
      <trkpt lat="49.27483" lon="0.11982">
        <ele>54.9</ele>
        <time>2022-07-07T19:48:23Z</time>
      </trkpt>
      <trkpt lat="49.27482" lon="0.11996">
        <ele>55.5</ele>
        <time>2022-07-07T19:48:23Z</time>
      </trkpt>
      <trkpt lat="49.27482" lon="0.12013">
        <ele>56.4</ele>
        <time>2022-07-07T19:48:23Z</time>
      </trkpt>
      <trkpt lat="49.27481" lon="0.12036">
        <ele>57.4</ele>
        <time>2022-07-07T19:48:23Z</time>
      </trkpt>
      <trkpt lat="49.27479" lon="0.12055">
        <ele>58.7</ele>
        <time>2022-07-07T19:48:23Z</time>
      </trkpt>
      <trkpt lat="49.27476" lon="0.12073">
        <ele>59.4</ele>
        <time>2022-07-07T19:48:23Z</time>
      </trkpt>
      <trkpt lat="49.27474" lon="0.12083">
        <ele>60</ele>
        <time>2022-07-07T19:48:23Z</time>
      </trkpt>
      <trkpt lat="49.2747" lon="0.12092">
        <ele>60.7</ele>
        <time>2022-07-07T19:48:23Z</time>
      </trkpt>
      <trkpt lat="49.27468" lon="0.121">
        <ele>60.9</ele>
        <time>2022-07-07T19:48:23Z</time>
      </trkpt>
      <trkpt lat="49.27466" lon="0.12107">
        <ele>61.4</ele>
        <time>2022-07-07T19:48:23Z</time>
      </trkpt>
      <trkpt lat="49.27464" lon="0.12117">
        <ele>61.5</ele>
        <time>2022-07-07T19:48:23Z</time>
      </trkpt>
      <trkpt lat="49.27461" lon="0.12137">
        <ele>61.7</ele>
        <time>2022-07-07T19:48:23Z</time>
      </trkpt>
      <trkpt lat="49.27455" lon="0.12148">
        <ele>62.3</ele>
        <time>2022-07-07T19:48:23Z</time>
      </trkpt>
      <trkpt lat="49.27449" lon="0.12159">
        <ele>63.7</ele>
        <time>2022-07-07T19:48:23Z</time>
      </trkpt>
      <trkpt lat="49.27445" lon="0.12166">
        <ele>64.3</ele>
        <time>2022-07-07T19:48:23Z</time>
      </trkpt>
      <trkpt lat="49.27441" lon="0.12172">
        <ele>65</ele>
        <time>2022-07-07T19:48:23Z</time>
      </trkpt>
      <trkpt lat="49.27437" lon="0.12181">
        <ele>65.2</ele>
        <time>2022-07-07T19:48:23Z</time>
      </trkpt>
      <trkpt lat="49.27426" lon="0.12182">
        <ele>66.3</ele>
        <time>2022-07-07T19:48:23Z</time>
      </trkpt>
      <trkpt lat="49.27417" lon="0.12184">
        <ele>67.2</ele>
        <time>2022-07-07T19:48:23Z</time>
      </trkpt>
      <trkpt lat="49.27408" lon="0.1219">
        <ele>68.1</ele>
        <time>2022-07-07T19:48:23Z</time>
      </trkpt>
      <trkpt lat="49.27398" lon="0.12196">
        <ele>69.1</ele>
        <time>2022-07-07T19:48:23Z</time>
      </trkpt>
      <trkpt lat="49.27392" lon="0.12201">
        <ele>69.8</ele>
        <time>2022-07-07T19:48:23Z</time>
      </trkpt>
      <trkpt lat="49.27391" lon="0.12238">
        <ele>70.9</ele>
        <time>2022-07-07T19:48:23Z</time>
      </trkpt>
      <trkpt lat="49.27392" lon="0.12257">
        <ele>71.6</ele>
        <time>2022-07-07T19:48:23Z</time>
      </trkpt>
      <trkpt lat="49.27392" lon="0.12271">
        <ele>72</ele>
        <time>2022-07-07T19:48:23Z</time>
      </trkpt>
      <trkpt lat="49.27391" lon="0.1228">
        <ele>72.3</ele>
        <time>2022-07-07T19:48:23Z</time>
      </trkpt>
      <trkpt lat="49.2739" lon="0.12287">
        <ele>72.5</ele>
        <time>2022-07-07T19:48:23Z</time>
      </trkpt>
      <trkpt lat="49.27385" lon="0.12295">
        <ele>73.5</ele>
        <time>2022-07-07T19:48:23Z</time>
      </trkpt>
      <trkpt lat="49.27369" lon="0.12323">
        <ele>75.7</ele>
        <time>2022-07-07T19:48:23Z</time>
      </trkpt>
      <trkpt lat="49.27342" lon="0.12371">
        <ele>80.3</ele>
        <time>2022-07-07T19:48:23Z</time>
      </trkpt>
      <trkpt lat="49.27338" lon="0.12379">
        <ele>80.9</ele>
        <time>2022-07-07T19:48:23Z</time>
      </trkpt>
      <trkpt lat="49.27334" lon="0.1239">
        <ele>81.2</ele>
        <time>2022-07-07T19:48:23Z</time>
      </trkpt>
      <trkpt lat="49.27332" lon="0.12402">
        <ele>81.8</ele>
        <time>2022-07-07T19:48:23Z</time>
      </trkpt>
      <trkpt lat="49.2733" lon="0.12414">
        <ele>82</ele>
        <time>2022-07-07T19:48:23Z</time>
      </trkpt>
      <trkpt lat="49.27328" lon="0.12426">
        <ele>82.7</ele>
        <time>2022-07-07T19:48:23Z</time>
      </trkpt>
      <trkpt lat="49.27324" lon="0.12456">
        <ele>83.7</ele>
        <time>2022-07-07T19:48:23Z</time>
      </trkpt>
      <trkpt lat="49.2732" lon="0.12483">
        <ele>84.5</ele>
        <time>2022-07-07T19:48:23Z</time>
      </trkpt>
      <trkpt lat="49.27308" lon="0.12524">
        <ele>86.2</ele>
        <time>2022-07-07T19:48:23Z</time>
      </trkpt>
      <trkpt lat="49.27287" lon="0.12578">
        <ele>87.9</ele>
        <time>2022-07-07T19:48:23Z</time>
      </trkpt>
      <trkpt lat="49.27265" lon="0.12646">
        <ele>92.2</ele>
        <time>2022-07-07T19:48:23Z</time>
      </trkpt>
      <trkpt lat="49.27238" lon="0.12747">
        <ele>100</ele>
        <time>2022-07-07T19:48:23Z</time>
      </trkpt>
      <trkpt lat="49.27233" lon="0.12758">
        <ele>101.3</ele>
        <time>2022-07-07T19:48:23Z</time>
      </trkpt>
      <trkpt lat="49.27223" lon="0.12762">
        <ele>103.5</ele>
        <time>2022-07-07T19:48:23Z</time>
      </trkpt>
      <trkpt lat="49.27179" lon="0.12773">
        <ele>110.5</ele>
        <time>2022-07-07T19:48:23Z</time>
      </trkpt>
      <trkpt lat="49.2713" lon="0.128">
        <ele>115.2</ele>
        <time>2022-07-07T19:48:23Z</time>
      </trkpt>
      <trkpt lat="49.271" lon="0.12823">
        <ele>116.5</ele>
        <time>2022-07-07T19:48:23Z</time>
      </trkpt>
      <trkpt lat="49.27069" lon="0.12856">
        <ele>117</ele>
        <time>2022-07-07T19:48:23Z</time>
      </trkpt>
      <trkpt lat="49.27044" lon="0.12872">
        <ele>117.3</ele>
        <time>2022-07-07T19:48:23Z</time>
      </trkpt>
      <trkpt lat="49.27039" lon="0.12878">
        <ele>117.4</ele>
        <time>2022-07-07T19:48:23Z</time>
      </trkpt>
      <trkpt lat="49.27031" lon="0.12923">
        <ele>116.1</ele>
        <time>2022-07-07T19:48:23Z</time>
      </trkpt>
      <trkpt lat="49.27016" lon="0.12972">
        <ele>113.9</ele>
        <time>2022-07-07T19:48:23Z</time>
      </trkpt>
      <trkpt lat="49.2701" lon="0.13">
        <ele>112.5</ele>
        <time>2022-07-07T19:48:23Z</time>
      </trkpt>
      <trkpt lat="49.27008" lon="0.13019">
        <ele>111.4</ele>
        <time>2022-07-07T19:48:23Z</time>
      </trkpt>
      <trkpt lat="49.27004" lon="0.13047">
        <ele>110.7</ele>
        <time>2022-07-07T19:48:23Z</time>
      </trkpt>
      <trkpt lat="49.27007" lon="0.13076">
        <ele>111.4</ele>
        <time>2022-07-07T19:48:23Z</time>
      </trkpt>
      <trkpt lat="49.27007" lon="0.13091">
        <ele>112.2</ele>
        <time>2022-07-07T19:48:23Z</time>
      </trkpt>
      <trkpt lat="49.27007" lon="0.13104">
        <ele>112.8</ele>
        <time>2022-07-07T19:48:23Z</time>
      </trkpt>
      <trkpt lat="49.27004" lon="0.13117">
        <ele>113.3</ele>
        <time>2022-07-07T19:48:23Z</time>
      </trkpt>
      <trkpt lat="49.26999" lon="0.1314">
        <ele>114.6</ele>
        <time>2022-07-07T19:48:23Z</time>
      </trkpt>
      <trkpt lat="49.26995" lon="0.13159">
        <ele>114.8</ele>
        <time>2022-07-07T19:48:23Z</time>
      </trkpt>
      <trkpt lat="49.26994" lon="0.13172">
        <ele>115.2</ele>
        <time>2022-07-07T19:48:23Z</time>
      </trkpt>
      <trkpt lat="49.26994" lon="0.13188">
        <ele>115.3</ele>
        <time>2022-07-07T19:48:23Z</time>
      </trkpt>
      <trkpt lat="49.26996" lon="0.13227">
        <ele>115.2</ele>
        <time>2022-07-07T19:48:23Z</time>
      </trkpt>
      <trkpt lat="49.26999" lon="0.13263">
        <ele>115.6</ele>
        <time>2022-07-07T19:48:23Z</time>
      </trkpt>
      <trkpt lat="49.27002" lon="0.13275">
        <ele>115.5</ele>
        <time>2022-07-07T19:48:23Z</time>
      </trkpt>
      <trkpt lat="49.27004" lon="0.13292">
        <ele>115.6</ele>
        <time>2022-07-07T19:48:23Z</time>
      </trkpt>
      <trkpt lat="49.27006" lon="0.13308">
        <ele>115.9</ele>
        <time>2022-07-07T19:48:23Z</time>
      </trkpt>
      <trkpt lat="49.27007" lon="0.13324">
        <ele>116</ele>
        <time>2022-07-07T19:48:23Z</time>
      </trkpt>
      <trkpt lat="49.27006" lon="0.13336">
        <ele>115.9</ele>
        <time>2022-07-07T19:48:23Z</time>
      </trkpt>
      <trkpt lat="49.27006" lon="0.13348">
        <ele>115.8</ele>
        <time>2022-07-07T19:48:23Z</time>
      </trkpt>
      <trkpt lat="49.27005" lon="0.13361">
        <ele>115.6</ele>
        <time>2022-07-07T19:48:23Z</time>
      </trkpt>
      <trkpt lat="49.27003" lon="0.13369">
        <ele>116.3</ele>
        <time>2022-07-07T19:48:23Z</time>
      </trkpt>
      <trkpt lat="49.27002" lon="0.13379">
        <ele>116.6</ele>
        <time>2022-07-07T19:48:23Z</time>
      </trkpt>
      <trkpt lat="49.27" lon="0.13395">
        <ele>117.3</ele>
        <time>2022-07-07T19:48:23Z</time>
      </trkpt>
      <trkpt lat="49.26997" lon="0.13414">
        <ele>117.8</ele>
        <time>2022-07-07T19:48:23Z</time>
      </trkpt>
      <trkpt lat="49.26995" lon="0.13436">
        <ele>117.9</ele>
        <time>2022-07-07T19:48:23Z</time>
      </trkpt>
      <trkpt lat="49.26992" lon="0.13459">
        <ele>118.2</ele>
        <time>2022-07-07T19:48:23Z</time>
      </trkpt>
      <trkpt lat="49.26991" lon="0.13478">
        <ele>118.3</ele>
        <time>2022-07-07T19:48:23Z</time>
      </trkpt>
      <trkpt lat="49.26989" lon="0.13498">
        <ele>118.5</ele>
        <time>2022-07-07T19:48:23Z</time>
      </trkpt>
      <trkpt lat="49.26987" lon="0.13526">
        <ele>118.5</ele>
        <time>2022-07-07T19:48:23Z</time>
      </trkpt>
      <trkpt lat="49.26986" lon="0.1355">
        <ele>118.4</ele>
        <time>2022-07-07T19:48:23Z</time>
      </trkpt>
      <trkpt lat="49.26985" lon="0.13563">
        <ele>118.3</ele>
        <time>2022-07-07T19:48:23Z</time>
      </trkpt>
      <trkpt lat="49.26985" lon="0.13575">
        <ele>118.2</ele>
        <time>2022-07-07T19:48:23Z</time>
      </trkpt>
      <trkpt lat="49.26986" lon="0.13587">
        <ele>118</ele>
        <time>2022-07-07T19:48:23Z</time>
      </trkpt>
      <trkpt lat="49.26987" lon="0.13599">
        <ele>117.8</ele>
        <time>2022-07-07T19:48:23Z</time>
      </trkpt>
      <trkpt lat="49.26989" lon="0.13613">
        <ele>117.8</ele>
        <time>2022-07-07T19:48:23Z</time>
      </trkpt>
      <trkpt lat="49.26994" lon="0.13629">
        <ele>117.7</ele>
        <time>2022-07-07T19:48:23Z</time>
      </trkpt>
      <trkpt lat="49.26999" lon="0.13642">
        <ele>117.7</ele>
        <time>2022-07-07T19:48:23Z</time>
      </trkpt>
      <trkpt lat="49.27007" lon="0.13659">
        <ele>117.6</ele>
        <time>2022-07-07T19:48:23Z</time>
      </trkpt>
      <trkpt lat="49.27015" lon="0.13673">
        <ele>117.4</ele>
        <time>2022-07-07T19:48:23Z</time>
      </trkpt>
      <trkpt lat="49.27026" lon="0.13688">
        <ele>117.3</ele>
        <time>2022-07-07T19:48:23Z</time>
      </trkpt>
      <trkpt lat="49.2702" lon="0.13693">
        <ele>117.3</ele>
        <time>2022-07-07T19:48:23Z</time>
      </trkpt>
      <trkpt lat="49.27012" lon="0.137">
        <ele>117.6</ele>
        <time>2022-07-07T19:48:23Z</time>
      </trkpt>
      <trkpt lat="49.27001" lon="0.13706">
        <ele>117.9</ele>
        <time>2022-07-07T19:48:23Z</time>
      </trkpt>
      <trkpt lat="49.26984" lon="0.13715">
        <ele>118.6</ele>
        <time>2022-07-07T19:48:23Z</time>
      </trkpt>
      <trkpt lat="49.26967" lon="0.13723">
        <ele>119</ele>
        <time>2022-07-07T19:48:23Z</time>
      </trkpt>
      <trkpt lat="49.2695" lon="0.13731">
        <ele>119.5</ele>
        <time>2022-07-07T19:48:23Z</time>
      </trkpt>
      <trkpt lat="49.26937" lon="0.13739">
        <ele>119.7</ele>
        <time>2022-07-07T19:48:23Z</time>
      </trkpt>
      <trkpt lat="49.26928" lon="0.13749">
        <ele>120</ele>
        <time>2022-07-07T19:48:23Z</time>
      </trkpt>
      <trkpt lat="49.2692" lon="0.13757">
        <ele>120.1</ele>
        <time>2022-07-07T19:48:23Z</time>
      </trkpt>
      <trkpt lat="49.26913" lon="0.13768">
        <ele>120.4</ele>
        <time>2022-07-07T19:48:23Z</time>
      </trkpt>
      <trkpt lat="49.26905" lon="0.13782">
        <ele>120.5</ele>
        <time>2022-07-07T19:48:23Z</time>
      </trkpt>
      <trkpt lat="49.269" lon="0.13793">
        <ele>120.7</ele>
        <time>2022-07-07T19:48:23Z</time>
      </trkpt>
      <trkpt lat="49.26897" lon="0.13801">
        <ele>120.7</ele>
        <time>2022-07-07T19:48:23Z</time>
      </trkpt>
      <trkpt lat="49.26894" lon="0.13808">
        <ele>120.9</ele>
        <time>2022-07-07T19:48:23Z</time>
      </trkpt>
      <trkpt lat="49.26888" lon="0.13824">
        <ele>121</ele>
        <time>2022-07-07T19:48:23Z</time>
      </trkpt>
      <trkpt lat="49.2688" lon="0.13846">
        <ele>121.3</ele>
        <time>2022-07-07T19:48:23Z</time>
      </trkpt>
      <trkpt lat="49.26872" lon="0.13867">
        <ele>121.4</ele>
        <time>2022-07-07T19:48:23Z</time>
      </trkpt>
      <trkpt lat="49.26866" lon="0.13885">
        <ele>121.6</ele>
        <time>2022-07-07T19:48:23Z</time>
      </trkpt>
      <trkpt lat="49.26863" lon="0.13892">
        <ele>121.4</ele>
        <time>2022-07-07T19:48:23Z</time>
      </trkpt>
      <trkpt lat="49.2686" lon="0.139">
        <ele>121.6</ele>
        <time>2022-07-07T19:48:23Z</time>
      </trkpt>
      <trkpt lat="49.26849" lon="0.13923">
        <ele>121.8</ele>
        <time>2022-07-07T19:48:23Z</time>
      </trkpt>
      <trkpt lat="49.26836" lon="0.13944">
        <ele>122</ele>
        <time>2022-07-07T19:48:23Z</time>
      </trkpt>
      <trkpt lat="49.26822" lon="0.13964">
        <ele>122.3</ele>
        <time>2022-07-07T19:48:23Z</time>
      </trkpt>
      <trkpt lat="49.26812" lon="0.13979">
        <ele>122.2</ele>
        <time>2022-07-07T19:48:23Z</time>
      </trkpt>
      <trkpt lat="49.26801" lon="0.13994">
        <ele>122.4</ele>
        <time>2022-07-07T19:48:23Z</time>
      </trkpt>
      <trkpt lat="49.26789" lon="0.14009">
        <ele>122.4</ele>
        <time>2022-07-07T19:48:23Z</time>
      </trkpt>
      <trkpt lat="49.26774" lon="0.14024">
        <ele>122.6</ele>
        <time>2022-07-07T19:48:23Z</time>
      </trkpt>
      <trkpt lat="49.26759" lon="0.1404">
        <ele>122.7</ele>
        <time>2022-07-07T19:48:23Z</time>
      </trkpt>
      <trkpt lat="49.26743" lon="0.14054">
        <ele>122.8</ele>
        <time>2022-07-07T19:48:23Z</time>
      </trkpt>
      <trkpt lat="49.26729" lon="0.14066">
        <ele>122.7</ele>
        <time>2022-07-07T19:48:23Z</time>
      </trkpt>
      <trkpt lat="49.26713" lon="0.14079">
        <ele>122.9</ele>
        <time>2022-07-07T19:48:23Z</time>
      </trkpt>
      <trkpt lat="49.26687" lon="0.14096">
        <ele>122.8</ele>
        <time>2022-07-07T19:48:23Z</time>
      </trkpt>
      <trkpt lat="49.26652" lon="0.14118">
        <ele>123.3</ele>
        <time>2022-07-07T19:48:23Z</time>
      </trkpt>
      <trkpt lat="49.26635" lon="0.14128">
        <ele>123.4</ele>
        <time>2022-07-07T19:48:23Z</time>
      </trkpt>
      <trkpt lat="49.26635" lon="0.14138">
        <ele>123.6</ele>
        <time>2022-07-07T19:48:23Z</time>
      </trkpt>
      <trkpt lat="49.26633" lon="0.14154">
        <ele>123.9</ele>
        <time>2022-07-07T19:48:23Z</time>
      </trkpt>
      <trkpt lat="49.26632" lon="0.14166">
        <ele>123.9</ele>
        <time>2022-07-07T19:48:23Z</time>
      </trkpt>
      <trkpt lat="49.26631" lon="0.14178">
        <ele>123.9</ele>
        <time>2022-07-07T19:48:23Z</time>
      </trkpt>
      <trkpt lat="49.26628" lon="0.14193">
        <ele>123.8</ele>
        <time>2022-07-07T19:48:23Z</time>
      </trkpt>
      <trkpt lat="49.26623" lon="0.14226">
        <ele>123.9</ele>
        <time>2022-07-07T19:48:23Z</time>
      </trkpt>
      <trkpt lat="49.26622" lon="0.14236">
        <ele>123.9</ele>
        <time>2022-07-07T19:48:23Z</time>
      </trkpt>
      <trkpt lat="49.26621" lon="0.14246">
        <ele>124</ele>
        <time>2022-07-07T19:48:23Z</time>
      </trkpt>
      <trkpt lat="49.26621" lon="0.14257">
        <ele>124</ele>
        <time>2022-07-07T19:48:23Z</time>
      </trkpt>
      <trkpt lat="49.26621" lon="0.14271">
        <ele>124.1</ele>
        <time>2022-07-07T19:48:23Z</time>
      </trkpt>
      <trkpt lat="49.26621" lon="0.14283">
        <ele>123.8</ele>
        <time>2022-07-07T19:48:23Z</time>
      </trkpt>
      <trkpt lat="49.2662" lon="0.14296">
        <ele>123.8</ele>
        <time>2022-07-07T19:48:23Z</time>
      </trkpt>
      <trkpt lat="49.26619" lon="0.14312">
        <ele>123.8</ele>
        <time>2022-07-07T19:48:23Z</time>
      </trkpt>
      <trkpt lat="49.26619" lon="0.14324">
        <ele>123.8</ele>
        <time>2022-07-07T19:48:23Z</time>
      </trkpt>
      <trkpt lat="49.26617" lon="0.14337">
        <ele>123.9</ele>
        <time>2022-07-07T19:48:23Z</time>
      </trkpt>
      <trkpt lat="49.26614" lon="0.14358">
        <ele>124</ele>
        <time>2022-07-07T19:48:23Z</time>
      </trkpt>
      <trkpt lat="49.26602" lon="0.14422">
        <ele>124.1</ele>
        <time>2022-07-07T19:48:23Z</time>
      </trkpt>
      <trkpt lat="49.26592" lon="0.14487">
        <ele>124.1</ele>
        <time>2022-07-07T19:48:23Z</time>
      </trkpt>
      <trkpt lat="49.26582" lon="0.14554">
        <ele>123.6</ele>
        <time>2022-07-07T19:48:23Z</time>
      </trkpt>
      <trkpt lat="49.26581" lon="0.14566">
        <ele>123.5</ele>
        <time>2022-07-07T19:48:23Z</time>
      </trkpt>
      <trkpt lat="49.26572" lon="0.14562">
        <ele>123.5</ele>
        <time>2022-07-07T19:48:23Z</time>
      </trkpt>
      <trkpt lat="49.26563" lon="0.1456">
        <ele>123.3</ele>
        <time>2022-07-07T19:48:23Z</time>
      </trkpt>
      <trkpt lat="49.26552" lon="0.1456">
        <ele>123.4</ele>
        <time>2022-07-07T19:48:23Z</time>
      </trkpt>
      <trkpt lat="49.26543" lon="0.1456">
        <ele>123.7</ele>
        <time>2022-07-07T19:48:23Z</time>
      </trkpt>
      <trkpt lat="49.26523" lon="0.14563">
        <ele>123.9</ele>
        <time>2022-07-07T19:48:23Z</time>
      </trkpt>
      <trkpt lat="49.26498" lon="0.14568">
        <ele>123.6</ele>
        <time>2022-07-07T19:48:23Z</time>
      </trkpt>
      <trkpt lat="49.26459" lon="0.14576">
        <ele>123.3</ele>
        <time>2022-07-07T19:48:23Z</time>
      </trkpt>
      <trkpt lat="49.26445" lon="0.14579">
        <ele>123.2</ele>
        <time>2022-07-07T19:48:23Z</time>
      </trkpt>
      <trkpt lat="49.26464" lon="0.14754">
        <ele>122.9</ele>
        <time>2022-07-07T19:48:23Z</time>
      </trkpt>
      <trkpt lat="49.26478" lon="0.14885">
        <ele>122.2</ele>
        <time>2022-07-07T19:48:23Z</time>
      </trkpt>
      <trkpt lat="49.26487" lon="0.14974">
        <ele>121.5</ele>
        <time>2022-07-07T19:48:23Z</time>
      </trkpt>
      <trkpt lat="49.26489" lon="0.14994">
        <ele>121.3</ele>
        <time>2022-07-07T19:48:23Z</time>
      </trkpt>
      <trkpt lat="49.2649" lon="0.15002">
        <ele>121.2</ele>
        <time>2022-07-07T19:48:23Z</time>
      </trkpt>
      <trkpt lat="49.26504" lon="0.15128">
        <ele>119.9</ele>
        <time>2022-07-07T19:48:23Z</time>
      </trkpt>
      <trkpt lat="49.26499" lon="0.15132">
        <ele>119.9</ele>
        <time>2022-07-07T19:48:23Z</time>
      </trkpt>
      <trkpt lat="49.26493" lon="0.15141">
        <ele>119.8</ele>
        <time>2022-07-07T19:48:23Z</time>
      </trkpt>
      <trkpt lat="49.26489" lon="0.15146">
        <ele>119.6</ele>
        <time>2022-07-07T19:48:23Z</time>
      </trkpt>
      <trkpt lat="49.26486" lon="0.15152">
        <ele>119.4</ele>
        <time>2022-07-07T19:48:23Z</time>
      </trkpt>
      <trkpt lat="49.26484" lon="0.15159">
        <ele>119.2</ele>
        <time>2022-07-07T19:48:23Z</time>
      </trkpt>
      <trkpt lat="49.26482" lon="0.15165">
        <ele>119.1</ele>
        <time>2022-07-07T19:48:23Z</time>
      </trkpt>
      <trkpt lat="49.26481" lon="0.15173">
        <ele>119</ele>
        <time>2022-07-07T19:48:23Z</time>
      </trkpt>
      <trkpt lat="49.26481" lon="0.15182">
        <ele>118.8</ele>
        <time>2022-07-07T19:48:23Z</time>
      </trkpt>
      <trkpt lat="49.2648" lon="0.15205">
        <ele>118.3</ele>
        <time>2022-07-07T19:48:23Z</time>
      </trkpt>
      <trkpt lat="49.2648" lon="0.15215">
        <ele>118.2</ele>
        <time>2022-07-07T19:48:23Z</time>
      </trkpt>
      <trkpt lat="49.2648" lon="0.15226">
        <ele>118.1</ele>
        <time>2022-07-07T19:48:23Z</time>
      </trkpt>
      <trkpt lat="49.26472" lon="0.15286">
        <ele>117.2</ele>
        <time>2022-07-07T19:48:23Z</time>
      </trkpt>
      <trkpt lat="49.26468" lon="0.15314">
        <ele>116.4</ele>
        <time>2022-07-07T19:48:23Z</time>
      </trkpt>
      <trkpt lat="49.26465" lon="0.15329">
        <ele>115.9</ele>
        <time>2022-07-07T19:48:23Z</time>
      </trkpt>
      <trkpt lat="49.26459" lon="0.15351">
        <ele>115.1</ele>
        <time>2022-07-07T19:48:23Z</time>
      </trkpt>
      <trkpt lat="49.26447" lon="0.15392">
        <ele>112.8</ele>
        <time>2022-07-07T19:48:23Z</time>
      </trkpt>
      <trkpt lat="49.26434" lon="0.15434">
        <ele>109.8</ele>
        <time>2022-07-07T19:48:23Z</time>
      </trkpt>
      <trkpt lat="49.26425" lon="0.15472">
        <ele>106.5</ele>
        <time>2022-07-07T19:48:23Z</time>
      </trkpt>
      <trkpt lat="49.26421" lon="0.15505">
        <ele>104.4</ele>
        <time>2022-07-07T19:48:23Z</time>
      </trkpt>
      <trkpt lat="49.26415" lon="0.15536">
        <ele>101.2</ele>
        <time>2022-07-07T19:48:23Z</time>
      </trkpt>
      <trkpt lat="49.2641" lon="0.15561">
        <ele>98.7</ele>
        <time>2022-07-07T19:48:23Z</time>
      </trkpt>
      <trkpt lat="49.26402" lon="0.15589">
        <ele>95.7</ele>
        <time>2022-07-07T19:48:23Z</time>
      </trkpt>
      <trkpt lat="49.26396" lon="0.15603">
        <ele>95</ele>
        <time>2022-07-07T19:48:23Z</time>
      </trkpt>
      <trkpt lat="49.26385" lon="0.15622">
        <ele>93.1</ele>
        <time>2022-07-07T19:48:23Z</time>
      </trkpt>
      <trkpt lat="49.26372" lon="0.1564">
        <ele>90.7</ele>
        <time>2022-07-07T19:48:23Z</time>
      </trkpt>
      <trkpt lat="49.26365" lon="0.15649">
        <ele>90.2</ele>
        <time>2022-07-07T19:48:23Z</time>
      </trkpt>
      <trkpt lat="49.26354" lon="0.15658">
        <ele>89</ele>
        <time>2022-07-07T19:48:23Z</time>
      </trkpt>
      <trkpt lat="49.26344" lon="0.15667">
        <ele>88.3</ele>
        <time>2022-07-07T19:48:23Z</time>
      </trkpt>
      <trkpt lat="49.26331" lon="0.15678">
        <ele>86.2</ele>
        <time>2022-07-07T19:48:23Z</time>
      </trkpt>
      <trkpt lat="49.26322" lon="0.15686">
        <ele>85.4</ele>
        <time>2022-07-07T19:48:23Z</time>
      </trkpt>
      <trkpt lat="49.26292" lon="0.15706">
        <ele>81.2</ele>
        <time>2022-07-07T19:48:23Z</time>
      </trkpt>
      <trkpt lat="49.26286" lon="0.1571">
        <ele>80.5</ele>
        <time>2022-07-07T19:48:23Z</time>
      </trkpt>
      <trkpt lat="49.26252" lon="0.15732">
        <ele>77.9</ele>
        <time>2022-07-07T19:48:23Z</time>
      </trkpt>
      <trkpt lat="49.26209" lon="0.15761">
        <ele>73.8</ele>
        <time>2022-07-07T19:48:23Z</time>
      </trkpt>
      <trkpt lat="49.26198" lon="0.15772">
        <ele>72.7</ele>
        <time>2022-07-07T19:48:23Z</time>
      </trkpt>
      <trkpt lat="49.2619" lon="0.15782">
        <ele>72.4</ele>
        <time>2022-07-07T19:48:23Z</time>
      </trkpt>
      <trkpt lat="49.26181" lon="0.15795">
        <ele>71.5</ele>
        <time>2022-07-07T19:48:23Z</time>
      </trkpt>
      <trkpt lat="49.26173" lon="0.15811">
        <ele>69.8</ele>
        <time>2022-07-07T19:48:23Z</time>
      </trkpt>
      <trkpt lat="49.26152" lon="0.15855">
        <ele>66</ele>
        <time>2022-07-07T19:48:23Z</time>
      </trkpt>
      <trkpt lat="49.26129" lon="0.15909">
        <ele>62.8</ele>
        <time>2022-07-07T19:48:23Z</time>
      </trkpt>
      <trkpt lat="49.26113" lon="0.15954">
        <ele>61.9</ele>
        <time>2022-07-07T19:48:23Z</time>
      </trkpt>
      <trkpt lat="49.26106" lon="0.1597">
        <ele>61.3</ele>
        <time>2022-07-07T19:48:23Z</time>
      </trkpt>
      <trkpt lat="49.26098" lon="0.15986">
        <ele>60.3</ele>
        <time>2022-07-07T19:48:23Z</time>
      </trkpt>
      <trkpt lat="49.26088" lon="0.16">
        <ele>59.5</ele>
        <time>2022-07-07T19:48:23Z</time>
      </trkpt>
      <trkpt lat="49.26079" lon="0.16013">
        <ele>58.9</ele>
        <time>2022-07-07T19:48:23Z</time>
      </trkpt>
      <trkpt lat="49.26056" lon="0.16044">
        <ele>57.6</ele>
        <time>2022-07-07T19:48:23Z</time>
      </trkpt>
      <trkpt lat="49.2604" lon="0.16066">
        <ele>56.6</ele>
        <time>2022-07-07T19:48:23Z</time>
      </trkpt>
      <trkpt lat="49.26025" lon="0.16087">
        <ele>55.7</ele>
        <time>2022-07-07T19:48:23Z</time>
      </trkpt>
      <trkpt lat="49.2601" lon="0.16106">
        <ele>54.4</ele>
        <time>2022-07-07T19:48:23Z</time>
      </trkpt>
      <trkpt lat="49.25992" lon="0.16127">
        <ele>53.2</ele>
        <time>2022-07-07T19:48:23Z</time>
      </trkpt>
      <trkpt lat="49.25982" lon="0.1614">
        <ele>52.4</ele>
        <time>2022-07-07T19:48:23Z</time>
      </trkpt>
      <trkpt lat="49.25974" lon="0.16154">
        <ele>51.6</ele>
        <time>2022-07-07T19:48:23Z</time>
      </trkpt>
      <trkpt lat="49.25964" lon="0.16172">
        <ele>50.8</ele>
        <time>2022-07-07T19:48:23Z</time>
      </trkpt>
      <trkpt lat="49.2595" lon="0.16193">
        <ele>50.1</ele>
        <time>2022-07-07T19:48:23Z</time>
      </trkpt>
      <trkpt lat="49.25938" lon="0.16212">
        <ele>49.1</ele>
        <time>2022-07-07T19:48:23Z</time>
      </trkpt>
      <trkpt lat="49.25892" lon="0.16281">
        <ele>44.6</ele>
        <time>2022-07-07T19:48:23Z</time>
      </trkpt>
      <trkpt lat="49.25855" lon="0.16336">
        <ele>41.1</ele>
        <time>2022-07-07T19:48:23Z</time>
      </trkpt>
      <trkpt lat="49.25835" lon="0.1637">
        <ele>38.8</ele>
        <time>2022-07-07T19:48:23Z</time>
      </trkpt>
      <trkpt lat="49.25821" lon="0.1639">
        <ele>38.5</ele>
        <time>2022-07-07T19:48:23Z</time>
      </trkpt>
      <trkpt lat="49.25813" lon="0.16402">
        <ele>38.2</ele>
        <time>2022-07-07T19:48:23Z</time>
      </trkpt>
      <trkpt lat="49.25805" lon="0.16414">
        <ele>38</ele>
        <time>2022-07-07T19:48:23Z</time>
      </trkpt>
      <trkpt lat="49.25802" lon="0.16421">
        <ele>37.6</ele>
        <time>2022-07-07T19:48:23Z</time>
      </trkpt>
      <trkpt lat="49.25799" lon="0.16427">
        <ele>37.6</ele>
        <time>2022-07-07T19:48:23Z</time>
      </trkpt>
      <trkpt lat="49.25797" lon="0.16436">
        <ele>37.3</ele>
        <time>2022-07-07T19:48:23Z</time>
      </trkpt>
      <trkpt lat="49.25795" lon="0.16447">
        <ele>36.7</ele>
        <time>2022-07-07T19:48:23Z</time>
      </trkpt>
      <trkpt lat="49.25794" lon="0.16458">
        <ele>36.5</ele>
        <time>2022-07-07T19:48:23Z</time>
      </trkpt>
      <trkpt lat="49.25794" lon="0.16472">
        <ele>36.5</ele>
        <time>2022-07-07T19:48:23Z</time>
      </trkpt>
      <trkpt lat="49.25795" lon="0.1649">
        <ele>36.6</ele>
        <time>2022-07-07T19:48:23Z</time>
      </trkpt>
      <trkpt lat="49.25804" lon="0.16547">
        <ele>36.4</ele>
        <time>2022-07-07T19:48:23Z</time>
      </trkpt>
      <trkpt lat="49.25805" lon="0.16555">
        <ele>36.8</ele>
        <time>2022-07-07T19:48:23Z</time>
      </trkpt>
      <trkpt lat="49.25807" lon="0.1658">
        <ele>37.6</ele>
        <time>2022-07-07T19:48:23Z</time>
      </trkpt>
      <trkpt lat="49.25807" lon="0.16593">
        <ele>38.1</ele>
        <time>2022-07-07T19:48:23Z</time>
      </trkpt>
      <trkpt lat="49.25806" lon="0.16605">
        <ele>38.8</ele>
        <time>2022-07-07T19:48:23Z</time>
      </trkpt>
      <trkpt lat="49.25803" lon="0.16619">
        <ele>39.3</ele>
        <time>2022-07-07T19:48:23Z</time>
      </trkpt>
      <trkpt lat="49.258" lon="0.1663">
        <ele>39.9</ele>
        <time>2022-07-07T19:48:23Z</time>
      </trkpt>
      <trkpt lat="49.25795" lon="0.16638">
        <ele>40</ele>
        <time>2022-07-07T19:48:23Z</time>
      </trkpt>
      <trkpt lat="49.25786" lon="0.16648">
        <ele>40.7</ele>
        <time>2022-07-07T19:48:23Z</time>
      </trkpt>
      <trkpt lat="49.25773" lon="0.16652">
        <ele>41.3</ele>
        <time>2022-07-07T19:48:23Z</time>
      </trkpt>
      <trkpt lat="49.2576" lon="0.16649">
        <ele>41.7</ele>
        <time>2022-07-07T19:48:23Z</time>
      </trkpt>
      <trkpt lat="49.2574" lon="0.1664">
        <ele>42.3</ele>
        <time>2022-07-07T19:48:23Z</time>
      </trkpt>
      <trkpt lat="49.25731" lon="0.16637">
        <ele>42.4</ele>
        <time>2022-07-07T19:48:23Z</time>
      </trkpt>
      <trkpt lat="49.25723" lon="0.16638">
        <ele>42.4</ele>
        <time>2022-07-07T19:48:23Z</time>
      </trkpt>
      <trkpt lat="49.25715" lon="0.1664">
        <ele>42.3</ele>
        <time>2022-07-07T19:48:23Z</time>
      </trkpt>
      <trkpt lat="49.2571" lon="0.16643">
        <ele>42.5</ele>
        <time>2022-07-07T19:48:23Z</time>
      </trkpt>
      <trkpt lat="49.25704" lon="0.16649">
        <ele>42.6</ele>
        <time>2022-07-07T19:48:23Z</time>
      </trkpt>
      <trkpt lat="49.25699" lon="0.16656">
        <ele>43</ele>
        <time>2022-07-07T19:48:23Z</time>
      </trkpt>
      <trkpt lat="49.25693" lon="0.16666">
        <ele>43.8</ele>
        <time>2022-07-07T19:48:23Z</time>
      </trkpt>
      <trkpt lat="49.25687" lon="0.16678">
        <ele>44.7</ele>
        <time>2022-07-07T19:48:23Z</time>
      </trkpt>
      <trkpt lat="49.25681" lon="0.1669">
        <ele>44.8</ele>
        <time>2022-07-07T19:48:23Z</time>
      </trkpt>
      <trkpt lat="49.25684" lon="0.16701">
        <ele>45.3</ele>
        <time>2022-07-07T19:48:23Z</time>
      </trkpt>
      <trkpt lat="49.25686" lon="0.16711">
        <ele>45.6</ele>
        <time>2022-07-07T19:48:23Z</time>
      </trkpt>
      <trkpt lat="49.25681" lon="0.16719">
        <ele>45.6</ele>
        <time>2022-07-07T19:48:23Z</time>
      </trkpt>
      <trkpt lat="49.25676" lon="0.16726">
        <ele>46.2</ele>
        <time>2022-07-07T19:48:23Z</time>
      </trkpt>
      <trkpt lat="49.25672" lon="0.16734">
        <ele>47</ele>
        <time>2022-07-07T19:48:23Z</time>
      </trkpt>
      <trkpt lat="49.25664" lon="0.16752">
        <ele>47.8</ele>
        <time>2022-07-07T19:48:23Z</time>
      </trkpt>
      <trkpt lat="49.25654" lon="0.16774">
        <ele>49</ele>
        <time>2022-07-07T19:48:23Z</time>
      </trkpt>
      <trkpt lat="49.25645" lon="0.16796">
        <ele>50.2</ele>
        <time>2022-07-07T19:48:23Z</time>
      </trkpt>
      <trkpt lat="49.25634" lon="0.16817">
        <ele>50.8</ele>
        <time>2022-07-07T19:48:23Z</time>
      </trkpt>
      <trkpt lat="49.25623" lon="0.16837">
        <ele>51.8</ele>
        <time>2022-07-07T19:48:23Z</time>
      </trkpt>
      <trkpt lat="49.25613" lon="0.16855">
        <ele>52.3</ele>
        <time>2022-07-07T19:48:23Z</time>
      </trkpt>
      <trkpt lat="49.25599" lon="0.16877">
        <ele>52.5</ele>
        <time>2022-07-07T19:48:23Z</time>
      </trkpt>
      <trkpt lat="49.25586" lon="0.16899">
        <ele>52.6</ele>
        <time>2022-07-07T19:48:23Z</time>
      </trkpt>
      <trkpt lat="49.25572" lon="0.16919">
        <ele>52.5</ele>
        <time>2022-07-07T19:48:23Z</time>
      </trkpt>
      <trkpt lat="49.25555" lon="0.16941">
        <ele>52</ele>
        <time>2022-07-07T19:48:23Z</time>
      </trkpt>
      <trkpt lat="49.25535" lon="0.16965">
        <ele>51.8</ele>
        <time>2022-07-07T19:48:23Z</time>
      </trkpt>
      <trkpt lat="49.25516" lon="0.1699">
        <ele>51.8</ele>
        <time>2022-07-07T19:48:23Z</time>
      </trkpt>
      <trkpt lat="49.25499" lon="0.17011">
        <ele>52.1</ele>
        <time>2022-07-07T19:48:23Z</time>
      </trkpt>
      <trkpt lat="49.2549" lon="0.17026">
        <ele>52.7</ele>
        <time>2022-07-07T19:48:23Z</time>
      </trkpt>
      <trkpt lat="49.25479" lon="0.17043">
        <ele>52.8</ele>
        <time>2022-07-07T19:48:23Z</time>
      </trkpt>
      <trkpt lat="49.25468" lon="0.1706">
        <ele>53.2</ele>
        <time>2022-07-07T19:48:23Z</time>
      </trkpt>
      <trkpt lat="49.25461" lon="0.17074">
        <ele>53.3</ele>
        <time>2022-07-07T19:48:23Z</time>
      </trkpt>
      <trkpt lat="49.25455" lon="0.17088">
        <ele>53.5</ele>
        <time>2022-07-07T19:48:23Z</time>
      </trkpt>
      <trkpt lat="49.25451" lon="0.17099">
        <ele>54</ele>
        <time>2022-07-07T19:48:23Z</time>
      </trkpt>
      <trkpt lat="49.25444" lon="0.17118">
        <ele>54.4</ele>
        <time>2022-07-07T19:48:23Z</time>
      </trkpt>
      <trkpt lat="49.25435" lon="0.17153">
        <ele>55.2</ele>
        <time>2022-07-07T19:48:23Z</time>
      </trkpt>
      <trkpt lat="49.25431" lon="0.17167">
        <ele>55.8</ele>
        <time>2022-07-07T19:48:23Z</time>
      </trkpt>
      <trkpt lat="49.25429" lon="0.17176">
        <ele>56.1</ele>
        <time>2022-07-07T19:48:23Z</time>
      </trkpt>
      <trkpt lat="49.25423" lon="0.17197">
        <ele>56.2</ele>
        <time>2022-07-07T19:48:23Z</time>
      </trkpt>
      <trkpt lat="49.25419" lon="0.17214">
        <ele>56.6</ele>
        <time>2022-07-07T19:48:23Z</time>
      </trkpt>
      <trkpt lat="49.25414" lon="0.17228">
        <ele>57.2</ele>
        <time>2022-07-07T19:48:23Z</time>
      </trkpt>
      <trkpt lat="49.25407" lon="0.17241">
        <ele>57.9</ele>
        <time>2022-07-07T19:48:23Z</time>
      </trkpt>
      <trkpt lat="49.25398" lon="0.17258">
        <ele>58</ele>
        <time>2022-07-07T19:48:23Z</time>
      </trkpt>
      <trkpt lat="49.25387" lon="0.17273">
        <ele>58.4</ele>
        <time>2022-07-07T19:48:23Z</time>
      </trkpt>
      <trkpt lat="49.25378" lon="0.17289">
        <ele>58.9</ele>
        <time>2022-07-07T19:48:23Z</time>
      </trkpt>
      <trkpt lat="49.25371" lon="0.173">
        <ele>59.7</ele>
        <time>2022-07-07T19:48:23Z</time>
      </trkpt>
      <trkpt lat="49.25367" lon="0.17315">
        <ele>60.3</ele>
        <time>2022-07-07T19:48:23Z</time>
      </trkpt>
      <trkpt lat="49.25364" lon="0.17327">
        <ele>61</ele>
        <time>2022-07-07T19:48:23Z</time>
      </trkpt>
      <trkpt lat="49.25364" lon="0.17335">
        <ele>61.4</ele>
        <time>2022-07-07T19:48:23Z</time>
      </trkpt>
      <trkpt lat="49.25363" lon="0.17352">
        <ele>61.8</ele>
        <time>2022-07-07T19:48:23Z</time>
      </trkpt>
      <trkpt lat="49.25362" lon="0.17376">
        <ele>62.5</ele>
        <time>2022-07-07T19:48:23Z</time>
      </trkpt>
      <trkpt lat="49.25361" lon="0.17396">
        <ele>63.8</ele>
        <time>2022-07-07T19:48:23Z</time>
      </trkpt>
      <trkpt lat="49.25361" lon="0.17411">
        <ele>64.2</ele>
        <time>2022-07-07T19:48:23Z</time>
      </trkpt>
      <trkpt lat="49.2536" lon="0.17428">
        <ele>65</ele>
        <time>2022-07-07T19:48:23Z</time>
      </trkpt>
      <trkpt lat="49.25358" lon="0.17449">
        <ele>65</ele>
        <time>2022-07-07T19:48:23Z</time>
      </trkpt>
      <trkpt lat="49.25357" lon="0.17458">
        <ele>65.9</ele>
        <time>2022-07-07T19:48:23Z</time>
      </trkpt>
      <trkpt lat="49.25356" lon="0.17466">
        <ele>66.2</ele>
        <time>2022-07-07T19:48:23Z</time>
      </trkpt>
      <trkpt lat="49.25354" lon="0.17476">
        <ele>66.3</ele>
        <time>2022-07-07T19:48:23Z</time>
      </trkpt>
      <trkpt lat="49.25351" lon="0.17484">
        <ele>66.1</ele>
        <time>2022-07-07T19:48:23Z</time>
      </trkpt>
      <trkpt lat="49.25346" lon="0.17496">
        <ele>66</ele>
        <time>2022-07-07T19:48:23Z</time>
      </trkpt>
      <trkpt lat="49.2534" lon="0.17512">
        <ele>67.1</ele>
        <time>2022-07-07T19:48:23Z</time>
      </trkpt>
      <trkpt lat="49.25324" lon="0.17542">
        <ele>67.1</ele>
        <time>2022-07-07T19:48:23Z</time>
      </trkpt>
      <trkpt lat="49.25311" lon="0.17573">
        <ele>69.4</ele>
        <time>2022-07-07T19:48:23Z</time>
      </trkpt>
      <trkpt lat="49.25298" lon="0.17602">
        <ele>72.2</ele>
        <time>2022-07-07T19:48:23Z</time>
      </trkpt>
      <trkpt lat="49.25288" lon="0.17627">
        <ele>73.6</ele>
        <time>2022-07-07T19:48:23Z</time>
      </trkpt>
      <trkpt lat="49.25278" lon="0.17649">
        <ele>73.5</ele>
        <time>2022-07-07T19:48:23Z</time>
      </trkpt>
      <trkpt lat="49.25272" lon="0.17664">
        <ele>75</ele>
        <time>2022-07-07T19:48:23Z</time>
      </trkpt>
      <trkpt lat="49.25264" lon="0.17679">
        <ele>75.4</ele>
        <time>2022-07-07T19:48:23Z</time>
      </trkpt>
      <trkpt lat="49.25254" lon="0.17702">
        <ele>77.4</ele>
        <time>2022-07-07T19:48:23Z</time>
      </trkpt>
      <trkpt lat="49.25243" lon="0.17728">
        <ele>79.1</ele>
        <time>2022-07-07T19:48:23Z</time>
      </trkpt>
      <trkpt lat="49.25234" lon="0.17749">
        <ele>80.4</ele>
        <time>2022-07-07T19:48:23Z</time>
      </trkpt>
      <trkpt lat="49.25229" lon="0.17763">
        <ele>81.5</ele>
        <time>2022-07-07T19:48:23Z</time>
      </trkpt>
      <trkpt lat="49.25227" lon="0.17774">
        <ele>82.5</ele>
        <time>2022-07-07T19:48:23Z</time>
      </trkpt>
      <trkpt lat="49.25225" lon="0.17782">
        <ele>82.1</ele>
        <time>2022-07-07T19:48:23Z</time>
      </trkpt>
      <trkpt lat="49.25224" lon="0.17792">
        <ele>82.9</ele>
        <time>2022-07-07T19:48:23Z</time>
      </trkpt>
      <trkpt lat="49.25223" lon="0.17802">
        <ele>84</ele>
        <time>2022-07-07T19:48:23Z</time>
      </trkpt>
      <trkpt lat="49.25224" lon="0.17811">
        <ele>84.6</ele>
        <time>2022-07-07T19:48:23Z</time>
      </trkpt>
      <trkpt lat="49.25225" lon="0.17822">
        <ele>85</ele>
        <time>2022-07-07T19:48:23Z</time>
      </trkpt>
      <trkpt lat="49.25228" lon="0.17839">
        <ele>86.7</ele>
        <time>2022-07-07T19:48:23Z</time>
      </trkpt>
      <trkpt lat="49.25233" lon="0.17866">
        <ele>87.5</ele>
        <time>2022-07-07T19:48:23Z</time>
      </trkpt>
      <trkpt lat="49.25237" lon="0.17879">
        <ele>88.3</ele>
        <time>2022-07-07T19:48:23Z</time>
      </trkpt>
      <trkpt lat="49.25241" lon="0.17885">
        <ele>89.1</ele>
        <time>2022-07-07T19:48:23Z</time>
      </trkpt>
      <trkpt lat="49.25245" lon="0.1789">
        <ele>89.9</ele>
        <time>2022-07-07T19:48:23Z</time>
      </trkpt>
      <trkpt lat="49.25255" lon="0.17894">
        <ele>91.7</ele>
        <time>2022-07-07T19:48:23Z</time>
      </trkpt>
      <trkpt lat="49.25263" lon="0.17896">
        <ele>93.7</ele>
        <time>2022-07-07T19:48:23Z</time>
      </trkpt>
      <trkpt lat="49.25275" lon="0.17901">
        <ele>97.4</ele>
        <time>2022-07-07T19:48:23Z</time>
      </trkpt>
      <trkpt lat="49.25283" lon="0.17907">
        <ele>99.7</ele>
        <time>2022-07-07T19:48:23Z</time>
      </trkpt>
      <trkpt lat="49.2529" lon="0.17914">
        <ele>100.3</ele>
        <time>2022-07-07T19:48:23Z</time>
      </trkpt>
      <trkpt lat="49.25295" lon="0.17923">
        <ele>101</ele>
        <time>2022-07-07T19:48:23Z</time>
      </trkpt>
      <trkpt lat="49.25298" lon="0.17935">
        <ele>101.4</ele>
        <time>2022-07-07T19:48:23Z</time>
      </trkpt>
      <trkpt lat="49.25298" lon="0.17947">
        <ele>100.8</ele>
        <time>2022-07-07T19:48:23Z</time>
      </trkpt>
      <trkpt lat="49.25298" lon="0.17956">
        <ele>100.2</ele>
        <time>2022-07-07T19:48:23Z</time>
      </trkpt>
      <trkpt lat="49.25296" lon="0.17967">
        <ele>100.1</ele>
        <time>2022-07-07T19:48:23Z</time>
      </trkpt>
      <trkpt lat="49.25293" lon="0.17981">
        <ele>99.5</ele>
        <time>2022-07-07T19:48:23Z</time>
      </trkpt>
      <trkpt lat="49.25291" lon="0.17992">
        <ele>100.2</ele>
        <time>2022-07-07T19:48:23Z</time>
      </trkpt>
      <trkpt lat="49.25291" lon="0.18001">
        <ele>101.2</ele>
        <time>2022-07-07T19:48:23Z</time>
      </trkpt>
      <trkpt lat="49.25291" lon="0.1801">
        <ele>102.2</ele>
        <time>2022-07-07T19:48:23Z</time>
      </trkpt>
      <trkpt lat="49.25292" lon="0.18018">
        <ele>103.1</ele>
        <time>2022-07-07T19:48:23Z</time>
      </trkpt>
      <trkpt lat="49.25296" lon="0.18024">
        <ele>103.4</ele>
        <time>2022-07-07T19:48:23Z</time>
      </trkpt>
      <trkpt lat="49.25304" lon="0.18031">
        <ele>104.1</ele>
        <time>2022-07-07T19:48:23Z</time>
      </trkpt>
      <trkpt lat="49.2531" lon="0.18034">
        <ele>104.5</ele>
        <time>2022-07-07T19:48:23Z</time>
      </trkpt>
      <trkpt lat="49.25323" lon="0.18039">
        <ele>105.8</ele>
        <time>2022-07-07T19:48:23Z</time>
      </trkpt>
      <trkpt lat="49.25329" lon="0.18041">
        <ele>106.3</ele>
        <time>2022-07-07T19:48:23Z</time>
      </trkpt>
      <trkpt lat="49.25337" lon="0.18047">
        <ele>107.6</ele>
        <time>2022-07-07T19:48:23Z</time>
      </trkpt>
      <trkpt lat="49.25341" lon="0.18053">
        <ele>108.3</ele>
        <time>2022-07-07T19:48:23Z</time>
      </trkpt>
      <trkpt lat="49.25346" lon="0.18068">
        <ele>109.3</ele>
        <time>2022-07-07T19:48:23Z</time>
      </trkpt>
      <trkpt lat="49.25349" lon="0.18081">
        <ele>110.3</ele>
        <time>2022-07-07T19:48:23Z</time>
      </trkpt>
      <trkpt lat="49.25351" lon="0.181">
        <ele>111.1</ele>
        <time>2022-07-07T19:48:23Z</time>
      </trkpt>
      <trkpt lat="49.25351" lon="0.18107">
        <ele>111.6</ele>
        <time>2022-07-07T19:48:23Z</time>
      </trkpt>
      <trkpt lat="49.25352" lon="0.1812">
        <ele>112.3</ele>
        <time>2022-07-07T19:48:23Z</time>
      </trkpt>
      <trkpt lat="49.25353" lon="0.18133">
        <ele>112.8</ele>
        <time>2022-07-07T19:48:23Z</time>
      </trkpt>
      <trkpt lat="49.25355" lon="0.18149">
        <ele>113.5</ele>
        <time>2022-07-07T19:48:23Z</time>
      </trkpt>
      <trkpt lat="49.25358" lon="0.18159">
        <ele>113.8</ele>
        <time>2022-07-07T19:48:23Z</time>
      </trkpt>
      <trkpt lat="49.25362" lon="0.18167">
        <ele>114.1</ele>
        <time>2022-07-07T19:48:23Z</time>
      </trkpt>
      <trkpt lat="49.25372" lon="0.18181">
        <ele>114.3</ele>
        <time>2022-07-07T19:48:23Z</time>
      </trkpt>
      <trkpt lat="49.25368" lon="0.18194">
        <ele>114.4</ele>
        <time>2022-07-07T19:48:23Z</time>
      </trkpt>
      <trkpt lat="49.2535" lon="0.18263">
        <ele>115.1</ele>
        <time>2022-07-07T19:48:23Z</time>
      </trkpt>
      <trkpt lat="49.25341" lon="0.18296">
        <ele>115.6</ele>
        <time>2022-07-07T19:48:23Z</time>
      </trkpt>
      <trkpt lat="49.25329" lon="0.18345">
        <ele>115.7</ele>
        <time>2022-07-07T19:48:23Z</time>
      </trkpt>
      <trkpt lat="49.25322" lon="0.1837">
        <ele>116.1</ele>
        <time>2022-07-07T19:48:23Z</time>
      </trkpt>
      <trkpt lat="49.25318" lon="0.18383">
        <ele>116</ele>
        <time>2022-07-07T19:48:23Z</time>
      </trkpt>
      <trkpt lat="49.25315" lon="0.18393">
        <ele>116</ele>
        <time>2022-07-07T19:48:23Z</time>
      </trkpt>
      <trkpt lat="49.25312" lon="0.18402">
        <ele>116.1</ele>
        <time>2022-07-07T19:48:23Z</time>
      </trkpt>
      <trkpt lat="49.25308" lon="0.18411">
        <ele>116.3</ele>
        <time>2022-07-07T19:48:23Z</time>
      </trkpt>
      <trkpt lat="49.25304" lon="0.18421">
        <ele>116.4</ele>
        <time>2022-07-07T19:48:23Z</time>
      </trkpt>
      <trkpt lat="49.25301" lon="0.18428">
        <ele>116.5</ele>
        <time>2022-07-07T19:48:23Z</time>
      </trkpt>
      <trkpt lat="49.25293" lon="0.1844">
        <ele>116.4</ele>
        <time>2022-07-07T19:48:23Z</time>
      </trkpt>
      <trkpt lat="49.2528" lon="0.18457">
        <ele>116.7</ele>
        <time>2022-07-07T19:48:23Z</time>
      </trkpt>
      <trkpt lat="49.2526" lon="0.1848">
        <ele>117</ele>
        <time>2022-07-07T19:48:23Z</time>
      </trkpt>
      <trkpt lat="49.2525" lon="0.18492">
        <ele>116.8</ele>
        <time>2022-07-07T19:48:23Z</time>
      </trkpt>
      <trkpt lat="49.25232" lon="0.18514">
        <ele>116.9</ele>
        <time>2022-07-07T19:48:23Z</time>
      </trkpt>
      <trkpt lat="49.25214" lon="0.18534">
        <ele>116.9</ele>
        <time>2022-07-07T19:48:23Z</time>
      </trkpt>
      <trkpt lat="49.25224" lon="0.18571">
        <ele>117.1</ele>
        <time>2022-07-07T19:48:23Z</time>
      </trkpt>
      <trkpt lat="49.25232" lon="0.18599">
        <ele>117.1</ele>
        <time>2022-07-07T19:48:23Z</time>
      </trkpt>
      <trkpt lat="49.2524" lon="0.18623">
        <ele>117</ele>
        <time>2022-07-07T19:48:23Z</time>
      </trkpt>
      <trkpt lat="49.25248" lon="0.18644">
        <ele>117</ele>
        <time>2022-07-07T19:48:23Z</time>
      </trkpt>
      <trkpt lat="49.25256" lon="0.18663">
        <ele>117</ele>
        <time>2022-07-07T19:48:23Z</time>
      </trkpt>
      <trkpt lat="49.25267" lon="0.1869">
        <ele>117.2</ele>
        <time>2022-07-07T19:48:23Z</time>
      </trkpt>
      <trkpt lat="49.25277" lon="0.18712">
        <ele>117.2</ele>
        <time>2022-07-07T19:48:23Z</time>
      </trkpt>
      <trkpt lat="49.25283" lon="0.18727">
        <ele>117.2</ele>
        <time>2022-07-07T19:48:23Z</time>
      </trkpt>
      <trkpt lat="49.25287" lon="0.18738">
        <ele>117.3</ele>
        <time>2022-07-07T19:48:23Z</time>
      </trkpt>
      <trkpt lat="49.2529" lon="0.1875">
        <ele>117.4</ele>
        <time>2022-07-07T19:48:23Z</time>
      </trkpt>
      <trkpt lat="49.25294" lon="0.18767">
        <ele>117.6</ele>
        <time>2022-07-07T19:48:23Z</time>
      </trkpt>
      <trkpt lat="49.25298" lon="0.18795">
        <ele>117.9</ele>
        <time>2022-07-07T19:48:23Z</time>
      </trkpt>
      <trkpt lat="49.25301" lon="0.18814">
        <ele>118.1</ele>
        <time>2022-07-07T19:48:23Z</time>
      </trkpt>
      <trkpt lat="49.25306" lon="0.18847">
        <ele>118.1</ele>
        <time>2022-07-07T19:48:23Z</time>
      </trkpt>
      <trkpt lat="49.25309" lon="0.18868">
        <ele>118.2</ele>
        <time>2022-07-07T19:48:23Z</time>
      </trkpt>
      <trkpt lat="49.25312" lon="0.1889">
        <ele>118.2</ele>
        <time>2022-07-07T19:48:23Z</time>
      </trkpt>
      <trkpt lat="49.25316" lon="0.18916">
        <ele>118.3</ele>
        <time>2022-07-07T19:48:23Z</time>
      </trkpt>
      <trkpt lat="49.25319" lon="0.18938">
        <ele>118.4</ele>
        <time>2022-07-07T19:48:23Z</time>
      </trkpt>
      <trkpt lat="49.25321" lon="0.18958">
        <ele>118.5</ele>
        <time>2022-07-07T19:48:23Z</time>
      </trkpt>
      <trkpt lat="49.25327" lon="0.18992">
        <ele>118.7</ele>
        <time>2022-07-07T19:48:23Z</time>
      </trkpt>
      <trkpt lat="49.25331" lon="0.19019">
        <ele>118.6</ele>
        <time>2022-07-07T19:48:23Z</time>
      </trkpt>
      <trkpt lat="49.25334" lon="0.19039">
        <ele>118.6</ele>
        <time>2022-07-07T19:48:23Z</time>
      </trkpt>
      <trkpt lat="49.25336" lon="0.19056">
        <ele>118.6</ele>
        <time>2022-07-07T19:48:23Z</time>
      </trkpt>
      <trkpt lat="49.25339" lon="0.19079">
        <ele>118.6</ele>
        <time>2022-07-07T19:48:23Z</time>
      </trkpt>
      <trkpt lat="49.2534" lon="0.19092">
        <ele>118.6</ele>
        <time>2022-07-07T19:48:23Z</time>
      </trkpt>
      <trkpt lat="49.25341" lon="0.19105">
        <ele>118.6</ele>
        <time>2022-07-07T19:48:23Z</time>
      </trkpt>
      <trkpt lat="49.25342" lon="0.19117">
        <ele>118.7</ele>
        <time>2022-07-07T19:48:23Z</time>
      </trkpt>
      <trkpt lat="49.25343" lon="0.19131">
        <ele>118.6</ele>
        <time>2022-07-07T19:48:23Z</time>
      </trkpt>
      <trkpt lat="49.25343" lon="0.19145">
        <ele>118.5</ele>
        <time>2022-07-07T19:48:23Z</time>
      </trkpt>
      <trkpt lat="49.25344" lon="0.1916">
        <ele>118.4</ele>
        <time>2022-07-07T19:48:23Z</time>
      </trkpt>
      <trkpt lat="49.25345" lon="0.19173">
        <ele>118.4</ele>
        <time>2022-07-07T19:48:23Z</time>
      </trkpt>
      <trkpt lat="49.25348" lon="0.19194">
        <ele>118.2</ele>
        <time>2022-07-07T19:48:23Z</time>
      </trkpt>
      <trkpt lat="49.2535" lon="0.19213">
        <ele>118.1</ele>
        <time>2022-07-07T19:48:23Z</time>
      </trkpt>
      <trkpt lat="49.25352" lon="0.19229">
        <ele>118</ele>
        <time>2022-07-07T19:48:23Z</time>
      </trkpt>
      <trkpt lat="49.25354" lon="0.19244">
        <ele>117.9</ele>
        <time>2022-07-07T19:48:23Z</time>
      </trkpt>
      <trkpt lat="49.25357" lon="0.1926">
        <ele>117.7</ele>
        <time>2022-07-07T19:48:23Z</time>
      </trkpt>
      <trkpt lat="49.2536" lon="0.19276">
        <ele>117.6</ele>
        <time>2022-07-07T19:48:23Z</time>
      </trkpt>
      <trkpt lat="49.25363" lon="0.19292">
        <ele>117.4</ele>
        <time>2022-07-07T19:48:23Z</time>
      </trkpt>
      <trkpt lat="49.25367" lon="0.19313">
        <ele>117.2</ele>
        <time>2022-07-07T19:48:23Z</time>
      </trkpt>
      <trkpt lat="49.25371" lon="0.1933">
        <ele>117.1</ele>
        <time>2022-07-07T19:48:23Z</time>
      </trkpt>
      <trkpt lat="49.25373" lon="0.19342">
        <ele>117</ele>
        <time>2022-07-07T19:48:23Z</time>
      </trkpt>
      <trkpt lat="49.25376" lon="0.19356">
        <ele>116.8</ele>
        <time>2022-07-07T19:48:23Z</time>
      </trkpt>
      <trkpt lat="49.25377" lon="0.1937">
        <ele>116.7</ele>
        <time>2022-07-07T19:48:23Z</time>
      </trkpt>
      <trkpt lat="49.2538" lon="0.19379">
        <ele>116.5</ele>
        <time>2022-07-07T19:48:23Z</time>
      </trkpt>
      <trkpt lat="49.25383" lon="0.19389">
        <ele>116.2</ele>
        <time>2022-07-07T19:48:23Z</time>
      </trkpt>
      <trkpt lat="49.25382" lon="0.19397">
        <ele>116.2</ele>
        <time>2022-07-07T19:48:23Z</time>
      </trkpt>
      <trkpt lat="49.25383" lon="0.19413">
        <ele>116.2</ele>
        <time>2022-07-07T19:48:23Z</time>
      </trkpt>
      <trkpt lat="49.25384" lon="0.19426">
        <ele>116.1</ele>
        <time>2022-07-07T19:48:23Z</time>
      </trkpt>
      <trkpt lat="49.25384" lon="0.19441">
        <ele>116.1</ele>
        <time>2022-07-07T19:48:23Z</time>
      </trkpt>
      <trkpt lat="49.25384" lon="0.19459">
        <ele>115.9</ele>
        <time>2022-07-07T19:48:23Z</time>
      </trkpt>
      <trkpt lat="49.25383" lon="0.1947">
        <ele>115.8</ele>
        <time>2022-07-07T19:48:23Z</time>
      </trkpt>
      <trkpt lat="49.25382" lon="0.1948">
        <ele>115.5</ele>
        <time>2022-07-07T19:48:23Z</time>
      </trkpt>
      <trkpt lat="49.25379" lon="0.19493">
        <ele>115.2</ele>
        <time>2022-07-07T19:48:23Z</time>
      </trkpt>
      <trkpt lat="49.25376" lon="0.19504">
        <ele>115</ele>
        <time>2022-07-07T19:48:23Z</time>
      </trkpt>
      <trkpt lat="49.25372" lon="0.19515">
        <ele>114.5</ele>
        <time>2022-07-07T19:48:23Z</time>
      </trkpt>
      <trkpt lat="49.25368" lon="0.19523">
        <ele>114.1</ele>
        <time>2022-07-07T19:48:23Z</time>
      </trkpt>
      <trkpt lat="49.25362" lon="0.19555">
        <ele>112</ele>
        <time>2022-07-07T19:48:23Z</time>
      </trkpt>
      <trkpt lat="49.25362" lon="0.19583">
        <ele>109.7</ele>
        <time>2022-07-07T19:48:23Z</time>
      </trkpt>
      <trkpt lat="49.25363" lon="0.19612">
        <ele>107.8</ele>
        <time>2022-07-07T19:48:23Z</time>
      </trkpt>
      <trkpt lat="49.25366" lon="0.19637">
        <ele>104.6</ele>
        <time>2022-07-07T19:48:23Z</time>
      </trkpt>
      <trkpt lat="49.25372" lon="0.19666">
        <ele>99</ele>
        <time>2022-07-07T19:48:23Z</time>
      </trkpt>
      <trkpt lat="49.25383" lon="0.19703">
        <ele>92.5</ele>
        <time>2022-07-07T19:48:23Z</time>
      </trkpt>
      <trkpt lat="49.25398" lon="0.19767">
        <ele>86.9</ele>
        <time>2022-07-07T19:48:23Z</time>
      </trkpt>
      <trkpt lat="49.25418" lon="0.19838">
        <ele>80.1</ele>
        <time>2022-07-07T19:48:23Z</time>
      </trkpt>
      <trkpt lat="49.25435" lon="0.19908">
        <ele>76.5</ele>
        <time>2022-07-07T19:48:23Z</time>
      </trkpt>
      <trkpt lat="49.25446" lon="0.19965">
        <ele>72</ele>
        <time>2022-07-07T19:48:23Z</time>
      </trkpt>
      <trkpt lat="49.2545" lon="0.1997">
        <ele>70</ele>
        <time>2022-07-07T19:48:23Z</time>
      </trkpt>
      <trkpt lat="49.25447" lon="0.19983">
        <ele>70.7</ele>
        <time>2022-07-07T19:48:23Z</time>
      </trkpt>
      <trkpt lat="49.25444" lon="0.19993">
        <ele>71.2</ele>
        <time>2022-07-07T19:48:23Z</time>
      </trkpt>
      <trkpt lat="49.2544" lon="0.20008">
        <ele>71.7</ele>
        <time>2022-07-07T19:48:23Z</time>
      </trkpt>
      <trkpt lat="49.25435" lon="0.20026">
        <ele>71.4</ele>
        <time>2022-07-07T19:48:23Z</time>
      </trkpt>
      <trkpt lat="49.25432" lon="0.2004">
        <ele>72.1</ele>
        <time>2022-07-07T19:48:23Z</time>
      </trkpt>
      <trkpt lat="49.25431" lon="0.20049">
        <ele>70.9</ele>
        <time>2022-07-07T19:48:23Z</time>
      </trkpt>
      <trkpt lat="49.25431" lon="0.2006">
        <ele>69.1</ele>
        <time>2022-07-07T19:48:23Z</time>
      </trkpt>
      <trkpt lat="49.25434" lon="0.20068">
        <ele>67.4</ele>
        <time>2022-07-07T19:48:23Z</time>
      </trkpt>
      <trkpt lat="49.25436" lon="0.20074">
        <ele>67.4</ele>
        <time>2022-07-07T19:48:23Z</time>
      </trkpt>
      <trkpt lat="49.25438" lon="0.20083">
        <ele>65.4</ele>
        <time>2022-07-07T19:48:23Z</time>
      </trkpt>
      <trkpt lat="49.2544" lon="0.20097">
        <ele>64.8</ele>
        <time>2022-07-07T19:48:23Z</time>
      </trkpt>
      <trkpt lat="49.2544" lon="0.2011">
        <ele>63.8</ele>
        <time>2022-07-07T19:48:23Z</time>
      </trkpt>
      <trkpt lat="49.2544" lon="0.20123">
        <ele>62.2</ele>
        <time>2022-07-07T19:48:23Z</time>
      </trkpt>
      <trkpt lat="49.25438" lon="0.20135">
        <ele>61</ele>
        <time>2022-07-07T19:48:23Z</time>
      </trkpt>
      <trkpt lat="49.25436" lon="0.20147">
        <ele>60.5</ele>
        <time>2022-07-07T19:48:23Z</time>
      </trkpt>
      <trkpt lat="49.25433" lon="0.20157">
        <ele>59.7</ele>
        <time>2022-07-07T19:48:23Z</time>
      </trkpt>
      <trkpt lat="49.25432" lon="0.20165">
        <ele>59.1</ele>
        <time>2022-07-07T19:48:23Z</time>
      </trkpt>
      <trkpt lat="49.25433" lon="0.20177">
        <ele>57.5</ele>
        <time>2022-07-07T19:48:23Z</time>
      </trkpt>
      <trkpt lat="49.25429" lon="0.20182">
        <ele>57.4</ele>
        <time>2022-07-07T19:48:23Z</time>
      </trkpt>
      <trkpt lat="49.25423" lon="0.20189">
        <ele>57.2</ele>
        <time>2022-07-07T19:48:23Z</time>
      </trkpt>
      <trkpt lat="49.25418" lon="0.20197">
        <ele>56.9</ele>
        <time>2022-07-07T19:48:23Z</time>
      </trkpt>
      <trkpt lat="49.25412" lon="0.20206">
        <ele>56.5</ele>
        <time>2022-07-07T19:48:23Z</time>
      </trkpt>
      <trkpt lat="49.25406" lon="0.20218">
        <ele>56.5</ele>
        <time>2022-07-07T19:48:23Z</time>
      </trkpt>
      <trkpt lat="49.25399" lon="0.20232">
        <ele>56.2</ele>
        <time>2022-07-07T19:48:23Z</time>
      </trkpt>
      <trkpt lat="49.25394" lon="0.20245">
        <ele>56.4</ele>
        <time>2022-07-07T19:48:23Z</time>
      </trkpt>
      <trkpt lat="49.25388" lon="0.20257">
        <ele>56.4</ele>
        <time>2022-07-07T19:48:23Z</time>
      </trkpt>
      <trkpt lat="49.25382" lon="0.20267">
        <ele>56.3</ele>
        <time>2022-07-07T19:48:23Z</time>
      </trkpt>
      <trkpt lat="49.25376" lon="0.20278">
        <ele>56.3</ele>
        <time>2022-07-07T19:48:23Z</time>
      </trkpt>
      <trkpt lat="49.25372" lon="0.20284">
        <ele>56.3</ele>
        <time>2022-07-07T19:48:23Z</time>
      </trkpt>
      <trkpt lat="49.25367" lon="0.2029">
        <ele>56.4</ele>
        <time>2022-07-07T19:48:23Z</time>
      </trkpt>
      <trkpt lat="49.25361" lon="0.20297">
        <ele>56.2</ele>
        <time>2022-07-07T19:48:23Z</time>
      </trkpt>
      <trkpt lat="49.25348" lon="0.20311">
        <ele>56</ele>
        <time>2022-07-07T19:48:23Z</time>
      </trkpt>
      <trkpt lat="49.25332" lon="0.20329">
        <ele>55.7</ele>
        <time>2022-07-07T19:48:23Z</time>
      </trkpt>
      <trkpt lat="49.2532" lon="0.2034">
        <ele>55.5</ele>
        <time>2022-07-07T19:48:23Z</time>
      </trkpt>
      <trkpt lat="49.25308" lon="0.20351">
        <ele>55.1</ele>
        <time>2022-07-07T19:48:23Z</time>
      </trkpt>
      <trkpt lat="49.25297" lon="0.20361">
        <ele>54.9</ele>
        <time>2022-07-07T19:48:23Z</time>
      </trkpt>
      <trkpt lat="49.25286" lon="0.20371">
        <ele>54.6</ele>
        <time>2022-07-07T19:48:23Z</time>
      </trkpt>
      <trkpt lat="49.25269" lon="0.20383">
        <ele>54</ele>
        <time>2022-07-07T19:48:23Z</time>
      </trkpt>
      <trkpt lat="49.25253" lon="0.20394">
        <ele>53.7</ele>
        <time>2022-07-07T19:48:23Z</time>
      </trkpt>
      <trkpt lat="49.25235" lon="0.20407">
        <ele>52.3</ele>
        <time>2022-07-07T19:48:23Z</time>
      </trkpt>
      <trkpt lat="49.25216" lon="0.20418">
        <ele>51.5</ele>
        <time>2022-07-07T19:48:23Z</time>
      </trkpt>
      <trkpt lat="49.25206" lon="0.20426">
        <ele>50.8</ele>
        <time>2022-07-07T19:48:23Z</time>
      </trkpt>
      <trkpt lat="49.25194" lon="0.20436">
        <ele>50</ele>
        <time>2022-07-07T19:48:23Z</time>
      </trkpt>
      <trkpt lat="49.25188" lon="0.20442">
        <ele>49.2</ele>
        <time>2022-07-07T19:48:23Z</time>
      </trkpt>
      <trkpt lat="49.25181" lon="0.2045">
        <ele>48.5</ele>
        <time>2022-07-07T19:48:23Z</time>
      </trkpt>
      <trkpt lat="49.25171" lon="0.20461">
        <ele>47.5</ele>
        <time>2022-07-07T19:48:23Z</time>
      </trkpt>
      <trkpt lat="49.25154" lon="0.20482">
        <ele>45.9</ele>
        <time>2022-07-07T19:48:23Z</time>
      </trkpt>
      <trkpt lat="49.25142" lon="0.20499">
        <ele>45.1</ele>
        <time>2022-07-07T19:48:23Z</time>
      </trkpt>
      <trkpt lat="49.25133" lon="0.20511">
        <ele>44.6</ele>
        <time>2022-07-07T19:48:23Z</time>
      </trkpt>
      <trkpt lat="49.25126" lon="0.2052">
        <ele>44.7</ele>
        <time>2022-07-07T19:48:23Z</time>
      </trkpt>
      <trkpt lat="49.25116" lon="0.20538">
        <ele>44.7</ele>
        <time>2022-07-07T19:48:23Z</time>
      </trkpt>
      <trkpt lat="49.25101" lon="0.20566">
        <ele>45.8</ele>
        <time>2022-07-07T19:48:23Z</time>
      </trkpt>
      <trkpt lat="49.25093" lon="0.20578">
        <ele>46.7</ele>
        <time>2022-07-07T19:48:23Z</time>
      </trkpt>
      <trkpt lat="49.25086" lon="0.20586">
        <ele>47.1</ele>
        <time>2022-07-07T19:48:23Z</time>
      </trkpt>
      <trkpt lat="49.25079" lon="0.20591">
        <ele>48</ele>
        <time>2022-07-07T19:48:23Z</time>
      </trkpt>
      <trkpt lat="49.25094" lon="0.20618">
        <ele>45.7</ele>
        <time>2022-07-07T19:48:23Z</time>
      </trkpt>
      <trkpt lat="49.25133" lon="0.20691">
        <ele>40.4</ele>
        <time>2022-07-07T19:48:23Z</time>
      </trkpt>
      <trkpt lat="49.25166" lon="0.20756">
        <ele>35.7</ele>
        <time>2022-07-07T19:48:23Z</time>
      </trkpt>
      <trkpt lat="49.25169" lon="0.20762">
        <ele>35.3</ele>
        <time>2022-07-07T19:48:23Z</time>
      </trkpt>
      <trkpt lat="49.25209" lon="0.20839">
        <ele>29.6</ele>
        <time>2022-07-07T19:48:23Z</time>
      </trkpt>
      <trkpt lat="49.2524" lon="0.20896">
        <ele>25.3</ele>
        <time>2022-07-07T19:48:23Z</time>
      </trkpt>
      <trkpt lat="49.25251" lon="0.2092">
        <ele>24.3</ele>
        <time>2022-07-07T19:48:23Z</time>
      </trkpt>
      <trkpt lat="49.25255" lon="0.2093">
        <ele>23.8</ele>
        <time>2022-07-07T19:48:23Z</time>
      </trkpt>
      <trkpt lat="49.25258" lon="0.20947">
        <ele>23.1</ele>
        <time>2022-07-07T19:48:23Z</time>
      </trkpt>
      <trkpt lat="49.2526" lon="0.20964">
        <ele>22.8</ele>
        <time>2022-07-07T19:48:23Z</time>
      </trkpt>
      <trkpt lat="49.25263" lon="0.2099">
        <ele>22.6</ele>
        <time>2022-07-07T19:48:23Z</time>
      </trkpt>
      <trkpt lat="49.25254" lon="0.20997">
        <ele>22.7</ele>
        <time>2022-07-07T19:48:23Z</time>
      </trkpt>
      <trkpt lat="49.25255" lon="0.2101">
        <ele>22.2</ele>
        <time>2022-07-07T19:48:23Z</time>
      </trkpt>
      <trkpt lat="49.25257" lon="0.21037">
        <ele>20.9</ele>
        <time>2022-07-07T19:48:23Z</time>
      </trkpt>
      <trkpt lat="49.25259" lon="0.21056">
        <ele>19.6</ele>
        <time>2022-07-07T19:48:23Z</time>
      </trkpt>
      <trkpt lat="49.25262" lon="0.21086">
        <ele>20.4</ele>
        <time>2022-07-07T19:48:23Z</time>
      </trkpt>
      <trkpt lat="49.25265" lon="0.2111">
        <ele>20.3</ele>
        <time>2022-07-07T19:48:23Z</time>
      </trkpt>
      <trkpt lat="49.25266" lon="0.21118">
        <ele>19.8</ele>
        <time>2022-07-07T19:48:23Z</time>
      </trkpt>
      <trkpt lat="49.25267" lon="0.21133">
        <ele>19.9</ele>
        <time>2022-07-07T19:48:23Z</time>
      </trkpt>
      <trkpt lat="49.25268" lon="0.21151">
        <ele>19.8</ele>
        <time>2022-07-07T19:48:23Z</time>
      </trkpt>
      <trkpt lat="49.25268" lon="0.21167">
        <ele>19.6</ele>
        <time>2022-07-07T19:48:23Z</time>
      </trkpt>
      <trkpt lat="49.25268" lon="0.21184">
        <ele>19.5</ele>
        <time>2022-07-07T19:48:23Z</time>
      </trkpt>
      <trkpt lat="49.25267" lon="0.212">
        <ele>19.5</ele>
        <time>2022-07-07T19:48:23Z</time>
      </trkpt>
      <trkpt lat="49.25266" lon="0.2122">
        <ele>19.4</ele>
        <time>2022-07-07T19:48:23Z</time>
      </trkpt>
      <trkpt lat="49.25265" lon="0.21237">
        <ele>19.5</ele>
        <time>2022-07-07T19:48:23Z</time>
      </trkpt>
      <trkpt lat="49.25264" lon="0.21259">
        <ele>19.5</ele>
        <time>2022-07-07T19:48:23Z</time>
      </trkpt>
      <trkpt lat="49.25262" lon="0.21277">
        <ele>19.4</ele>
        <time>2022-07-07T19:48:23Z</time>
      </trkpt>
      <trkpt lat="49.2526" lon="0.21296">
        <ele>19.7</ele>
        <time>2022-07-07T19:48:23Z</time>
      </trkpt>
      <trkpt lat="49.25258" lon="0.21316">
        <ele>19.6</ele>
        <time>2022-07-07T19:48:23Z</time>
      </trkpt>
      <trkpt lat="49.25256" lon="0.21336">
        <ele>19.8</ele>
        <time>2022-07-07T19:48:23Z</time>
      </trkpt>
      <trkpt lat="49.25252" lon="0.2136">
        <ele>19.8</ele>
        <time>2022-07-07T19:48:23Z</time>
      </trkpt>
      <trkpt lat="49.25247" lon="0.2138">
        <ele>20</ele>
        <time>2022-07-07T19:48:23Z</time>
      </trkpt>
      <trkpt lat="49.25242" lon="0.21398">
        <ele>20.2</ele>
        <time>2022-07-07T19:48:23Z</time>
      </trkpt>
      <trkpt lat="49.25237" lon="0.21414">
        <ele>20.3</ele>
        <time>2022-07-07T19:48:23Z</time>
      </trkpt>
      <trkpt lat="49.2523" lon="0.21433">
        <ele>20.5</ele>
        <time>2022-07-07T19:48:23Z</time>
      </trkpt>
      <trkpt lat="49.25217" lon="0.21467">
        <ele>20.6</ele>
        <time>2022-07-07T19:48:23Z</time>
      </trkpt>
      <trkpt lat="49.25207" lon="0.21498">
        <ele>20.7</ele>
        <time>2022-07-07T19:48:23Z</time>
      </trkpt>
      <trkpt lat="49.25198" lon="0.21525">
        <ele>20.8</ele>
        <time>2022-07-07T19:48:23Z</time>
      </trkpt>
      <trkpt lat="49.25191" lon="0.21552">
        <ele>20.9</ele>
        <time>2022-07-07T19:48:23Z</time>
      </trkpt>
      <trkpt lat="49.25185" lon="0.21579">
        <ele>21.3</ele>
        <time>2022-07-07T19:48:23Z</time>
      </trkpt>
      <trkpt lat="49.25181" lon="0.21605">
        <ele>21.8</ele>
        <time>2022-07-07T19:48:23Z</time>
      </trkpt>
      <trkpt lat="49.25179" lon="0.21616">
        <ele>21.9</ele>
        <time>2022-07-07T19:48:23Z</time>
      </trkpt>
      <trkpt lat="49.25175" lon="0.21648">
        <ele>22.9</ele>
        <time>2022-07-07T19:48:23Z</time>
      </trkpt>
      <trkpt lat="49.25172" lon="0.21678">
        <ele>23.9</ele>
        <time>2022-07-07T19:48:23Z</time>
      </trkpt>
      <trkpt lat="49.25171" lon="0.217">
        <ele>24.5</ele>
        <time>2022-07-07T19:48:23Z</time>
      </trkpt>
      <trkpt lat="49.25171" lon="0.21712">
        <ele>24.8</ele>
        <time>2022-07-07T19:48:23Z</time>
      </trkpt>
      <trkpt lat="49.2517" lon="0.21736">
        <ele>26.1</ele>
        <time>2022-07-07T19:48:23Z</time>
      </trkpt>
      <trkpt lat="49.2517" lon="0.21762">
        <ele>27</ele>
        <time>2022-07-07T19:48:23Z</time>
      </trkpt>
      <trkpt lat="49.25171" lon="0.21786">
        <ele>27.7</ele>
        <time>2022-07-07T19:48:23Z</time>
      </trkpt>
      <trkpt lat="49.25172" lon="0.21808">
        <ele>28.4</ele>
        <time>2022-07-07T19:48:23Z</time>
      </trkpt>
      <trkpt lat="49.25172" lon="0.2182">
        <ele>28.8</ele>
        <time>2022-07-07T19:48:23Z</time>
      </trkpt>
      <trkpt lat="49.25173" lon="0.21838">
        <ele>28</ele>
        <time>2022-07-07T19:48:23Z</time>
      </trkpt>
      <trkpt lat="49.25174" lon="0.21854">
        <ele>22.2</ele>
        <time>2022-07-07T19:48:23Z</time>
      </trkpt>
      <trkpt lat="49.25175" lon="0.2187">
        <ele>28.1</ele>
        <time>2022-07-07T19:48:23Z</time>
      </trkpt>
      <trkpt lat="49.25176" lon="0.21902">
        <ele>28.5</ele>
        <time>2022-07-07T19:48:23Z</time>
      </trkpt>
      <trkpt lat="49.25178" lon="0.21959">
        <ele>27.4</ele>
        <time>2022-07-07T19:48:23Z</time>
      </trkpt>
      <trkpt lat="49.25177" lon="0.21973">
        <ele>27.3</ele>
        <time>2022-07-07T19:48:23Z</time>
      </trkpt>
      <trkpt lat="49.25175" lon="0.21981">
        <ele>27.3</ele>
        <time>2022-07-07T19:48:23Z</time>
      </trkpt>
      <trkpt lat="49.25173" lon="0.21987">
        <ele>27.4</ele>
        <time>2022-07-07T19:48:23Z</time>
      </trkpt>
      <trkpt lat="49.25169" lon="0.21996">
        <ele>27.7</ele>
        <time>2022-07-07T19:48:23Z</time>
      </trkpt>
      <trkpt lat="49.25166" lon="0.22002">
        <ele>28</ele>
        <time>2022-07-07T19:48:23Z</time>
      </trkpt>
      <trkpt lat="49.25163" lon="0.22009">
        <ele>28.1</ele>
        <time>2022-07-07T19:48:23Z</time>
      </trkpt>
      <trkpt lat="49.25162" lon="0.22018">
        <ele>28.3</ele>
        <time>2022-07-07T19:48:23Z</time>
      </trkpt>
      <trkpt lat="49.25162" lon="0.22026">
        <ele>28.4</ele>
        <time>2022-07-07T19:48:23Z</time>
      </trkpt>
      <trkpt lat="49.25163" lon="0.22034">
        <ele>28.2</ele>
        <time>2022-07-07T19:48:23Z</time>
      </trkpt>
      <trkpt lat="49.25166" lon="0.22042">
        <ele>29</ele>
        <time>2022-07-07T19:48:23Z</time>
      </trkpt>
      <trkpt lat="49.25171" lon="0.22049">
        <ele>28.9</ele>
        <time>2022-07-07T19:48:23Z</time>
      </trkpt>
      <trkpt lat="49.25178" lon="0.2206">
        <ele>28.5</ele>
        <time>2022-07-07T19:48:23Z</time>
      </trkpt>
      <trkpt lat="49.2518" lon="0.22068">
        <ele>28.4</ele>
        <time>2022-07-07T19:48:23Z</time>
      </trkpt>
      <trkpt lat="49.25181" lon="0.22075">
        <ele>28.6</ele>
        <time>2022-07-07T19:48:23Z</time>
      </trkpt>
      <trkpt lat="49.25181" lon="0.22083">
        <ele>29</ele>
        <time>2022-07-07T19:48:23Z</time>
      </trkpt>
      <trkpt lat="49.25181" lon="0.22091">
        <ele>29.5</ele>
        <time>2022-07-07T19:48:23Z</time>
      </trkpt>
      <trkpt lat="49.25179" lon="0.22104">
        <ele>30.1</ele>
        <time>2022-07-07T19:48:23Z</time>
      </trkpt>
      <trkpt lat="49.25177" lon="0.22116">
        <ele>30.8</ele>
        <time>2022-07-07T19:48:23Z</time>
      </trkpt>
      <trkpt lat="49.25173" lon="0.22129">
        <ele>31.5</ele>
        <time>2022-07-07T19:48:23Z</time>
      </trkpt>
      <trkpt lat="49.25168" lon="0.2214">
        <ele>32.1</ele>
        <time>2022-07-07T19:48:23Z</time>
      </trkpt>
      <trkpt lat="49.25162" lon="0.22151">
        <ele>32.7</ele>
        <time>2022-07-07T19:48:23Z</time>
      </trkpt>
      <trkpt lat="49.25155" lon="0.22162">
        <ele>33.4</ele>
        <time>2022-07-07T19:48:23Z</time>
      </trkpt>
      <trkpt lat="49.25146" lon="0.22174">
        <ele>34.2</ele>
        <time>2022-07-07T19:48:23Z</time>
      </trkpt>
      <trkpt lat="49.25133" lon="0.22189">
        <ele>35.4</ele>
        <time>2022-07-07T19:48:23Z</time>
      </trkpt>
      <trkpt lat="49.2512" lon="0.22204">
        <ele>36.5</ele>
        <time>2022-07-07T19:48:23Z</time>
      </trkpt>
      <trkpt lat="49.25113" lon="0.22214">
        <ele>37.3</ele>
        <time>2022-07-07T19:48:23Z</time>
      </trkpt>
      <trkpt lat="49.25107" lon="0.22223">
        <ele>37.8</ele>
        <time>2022-07-07T19:48:23Z</time>
      </trkpt>
      <trkpt lat="49.25101" lon="0.22232">
        <ele>38.6</ele>
        <time>2022-07-07T19:48:23Z</time>
      </trkpt>
      <trkpt lat="49.25095" lon="0.22241">
        <ele>39.2</ele>
        <time>2022-07-07T19:48:23Z</time>
      </trkpt>
      <trkpt lat="49.25091" lon="0.22249">
        <ele>39.7</ele>
        <time>2022-07-07T19:48:23Z</time>
      </trkpt>
      <trkpt lat="49.25086" lon="0.2226">
        <ele>40.3</ele>
        <time>2022-07-07T19:48:23Z</time>
      </trkpt>
      <trkpt lat="49.25082" lon="0.22273">
        <ele>40.9</ele>
        <time>2022-07-07T19:48:23Z</time>
      </trkpt>
      <trkpt lat="49.25077" lon="0.22289">
        <ele>41.6</ele>
        <time>2022-07-07T19:48:23Z</time>
      </trkpt>
      <trkpt lat="49.25073" lon="0.22304">
        <ele>42.3</ele>
        <time>2022-07-07T19:48:23Z</time>
      </trkpt>
      <trkpt lat="49.2507" lon="0.22321">
        <ele>42.8</ele>
        <time>2022-07-07T19:48:23Z</time>
      </trkpt>
      <trkpt lat="49.25067" lon="0.2234">
        <ele>43.4</ele>
        <time>2022-07-07T19:48:23Z</time>
      </trkpt>
      <trkpt lat="49.25064" lon="0.22361">
        <ele>43.3</ele>
        <time>2022-07-07T19:48:23Z</time>
      </trkpt>
      <trkpt lat="49.25062" lon="0.22384">
        <ele>43.9</ele>
        <time>2022-07-07T19:48:23Z</time>
      </trkpt>
      <trkpt lat="49.25062" lon="0.22407">
        <ele>44.2</ele>
        <time>2022-07-07T19:48:23Z</time>
      </trkpt>
      <trkpt lat="49.25063" lon="0.22431">
        <ele>44.6</ele>
        <time>2022-07-07T19:48:23Z</time>
      </trkpt>
      <trkpt lat="49.25065" lon="0.22457">
        <ele>45</ele>
        <time>2022-07-07T19:48:23Z</time>
      </trkpt>
      <trkpt lat="49.25066" lon="0.22477">
        <ele>45.6</ele>
        <time>2022-07-07T19:48:23Z</time>
      </trkpt>
      <trkpt lat="49.25065" lon="0.22496">
        <ele>45.9</ele>
        <time>2022-07-07T19:48:23Z</time>
      </trkpt>
      <trkpt lat="49.25065" lon="0.22512">
        <ele>46.3</ele>
        <time>2022-07-07T19:48:23Z</time>
      </trkpt>
      <trkpt lat="49.25063" lon="0.22527">
        <ele>46.7</ele>
        <time>2022-07-07T19:48:23Z</time>
      </trkpt>
      <trkpt lat="49.25061" lon="0.22542">
        <ele>47</ele>
        <time>2022-07-07T19:48:23Z</time>
      </trkpt>
      <trkpt lat="49.25058" lon="0.22558">
        <ele>47.4</ele>
        <time>2022-07-07T19:48:23Z</time>
      </trkpt>
      <trkpt lat="49.25054" lon="0.22575">
        <ele>47.7</ele>
        <time>2022-07-07T19:48:23Z</time>
      </trkpt>
      <trkpt lat="49.25049" lon="0.22596">
        <ele>48.2</ele>
        <time>2022-07-07T19:48:23Z</time>
      </trkpt>
      <trkpt lat="49.25044" lon="0.22614">
        <ele>48.6</ele>
        <time>2022-07-07T19:48:23Z</time>
      </trkpt>
      <trkpt lat="49.2504" lon="0.22632">
        <ele>49.1</ele>
        <time>2022-07-07T19:48:23Z</time>
      </trkpt>
      <trkpt lat="49.25037" lon="0.2265">
        <ele>49.7</ele>
        <time>2022-07-07T19:48:23Z</time>
      </trkpt>
      <trkpt lat="49.25032" lon="0.22667">
        <ele>50.4</ele>
        <time>2022-07-07T19:48:23Z</time>
      </trkpt>
      <trkpt lat="49.25026" lon="0.22685">
        <ele>51.2</ele>
        <time>2022-07-07T19:48:23Z</time>
      </trkpt>
      <trkpt lat="49.2502" lon="0.22699">
        <ele>51.8</ele>
        <time>2022-07-07T19:48:23Z</time>
      </trkpt>
      <trkpt lat="49.25014" lon="0.22715">
        <ele>52.5</ele>
        <time>2022-07-07T19:48:23Z</time>
      </trkpt>
      <trkpt lat="49.25008" lon="0.22733">
        <ele>53.4</ele>
        <time>2022-07-07T19:48:23Z</time>
      </trkpt>
      <trkpt lat="49.25002" lon="0.2275">
        <ele>54.3</ele>
        <time>2022-07-07T19:48:23Z</time>
      </trkpt>
      <trkpt lat="49.24997" lon="0.22764">
        <ele>54.8</ele>
        <time>2022-07-07T19:48:23Z</time>
      </trkpt>
      <trkpt lat="49.24993" lon="0.22781">
        <ele>55.4</ele>
        <time>2022-07-07T19:48:23Z</time>
      </trkpt>
      <trkpt lat="49.24989" lon="0.22801">
        <ele>56</ele>
        <time>2022-07-07T19:48:23Z</time>
      </trkpt>
      <trkpt lat="49.24985" lon="0.22821">
        <ele>56.5</ele>
        <time>2022-07-07T19:48:23Z</time>
      </trkpt>
      <trkpt lat="49.24979" lon="0.22848">
        <ele>57.2</ele>
        <time>2022-07-07T19:48:23Z</time>
      </trkpt>
      <trkpt lat="49.24975" lon="0.2287">
        <ele>57.8</ele>
        <time>2022-07-07T19:48:23Z</time>
      </trkpt>
      <trkpt lat="49.2497" lon="0.22897">
        <ele>58.5</ele>
        <time>2022-07-07T19:48:23Z</time>
      </trkpt>
      <trkpt lat="49.24967" lon="0.22922">
        <ele>59.1</ele>
        <time>2022-07-07T19:48:23Z</time>
      </trkpt>
      <trkpt lat="49.24965" lon="0.22948">
        <ele>59.2</ele>
        <time>2022-07-07T19:48:23Z</time>
      </trkpt>
      <trkpt lat="49.24965" lon="0.22973">
        <ele>59.2</ele>
        <time>2022-07-07T19:48:23Z</time>
      </trkpt>
      <trkpt lat="49.24965" lon="0.22999">
        <ele>59</ele>
        <time>2022-07-07T19:48:23Z</time>
      </trkpt>
      <trkpt lat="49.24966" lon="0.23034">
        <ele>58.9</ele>
        <time>2022-07-07T19:48:23Z</time>
      </trkpt>
      <trkpt lat="49.24966" lon="0.23067">
        <ele>58.8</ele>
        <time>2022-07-07T19:48:23Z</time>
      </trkpt>
      <trkpt lat="49.24968" lon="0.23087">
        <ele>58.8</ele>
        <time>2022-07-07T19:48:23Z</time>
      </trkpt>
      <trkpt lat="49.24969" lon="0.23111">
        <ele>58.8</ele>
        <time>2022-07-07T19:48:23Z</time>
      </trkpt>
      <trkpt lat="49.24969" lon="0.23134">
        <ele>58.8</ele>
        <time>2022-07-07T19:48:23Z</time>
      </trkpt>
      <trkpt lat="49.24968" lon="0.23148">
        <ele>58.8</ele>
        <time>2022-07-07T19:48:23Z</time>
      </trkpt>
      <trkpt lat="49.24966" lon="0.23164">
        <ele>58.8</ele>
        <time>2022-07-07T19:48:23Z</time>
      </trkpt>
      <trkpt lat="49.24964" lon="0.23181">
        <ele>58.7</ele>
        <time>2022-07-07T19:48:23Z</time>
      </trkpt>
      <trkpt lat="49.24961" lon="0.23198">
        <ele>58.6</ele>
        <time>2022-07-07T19:48:23Z</time>
      </trkpt>
      <trkpt lat="49.24957" lon="0.23215">
        <ele>58.8</ele>
        <time>2022-07-07T19:48:23Z</time>
      </trkpt>
      <trkpt lat="49.24952" lon="0.23231">
        <ele>59.2</ele>
        <time>2022-07-07T19:48:23Z</time>
      </trkpt>
      <trkpt lat="49.24945" lon="0.2325">
        <ele>59.3</ele>
        <time>2022-07-07T19:48:23Z</time>
      </trkpt>
      <trkpt lat="49.24939" lon="0.23267">
        <ele>59.5</ele>
        <time>2022-07-07T19:48:23Z</time>
      </trkpt>
      <trkpt lat="49.24933" lon="0.23283">
        <ele>59.7</ele>
        <time>2022-07-07T19:48:23Z</time>
      </trkpt>
      <trkpt lat="49.24926" lon="0.23299">
        <ele>59.6</ele>
        <time>2022-07-07T19:48:23Z</time>
      </trkpt>
      <trkpt lat="49.24919" lon="0.23313">
        <ele>59.6</ele>
        <time>2022-07-07T19:48:23Z</time>
      </trkpt>
      <trkpt lat="49.24912" lon="0.23325">
        <ele>59.4</ele>
        <time>2022-07-07T19:48:23Z</time>
      </trkpt>
      <trkpt lat="49.24905" lon="0.23337">
        <ele>59.4</ele>
        <time>2022-07-07T19:48:23Z</time>
      </trkpt>
      <trkpt lat="49.249" lon="0.23345">
        <ele>59</ele>
        <time>2022-07-07T19:48:23Z</time>
      </trkpt>
      <trkpt lat="49.24885" lon="0.23365">
        <ele>58.5</ele>
        <time>2022-07-07T19:48:23Z</time>
      </trkpt>
      <trkpt lat="49.24871" lon="0.2338">
        <ele>57.9</ele>
        <time>2022-07-07T19:48:23Z</time>
      </trkpt>
      <trkpt lat="49.24865" lon="0.23387">
        <ele>57.6</ele>
        <time>2022-07-07T19:48:23Z</time>
      </trkpt>
      <trkpt lat="49.24852" lon="0.234">
        <ele>57.4</ele>
        <time>2022-07-07T19:48:23Z</time>
      </trkpt>
      <trkpt lat="49.24841" lon="0.23414">
        <ele>57.3</ele>
        <time>2022-07-07T19:48:23Z</time>
      </trkpt>
      <trkpt lat="49.24833" lon="0.23431">
        <ele>57.7</ele>
        <time>2022-07-07T19:48:23Z</time>
      </trkpt>
      <trkpt lat="49.24825" lon="0.23452">
        <ele>58.1</ele>
        <time>2022-07-07T19:48:23Z</time>
      </trkpt>
      <trkpt lat="49.24816" lon="0.23484">
        <ele>59</ele>
        <time>2022-07-07T19:48:23Z</time>
      </trkpt>
      <trkpt lat="49.24803" lon="0.23527">
        <ele>60.2</ele>
        <time>2022-07-07T19:48:23Z</time>
      </trkpt>
      <trkpt lat="49.24787" lon="0.23577">
        <ele>61.3</ele>
        <time>2022-07-07T19:48:23Z</time>
      </trkpt>
      <trkpt lat="49.24772" lon="0.23621">
        <ele>61.3</ele>
        <time>2022-07-07T19:48:23Z</time>
      </trkpt>
      <trkpt lat="49.24749" lon="0.23685">
        <ele>60.8</ele>
        <time>2022-07-07T19:48:23Z</time>
      </trkpt>
      <trkpt lat="49.2473" lon="0.23735">
        <ele>60.4</ele>
        <time>2022-07-07T19:48:23Z</time>
      </trkpt>
      <trkpt lat="49.24719" lon="0.23772">
        <ele>60.1</ele>
        <time>2022-07-07T19:48:23Z</time>
      </trkpt>
      <trkpt lat="49.24708" lon="0.23817">
        <ele>59.6</ele>
        <time>2022-07-07T19:48:23Z</time>
      </trkpt>
      <trkpt lat="49.247" lon="0.23856">
        <ele>59.6</ele>
        <time>2022-07-07T19:48:23Z</time>
      </trkpt>
      <trkpt lat="49.24693" lon="0.23882">
        <ele>59.8</ele>
        <time>2022-07-07T19:48:23Z</time>
      </trkpt>
      <trkpt lat="49.24686" lon="0.23903">
        <ele>59.4</ele>
        <time>2022-07-07T19:48:23Z</time>
      </trkpt>
      <trkpt lat="49.24676" lon="0.23932">
        <ele>59.2</ele>
        <time>2022-07-07T19:48:23Z</time>
      </trkpt>
      <trkpt lat="49.24667" lon="0.23957">
        <ele>58.8</ele>
        <time>2022-07-07T19:48:23Z</time>
      </trkpt>
      <trkpt lat="49.24653" lon="0.23993">
        <ele>57.8</ele>
        <time>2022-07-07T19:48:23Z</time>
      </trkpt>
      <trkpt lat="49.24642" lon="0.24026">
        <ele>56.8</ele>
        <time>2022-07-07T19:48:23Z</time>
      </trkpt>
      <trkpt lat="49.2463" lon="0.24061">
        <ele>55.7</ele>
        <time>2022-07-07T19:48:23Z</time>
      </trkpt>
      <trkpt lat="49.24604" lon="0.2414">
        <ele>56.5</ele>
        <time>2022-07-07T19:48:23Z</time>
      </trkpt>
      <trkpt lat="49.24595" lon="0.24191">
        <ele>56.6</ele>
        <time>2022-07-07T19:48:23Z</time>
      </trkpt>
      <trkpt lat="49.24584" lon="0.24252">
        <ele>56</ele>
        <time>2022-07-07T19:48:23Z</time>
      </trkpt>
      <trkpt lat="49.24573" lon="0.2431">
        <ele>55.8</ele>
        <time>2022-07-07T19:48:23Z</time>
      </trkpt>
      <trkpt lat="49.24566" lon="0.24351">
        <ele>53.9</ele>
        <time>2022-07-07T19:48:23Z</time>
      </trkpt>
      <trkpt lat="49.24563" lon="0.24381">
        <ele>52.6</ele>
        <time>2022-07-07T19:48:23Z</time>
      </trkpt>
      <trkpt lat="49.24561" lon="0.24423">
        <ele>51</ele>
        <time>2022-07-07T19:48:23Z</time>
      </trkpt>
      <trkpt lat="49.24558" lon="0.24469">
        <ele>48.9</ele>
        <time>2022-07-07T19:48:23Z</time>
      </trkpt>
      <trkpt lat="49.24555" lon="0.24496">
        <ele>48.4</ele>
        <time>2022-07-07T19:48:23Z</time>
      </trkpt>
      <trkpt lat="49.24552" lon="0.24518">
        <ele>47.8</ele>
        <time>2022-07-07T19:48:23Z</time>
      </trkpt>
      <trkpt lat="49.24549" lon="0.24534">
        <ele>47.4</ele>
        <time>2022-07-07T19:48:23Z</time>
      </trkpt>
      <trkpt lat="49.24546" lon="0.24549">
        <ele>47.1</ele>
        <time>2022-07-07T19:48:23Z</time>
      </trkpt>
      <trkpt lat="49.24542" lon="0.24563">
        <ele>46.7</ele>
        <time>2022-07-07T19:48:23Z</time>
      </trkpt>
      <trkpt lat="49.24537" lon="0.24579">
        <ele>46.3</ele>
        <time>2022-07-07T19:48:23Z</time>
      </trkpt>
      <trkpt lat="49.24529" lon="0.24599">
        <ele>46.3</ele>
        <time>2022-07-07T19:48:23Z</time>
      </trkpt>
      <trkpt lat="49.24509" lon="0.24639">
        <ele>44.3</ele>
        <time>2022-07-07T19:48:23Z</time>
      </trkpt>
      <trkpt lat="49.24493" lon="0.24669">
        <ele>43.7</ele>
        <time>2022-07-07T19:48:23Z</time>
      </trkpt>
      <trkpt lat="49.24481" lon="0.247">
        <ele>43.8</ele>
        <time>2022-07-07T19:48:23Z</time>
      </trkpt>
      <trkpt lat="49.24471" lon="0.24735">
        <ele>44.2</ele>
        <time>2022-07-07T19:48:23Z</time>
      </trkpt>
      <trkpt lat="49.24457" lon="0.24781">
        <ele>44.5</ele>
        <time>2022-07-07T19:48:23Z</time>
      </trkpt>
      <trkpt lat="49.24441" lon="0.24836">
        <ele>45.1</ele>
        <time>2022-07-07T19:48:23Z</time>
      </trkpt>
      <trkpt lat="49.24421" lon="0.24918">
        <ele>45.8</ele>
        <time>2022-07-07T19:48:23Z</time>
      </trkpt>
      <trkpt lat="49.2441" lon="0.24979">
        <ele>47</ele>
        <time>2022-07-07T19:48:23Z</time>
      </trkpt>
      <trkpt lat="49.24398" lon="0.25045">
        <ele>48.4</ele>
        <time>2022-07-07T19:48:23Z</time>
      </trkpt>
      <trkpt lat="49.24376" lon="0.25178">
        <ele>49.8</ele>
        <time>2022-07-07T19:48:23Z</time>
      </trkpt>
      <trkpt lat="49.2437" lon="0.25214">
        <ele>50.4</ele>
        <time>2022-07-07T19:48:23Z</time>
      </trkpt>
      <trkpt lat="49.24364" lon="0.25248">
        <ele>51.3</ele>
        <time>2022-07-07T19:48:23Z</time>
      </trkpt>
      <trkpt lat="49.24361" lon="0.25266">
        <ele>50.7</ele>
        <time>2022-07-07T19:48:23Z</time>
      </trkpt>
      <trkpt lat="49.2435" lon="0.25324">
        <ele>51.6</ele>
        <time>2022-07-07T19:48:23Z</time>
      </trkpt>
      <trkpt lat="49.24332" lon="0.25405">
        <ele>52.3</ele>
        <time>2022-07-07T19:48:23Z</time>
      </trkpt>
      <trkpt lat="49.24316" lon="0.2548">
        <ele>54.4</ele>
        <time>2022-07-07T19:48:23Z</time>
      </trkpt>
      <trkpt lat="49.24303" lon="0.25539">
        <ele>55.5</ele>
        <time>2022-07-07T19:48:23Z</time>
      </trkpt>
      <trkpt lat="49.24294" lon="0.25574">
        <ele>55.8</ele>
        <time>2022-07-07T19:48:23Z</time>
      </trkpt>
      <trkpt lat="49.24285" lon="0.25605">
        <ele>55.8</ele>
        <time>2022-07-07T19:48:23Z</time>
      </trkpt>
      <trkpt lat="49.24277" lon="0.25634">
        <ele>55.5</ele>
        <time>2022-07-07T19:48:23Z</time>
      </trkpt>
      <trkpt lat="49.2427" lon="0.2566">
        <ele>55.1</ele>
        <time>2022-07-07T19:48:23Z</time>
      </trkpt>
      <trkpt lat="49.24266" lon="0.25679">
        <ele>54.9</ele>
        <time>2022-07-07T19:48:23Z</time>
      </trkpt>
      <trkpt lat="49.24263" lon="0.25722">
        <ele>54.5</ele>
        <time>2022-07-07T19:48:23Z</time>
      </trkpt>
      <trkpt lat="49.24262" lon="0.25734">
        <ele>54.6</ele>
        <time>2022-07-07T19:48:23Z</time>
      </trkpt>
      <trkpt lat="49.2426" lon="0.25768">
        <ele>54.8</ele>
        <time>2022-07-07T19:48:23Z</time>
      </trkpt>
      <trkpt lat="49.24259" lon="0.25795">
        <ele>56.1</ele>
        <time>2022-07-07T19:48:23Z</time>
      </trkpt>
      <trkpt lat="49.24257" lon="0.25814">
        <ele>57.6</ele>
        <time>2022-07-07T19:48:23Z</time>
      </trkpt>
      <trkpt lat="49.24252" lon="0.25869">
        <ele>61.2</ele>
        <time>2022-07-07T19:48:23Z</time>
      </trkpt>
      <trkpt lat="49.24246" lon="0.2594">
        <ele>64</ele>
        <time>2022-07-07T19:48:23Z</time>
      </trkpt>
      <trkpt lat="49.24245" lon="0.25969">
        <ele>65.3</ele>
        <time>2022-07-07T19:48:23Z</time>
      </trkpt>
      <trkpt lat="49.24245" lon="0.25984">
        <ele>65.8</ele>
        <time>2022-07-07T19:48:23Z</time>
      </trkpt>
      <trkpt lat="49.24246" lon="0.26007">
        <ele>66.9</ele>
        <time>2022-07-07T19:48:23Z</time>
      </trkpt>
      <trkpt lat="49.24248" lon="0.26028">
        <ele>67.6</ele>
        <time>2022-07-07T19:48:23Z</time>
      </trkpt>
      <trkpt lat="49.2425" lon="0.26051">
        <ele>68.1</ele>
        <time>2022-07-07T19:48:23Z</time>
      </trkpt>
      <trkpt lat="49.24252" lon="0.26077">
        <ele>68.6</ele>
        <time>2022-07-07T19:48:23Z</time>
      </trkpt>
      <trkpt lat="49.24253" lon="0.26101">
        <ele>68.1</ele>
        <time>2022-07-07T19:48:23Z</time>
      </trkpt>
      <trkpt lat="49.24253" lon="0.26122">
        <ele>68.1</ele>
        <time>2022-07-07T19:48:23Z</time>
      </trkpt>
      <trkpt lat="49.24254" lon="0.26141">
        <ele>67.9</ele>
        <time>2022-07-07T19:48:23Z</time>
      </trkpt>
      <trkpt lat="49.24253" lon="0.26167">
        <ele>67.6</ele>
        <time>2022-07-07T19:48:23Z</time>
      </trkpt>
      <trkpt lat="49.24252" lon="0.26195">
        <ele>68.2</ele>
        <time>2022-07-07T19:48:23Z</time>
      </trkpt>
      <trkpt lat="49.24251" lon="0.26253">
        <ele>67.9</ele>
        <time>2022-07-07T19:48:23Z</time>
      </trkpt>
      <trkpt lat="49.2425" lon="0.26306">
        <ele>68.3</ele>
        <time>2022-07-07T19:48:23Z</time>
      </trkpt>
      <trkpt lat="49.24252" lon="0.26341">
        <ele>68.1</ele>
        <time>2022-07-07T19:48:23Z</time>
      </trkpt>
      <trkpt lat="49.24262" lon="0.26534">
        <ele>67.4</ele>
        <time>2022-07-07T19:48:23Z</time>
      </trkpt>
      <trkpt lat="49.24269" lon="0.26682">
        <ele>67.8</ele>
        <time>2022-07-07T19:48:23Z</time>
      </trkpt>
      <trkpt lat="49.24274" lon="0.26775">
        <ele>67.3</ele>
        <time>2022-07-07T19:48:23Z</time>
      </trkpt>
      <trkpt lat="49.24278" lon="0.26835">
        <ele>67.9</ele>
        <time>2022-07-07T19:48:23Z</time>
      </trkpt>
      <trkpt lat="49.24279" lon="0.26865">
        <ele>67.7</ele>
        <time>2022-07-07T19:48:23Z</time>
      </trkpt>
      <trkpt lat="49.2428" lon="0.26881">
        <ele>67.9</ele>
        <time>2022-07-07T19:48:23Z</time>
      </trkpt>
      <trkpt lat="49.2428" lon="0.26894">
        <ele>68.2</ele>
        <time>2022-07-07T19:48:23Z</time>
      </trkpt>
      <trkpt lat="49.2428" lon="0.26905">
        <ele>68.4</ele>
        <time>2022-07-07T19:48:23Z</time>
      </trkpt>
      <trkpt lat="49.24279" lon="0.26917">
        <ele>68.5</ele>
        <time>2022-07-07T19:48:23Z</time>
      </trkpt>
      <trkpt lat="49.24279" lon="0.26929">
        <ele>68.6</ele>
        <time>2022-07-07T19:48:23Z</time>
      </trkpt>
      <trkpt lat="49.24278" lon="0.26943">
        <ele>69.4</ele>
        <time>2022-07-07T19:48:23Z</time>
      </trkpt>
      <trkpt lat="49.24277" lon="0.26958">
        <ele>69.6</ele>
        <time>2022-07-07T19:48:23Z</time>
      </trkpt>
      <trkpt lat="49.24276" lon="0.26972">
        <ele>69.7</ele>
        <time>2022-07-07T19:48:23Z</time>
      </trkpt>
      <trkpt lat="49.24274" lon="0.26986">
        <ele>69.9</ele>
        <time>2022-07-07T19:48:23Z</time>
      </trkpt>
      <trkpt lat="49.24273" lon="0.27003">
        <ele>70.1</ele>
        <time>2022-07-07T19:48:23Z</time>
      </trkpt>
      <trkpt lat="49.24272" lon="0.27017">
        <ele>69.9</ele>
        <time>2022-07-07T19:48:23Z</time>
      </trkpt>
      <trkpt lat="49.24272" lon="0.27028">
        <ele>69.7</ele>
        <time>2022-07-07T19:48:23Z</time>
      </trkpt>
      <trkpt lat="49.24273" lon="0.27037">
        <ele>69.6</ele>
        <time>2022-07-07T19:48:23Z</time>
      </trkpt>
      <trkpt lat="49.24274" lon="0.27046">
        <ele>69</ele>
        <time>2022-07-07T19:48:23Z</time>
      </trkpt>
      <trkpt lat="49.24276" lon="0.27055">
        <ele>69</ele>
        <time>2022-07-07T19:48:23Z</time>
      </trkpt>
      <trkpt lat="49.24277" lon="0.27062">
        <ele>68.9</ele>
        <time>2022-07-07T19:48:23Z</time>
      </trkpt>
      <trkpt lat="49.2428" lon="0.2707">
        <ele>68.5</ele>
        <time>2022-07-07T19:48:23Z</time>
      </trkpt>
      <trkpt lat="49.24282" lon="0.27078">
        <ele>68.4</ele>
        <time>2022-07-07T19:48:23Z</time>
      </trkpt>
      <trkpt lat="49.24288" lon="0.27091">
        <ele>67.8</ele>
        <time>2022-07-07T19:48:23Z</time>
      </trkpt>
      <trkpt lat="49.24297" lon="0.27108">
        <ele>67</ele>
        <time>2022-07-07T19:48:23Z</time>
      </trkpt>
      <trkpt lat="49.24303" lon="0.27118">
        <ele>66.8</ele>
        <time>2022-07-07T19:48:23Z</time>
      </trkpt>
      <trkpt lat="49.24323" lon="0.27148">
        <ele>65</ele>
        <time>2022-07-07T19:48:23Z</time>
      </trkpt>
      <trkpt lat="49.24333" lon="0.27165">
        <ele>64.5</ele>
        <time>2022-07-07T19:48:23Z</time>
      </trkpt>
      <trkpt lat="49.24348" lon="0.27192">
        <ele>62.9</ele>
        <time>2022-07-07T19:48:23Z</time>
      </trkpt>
      <trkpt lat="49.2436" lon="0.27217">
        <ele>61.6</ele>
        <time>2022-07-07T19:48:23Z</time>
      </trkpt>
      <trkpt lat="49.24367" lon="0.27235">
        <ele>61.2</ele>
        <time>2022-07-07T19:48:23Z</time>
      </trkpt>
      <trkpt lat="49.24371" lon="0.27246">
        <ele>60.8</ele>
        <time>2022-07-07T19:48:23Z</time>
      </trkpt>
      <trkpt lat="49.24373" lon="0.27259">
        <ele>60.5</ele>
        <time>2022-07-07T19:48:23Z</time>
      </trkpt>
      <trkpt lat="49.24375" lon="0.27271">
        <ele>60.3</ele>
        <time>2022-07-07T19:48:23Z</time>
      </trkpt>
      <trkpt lat="49.24377" lon="0.27293">
        <ele>59.5</ele>
        <time>2022-07-07T19:48:23Z</time>
      </trkpt>
      <trkpt lat="49.24378" lon="0.273">
        <ele>59.2</ele>
        <time>2022-07-07T19:48:23Z</time>
      </trkpt>
      <trkpt lat="49.24374" lon="0.27307">
        <ele>59.2</ele>
        <time>2022-07-07T19:48:23Z</time>
      </trkpt>
      <trkpt lat="49.2437" lon="0.27313">
        <ele>59.3</ele>
        <time>2022-07-07T19:48:23Z</time>
      </trkpt>
      <trkpt lat="49.24371" lon="0.27322">
        <ele>59.1</ele>
        <time>2022-07-07T19:48:23Z</time>
      </trkpt>
      <trkpt lat="49.24368" lon="0.27329">
        <ele>59.2</ele>
        <time>2022-07-07T19:48:23Z</time>
      </trkpt>
      <trkpt lat="49.24363" lon="0.27336">
        <ele>59.3</ele>
        <time>2022-07-07T19:48:23Z</time>
      </trkpt>
      <trkpt lat="49.2436" lon="0.27345">
        <ele>59.2</ele>
        <time>2022-07-07T19:48:23Z</time>
      </trkpt>
      <trkpt lat="49.24356" lon="0.27354">
        <ele>59.1</ele>
        <time>2022-07-07T19:48:23Z</time>
      </trkpt>
      <trkpt lat="49.24343" lon="0.27394">
        <ele>59.5</ele>
        <time>2022-07-07T19:48:23Z</time>
      </trkpt>
      <trkpt lat="49.2434" lon="0.27404">
        <ele>59.6</ele>
        <time>2022-07-07T19:48:23Z</time>
      </trkpt>
      <trkpt lat="49.24328" lon="0.27439">
        <ele>60</ele>
        <time>2022-07-07T19:48:23Z</time>
      </trkpt>
      <trkpt lat="49.24319" lon="0.27467">
        <ele>60.3</ele>
        <time>2022-07-07T19:48:23Z</time>
      </trkpt>
      <trkpt lat="49.24317" lon="0.27475">
        <ele>60.4</ele>
        <time>2022-07-07T19:48:23Z</time>
      </trkpt>
      <trkpt lat="49.24306" lon="0.2751">
        <ele>61.3</ele>
        <time>2022-07-07T19:48:23Z</time>
      </trkpt>
      <trkpt lat="49.24285" lon="0.27573">
        <ele>63.1</ele>
        <time>2022-07-07T19:48:23Z</time>
      </trkpt>
      <trkpt lat="49.24274" lon="0.27605">
        <ele>63.9</ele>
        <time>2022-07-07T19:48:23Z</time>
      </trkpt>
      <trkpt lat="49.24264" lon="0.27632">
        <ele>64.9</ele>
        <time>2022-07-07T19:48:23Z</time>
      </trkpt>
      <trkpt lat="49.24251" lon="0.27661">
        <ele>66.2</ele>
        <time>2022-07-07T19:48:23Z</time>
      </trkpt>
      <trkpt lat="49.24235" lon="0.27691">
        <ele>68.4</ele>
        <time>2022-07-07T19:48:23Z</time>
      </trkpt>
      <trkpt lat="49.24204" lon="0.27749">
        <ele>70.6</ele>
        <time>2022-07-07T19:48:23Z</time>
      </trkpt>
      <trkpt lat="49.24178" lon="0.27805">
        <ele>71.8</ele>
        <time>2022-07-07T19:48:23Z</time>
      </trkpt>
      <trkpt lat="49.24156" lon="0.27859">
        <ele>72.8</ele>
        <time>2022-07-07T19:48:23Z</time>
      </trkpt>
      <trkpt lat="49.24113" lon="0.27959">
        <ele>73.9</ele>
        <time>2022-07-07T19:48:23Z</time>
      </trkpt>
      <trkpt lat="49.24079" lon="0.28049">
        <ele>74.5</ele>
        <time>2022-07-07T19:48:23Z</time>
      </trkpt>
      <trkpt lat="49.24061" lon="0.28087">
        <ele>74.6</ele>
        <time>2022-07-07T19:48:23Z</time>
      </trkpt>
      <trkpt lat="49.24033" lon="0.28146">
        <ele>75.1</ele>
        <time>2022-07-07T19:48:23Z</time>
      </trkpt>
      <trkpt lat="49.23996" lon="0.28219">
        <ele>75.5</ele>
        <time>2022-07-07T19:48:23Z</time>
      </trkpt>
      <trkpt lat="49.23975" lon="0.28262">
        <ele>75.9</ele>
        <time>2022-07-07T19:48:23Z</time>
      </trkpt>
      <trkpt lat="49.23927" lon="0.28341">
        <ele>77.6</ele>
        <time>2022-07-07T19:48:23Z</time>
      </trkpt>
      <trkpt lat="49.23881" lon="0.2842">
        <ele>80.5</ele>
        <time>2022-07-07T19:48:23Z</time>
      </trkpt>
      <trkpt lat="49.23823" lon="0.28529">
        <ele>85.3</ele>
        <time>2022-07-07T19:48:23Z</time>
      </trkpt>
      <trkpt lat="49.23804" lon="0.28571">
        <ele>85.6</ele>
        <time>2022-07-07T19:48:23Z</time>
      </trkpt>
      <trkpt lat="49.23801" lon="0.28579">
        <ele>85.5</ele>
        <time>2022-07-07T19:48:23Z</time>
      </trkpt>
      <trkpt lat="49.23833" lon="0.28614">
        <ele>81.9</ele>
        <time>2022-07-07T19:48:23Z</time>
      </trkpt>
      <trkpt lat="49.23858" lon="0.2865">
        <ele>77.8</ele>
        <time>2022-07-07T19:48:23Z</time>
      </trkpt>
      <trkpt lat="49.23863" lon="0.28666">
        <ele>76.9</ele>
        <time>2022-07-07T19:48:23Z</time>
      </trkpt>
      <trkpt lat="49.23866" lon="0.28679">
        <ele>76.3</ele>
        <time>2022-07-07T19:48:23Z</time>
      </trkpt>
      <trkpt lat="49.23865" lon="0.28711">
        <ele>73.4</ele>
        <time>2022-07-07T19:48:23Z</time>
      </trkpt>
      <trkpt lat="49.23868" lon="0.28725">
        <ele>71.1</ele>
        <time>2022-07-07T19:48:23Z</time>
      </trkpt>
      <trkpt lat="49.23872" lon="0.28736">
        <ele>69.1</ele>
        <time>2022-07-07T19:48:23Z</time>
      </trkpt>
      <trkpt lat="49.23879" lon="0.28751">
        <ele>66.1</ele>
        <time>2022-07-07T19:48:23Z</time>
      </trkpt>
      <trkpt lat="49.23886" lon="0.28768">
        <ele>64.2</ele>
        <time>2022-07-07T19:48:23Z</time>
      </trkpt>
      <trkpt lat="49.23912" lon="0.2883">
        <ele>62.8</ele>
        <time>2022-07-07T19:48:23Z</time>
      </trkpt>
      <trkpt lat="49.2392" lon="0.28852">
        <ele>62.9</ele>
        <time>2022-07-07T19:48:23Z</time>
      </trkpt>
      <trkpt lat="49.23941" lon="0.28911">
        <ele>64.5</ele>
        <time>2022-07-07T19:48:23Z</time>
      </trkpt>
      <trkpt lat="49.23964" lon="0.28971">
        <ele>70.9</ele>
        <time>2022-07-07T19:48:23Z</time>
      </trkpt>
      <trkpt lat="49.23979" lon="0.28998">
        <ele>74.8</ele>
        <time>2022-07-07T19:48:23Z</time>
      </trkpt>
      <trkpt lat="49.23988" lon="0.29017">
        <ele>76.7</ele>
        <time>2022-07-07T19:48:23Z</time>
      </trkpt>
      <trkpt lat="49.23998" lon="0.29035">
        <ele>78.6</ele>
        <time>2022-07-07T19:48:23Z</time>
      </trkpt>
      <trkpt lat="49.24012" lon="0.29054">
        <ele>81.3</ele>
        <time>2022-07-07T19:48:23Z</time>
      </trkpt>
      <trkpt lat="49.24026" lon="0.29068">
        <ele>83.6</ele>
        <time>2022-07-07T19:48:23Z</time>
      </trkpt>
      <trkpt lat="49.24036" lon="0.2909">
        <ele>86.3</ele>
        <time>2022-07-07T19:48:23Z</time>
      </trkpt>
      <trkpt lat="49.24047" lon="0.29124">
        <ele>91.2</ele>
        <time>2022-07-07T19:48:23Z</time>
      </trkpt>
      <trkpt lat="49.24056" lon="0.29149">
        <ele>95</ele>
        <time>2022-07-07T19:48:23Z</time>
      </trkpt>
      <trkpt lat="49.24059" lon="0.29166">
        <ele>96.7</ele>
        <time>2022-07-07T19:48:23Z</time>
      </trkpt>
      <trkpt lat="49.24058" lon="0.29184">
        <ele>98.8</ele>
        <time>2022-07-07T19:48:23Z</time>
      </trkpt>
      <trkpt lat="49.24052" lon="0.29204">
        <ele>100.9</ele>
        <time>2022-07-07T19:48:23Z</time>
      </trkpt>
      <trkpt lat="49.24049" lon="0.29225">
        <ele>102.1</ele>
        <time>2022-07-07T19:48:23Z</time>
      </trkpt>
      <trkpt lat="49.24048" lon="0.29283">
        <ele>107.7</ele>
        <time>2022-07-07T19:48:23Z</time>
      </trkpt>
      <trkpt lat="49.24047" lon="0.29324">
        <ele>110.7</ele>
        <time>2022-07-07T19:48:23Z</time>
      </trkpt>
      <trkpt lat="49.24046" lon="0.29337">
        <ele>111.4</ele>
        <time>2022-07-07T19:48:23Z</time>
      </trkpt>
      <trkpt lat="49.24051" lon="0.29347">
        <ele>112.9</ele>
        <time>2022-07-07T19:48:23Z</time>
      </trkpt>
      <trkpt lat="49.24068" lon="0.29394">
        <ele>115.3</ele>
        <time>2022-07-07T19:48:23Z</time>
      </trkpt>
      <trkpt lat="49.2406" lon="0.29401">
        <ele>115.6</ele>
        <time>2022-07-07T19:48:23Z</time>
      </trkpt>
      <trkpt lat="49.2404" lon="0.29424">
        <ele>116.2</ele>
        <time>2022-07-07T19:48:23Z</time>
      </trkpt>
      <trkpt lat="49.24032" lon="0.2944">
        <ele>116.5</ele>
        <time>2022-07-07T19:48:23Z</time>
      </trkpt>
      <trkpt lat="49.24028" lon="0.29458">
        <ele>117.2</ele>
        <time>2022-07-07T19:48:23Z</time>
      </trkpt>
      <trkpt lat="49.24023" lon="0.29492">
        <ele>118.5</ele>
        <time>2022-07-07T19:48:23Z</time>
      </trkpt>
      <trkpt lat="49.2402" lon="0.29506">
        <ele>118.8</ele>
        <time>2022-07-07T19:48:23Z</time>
      </trkpt>
      <trkpt lat="49.24017" lon="0.29525">
        <ele>119.5</ele>
        <time>2022-07-07T19:48:23Z</time>
      </trkpt>
      <trkpt lat="49.24009" lon="0.2955">
        <ele>120</ele>
        <time>2022-07-07T19:48:23Z</time>
      </trkpt>
      <trkpt lat="49.24" lon="0.29578">
        <ele>120.6</ele>
        <time>2022-07-07T19:48:23Z</time>
      </trkpt>
      <trkpt lat="49.23992" lon="0.29607">
        <ele>121.5</ele>
        <time>2022-07-07T19:48:23Z</time>
      </trkpt>
      <trkpt lat="49.23978" lon="0.29644">
        <ele>123.6</ele>
        <time>2022-07-07T19:48:23Z</time>
      </trkpt>
      <trkpt lat="49.2397" lon="0.2966">
        <ele>124.6</ele>
        <time>2022-07-07T19:48:23Z</time>
      </trkpt>
      <trkpt lat="49.23967" lon="0.29682">
        <ele>125.7</ele>
        <time>2022-07-07T19:48:23Z</time>
      </trkpt>
      <trkpt lat="49.2397" lon="0.29708">
        <ele>126.8</ele>
        <time>2022-07-07T19:48:23Z</time>
      </trkpt>
      <trkpt lat="49.23972" lon="0.29739">
        <ele>127.9</ele>
        <time>2022-07-07T19:48:23Z</time>
      </trkpt>
      <trkpt lat="49.23966" lon="0.29794">
        <ele>129.5</ele>
        <time>2022-07-07T19:48:23Z</time>
      </trkpt>
      <trkpt lat="49.23953" lon="0.29851">
        <ele>130.6</ele>
        <time>2022-07-07T19:48:23Z</time>
      </trkpt>
      <trkpt lat="49.23942" lon="0.29905">
        <ele>131.6</ele>
        <time>2022-07-07T19:48:23Z</time>
      </trkpt>
      <trkpt lat="49.2394" lon="0.29918">
        <ele>131.8</ele>
        <time>2022-07-07T19:48:23Z</time>
      </trkpt>
      <trkpt lat="49.23937" lon="0.2994">
        <ele>132.1</ele>
        <time>2022-07-07T19:48:23Z</time>
      </trkpt>
      <trkpt lat="49.23937" lon="0.29954">
        <ele>132.3</ele>
        <time>2022-07-07T19:48:23Z</time>
      </trkpt>
      <trkpt lat="49.23936" lon="0.29966">
        <ele>132.4</ele>
        <time>2022-07-07T19:48:23Z</time>
      </trkpt>
      <trkpt lat="49.23933" lon="0.29983">
        <ele>132.7</ele>
        <time>2022-07-07T19:48:23Z</time>
      </trkpt>
      <trkpt lat="49.23921" lon="0.30021">
        <ele>133.1</ele>
        <time>2022-07-07T19:48:23Z</time>
      </trkpt>
      <trkpt lat="49.23912" lon="0.30061">
        <ele>133.4</ele>
        <time>2022-07-07T19:48:23Z</time>
      </trkpt>
      <trkpt lat="49.23908" lon="0.30072">
        <ele>133.5</ele>
        <time>2022-07-07T19:48:23Z</time>
      </trkpt>
      <trkpt lat="49.239" lon="0.301">
        <ele>133.6</ele>
        <time>2022-07-07T19:48:23Z</time>
      </trkpt>
      <trkpt lat="49.23898" lon="0.30111">
        <ele>133.7</ele>
        <time>2022-07-07T19:48:23Z</time>
      </trkpt>
      <trkpt lat="49.23895" lon="0.30131">
        <ele>133.9</ele>
        <time>2022-07-07T19:48:23Z</time>
      </trkpt>
      <trkpt lat="49.23894" lon="0.30155">
        <ele>134.2</ele>
        <time>2022-07-07T19:48:23Z</time>
      </trkpt>
      <trkpt lat="49.23892" lon="0.30174">
        <ele>134.4</ele>
        <time>2022-07-07T19:48:23Z</time>
      </trkpt>
      <trkpt lat="49.23885" lon="0.30192">
        <ele>134.7</ele>
        <time>2022-07-07T19:48:23Z</time>
      </trkpt>
      <trkpt lat="49.23874" lon="0.30215">
        <ele>135</ele>
        <time>2022-07-07T19:48:23Z</time>
      </trkpt>
      <trkpt lat="49.23868" lon="0.3023">
        <ele>135.2</ele>
        <time>2022-07-07T19:48:23Z</time>
      </trkpt>
      <trkpt lat="49.23856" lon="0.3027">
        <ele>135.8</ele>
        <time>2022-07-07T19:48:23Z</time>
      </trkpt>
      <trkpt lat="49.23847" lon="0.30297">
        <ele>136.2</ele>
        <time>2022-07-07T19:48:23Z</time>
      </trkpt>
      <trkpt lat="49.23832" lon="0.30344">
        <ele>137.4</ele>
        <time>2022-07-07T19:48:23Z</time>
      </trkpt>
      <trkpt lat="49.23809" lon="0.30421">
        <ele>138.3</ele>
        <time>2022-07-07T19:48:23Z</time>
      </trkpt>
      <trkpt lat="49.23797" lon="0.30452">
        <ele>138.5</ele>
        <time>2022-07-07T19:48:23Z</time>
      </trkpt>
      <trkpt lat="49.23778" lon="0.30494">
        <ele>139</ele>
        <time>2022-07-07T19:48:23Z</time>
      </trkpt>
      <trkpt lat="49.23769" lon="0.30535">
        <ele>139.4</ele>
        <time>2022-07-07T19:48:23Z</time>
      </trkpt>
      <trkpt lat="49.2375" lon="0.30592">
        <ele>139.8</ele>
        <time>2022-07-07T19:48:23Z</time>
      </trkpt>
      <trkpt lat="49.23741" lon="0.30599">
        <ele>139.8</ele>
        <time>2022-07-07T19:48:23Z</time>
      </trkpt>
      <trkpt lat="49.23731" lon="0.30605">
        <ele>139.8</ele>
        <time>2022-07-07T19:48:23Z</time>
      </trkpt>
      <trkpt lat="49.23711" lon="0.30614">
        <ele>139.8</ele>
        <time>2022-07-07T19:48:23Z</time>
      </trkpt>
      <trkpt lat="49.23664" lon="0.30621">
        <ele>139.6</ele>
        <time>2022-07-07T19:48:23Z</time>
      </trkpt>
      <trkpt lat="49.23588" lon="0.30621">
        <ele>139.5</ele>
        <time>2022-07-07T19:48:23Z</time>
      </trkpt>
      <trkpt lat="49.23546" lon="0.30616">
        <ele>138.8</ele>
        <time>2022-07-07T19:48:23Z</time>
      </trkpt>
      <trkpt lat="49.23518" lon="0.30617">
        <ele>138.8</ele>
        <time>2022-07-07T19:48:23Z</time>
      </trkpt>
      <trkpt lat="49.23465" lon="0.30625">
        <ele>139.3</ele>
        <time>2022-07-07T19:48:23Z</time>
      </trkpt>
      <trkpt lat="49.23424" lon="0.30636">
        <ele>139.6</ele>
        <time>2022-07-07T19:48:23Z</time>
      </trkpt>
      <trkpt lat="49.23394" lon="0.30646">
        <ele>139.5</ele>
        <time>2022-07-07T19:48:23Z</time>
      </trkpt>
      <trkpt lat="49.23383" lon="0.30652">
        <ele>139.6</ele>
        <time>2022-07-07T19:48:23Z</time>
      </trkpt>
      <trkpt lat="49.23348" lon="0.30682">
        <ele>140</ele>
        <time>2022-07-07T19:48:23Z</time>
      </trkpt>
      <trkpt lat="49.23336" lon="0.30687">
        <ele>140.1</ele>
        <time>2022-07-07T19:48:23Z</time>
      </trkpt>
      <trkpt lat="49.23316" lon="0.3069">
        <ele>140.2</ele>
        <time>2022-07-07T19:48:23Z</time>
      </trkpt>
      <trkpt lat="49.23305" lon="0.30696">
        <ele>140.1</ele>
        <time>2022-07-07T19:48:23Z</time>
      </trkpt>
      <trkpt lat="49.23293" lon="0.30705">
        <ele>140.2</ele>
        <time>2022-07-07T19:48:23Z</time>
      </trkpt>
      <trkpt lat="49.23263" lon="0.3074">
        <ele>140.6</ele>
        <time>2022-07-07T19:48:23Z</time>
      </trkpt>
      <trkpt lat="49.23243" lon="0.30768">
        <ele>140.9</ele>
        <time>2022-07-07T19:48:23Z</time>
      </trkpt>
      <trkpt lat="49.2322" lon="0.30792">
        <ele>141.1</ele>
        <time>2022-07-07T19:48:23Z</time>
      </trkpt>
      <trkpt lat="49.23206" lon="0.30811">
        <ele>141.3</ele>
        <time>2022-07-07T19:48:23Z</time>
      </trkpt>
      <trkpt lat="49.23192" lon="0.30864">
        <ele>141.8</ele>
        <time>2022-07-07T19:48:23Z</time>
      </trkpt>
      <trkpt lat="49.23186" lon="0.30911">
        <ele>142</ele>
        <time>2022-07-07T19:48:23Z</time>
      </trkpt>
      <trkpt lat="49.23184" lon="0.30945">
        <ele>142.4</ele>
        <time>2022-07-07T19:48:23Z</time>
      </trkpt>
      <trkpt lat="49.23181" lon="0.30959">
        <ele>142.5</ele>
        <time>2022-07-07T19:48:23Z</time>
      </trkpt>
      <trkpt lat="49.23177" lon="0.30972">
        <ele>142.7</ele>
        <time>2022-07-07T19:48:23Z</time>
      </trkpt>
      <trkpt lat="49.23162" lon="0.31009">
        <ele>142.8</ele>
        <time>2022-07-07T19:48:23Z</time>
      </trkpt>
      <trkpt lat="49.2316" lon="0.31016">
        <ele>142.8</ele>
        <time>2022-07-07T19:48:23Z</time>
      </trkpt>
      <trkpt lat="49.23151" lon="0.31134">
        <ele>143.8</ele>
        <time>2022-07-07T19:48:23Z</time>
      </trkpt>
      <trkpt lat="49.23141" lon="0.3123">
        <ele>144.2</ele>
        <time>2022-07-07T19:48:23Z</time>
      </trkpt>
      <trkpt lat="49.23134" lon="0.31288">
        <ele>144.8</ele>
        <time>2022-07-07T19:48:23Z</time>
      </trkpt>
      <trkpt lat="49.23128" lon="0.31296">
        <ele>144.9</ele>
        <time>2022-07-07T19:48:23Z</time>
      </trkpt>
      <trkpt lat="49.23104" lon="0.31302">
        <ele>144.3</ele>
        <time>2022-07-07T19:48:23Z</time>
      </trkpt>
      <trkpt lat="49.23104" lon="0.31309">
        <ele>144.3</ele>
        <time>2022-07-07T19:48:23Z</time>
      </trkpt>
      <trkpt lat="49.23102" lon="0.31334">
        <ele>144.1</ele>
        <time>2022-07-07T19:48:23Z</time>
      </trkpt>
      <trkpt lat="49.23093" lon="0.31435">
        <ele>144.1</ele>
        <time>2022-07-07T19:48:23Z</time>
      </trkpt>
      <trkpt lat="49.23086" lon="0.31491">
        <ele>144.1</ele>
        <time>2022-07-07T19:48:23Z</time>
      </trkpt>
      <trkpt lat="49.23072" lon="0.31555">
        <ele>143.3</ele>
        <time>2022-07-07T19:48:23Z</time>
      </trkpt>
      <trkpt lat="49.23066" lon="0.31572">
        <ele>142.9</ele>
        <time>2022-07-07T19:48:23Z</time>
      </trkpt>
      <trkpt lat="49.23062" lon="0.31581">
        <ele>142.5</ele>
        <time>2022-07-07T19:48:23Z</time>
      </trkpt>
      <trkpt lat="49.22895" lon="0.31709">
        <ele>146.3</ele>
        <time>2022-07-07T19:48:23Z</time>
      </trkpt>
      <trkpt lat="49.22893" lon="0.31702">
        <ele>146.3</ele>
        <time>2022-07-07T19:48:23Z</time>
      </trkpt>
      <trkpt lat="49.22886" lon="0.31658">
        <ele>146.1</ele>
        <time>2022-07-07T19:48:23Z</time>
      </trkpt>
      <trkpt lat="49.22857" lon="0.31679">
        <ele>146.2</ele>
        <time>2022-07-07T19:48:23Z</time>
      </trkpt>
      <trkpt lat="49.22827" lon="0.31698">
        <ele>146</ele>
        <time>2022-07-07T19:48:23Z</time>
      </trkpt>
      <trkpt lat="49.22806" lon="0.31708">
        <ele>146</ele>
        <time>2022-07-07T19:48:23Z</time>
      </trkpt>
      <trkpt lat="49.22784" lon="0.31717">
        <ele>145.9</ele>
        <time>2022-07-07T19:48:23Z</time>
      </trkpt>
      <trkpt lat="49.22762" lon="0.31724">
        <ele>145.8</ele>
        <time>2022-07-07T19:48:23Z</time>
      </trkpt>
      <trkpt lat="49.22747" lon="0.31735">
        <ele>145.8</ele>
        <time>2022-07-07T19:48:23Z</time>
      </trkpt>
      <trkpt lat="49.22725" lon="0.31757">
        <ele>145.6</ele>
        <time>2022-07-07T19:48:23Z</time>
      </trkpt>
      <trkpt lat="49.22715" lon="0.31761">
        <ele>145.5</ele>
        <time>2022-07-07T19:48:23Z</time>
      </trkpt>
      <trkpt lat="49.227" lon="0.31774">
        <ele>145.2</ele>
        <time>2022-07-07T19:48:23Z</time>
      </trkpt>
      <trkpt lat="49.22683" lon="0.31797">
        <ele>144.5</ele>
        <time>2022-07-07T19:48:23Z</time>
      </trkpt>
      <trkpt lat="49.22671" lon="0.31814">
        <ele>143.6</ele>
        <time>2022-07-07T19:48:23Z</time>
      </trkpt>
      <trkpt lat="49.22649" lon="0.31843">
        <ele>142.2</ele>
        <time>2022-07-07T19:48:23Z</time>
      </trkpt>
      <trkpt lat="49.22671" lon="0.31814">
        <ele>143.6</ele>
        <time>2022-07-07T19:48:23Z</time>
      </trkpt>
      <trkpt lat="49.22683" lon="0.31797">
        <ele>144.5</ele>
        <time>2022-07-07T19:48:23Z</time>
      </trkpt>
      <trkpt lat="49.227" lon="0.31774">
        <ele>145.2</ele>
        <time>2022-07-07T19:48:23Z</time>
      </trkpt>
      <trkpt lat="49.22715" lon="0.31761">
        <ele>145.5</ele>
        <time>2022-07-07T19:48:23Z</time>
      </trkpt>
      <trkpt lat="49.22722" lon="0.31757">
        <ele>145.6</ele>
        <time>2022-07-07T19:48:23Z</time>
      </trkpt>
      <trkpt lat="49.22747" lon="0.31735">
        <ele>145.8</ele>
        <time>2022-07-07T19:48:23Z</time>
      </trkpt>
      <trkpt lat="49.22762" lon="0.31724">
        <ele>145.8</ele>
        <time>2022-07-07T19:48:23Z</time>
      </trkpt>
      <trkpt lat="49.22784" lon="0.31717">
        <ele>145.9</ele>
        <time>2022-07-07T19:48:23Z</time>
      </trkpt>
      <trkpt lat="49.22806" lon="0.31708">
        <ele>146</ele>
        <time>2022-07-07T19:48:23Z</time>
      </trkpt>
      <trkpt lat="49.22827" lon="0.31698">
        <ele>146</ele>
        <time>2022-07-07T19:48:23Z</time>
      </trkpt>
      <trkpt lat="49.22857" lon="0.31679">
        <ele>146.2</ele>
        <time>2022-07-07T19:48:23Z</time>
      </trkpt>
      <trkpt lat="49.22886" lon="0.31658">
        <ele>146.1</ele>
        <time>2022-07-07T19:48:23Z</time>
      </trkpt>
      <trkpt lat="49.22893" lon="0.31702">
        <ele>146.3</ele>
        <time>2022-07-07T19:48:23Z</time>
      </trkpt>
      <trkpt lat="49.22895" lon="0.31709">
        <ele>146.3</ele>
        <time>2022-07-07T19:48:23Z</time>
      </trkpt>
      <trkpt lat="49.23062" lon="0.31581">
        <ele>142.5</ele>
        <time>2022-07-07T19:48:23Z</time>
      </trkpt>
      <trkpt lat="49.23059" lon="0.31566">
        <ele>142.6</ele>
        <time>2022-07-07T19:48:23Z</time>
      </trkpt>
      <trkpt lat="49.23055" lon="0.3154">
        <ele>142.8</ele>
        <time>2022-07-07T19:48:23Z</time>
      </trkpt>
      <trkpt lat="49.23053" lon="0.31526">
        <ele>143</ele>
        <time>2022-07-07T19:48:23Z</time>
      </trkpt>
      <trkpt lat="49.23054" lon="0.315">
        <ele>143.6</ele>
        <time>2022-07-07T19:48:23Z</time>
      </trkpt>
      <trkpt lat="49.23057" lon="0.31475">
        <ele>143.9</ele>
        <time>2022-07-07T19:48:23Z</time>
      </trkpt>
      <trkpt lat="49.23057" lon="0.31466">
        <ele>143.9</ele>
        <time>2022-07-07T19:48:23Z</time>
      </trkpt>
      <trkpt lat="49.23056" lon="0.31455">
        <ele>143.9</ele>
        <time>2022-07-07T19:48:23Z</time>
      </trkpt>
      <trkpt lat="49.23053" lon="0.31437">
        <ele>143.8</ele>
        <time>2022-07-07T19:48:23Z</time>
      </trkpt>
      <trkpt lat="49.23033" lon="0.31392">
        <ele>142.4</ele>
        <time>2022-07-07T19:48:23Z</time>
      </trkpt>
      <trkpt lat="49.23009" lon="0.31333">
        <ele>137.4</ele>
        <time>2022-07-07T19:48:23Z</time>
      </trkpt>
      <trkpt lat="49.22991" lon="0.31261">
        <ele>126.8</ele>
        <time>2022-07-07T19:48:23Z</time>
      </trkpt>
      <trkpt lat="49.22982" lon="0.31219">
        <ele>123</ele>
        <time>2022-07-07T19:48:23Z</time>
      </trkpt>
      <trkpt lat="49.22975" lon="0.31197">
        <ele>123.2</ele>
        <time>2022-07-07T19:48:23Z</time>
      </trkpt>
      <trkpt lat="49.22971" lon="0.31184">
        <ele>123.2</ele>
        <time>2022-07-07T19:48:23Z</time>
      </trkpt>
      <trkpt lat="49.22966" lon="0.31174">
        <ele>123.1</ele>
        <time>2022-07-07T19:48:23Z</time>
      </trkpt>
      <trkpt lat="49.2296" lon="0.31164">
        <ele>122.7</ele>
        <time>2022-07-07T19:48:23Z</time>
      </trkpt>
      <trkpt lat="49.22953" lon="0.31155">
        <ele>122.4</ele>
        <time>2022-07-07T19:48:23Z</time>
      </trkpt>
      <trkpt lat="49.22945" lon="0.31148">
        <ele>121.6</ele>
        <time>2022-07-07T19:48:23Z</time>
      </trkpt>
      <trkpt lat="49.22936" lon="0.31139">
        <ele>120.4</ele>
        <time>2022-07-07T19:48:23Z</time>
      </trkpt>
      <trkpt lat="49.22929" lon="0.3113">
        <ele>119.2</ele>
        <time>2022-07-07T19:48:23Z</time>
      </trkpt>
      <trkpt lat="49.2292" lon="0.31117">
        <ele>117.6</ele>
        <time>2022-07-07T19:48:23Z</time>
      </trkpt>
      <trkpt lat="49.22912" lon="0.31102">
        <ele>116.4</ele>
        <time>2022-07-07T19:48:23Z</time>
      </trkpt>
      <trkpt lat="49.22905" lon="0.31086">
        <ele>116.2</ele>
        <time>2022-07-07T19:48:23Z</time>
      </trkpt>
      <trkpt lat="49.22899" lon="0.31069">
        <ele>116.2</ele>
        <time>2022-07-07T19:48:23Z</time>
      </trkpt>
      <trkpt lat="49.22894" lon="0.31053">
        <ele>116</ele>
        <time>2022-07-07T19:48:23Z</time>
      </trkpt>
      <trkpt lat="49.22891" lon="0.31036">
        <ele>115.4</ele>
        <time>2022-07-07T19:48:23Z</time>
      </trkpt>
      <trkpt lat="49.2289" lon="0.3102">
        <ele>114.7</ele>
        <time>2022-07-07T19:48:23Z</time>
      </trkpt>
      <trkpt lat="49.22888" lon="0.30999">
        <ele>113.3</ele>
        <time>2022-07-07T19:48:23Z</time>
      </trkpt>
      <trkpt lat="49.22888" lon="0.3099">
        <ele>112.9</ele>
        <time>2022-07-07T19:48:23Z</time>
      </trkpt>
      <trkpt lat="49.22888" lon="0.30975">
        <ele>112.3</ele>
        <time>2022-07-07T19:48:23Z</time>
      </trkpt>
      <trkpt lat="49.22887" lon="0.3095">
        <ele>111.3</ele>
        <time>2022-07-07T19:48:23Z</time>
      </trkpt>
      <trkpt lat="49.22885" lon="0.30924">
        <ele>110.5</ele>
        <time>2022-07-07T19:48:23Z</time>
      </trkpt>
      <trkpt lat="49.22882" lon="0.30904">
        <ele>109.7</ele>
        <time>2022-07-07T19:48:23Z</time>
      </trkpt>
      <trkpt lat="49.22879" lon="0.30883">
        <ele>108.9</ele>
        <time>2022-07-07T19:48:23Z</time>
      </trkpt>
      <trkpt lat="49.22875" lon="0.30868">
        <ele>108.4</ele>
        <time>2022-07-07T19:48:23Z</time>
      </trkpt>
      <trkpt lat="49.22868" lon="0.30841">
        <ele>106.6</ele>
        <time>2022-07-07T19:48:23Z</time>
      </trkpt>
      <trkpt lat="49.22859" lon="0.30815">
        <ele>105.6</ele>
        <time>2022-07-07T19:48:23Z</time>
      </trkpt>
      <trkpt lat="49.22846" lon="0.30782">
        <ele>104.9</ele>
        <time>2022-07-07T19:48:23Z</time>
      </trkpt>
      <trkpt lat="49.22803" lon="0.30649">
        <ele>98.8</ele>
        <time>2022-07-07T19:48:23Z</time>
      </trkpt>
      <trkpt lat="49.22786" lon="0.30584">
        <ele>95.8</ele>
        <time>2022-07-07T19:48:23Z</time>
      </trkpt>
      <trkpt lat="49.22778" lon="0.3054">
        <ele>94.5</ele>
        <time>2022-07-07T19:48:23Z</time>
      </trkpt>
      <trkpt lat="49.22774" lon="0.30503">
        <ele>92.5</ele>
        <time>2022-07-07T19:48:23Z</time>
      </trkpt>
      <trkpt lat="49.22773" lon="0.30477">
        <ele>91.3</ele>
        <time>2022-07-07T19:48:23Z</time>
      </trkpt>
      <trkpt lat="49.22771" lon="0.3046">
        <ele>90.4</ele>
        <time>2022-07-07T19:48:23Z</time>
      </trkpt>
      <trkpt lat="49.22766" lon="0.30439">
        <ele>89</ele>
        <time>2022-07-07T19:48:23Z</time>
      </trkpt>
      <trkpt lat="49.22762" lon="0.30415">
        <ele>87.1</ele>
        <time>2022-07-07T19:48:23Z</time>
      </trkpt>
      <trkpt lat="49.22757" lon="0.30392">
        <ele>85.8</ele>
        <time>2022-07-07T19:48:23Z</time>
      </trkpt>
      <trkpt lat="49.2275" lon="0.30364">
        <ele>84.3</ele>
        <time>2022-07-07T19:48:23Z</time>
      </trkpt>
      <trkpt lat="49.22746" lon="0.30351">
        <ele>83.8</ele>
        <time>2022-07-07T19:48:23Z</time>
      </trkpt>
      <trkpt lat="49.22741" lon="0.3034">
        <ele>83.4</ele>
        <time>2022-07-07T19:48:23Z</time>
      </trkpt>
      <trkpt lat="49.22738" lon="0.30334">
        <ele>83.2</ele>
        <time>2022-07-07T19:48:23Z</time>
      </trkpt>
      <trkpt lat="49.22731" lon="0.30323">
        <ele>83.1</ele>
        <time>2022-07-07T19:48:23Z</time>
      </trkpt>
      <trkpt lat="49.22726" lon="0.30316">
        <ele>83.1</ele>
        <time>2022-07-07T19:48:23Z</time>
      </trkpt>
      <trkpt lat="49.22719" lon="0.3031">
        <ele>83.2</ele>
        <time>2022-07-07T19:48:23Z</time>
      </trkpt>
      <trkpt lat="49.22707" lon="0.30302">
        <ele>83.1</ele>
        <time>2022-07-07T19:48:23Z</time>
      </trkpt>
      <trkpt lat="49.22696" lon="0.30295">
        <ele>83</ele>
        <time>2022-07-07T19:48:23Z</time>
      </trkpt>
      <trkpt lat="49.22684" lon="0.30289">
        <ele>82.8</ele>
        <time>2022-07-07T19:48:23Z</time>
      </trkpt>
      <trkpt lat="49.22672" lon="0.30282">
        <ele>82.6</ele>
        <time>2022-07-07T19:48:23Z</time>
      </trkpt>
      <trkpt lat="49.22663" lon="0.30274">
        <ele>82.5</ele>
        <time>2022-07-07T19:48:23Z</time>
      </trkpt>
      <trkpt lat="49.22655" lon="0.30266">
        <ele>82.5</ele>
        <time>2022-07-07T19:48:23Z</time>
      </trkpt>
      <trkpt lat="49.22643" lon="0.30253">
        <ele>82.4</ele>
        <time>2022-07-07T19:48:23Z</time>
      </trkpt>
      <trkpt lat="49.22631" lon="0.30234">
        <ele>82.5</ele>
        <time>2022-07-07T19:48:23Z</time>
      </trkpt>
      <trkpt lat="49.22625" lon="0.30245">
        <ele>82.7</ele>
        <time>2022-07-07T19:48:23Z</time>
      </trkpt>
      <trkpt lat="49.22615" lon="0.30266">
        <ele>83.2</ele>
        <time>2022-07-07T19:48:23Z</time>
      </trkpt>
      <trkpt lat="49.22606" lon="0.30285">
        <ele>83.7</ele>
        <time>2022-07-07T19:48:23Z</time>
      </trkpt>
      <trkpt lat="49.22593" lon="0.30307">
        <ele>84.7</ele>
        <time>2022-07-07T19:48:23Z</time>
      </trkpt>
      <trkpt lat="49.22589" lon="0.30314">
        <ele>85.1</ele>
        <time>2022-07-07T19:48:23Z</time>
      </trkpt>
      <trkpt lat="49.22583" lon="0.30322">
        <ele>85.8</ele>
        <time>2022-07-07T19:48:23Z</time>
      </trkpt>
      <trkpt lat="49.22565" lon="0.30349">
        <ele>87</ele>
        <time>2022-07-07T19:48:23Z</time>
      </trkpt>
      <trkpt lat="49.22548" lon="0.3037">
        <ele>88.2</ele>
        <time>2022-07-07T19:48:23Z</time>
      </trkpt>
      <trkpt lat="49.22523" lon="0.30405">
        <ele>89.7</ele>
        <time>2022-07-07T19:48:23Z</time>
      </trkpt>
      <trkpt lat="49.22507" lon="0.30381">
        <ele>91</ele>
        <time>2022-07-07T19:48:23Z</time>
      </trkpt>
      <trkpt lat="49.22493" lon="0.30357">
        <ele>93.4</ele>
        <time>2022-07-07T19:48:23Z</time>
      </trkpt>
      <trkpt lat="49.22481" lon="0.3034">
        <ele>94.7</ele>
        <time>2022-07-07T19:48:23Z</time>
      </trkpt>
      <trkpt lat="49.22459" lon="0.30316">
        <ele>97.8</ele>
        <time>2022-07-07T19:48:23Z</time>
      </trkpt>
      <trkpt lat="49.22432" lon="0.30284">
        <ele>100.4</ele>
        <time>2022-07-07T19:48:23Z</time>
      </trkpt>
      <trkpt lat="49.22415" lon="0.30258">
        <ele>102</ele>
        <time>2022-07-07T19:48:23Z</time>
      </trkpt>
      <trkpt lat="49.22359" lon="0.30169">
        <ele>104.5</ele>
        <time>2022-07-07T19:48:23Z</time>
      </trkpt>
      <trkpt lat="49.22299" lon="0.30063">
        <ele>111.3</ele>
        <time>2022-07-07T19:48:23Z</time>
      </trkpt>
      <trkpt lat="49.22279" lon="0.30037">
        <ele>115.1</ele>
        <time>2022-07-07T19:48:23Z</time>
      </trkpt>
      <trkpt lat="49.2227" lon="0.30028">
        <ele>116.3</ele>
        <time>2022-07-07T19:48:23Z</time>
      </trkpt>
      <trkpt lat="49.22255" lon="0.30019">
        <ele>117.9</ele>
        <time>2022-07-07T19:48:23Z</time>
      </trkpt>
      <trkpt lat="49.22236" lon="0.30012">
        <ele>119.8</ele>
        <time>2022-07-07T19:48:23Z</time>
      </trkpt>
      <trkpt lat="49.22193" lon="0.3">
        <ele>123.5</ele>
        <time>2022-07-07T19:48:23Z</time>
      </trkpt>
      <trkpt lat="49.22153" lon="0.29991">
        <ele>125.3</ele>
        <time>2022-07-07T19:48:23Z</time>
      </trkpt>
      <trkpt lat="49.22141" lon="0.29987">
        <ele>125.9</ele>
        <time>2022-07-07T19:48:23Z</time>
      </trkpt>
      <trkpt lat="49.22133" lon="0.29984">
        <ele>126.7</ele>
        <time>2022-07-07T19:48:23Z</time>
      </trkpt>
      <trkpt lat="49.22123" lon="0.29979">
        <ele>127.4</ele>
        <time>2022-07-07T19:48:23Z</time>
      </trkpt>
      <trkpt lat="49.22111" lon="0.2997">
        <ele>128.5</ele>
        <time>2022-07-07T19:48:23Z</time>
      </trkpt>
      <trkpt lat="49.22101" lon="0.29959">
        <ele>129.6</ele>
        <time>2022-07-07T19:48:23Z</time>
      </trkpt>
      <trkpt lat="49.22091" lon="0.29946">
        <ele>130.6</ele>
        <time>2022-07-07T19:48:23Z</time>
      </trkpt>
      <trkpt lat="49.22082" lon="0.29932">
        <ele>131.3</ele>
        <time>2022-07-07T19:48:23Z</time>
      </trkpt>
      <trkpt lat="49.2207" lon="0.29911">
        <ele>132.6</ele>
        <time>2022-07-07T19:48:23Z</time>
      </trkpt>
      <trkpt lat="49.22059" lon="0.29885">
        <ele>133.9</ele>
        <time>2022-07-07T19:48:24Z</time>
      </trkpt>
      <trkpt lat="49.22047" lon="0.29855">
        <ele>135.1</ele>
        <time>2022-07-07T19:48:24Z</time>
      </trkpt>
      <trkpt lat="49.22034" lon="0.29817">
        <ele>136.1</ele>
        <time>2022-07-07T19:48:24Z</time>
      </trkpt>
      <trkpt lat="49.22011" lon="0.29762">
        <ele>137.3</ele>
        <time>2022-07-07T19:48:24Z</time>
      </trkpt>
      <trkpt lat="49.21986" lon="0.29706">
        <ele>138.3</ele>
        <time>2022-07-07T19:48:24Z</time>
      </trkpt>
      <trkpt lat="49.21958" lon="0.29644">
        <ele>139.4</ele>
        <time>2022-07-07T19:48:24Z</time>
      </trkpt>
      <trkpt lat="49.21939" lon="0.29605">
        <ele>139.8</ele>
        <time>2022-07-07T19:48:24Z</time>
      </trkpt>
      <trkpt lat="49.21922" lon="0.29578">
        <ele>140.1</ele>
        <time>2022-07-07T19:48:24Z</time>
      </trkpt>
      <trkpt lat="49.21906" lon="0.29554">
        <ele>140.4</ele>
        <time>2022-07-07T19:48:24Z</time>
      </trkpt>
      <trkpt lat="49.21895" lon="0.29538">
        <ele>140.7</ele>
        <time>2022-07-07T19:48:24Z</time>
      </trkpt>
      <trkpt lat="49.21889" lon="0.29533">
        <ele>140.8</ele>
        <time>2022-07-07T19:48:24Z</time>
      </trkpt>
      <trkpt lat="49.21882" lon="0.29526">
        <ele>140.6</ele>
        <time>2022-07-07T19:48:24Z</time>
      </trkpt>
      <trkpt lat="49.21863" lon="0.2951">
        <ele>140.6</ele>
        <time>2022-07-07T19:48:24Z</time>
      </trkpt>
      <trkpt lat="49.21843" lon="0.29494">
        <ele>140.4</ele>
        <time>2022-07-07T19:48:24Z</time>
      </trkpt>
      <trkpt lat="49.21826" lon="0.29476">
        <ele>140.2</ele>
        <time>2022-07-07T19:48:24Z</time>
      </trkpt>
      <trkpt lat="49.2181" lon="0.29454">
        <ele>140.4</ele>
        <time>2022-07-07T19:48:24Z</time>
      </trkpt>
      <trkpt lat="49.21794" lon="0.2943">
        <ele>140.3</ele>
        <time>2022-07-07T19:48:24Z</time>
      </trkpt>
      <trkpt lat="49.2178" lon="0.29405">
        <ele>140.7</ele>
        <time>2022-07-07T19:48:24Z</time>
      </trkpt>
      <trkpt lat="49.21758" lon="0.29363">
        <ele>141.1</ele>
        <time>2022-07-07T19:48:24Z</time>
      </trkpt>
      <trkpt lat="49.21728" lon="0.29301">
        <ele>142</ele>
        <time>2022-07-07T19:48:24Z</time>
      </trkpt>
      <trkpt lat="49.21701" lon="0.2924">
        <ele>142.3</ele>
        <time>2022-07-07T19:48:24Z</time>
      </trkpt>
      <trkpt lat="49.21683" lon="0.2919">
        <ele>142.5</ele>
        <time>2022-07-07T19:48:24Z</time>
      </trkpt>
      <trkpt lat="49.21661" lon="0.29128">
        <ele>143.1</ele>
        <time>2022-07-07T19:48:24Z</time>
      </trkpt>
      <trkpt lat="49.21649" lon="0.29075">
        <ele>143.8</ele>
        <time>2022-07-07T19:48:24Z</time>
      </trkpt>
      <trkpt lat="49.2164" lon="0.29031">
        <ele>144.2</ele>
        <time>2022-07-07T19:48:24Z</time>
      </trkpt>
      <trkpt lat="49.21633" lon="0.29006">
        <ele>144.3</ele>
        <time>2022-07-07T19:48:24Z</time>
      </trkpt>
      <trkpt lat="49.21626" lon="0.28985">
        <ele>144.2</ele>
        <time>2022-07-07T19:48:24Z</time>
      </trkpt>
      <trkpt lat="49.21622" lon="0.28972">
        <ele>144.4</ele>
        <time>2022-07-07T19:48:24Z</time>
      </trkpt>
      <trkpt lat="49.21615" lon="0.28954">
        <ele>144.4</ele>
        <time>2022-07-07T19:48:24Z</time>
      </trkpt>
      <trkpt lat="49.21572" lon="0.28853">
        <ele>144.1</ele>
        <time>2022-07-07T19:48:24Z</time>
      </trkpt>
      <trkpt lat="49.21512" lon="0.28715">
        <ele>144.8</ele>
        <time>2022-07-07T19:48:24Z</time>
      </trkpt>
      <trkpt lat="49.21447" lon="0.2856">
        <ele>145</ele>
        <time>2022-07-07T19:48:24Z</time>
      </trkpt>
      <trkpt lat="49.21427" lon="0.28523">
        <ele>145.1</ele>
        <time>2022-07-07T19:48:24Z</time>
      </trkpt>
      <trkpt lat="49.21336" lon="0.28379">
        <ele>146.8</ele>
        <time>2022-07-07T19:48:24Z</time>
      </trkpt>
      <trkpt lat="49.21267" lon="0.28265">
        <ele>148.1</ele>
        <time>2022-07-07T19:48:24Z</time>
      </trkpt>
      <trkpt lat="49.21249" lon="0.28242">
        <ele>148.6</ele>
        <time>2022-07-07T19:48:24Z</time>
      </trkpt>
      <trkpt lat="49.21232" lon="0.28223">
        <ele>148.9</ele>
        <time>2022-07-07T19:48:24Z</time>
      </trkpt>
      <trkpt lat="49.21194" lon="0.28191">
        <ele>149.7</ele>
        <time>2022-07-07T19:48:24Z</time>
      </trkpt>
      <trkpt lat="49.2115" lon="0.2816">
        <ele>150.4</ele>
        <time>2022-07-07T19:48:24Z</time>
      </trkpt>
      <trkpt lat="49.21143" lon="0.28154">
        <ele>150.3</ele>
        <time>2022-07-07T19:48:24Z</time>
      </trkpt>
      <trkpt lat="49.21128" lon="0.28141">
        <ele>150.6</ele>
        <time>2022-07-07T19:48:24Z</time>
      </trkpt>
      <trkpt lat="49.21098" lon="0.28117">
        <ele>150.8</ele>
        <time>2022-07-07T19:48:24Z</time>
      </trkpt>
      <trkpt lat="49.21088" lon="0.2811">
        <ele>150.8</ele>
        <time>2022-07-07T19:48:24Z</time>
      </trkpt>
      <trkpt lat="49.21082" lon="0.28107">
        <ele>150.8</ele>
        <time>2022-07-07T19:48:24Z</time>
      </trkpt>
      <trkpt lat="49.21066" lon="0.28094">
        <ele>150.7</ele>
        <time>2022-07-07T19:48:24Z</time>
      </trkpt>
      <trkpt lat="49.21046" lon="0.28074">
        <ele>150.7</ele>
        <time>2022-07-07T19:48:24Z</time>
      </trkpt>
      <trkpt lat="49.21034" lon="0.28051">
        <ele>150.8</ele>
        <time>2022-07-07T19:48:24Z</time>
      </trkpt>
      <trkpt lat="49.20987" lon="0.27954">
        <ele>151.4</ele>
        <time>2022-07-07T19:48:24Z</time>
      </trkpt>
      <trkpt lat="49.20931" lon="0.27841">
        <ele>153.6</ele>
        <time>2022-07-07T19:48:24Z</time>
      </trkpt>
      <trkpt lat="49.20917" lon="0.27817">
        <ele>154.2</ele>
        <time>2022-07-07T19:48:24Z</time>
      </trkpt>
      <trkpt lat="49.20901" lon="0.27792">
        <ele>154.3</ele>
        <time>2022-07-07T19:48:24Z</time>
      </trkpt>
      <trkpt lat="49.20884" lon="0.27765">
        <ele>154.4</ele>
        <time>2022-07-07T19:48:24Z</time>
      </trkpt>
      <trkpt lat="49.20866" lon="0.27737">
        <ele>154.6</ele>
        <time>2022-07-07T19:48:24Z</time>
      </trkpt>
      <trkpt lat="49.20858" lon="0.27722">
        <ele>154.6</ele>
        <time>2022-07-07T19:48:24Z</time>
      </trkpt>
      <trkpt lat="49.20847" lon="0.27697">
        <ele>154.3</ele>
        <time>2022-07-07T19:48:24Z</time>
      </trkpt>
      <trkpt lat="49.20839" lon="0.27671">
        <ele>153.8</ele>
        <time>2022-07-07T19:48:24Z</time>
      </trkpt>
      <trkpt lat="49.20833" lon="0.27647">
        <ele>153.6</ele>
        <time>2022-07-07T19:48:24Z</time>
      </trkpt>
      <trkpt lat="49.20831" lon="0.27638">
        <ele>153.4</ele>
        <time>2022-07-07T19:48:24Z</time>
      </trkpt>
      <trkpt lat="49.20826" lon="0.27612">
        <ele>152.9</ele>
        <time>2022-07-07T19:48:24Z</time>
      </trkpt>
      <trkpt lat="49.20822" lon="0.2759">
        <ele>152.8</ele>
        <time>2022-07-07T19:48:24Z</time>
      </trkpt>
      <trkpt lat="49.20818" lon="0.27554">
        <ele>152.4</ele>
        <time>2022-07-07T19:48:24Z</time>
      </trkpt>
      <trkpt lat="49.20811" lon="0.27476">
        <ele>151.7</ele>
        <time>2022-07-07T19:48:24Z</time>
      </trkpt>
      <trkpt lat="49.20805" lon="0.27401">
        <ele>150.9</ele>
        <time>2022-07-07T19:48:24Z</time>
      </trkpt>
      <trkpt lat="49.20792" lon="0.27284">
        <ele>150.3</ele>
        <time>2022-07-07T19:48:24Z</time>
      </trkpt>
      <trkpt lat="49.20783" lon="0.27198">
        <ele>150</ele>
        <time>2022-07-07T19:48:24Z</time>
      </trkpt>
      <trkpt lat="49.20778" lon="0.27143">
        <ele>149.7</ele>
        <time>2022-07-07T19:48:24Z</time>
      </trkpt>
      <trkpt lat="49.20775" lon="0.27051">
        <ele>149.5</ele>
        <time>2022-07-07T19:48:24Z</time>
      </trkpt>
      <trkpt lat="49.20771" lon="0.27015">
        <ele>149.3</ele>
        <time>2022-07-07T19:48:24Z</time>
      </trkpt>
      <trkpt lat="49.2077" lon="0.27">
        <ele>149.2</ele>
        <time>2022-07-07T19:48:24Z</time>
      </trkpt>
      <trkpt lat="49.20756" lon="0.26922">
        <ele>149.2</ele>
        <time>2022-07-07T19:48:24Z</time>
      </trkpt>
      <trkpt lat="49.20751" lon="0.26901">
        <ele>149</ele>
        <time>2022-07-07T19:48:24Z</time>
      </trkpt>
      <trkpt lat="49.20741" lon="0.26866">
        <ele>148.7</ele>
        <time>2022-07-07T19:48:24Z</time>
      </trkpt>
      <trkpt lat="49.20718" lon="0.2679">
        <ele>148.2</ele>
        <time>2022-07-07T19:48:24Z</time>
      </trkpt>
      <trkpt lat="49.207" lon="0.26735">
        <ele>147.7</ele>
        <time>2022-07-07T19:48:24Z</time>
      </trkpt>
      <trkpt lat="49.20683" lon="0.26676">
        <ele>147.4</ele>
        <time>2022-07-07T19:48:24Z</time>
      </trkpt>
      <trkpt lat="49.20671" lon="0.26636">
        <ele>147.5</ele>
        <time>2022-07-07T19:48:24Z</time>
      </trkpt>
      <trkpt lat="49.20664" lon="0.26605">
        <ele>147.5</ele>
        <time>2022-07-07T19:48:24Z</time>
      </trkpt>
      <trkpt lat="49.2066" lon="0.26574">
        <ele>147.6</ele>
        <time>2022-07-07T19:48:24Z</time>
      </trkpt>
      <trkpt lat="49.20657" lon="0.26531">
        <ele>147.6</ele>
        <time>2022-07-07T19:48:24Z</time>
      </trkpt>
      <trkpt lat="49.20655" lon="0.2647">
        <ele>147.7</ele>
        <time>2022-07-07T19:48:24Z</time>
      </trkpt>
      <trkpt lat="49.20652" lon="0.2641">
        <ele>148</ele>
        <time>2022-07-07T19:48:24Z</time>
      </trkpt>
      <trkpt lat="49.2065" lon="0.2639">
        <ele>148</ele>
        <time>2022-07-07T19:48:24Z</time>
      </trkpt>
      <trkpt lat="49.20643" lon="0.26356">
        <ele>148.2</ele>
        <time>2022-07-07T19:48:24Z</time>
      </trkpt>
      <trkpt lat="49.20636" lon="0.26331">
        <ele>148.5</ele>
        <time>2022-07-07T19:48:24Z</time>
      </trkpt>
      <trkpt lat="49.20619" lon="0.26278">
        <ele>149.2</ele>
        <time>2022-07-07T19:48:24Z</time>
      </trkpt>
      <trkpt lat="49.20591" lon="0.26199">
        <ele>150.9</ele>
        <time>2022-07-07T19:48:24Z</time>
      </trkpt>
      <trkpt lat="49.20577" lon="0.2616">
        <ele>151.4</ele>
        <time>2022-07-07T19:48:24Z</time>
      </trkpt>
      <trkpt lat="49.20572" lon="0.26142">
        <ele>151.6</ele>
        <time>2022-07-07T19:48:24Z</time>
      </trkpt>
      <trkpt lat="49.2057" lon="0.26133">
        <ele>151.7</ele>
        <time>2022-07-07T19:48:24Z</time>
      </trkpt>
      <trkpt lat="49.20568" lon="0.26122">
        <ele>151.9</ele>
        <time>2022-07-07T19:48:24Z</time>
      </trkpt>
      <trkpt lat="49.2056" lon="0.2611">
        <ele>151.9</ele>
        <time>2022-07-07T19:48:24Z</time>
      </trkpt>
      <trkpt lat="49.20548" lon="0.26089">
        <ele>152.5</ele>
        <time>2022-07-07T19:48:24Z</time>
      </trkpt>
      <trkpt lat="49.20535" lon="0.26063">
        <ele>152.9</ele>
        <time>2022-07-07T19:48:24Z</time>
      </trkpt>
      <trkpt lat="49.2053" lon="0.26049">
        <ele>153</ele>
        <time>2022-07-07T19:48:24Z</time>
      </trkpt>
      <trkpt lat="49.20527" lon="0.26034">
        <ele>153.1</ele>
        <time>2022-07-07T19:48:24Z</time>
      </trkpt>
      <trkpt lat="49.20523" lon="0.26003">
        <ele>153.6</ele>
        <time>2022-07-07T19:48:24Z</time>
      </trkpt>
      <trkpt lat="49.2052" lon="0.25967">
        <ele>153.8</ele>
        <time>2022-07-07T19:48:24Z</time>
      </trkpt>
      <trkpt lat="49.2052" lon="0.25925">
        <ele>153.9</ele>
        <time>2022-07-07T19:48:24Z</time>
      </trkpt>
      <trkpt lat="49.20517" lon="0.25877">
        <ele>153.7</ele>
        <time>2022-07-07T19:48:24Z</time>
      </trkpt>
      <trkpt lat="49.20513" lon="0.25845">
        <ele>153.5</ele>
        <time>2022-07-07T19:48:24Z</time>
      </trkpt>
      <trkpt lat="49.20509" lon="0.25815">
        <ele>153.3</ele>
        <time>2022-07-07T19:48:24Z</time>
      </trkpt>
      <trkpt lat="49.20504" lon="0.2579">
        <ele>153</ele>
        <time>2022-07-07T19:48:24Z</time>
      </trkpt>
      <trkpt lat="49.20497" lon="0.25767">
        <ele>152.7</ele>
        <time>2022-07-07T19:48:24Z</time>
      </trkpt>
      <trkpt lat="49.20486" lon="0.25738">
        <ele>152.6</ele>
        <time>2022-07-07T19:48:24Z</time>
      </trkpt>
      <trkpt lat="49.20462" lon="0.25684">
        <ele>152.4</ele>
        <time>2022-07-07T19:48:24Z</time>
      </trkpt>
      <trkpt lat="49.20433" lon="0.25617">
        <ele>152.1</ele>
        <time>2022-07-07T19:48:24Z</time>
      </trkpt>
      <trkpt lat="49.20377" lon="0.25491">
        <ele>151.9</ele>
        <time>2022-07-07T19:48:24Z</time>
      </trkpt>
      <trkpt lat="49.20363" lon="0.25461">
        <ele>151.9</ele>
        <time>2022-07-07T19:48:24Z</time>
      </trkpt>
      <trkpt lat="49.20347" lon="0.25434">
        <ele>151.9</ele>
        <time>2022-07-07T19:48:24Z</time>
      </trkpt>
      <trkpt lat="49.20321" lon="0.25392">
        <ele>151.8</ele>
        <time>2022-07-07T19:48:24Z</time>
      </trkpt>
      <trkpt lat="49.20312" lon="0.25374">
        <ele>151.6</ele>
        <time>2022-07-07T19:48:24Z</time>
      </trkpt>
      <trkpt lat="49.2028" lon="0.25325">
        <ele>151</ele>
        <time>2022-07-07T19:48:24Z</time>
      </trkpt>
      <trkpt lat="49.20249" lon="0.25276">
        <ele>150.6</ele>
        <time>2022-07-07T19:48:24Z</time>
      </trkpt>
      <trkpt lat="49.2022" lon="0.25225">
        <ele>150</ele>
        <time>2022-07-07T19:48:24Z</time>
      </trkpt>
      <trkpt lat="49.20203" lon="0.25194">
        <ele>149.7</ele>
        <time>2022-07-07T19:48:24Z</time>
      </trkpt>
      <trkpt lat="49.20173" lon="0.25132">
        <ele>149</ele>
        <time>2022-07-07T19:48:24Z</time>
      </trkpt>
      <trkpt lat="49.20139" lon="0.2506">
        <ele>148.4</ele>
        <time>2022-07-07T19:48:24Z</time>
      </trkpt>
      <trkpt lat="49.20109" lon="0.24996">
        <ele>147.5</ele>
        <time>2022-07-07T19:48:24Z</time>
      </trkpt>
      <trkpt lat="49.20089" lon="0.24944">
        <ele>146.9</ele>
        <time>2022-07-07T19:48:24Z</time>
      </trkpt>
      <trkpt lat="49.20063" lon="0.24876">
        <ele>145.6</ele>
        <time>2022-07-07T19:48:24Z</time>
      </trkpt>
      <trkpt lat="49.20041" lon="0.24814">
        <ele>143.6</ele>
        <time>2022-07-07T19:48:24Z</time>
      </trkpt>
      <trkpt lat="49.20023" lon="0.24754">
        <ele>142.4</ele>
        <time>2022-07-07T19:48:24Z</time>
      </trkpt>
      <trkpt lat="49.20001" lon="0.24678">
        <ele>141.1</ele>
        <time>2022-07-07T19:48:24Z</time>
      </trkpt>
      <trkpt lat="49.19994" lon="0.24659">
        <ele>140.6</ele>
        <time>2022-07-07T19:48:24Z</time>
      </trkpt>
      <trkpt lat="49.19979" lon="0.24614">
        <ele>140.1</ele>
        <time>2022-07-07T19:48:24Z</time>
      </trkpt>
      <trkpt lat="49.19967" lon="0.24573">
        <ele>139.3</ele>
        <time>2022-07-07T19:48:24Z</time>
      </trkpt>
      <trkpt lat="49.19963" lon="0.24557">
        <ele>139</ele>
        <time>2022-07-07T19:48:24Z</time>
      </trkpt>
      <trkpt lat="49.19954" lon="0.24516">
        <ele>138.4</ele>
        <time>2022-07-07T19:48:24Z</time>
      </trkpt>
      <trkpt lat="49.19946" lon="0.24458">
        <ele>137.2</ele>
        <time>2022-07-07T19:48:24Z</time>
      </trkpt>
      <trkpt lat="49.19943" lon="0.24434">
        <ele>136.9</ele>
        <time>2022-07-07T19:48:24Z</time>
      </trkpt>
      <trkpt lat="49.19934" lon="0.24376">
        <ele>136.2</ele>
        <time>2022-07-07T19:48:24Z</time>
      </trkpt>
      <trkpt lat="49.1993" lon="0.24348">
        <ele>136</ele>
        <time>2022-07-07T19:48:24Z</time>
      </trkpt>
      <trkpt lat="49.19926" lon="0.24334">
        <ele>136.1</ele>
        <time>2022-07-07T19:48:24Z</time>
      </trkpt>
      <trkpt lat="49.19919" lon="0.24313">
        <ele>136.1</ele>
        <time>2022-07-07T19:48:24Z</time>
      </trkpt>
      <trkpt lat="49.1991" lon="0.24288">
        <ele>136</ele>
        <time>2022-07-07T19:48:24Z</time>
      </trkpt>
      <trkpt lat="49.19902" lon="0.24268">
        <ele>136</ele>
        <time>2022-07-07T19:48:24Z</time>
      </trkpt>
      <trkpt lat="49.1989" lon="0.24244">
        <ele>135.9</ele>
        <time>2022-07-07T19:48:24Z</time>
      </trkpt>
      <trkpt lat="49.19862" lon="0.242">
        <ele>136.9</ele>
        <time>2022-07-07T19:48:24Z</time>
      </trkpt>
      <trkpt lat="49.1983" lon="0.24152">
        <ele>137.2</ele>
        <time>2022-07-07T19:48:24Z</time>
      </trkpt>
      <trkpt lat="49.19809" lon="0.24119">
        <ele>137.1</ele>
        <time>2022-07-07T19:48:24Z</time>
      </trkpt>
      <trkpt lat="49.19791" lon="0.24095">
        <ele>137.2</ele>
        <time>2022-07-07T19:48:24Z</time>
      </trkpt>
      <trkpt lat="49.19772" lon="0.24074">
        <ele>137.1</ele>
        <time>2022-07-07T19:48:24Z</time>
      </trkpt>
      <trkpt lat="49.19746" lon="0.24044">
        <ele>136.8</ele>
        <time>2022-07-07T19:48:24Z</time>
      </trkpt>
      <trkpt lat="49.19739" lon="0.24037">
        <ele>136.8</ele>
        <time>2022-07-07T19:48:24Z</time>
      </trkpt>
      <trkpt lat="49.19683" lon="0.23976">
        <ele>136.7</ele>
        <time>2022-07-07T19:48:24Z</time>
      </trkpt>
      <trkpt lat="49.19615" lon="0.23904">
        <ele>136.7</ele>
        <time>2022-07-07T19:48:24Z</time>
      </trkpt>
      <trkpt lat="49.19585" lon="0.23871">
        <ele>136.6</ele>
        <time>2022-07-07T19:48:24Z</time>
      </trkpt>
      <trkpt lat="49.19551" lon="0.23835">
        <ele>136.5</ele>
        <time>2022-07-07T19:48:24Z</time>
      </trkpt>
      <trkpt lat="49.19545" lon="0.23829">
        <ele>136.4</ele>
        <time>2022-07-07T19:48:24Z</time>
      </trkpt>
      <trkpt lat="49.19512" lon="0.23802">
        <ele>136.2</ele>
        <time>2022-07-07T19:48:24Z</time>
      </trkpt>
      <trkpt lat="49.19495" lon="0.23787">
        <ele>136</ele>
        <time>2022-07-07T19:48:24Z</time>
      </trkpt>
      <trkpt lat="49.19486" lon="0.23777">
        <ele>135.9</ele>
        <time>2022-07-07T19:48:24Z</time>
      </trkpt>
      <trkpt lat="49.19477" lon="0.23766">
        <ele>135.9</ele>
        <time>2022-07-07T19:48:24Z</time>
      </trkpt>
      <trkpt lat="49.19465" lon="0.23749">
        <ele>135.6</ele>
        <time>2022-07-07T19:48:24Z</time>
      </trkpt>
      <trkpt lat="49.19457" lon="0.23735">
        <ele>135.5</ele>
        <time>2022-07-07T19:48:24Z</time>
      </trkpt>
      <trkpt lat="49.19441" lon="0.23701">
        <ele>135.1</ele>
        <time>2022-07-07T19:48:24Z</time>
      </trkpt>
      <trkpt lat="49.1941" lon="0.23622">
        <ele>133.8</ele>
        <time>2022-07-07T19:48:24Z</time>
      </trkpt>
      <trkpt lat="49.19404" lon="0.23606">
        <ele>133.6</ele>
        <time>2022-07-07T19:48:24Z</time>
      </trkpt>
      <trkpt lat="49.19391" lon="0.23579">
        <ele>132.8</ele>
        <time>2022-07-07T19:48:24Z</time>
      </trkpt>
      <trkpt lat="49.19376" lon="0.23556">
        <ele>131.6</ele>
        <time>2022-07-07T19:48:24Z</time>
      </trkpt>
      <trkpt lat="49.19351" lon="0.23519">
        <ele>129.7</ele>
        <time>2022-07-07T19:48:24Z</time>
      </trkpt>
      <trkpt lat="49.19307" lon="0.23454">
        <ele>126.3</ele>
        <time>2022-07-07T19:48:24Z</time>
      </trkpt>
      <trkpt lat="49.19276" lon="0.23409">
        <ele>124.1</ele>
        <time>2022-07-07T19:48:24Z</time>
      </trkpt>
      <trkpt lat="49.19253" lon="0.23377">
        <ele>122.6</ele>
        <time>2022-07-07T19:48:24Z</time>
      </trkpt>
      <trkpt lat="49.19233" lon="0.23348">
        <ele>121</ele>
        <time>2022-07-07T19:48:24Z</time>
      </trkpt>
      <trkpt lat="49.19227" lon="0.23339">
        <ele>120.4</ele>
        <time>2022-07-07T19:48:24Z</time>
      </trkpt>
      <trkpt lat="49.19195" lon="0.23296">
        <ele>118</ele>
        <time>2022-07-07T19:48:24Z</time>
      </trkpt>
      <trkpt lat="49.19177" lon="0.23276">
        <ele>117</ele>
        <time>2022-07-07T19:48:24Z</time>
      </trkpt>
      <trkpt lat="49.1917" lon="0.2327">
        <ele>116.4</ele>
        <time>2022-07-07T19:48:24Z</time>
      </trkpt>
      <trkpt lat="49.19153" lon="0.23258">
        <ele>115.4</ele>
        <time>2022-07-07T19:48:24Z</time>
      </trkpt>
      <trkpt lat="49.19129" lon="0.23248">
        <ele>114.4</ele>
        <time>2022-07-07T19:48:24Z</time>
      </trkpt>
      <trkpt lat="49.19089" lon="0.23242">
        <ele>112.1</ele>
        <time>2022-07-07T19:48:24Z</time>
      </trkpt>
      <trkpt lat="49.1903" lon="0.23243">
        <ele>107.8</ele>
        <time>2022-07-07T19:48:24Z</time>
      </trkpt>
      <trkpt lat="49.18999" lon="0.23243">
        <ele>105.4</ele>
        <time>2022-07-07T19:48:24Z</time>
      </trkpt>
      <trkpt lat="49.18936" lon="0.23246">
        <ele>100.4</ele>
        <time>2022-07-07T19:48:24Z</time>
      </trkpt>
      <trkpt lat="49.18914" lon="0.23246">
        <ele>98.7</ele>
        <time>2022-07-07T19:48:24Z</time>
      </trkpt>
      <trkpt lat="49.18901" lon="0.23245">
        <ele>97.7</ele>
        <time>2022-07-07T19:48:24Z</time>
      </trkpt>
      <trkpt lat="49.18891" lon="0.23245">
        <ele>96.7</ele>
        <time>2022-07-07T19:48:24Z</time>
      </trkpt>
      <trkpt lat="49.18881" lon="0.23244">
        <ele>96.1</ele>
        <time>2022-07-07T19:48:24Z</time>
      </trkpt>
      <trkpt lat="49.18869" lon="0.23243">
        <ele>95.1</ele>
        <time>2022-07-07T19:48:24Z</time>
      </trkpt>
      <trkpt lat="49.18857" lon="0.23239">
        <ele>93.9</ele>
        <time>2022-07-07T19:48:24Z</time>
      </trkpt>
      <trkpt lat="49.18844" lon="0.23231">
        <ele>92.6</ele>
        <time>2022-07-07T19:48:24Z</time>
      </trkpt>
      <trkpt lat="49.18832" lon="0.23225">
        <ele>91.4</ele>
        <time>2022-07-07T19:48:24Z</time>
      </trkpt>
      <trkpt lat="49.18813" lon="0.23213">
        <ele>89.8</ele>
        <time>2022-07-07T19:48:24Z</time>
      </trkpt>
      <trkpt lat="49.18782" lon="0.23188">
        <ele>86.7</ele>
        <time>2022-07-07T19:48:24Z</time>
      </trkpt>
      <trkpt lat="49.18749" lon="0.23162">
        <ele>82.8</ele>
        <time>2022-07-07T19:48:24Z</time>
      </trkpt>
      <trkpt lat="49.1871" lon="0.23126">
        <ele>79.6</ele>
        <time>2022-07-07T19:48:24Z</time>
      </trkpt>
      <trkpt lat="49.1865" lon="0.23075">
        <ele>73.8</ele>
        <time>2022-07-07T19:48:24Z</time>
      </trkpt>
      <trkpt lat="49.18556" lon="0.22993">
        <ele>65.4</ele>
        <time>2022-07-07T19:48:24Z</time>
      </trkpt>
      <trkpt lat="49.1848" lon="0.22928">
        <ele>59.3</ele>
        <time>2022-07-07T19:48:24Z</time>
      </trkpt>
      <trkpt lat="49.18448" lon="0.22902">
        <ele>57.6</ele>
        <time>2022-07-07T19:48:24Z</time>
      </trkpt>
      <trkpt lat="49.18435" lon="0.22889">
        <ele>56.9</ele>
        <time>2022-07-07T19:48:24Z</time>
      </trkpt>
      <trkpt lat="49.18423" lon="0.22877">
        <ele>56.2</ele>
        <time>2022-07-07T19:48:24Z</time>
      </trkpt>
      <trkpt lat="49.18414" lon="0.22866">
        <ele>55.9</ele>
        <time>2022-07-07T19:48:24Z</time>
      </trkpt>
      <trkpt lat="49.18401" lon="0.22851">
        <ele>55.7</ele>
        <time>2022-07-07T19:48:24Z</time>
      </trkpt>
      <trkpt lat="49.18391" lon="0.22838">
        <ele>55.7</ele>
        <time>2022-07-07T19:48:24Z</time>
      </trkpt>
      <trkpt lat="49.18385" lon="0.22831">
        <ele>55.9</ele>
        <time>2022-07-07T19:48:24Z</time>
      </trkpt>
      <trkpt lat="49.18373" lon="0.22814">
        <ele>56</ele>
        <time>2022-07-07T19:48:24Z</time>
      </trkpt>
      <trkpt lat="49.18368" lon="0.22803">
        <ele>55.7</ele>
        <time>2022-07-07T19:48:24Z</time>
      </trkpt>
      <trkpt lat="49.18365" lon="0.22792">
        <ele>55.1</ele>
        <time>2022-07-07T19:48:24Z</time>
      </trkpt>
      <trkpt lat="49.18362" lon="0.22782">
        <ele>54.9</ele>
        <time>2022-07-07T19:48:24Z</time>
      </trkpt>
      <trkpt lat="49.1836" lon="0.22769">
        <ele>54.5</ele>
        <time>2022-07-07T19:48:24Z</time>
      </trkpt>
      <trkpt lat="49.18358" lon="0.22757">
        <ele>54.3</ele>
        <time>2022-07-07T19:48:24Z</time>
      </trkpt>
      <trkpt lat="49.18357" lon="0.22744">
        <ele>54.7</ele>
        <time>2022-07-07T19:48:24Z</time>
      </trkpt>
      <trkpt lat="49.18355" lon="0.22731">
        <ele>53</ele>
        <time>2022-07-07T19:48:24Z</time>
      </trkpt>
      <trkpt lat="49.18354" lon="0.22718">
        <ele>52.6</ele>
        <time>2022-07-07T19:48:24Z</time>
      </trkpt>
      <trkpt lat="49.18352" lon="0.22709">
        <ele>52.5</ele>
        <time>2022-07-07T19:48:24Z</time>
      </trkpt>
      <trkpt lat="49.1835" lon="0.227">
        <ele>52.2</ele>
        <time>2022-07-07T19:48:24Z</time>
      </trkpt>
      <trkpt lat="49.18348" lon="0.22692">
        <ele>52.1</ele>
        <time>2022-07-07T19:48:24Z</time>
      </trkpt>
      <trkpt lat="49.18346" lon="0.22685">
        <ele>51.8</ele>
        <time>2022-07-07T19:48:24Z</time>
      </trkpt>
      <trkpt lat="49.18342" lon="0.22677">
        <ele>51.5</ele>
        <time>2022-07-07T19:48:24Z</time>
      </trkpt>
      <trkpt lat="49.18338" lon="0.22668">
        <ele>51.3</ele>
        <time>2022-07-07T19:48:24Z</time>
      </trkpt>
      <trkpt lat="49.18333" lon="0.22658">
        <ele>51</ele>
        <time>2022-07-07T19:48:24Z</time>
      </trkpt>
      <trkpt lat="49.18323" lon="0.22642">
        <ele>50.5</ele>
        <time>2022-07-07T19:48:24Z</time>
      </trkpt>
      <trkpt lat="49.18313" lon="0.22627">
        <ele>49.8</ele>
        <time>2022-07-07T19:48:24Z</time>
      </trkpt>
      <trkpt lat="49.18304" lon="0.22612">
        <ele>49.3</ele>
        <time>2022-07-07T19:48:24Z</time>
      </trkpt>
      <trkpt lat="49.18296" lon="0.22597">
        <ele>49</ele>
        <time>2022-07-07T19:48:24Z</time>
      </trkpt>
      <trkpt lat="49.18288" lon="0.22574">
        <ele>48.3</ele>
        <time>2022-07-07T19:48:24Z</time>
      </trkpt>
      <trkpt lat="49.1828" lon="0.22555">
        <ele>47.6</ele>
        <time>2022-07-07T19:48:24Z</time>
      </trkpt>
      <trkpt lat="49.18268" lon="0.22528">
        <ele>46.9</ele>
        <time>2022-07-07T19:48:24Z</time>
      </trkpt>
      <trkpt lat="49.18264" lon="0.22519">
        <ele>46.7</ele>
        <time>2022-07-07T19:48:24Z</time>
      </trkpt>
      <trkpt lat="49.18258" lon="0.2251">
        <ele>46.4</ele>
        <time>2022-07-07T19:48:24Z</time>
      </trkpt>
      <trkpt lat="49.18252" lon="0.22502">
        <ele>46.1</ele>
        <time>2022-07-07T19:48:24Z</time>
      </trkpt>
      <trkpt lat="49.18244" lon="0.22494">
        <ele>45.9</ele>
        <time>2022-07-07T19:48:24Z</time>
      </trkpt>
      <trkpt lat="49.18238" lon="0.22489">
        <ele>45.7</ele>
        <time>2022-07-07T19:48:24Z</time>
      </trkpt>
      <trkpt lat="49.18234" lon="0.22481">
        <ele>45.6</ele>
        <time>2022-07-07T19:48:24Z</time>
      </trkpt>
      <trkpt lat="49.18231" lon="0.22473">
        <ele>45.3</ele>
        <time>2022-07-07T19:48:24Z</time>
      </trkpt>
      <trkpt lat="49.18227" lon="0.22464">
        <ele>45</ele>
        <time>2022-07-07T19:48:24Z</time>
      </trkpt>
      <trkpt lat="49.18222" lon="0.22459">
        <ele>44.8</ele>
        <time>2022-07-07T19:48:24Z</time>
      </trkpt>
      <trkpt lat="49.18217" lon="0.22455">
        <ele>44.7</ele>
        <time>2022-07-07T19:48:24Z</time>
      </trkpt>
      <trkpt lat="49.18209" lon="0.22454">
        <ele>44.4</ele>
        <time>2022-07-07T19:48:24Z</time>
      </trkpt>
      <trkpt lat="49.18201" lon="0.22455">
        <ele>44.2</ele>
        <time>2022-07-07T19:48:24Z</time>
      </trkpt>
      <trkpt lat="49.18194" lon="0.22458">
        <ele>44</ele>
        <time>2022-07-07T19:48:24Z</time>
      </trkpt>
      <trkpt lat="49.18188" lon="0.22461">
        <ele>43.8</ele>
        <time>2022-07-07T19:48:24Z</time>
      </trkpt>
      <trkpt lat="49.1818" lon="0.22463">
        <ele>43.6</ele>
        <time>2022-07-07T19:48:24Z</time>
      </trkpt>
      <trkpt lat="49.18172" lon="0.22464">
        <ele>43.5</ele>
        <time>2022-07-07T19:48:24Z</time>
      </trkpt>
      <trkpt lat="49.18163" lon="0.22462">
        <ele>43.3</ele>
        <time>2022-07-07T19:48:24Z</time>
      </trkpt>
      <trkpt lat="49.18156" lon="0.22462">
        <ele>43.1</ele>
        <time>2022-07-07T19:48:24Z</time>
      </trkpt>
      <trkpt lat="49.1815" lon="0.22465">
        <ele>43</ele>
        <time>2022-07-07T19:48:24Z</time>
      </trkpt>
      <trkpt lat="49.18071" lon="0.22484">
        <ele>40.9</ele>
        <time>2022-07-07T19:48:24Z</time>
      </trkpt>
      <trkpt lat="49.18041" lon="0.22491">
        <ele>40.2</ele>
        <time>2022-07-07T19:48:24Z</time>
      </trkpt>
      <trkpt lat="49.17987" lon="0.22504">
        <ele>39.7</ele>
        <time>2022-07-07T19:48:24Z</time>
      </trkpt>
      <trkpt lat="49.1792" lon="0.2252">
        <ele>39.5</ele>
        <time>2022-07-07T19:48:24Z</time>
      </trkpt>
      <trkpt lat="49.17922" lon="0.22497">
        <ele>39.1</ele>
        <time>2022-07-07T19:48:24Z</time>
      </trkpt>
      <trkpt lat="49.17924" lon="0.22471">
        <ele>39</ele>
        <time>2022-07-07T19:48:24Z</time>
      </trkpt>
      <trkpt lat="49.17927" lon="0.2244">
        <ele>38.9</ele>
        <time>2022-07-07T19:48:24Z</time>
      </trkpt>
      <trkpt lat="49.17928" lon="0.22426">
        <ele>38.8</ele>
        <time>2022-07-07T19:48:24Z</time>
      </trkpt>
      <trkpt lat="49.17929" lon="0.22403">
        <ele>38.7</ele>
        <time>2022-07-07T19:48:24Z</time>
      </trkpt>
      <trkpt lat="49.17929" lon="0.22387">
        <ele>38.7</ele>
        <time>2022-07-07T19:48:24Z</time>
      </trkpt>
      <trkpt lat="49.17929" lon="0.22372">
        <ele>38.6</ele>
        <time>2022-07-07T19:48:24Z</time>
      </trkpt>
      <trkpt lat="49.17928" lon="0.22354">
        <ele>38.5</ele>
        <time>2022-07-07T19:48:24Z</time>
      </trkpt>
      <trkpt lat="49.17926" lon="0.22334">
        <ele>38.4</ele>
        <time>2022-07-07T19:48:24Z</time>
      </trkpt>
      <trkpt lat="49.17913" lon="0.22148">
        <ele>37.5</ele>
        <time>2022-07-07T19:48:24Z</time>
      </trkpt>
      <trkpt lat="49.17912" lon="0.22126">
        <ele>36.9</ele>
        <time>2022-07-07T19:48:24Z</time>
      </trkpt>
      <trkpt lat="49.17909" lon="0.22064">
        <ele>34.9</ele>
        <time>2022-07-07T19:48:24Z</time>
      </trkpt>
      <trkpt lat="49.17908" lon="0.22051">
        <ele>34.9</ele>
        <time>2022-07-07T19:48:24Z</time>
      </trkpt>
      <trkpt lat="49.17904" lon="0.21982">
        <ele>36.5</ele>
        <time>2022-07-07T19:48:24Z</time>
      </trkpt>
      <trkpt lat="49.17904" lon="0.21967">
        <ele>36.8</ele>
        <time>2022-07-07T19:48:24Z</time>
      </trkpt>
      <trkpt lat="49.1789" lon="0.21694">
        <ele>36.6</ele>
        <time>2022-07-07T19:48:24Z</time>
      </trkpt>
      <trkpt lat="49.1789" lon="0.21686">
        <ele>36.3</ele>
        <time>2022-07-07T19:48:24Z</time>
      </trkpt>
      <trkpt lat="49.17889" lon="0.21671">
        <ele>34.1</ele>
        <time>2022-07-07T19:48:24Z</time>
      </trkpt>
      <trkpt lat="49.1788" lon="0.21481">
        <ele>36.2</ele>
        <time>2022-07-07T19:48:24Z</time>
      </trkpt>
      <trkpt lat="49.17868" lon="0.21262">
        <ele>36.3</ele>
        <time>2022-07-07T19:48:24Z</time>
      </trkpt>
      <trkpt lat="49.17863" lon="0.21155">
        <ele>35</ele>
        <time>2022-07-07T19:48:24Z</time>
      </trkpt>
      <trkpt lat="49.17862" lon="0.21145">
        <ele>32.6</ele>
        <time>2022-07-07T19:48:24Z</time>
      </trkpt>
      <trkpt lat="49.17861" lon="0.21122">
        <ele>36.1</ele>
        <time>2022-07-07T19:48:24Z</time>
      </trkpt>
      <trkpt lat="49.1786" lon="0.21107">
        <ele>36.2</ele>
        <time>2022-07-07T19:48:24Z</time>
      </trkpt>
      <trkpt lat="49.17853" lon="0.20978">
        <ele>35.2</ele>
        <time>2022-07-07T19:48:24Z</time>
      </trkpt>
      <trkpt lat="49.17852" lon="0.20959">
        <ele>35.3</ele>
        <time>2022-07-07T19:48:24Z</time>
      </trkpt>
      <trkpt lat="49.17851" lon="0.20929">
        <ele>35.8</ele>
        <time>2022-07-07T19:48:24Z</time>
      </trkpt>
      <trkpt lat="49.1785" lon="0.20892">
        <ele>37.1</ele>
        <time>2022-07-07T19:48:24Z</time>
      </trkpt>
      <trkpt lat="49.17848" lon="0.2084">
        <ele>39.4</ele>
        <time>2022-07-07T19:48:24Z</time>
      </trkpt>
      <trkpt lat="49.17847" lon="0.20823">
        <ele>40</ele>
        <time>2022-07-07T19:48:24Z</time>
      </trkpt>
      <trkpt lat="49.17846" lon="0.20811">
        <ele>40.6</ele>
        <time>2022-07-07T19:48:24Z</time>
      </trkpt>
      <trkpt lat="49.17844" lon="0.20799">
        <ele>41.5</ele>
        <time>2022-07-07T19:48:24Z</time>
      </trkpt>
      <trkpt lat="49.17842" lon="0.20786">
        <ele>41.6</ele>
        <time>2022-07-07T19:48:24Z</time>
      </trkpt>
      <trkpt lat="49.1784" lon="0.20775">
        <ele>42</ele>
        <time>2022-07-07T19:48:24Z</time>
      </trkpt>
      <trkpt lat="49.17838" lon="0.20763">
        <ele>42.1</ele>
        <time>2022-07-07T19:48:24Z</time>
      </trkpt>
      <trkpt lat="49.1783" lon="0.20731">
        <ele>42.5</ele>
        <time>2022-07-07T19:48:24Z</time>
      </trkpt>
      <trkpt lat="49.17827" lon="0.20717">
        <ele>42.6</ele>
        <time>2022-07-07T19:48:24Z</time>
      </trkpt>
      <trkpt lat="49.17826" lon="0.2071">
        <ele>42.7</ele>
        <time>2022-07-07T19:48:24Z</time>
      </trkpt>
      <trkpt lat="49.17825" lon="0.20701">
        <ele>42.8</ele>
        <time>2022-07-07T19:48:24Z</time>
      </trkpt>
      <trkpt lat="49.17824" lon="0.20694">
        <ele>42.8</ele>
        <time>2022-07-07T19:48:24Z</time>
      </trkpt>
      <trkpt lat="49.17824" lon="0.20683">
        <ele>42.9</ele>
        <time>2022-07-07T19:48:24Z</time>
      </trkpt>
      <trkpt lat="49.17823" lon="0.20675">
        <ele>43.2</ele>
        <time>2022-07-07T19:48:24Z</time>
      </trkpt>
      <trkpt lat="49.17824" lon="0.20666">
        <ele>43.4</ele>
        <time>2022-07-07T19:48:24Z</time>
      </trkpt>
      <trkpt lat="49.17824" lon="0.20656">
        <ele>43.9</ele>
        <time>2022-07-07T19:48:24Z</time>
      </trkpt>
      <trkpt lat="49.17827" lon="0.20643">
        <ele>44.5</ele>
        <time>2022-07-07T19:48:24Z</time>
      </trkpt>
      <trkpt lat="49.17832" lon="0.20632">
        <ele>45.3</ele>
        <time>2022-07-07T19:48:24Z</time>
      </trkpt>
      <trkpt lat="49.17838" lon="0.20619">
        <ele>46.1</ele>
        <time>2022-07-07T19:48:24Z</time>
      </trkpt>
      <trkpt lat="49.17845" lon="0.20604">
        <ele>46.9</ele>
        <time>2022-07-07T19:48:24Z</time>
      </trkpt>
      <trkpt lat="49.1785" lon="0.20587">
        <ele>48</ele>
        <time>2022-07-07T19:48:24Z</time>
      </trkpt>
      <trkpt lat="49.17855" lon="0.20571">
        <ele>49.1</ele>
        <time>2022-07-07T19:48:24Z</time>
      </trkpt>
      <trkpt lat="49.17858" lon="0.20557">
        <ele>49.9</ele>
        <time>2022-07-07T19:48:24Z</time>
      </trkpt>
      <trkpt lat="49.17861" lon="0.2054">
        <ele>50.8</ele>
        <time>2022-07-07T19:48:24Z</time>
      </trkpt>
      <trkpt lat="49.17863" lon="0.2052">
        <ele>51.9</ele>
        <time>2022-07-07T19:48:24Z</time>
      </trkpt>
      <trkpt lat="49.17864" lon="0.20498">
        <ele>53</ele>
        <time>2022-07-07T19:48:24Z</time>
      </trkpt>
      <trkpt lat="49.17864" lon="0.20469">
        <ele>54.7</ele>
        <time>2022-07-07T19:48:24Z</time>
      </trkpt>
      <trkpt lat="49.17864" lon="0.20458">
        <ele>55.2</ele>
        <time>2022-07-07T19:48:24Z</time>
      </trkpt>
      <trkpt lat="49.17864" lon="0.2045">
        <ele>55.7</ele>
        <time>2022-07-07T19:48:24Z</time>
      </trkpt>
      <trkpt lat="49.17863" lon="0.20436">
        <ele>56.8</ele>
        <time>2022-07-07T19:48:24Z</time>
      </trkpt>
      <trkpt lat="49.17863" lon="0.20416">
        <ele>57.9</ele>
        <time>2022-07-07T19:48:24Z</time>
      </trkpt>
      <trkpt lat="49.17862" lon="0.20403">
        <ele>59</ele>
        <time>2022-07-07T19:48:24Z</time>
      </trkpt>
      <trkpt lat="49.17859" lon="0.2038">
        <ele>60.3</ele>
        <time>2022-07-07T19:48:24Z</time>
      </trkpt>
      <trkpt lat="49.17855" lon="0.20353">
        <ele>61.9</ele>
        <time>2022-07-07T19:48:24Z</time>
      </trkpt>
      <trkpt lat="49.1785" lon="0.20322">
        <ele>63.3</ele>
        <time>2022-07-07T19:48:24Z</time>
      </trkpt>
      <trkpt lat="49.17846" lon="0.20287">
        <ele>65.1</ele>
        <time>2022-07-07T19:48:24Z</time>
      </trkpt>
      <trkpt lat="49.17845" lon="0.20264">
        <ele>66.9</ele>
        <time>2022-07-07T19:48:24Z</time>
      </trkpt>
      <trkpt lat="49.17843" lon="0.2024">
        <ele>67.5</ele>
        <time>2022-07-07T19:48:24Z</time>
      </trkpt>
      <trkpt lat="49.17839" lon="0.20215">
        <ele>68.7</ele>
        <time>2022-07-07T19:48:24Z</time>
      </trkpt>
      <trkpt lat="49.17835" lon="0.20188">
        <ele>69.7</ele>
        <time>2022-07-07T19:48:24Z</time>
      </trkpt>
      <trkpt lat="49.17817" lon="0.20192">
        <ele>71.3</ele>
        <time>2022-07-07T19:48:24Z</time>
      </trkpt>
      <trkpt lat="49.17812" lon="0.20192">
        <ele>71.6</ele>
        <time>2022-07-07T19:48:24Z</time>
      </trkpt>
      <trkpt lat="49.17807" lon="0.2019">
        <ele>72</ele>
        <time>2022-07-07T19:48:24Z</time>
      </trkpt>
      <trkpt lat="49.17801" lon="0.20186">
        <ele>72.6</ele>
        <time>2022-07-07T19:48:24Z</time>
      </trkpt>
      <trkpt lat="49.17793" lon="0.2018">
        <ele>73.2</ele>
        <time>2022-07-07T19:48:24Z</time>
      </trkpt>
      <trkpt lat="49.17788" lon="0.20177">
        <ele>73.8</ele>
        <time>2022-07-07T19:48:24Z</time>
      </trkpt>
      <trkpt lat="49.17782" lon="0.20177">
        <ele>74.2</ele>
        <time>2022-07-07T19:48:24Z</time>
      </trkpt>
      <trkpt lat="49.17764" lon="0.20186">
        <ele>75.2</ele>
        <time>2022-07-07T19:48:24Z</time>
      </trkpt>
      <trkpt lat="49.17749" lon="0.20193">
        <ele>76.1</ele>
        <time>2022-07-07T19:48:24Z</time>
      </trkpt>
      <trkpt lat="49.17732" lon="0.20198">
        <ele>75.7</ele>
        <time>2022-07-07T19:48:24Z</time>
      </trkpt>
      <trkpt lat="49.17719" lon="0.20202">
        <ele>75.5</ele>
        <time>2022-07-07T19:48:24Z</time>
      </trkpt>
      <trkpt lat="49.17706" lon="0.20203">
        <ele>75.5</ele>
        <time>2022-07-07T19:48:24Z</time>
      </trkpt>
      <trkpt lat="49.17701" lon="0.20203">
        <ele>75.5</ele>
        <time>2022-07-07T19:48:24Z</time>
      </trkpt>
      <trkpt lat="49.17696" lon="0.20199">
        <ele>75.8</ele>
        <time>2022-07-07T19:48:24Z</time>
      </trkpt>
      <trkpt lat="49.17693" lon="0.20194">
        <ele>76.1</ele>
        <time>2022-07-07T19:48:24Z</time>
      </trkpt>
      <trkpt lat="49.17691" lon="0.20186">
        <ele>76.8</ele>
        <time>2022-07-07T19:48:24Z</time>
      </trkpt>
      <trkpt lat="49.17688" lon="0.20179">
        <ele>76.9</ele>
        <time>2022-07-07T19:48:24Z</time>
      </trkpt>
      <trkpt lat="49.17684" lon="0.20175">
        <ele>77.3</ele>
        <time>2022-07-07T19:48:24Z</time>
      </trkpt>
      <trkpt lat="49.17679" lon="0.20174">
        <ele>77.9</ele>
        <time>2022-07-07T19:48:24Z</time>
      </trkpt>
      <trkpt lat="49.17671" lon="0.20173">
        <ele>78</ele>
        <time>2022-07-07T19:48:24Z</time>
      </trkpt>
      <trkpt lat="49.17648" lon="0.20172">
        <ele>78</ele>
        <time>2022-07-07T19:48:24Z</time>
      </trkpt>
      <trkpt lat="49.17629" lon="0.20169">
        <ele>78.4</ele>
        <time>2022-07-07T19:48:24Z</time>
      </trkpt>
      <trkpt lat="49.17613" lon="0.20166">
        <ele>78.5</ele>
        <time>2022-07-07T19:48:24Z</time>
      </trkpt>
      <trkpt lat="49.17599" lon="0.20162">
        <ele>79</ele>
        <time>2022-07-07T19:48:24Z</time>
      </trkpt>
      <trkpt lat="49.17583" lon="0.20155">
        <ele>80</ele>
        <time>2022-07-07T19:48:24Z</time>
      </trkpt>
      <trkpt lat="49.17559" lon="0.20144">
        <ele>81.3</ele>
        <time>2022-07-07T19:48:24Z</time>
      </trkpt>
      <trkpt lat="49.17545" lon="0.20137">
        <ele>81.9</ele>
        <time>2022-07-07T19:48:24Z</time>
      </trkpt>
      <trkpt lat="49.1754" lon="0.20136">
        <ele>82.3</ele>
        <time>2022-07-07T19:48:24Z</time>
      </trkpt>
      <trkpt lat="49.17544" lon="0.20111">
        <ele>84.2</ele>
        <time>2022-07-07T19:48:24Z</time>
      </trkpt>
      <trkpt lat="49.17551" lon="0.20077">
        <ele>88.4</ele>
        <time>2022-07-07T19:48:24Z</time>
      </trkpt>
      <trkpt lat="49.17554" lon="0.20057">
        <ele>91.7</ele>
        <time>2022-07-07T19:48:24Z</time>
      </trkpt>
      <trkpt lat="49.17553" lon="0.20038">
        <ele>93.4</ele>
        <time>2022-07-07T19:48:24Z</time>
      </trkpt>
      <trkpt lat="49.17547" lon="0.2002">
        <ele>95.8</ele>
        <time>2022-07-07T19:48:24Z</time>
      </trkpt>
      <trkpt lat="49.1753" lon="0.19994">
        <ele>101.6</ele>
        <time>2022-07-07T19:48:24Z</time>
      </trkpt>
      <trkpt lat="49.17506" lon="0.19964">
        <ele>106.4</ele>
        <time>2022-07-07T19:48:24Z</time>
      </trkpt>
      <trkpt lat="49.17497" lon="0.19952">
        <ele>108.1</ele>
        <time>2022-07-07T19:48:24Z</time>
      </trkpt>
      <trkpt lat="49.1748" lon="0.1993">
        <ele>110.8</ele>
        <time>2022-07-07T19:48:24Z</time>
      </trkpt>
      <trkpt lat="49.17457" lon="0.19881">
        <ele>116.9</ele>
        <time>2022-07-07T19:48:24Z</time>
      </trkpt>
      <trkpt lat="49.17439" lon="0.19831">
        <ele>121</ele>
        <time>2022-07-07T19:48:24Z</time>
      </trkpt>
      <trkpt lat="49.17421" lon="0.19778">
        <ele>123.7</ele>
        <time>2022-07-07T19:48:24Z</time>
      </trkpt>
      <trkpt lat="49.17408" lon="0.19737">
        <ele>125.1</ele>
        <time>2022-07-07T19:48:24Z</time>
      </trkpt>
      <trkpt lat="49.17332" lon="0.19775">
        <ele>124.3</ele>
        <time>2022-07-07T19:48:24Z</time>
      </trkpt>
      <trkpt lat="49.1733" lon="0.19788">
        <ele>123.7</ele>
        <time>2022-07-07T19:48:24Z</time>
      </trkpt>
      <trkpt lat="49.17291" lon="0.19897">
        <ele>117.6</ele>
        <time>2022-07-07T19:48:24Z</time>
      </trkpt>
      <trkpt lat="49.17282" lon="0.19912">
        <ele>117</ele>
        <time>2022-07-07T19:48:24Z</time>
      </trkpt>
      <trkpt lat="49.17266" lon="0.19926">
        <ele>116.2</ele>
        <time>2022-07-07T19:48:24Z</time>
      </trkpt>
      <trkpt lat="49.17233" lon="0.19936">
        <ele>117.2</ele>
        <time>2022-07-07T19:48:24Z</time>
      </trkpt>
      <trkpt lat="49.17216" lon="0.19932">
        <ele>117.5</ele>
        <time>2022-07-07T19:48:24Z</time>
      </trkpt>
      <trkpt lat="49.17189" lon="0.19921">
        <ele>119.2</ele>
        <time>2022-07-07T19:48:24Z</time>
      </trkpt>
      <trkpt lat="49.17169" lon="0.19879">
        <ele>122.5</ele>
        <time>2022-07-07T19:48:24Z</time>
      </trkpt>
      <trkpt lat="49.1715" lon="0.19834">
        <ele>125.5</ele>
        <time>2022-07-07T19:48:24Z</time>
      </trkpt>
      <trkpt lat="49.1713" lon="0.19814">
        <ele>126.4</ele>
        <time>2022-07-07T19:48:24Z</time>
      </trkpt>
      <trkpt lat="49.17072" lon="0.19801">
        <ele>128.1</ele>
        <time>2022-07-07T19:48:24Z</time>
      </trkpt>
      <trkpt lat="49.1704" lon="0.19783">
        <ele>129.3</ele>
        <time>2022-07-07T19:48:24Z</time>
      </trkpt>
      <trkpt lat="49.17025" lon="0.19773">
        <ele>129.8</ele>
        <time>2022-07-07T19:48:24Z</time>
      </trkpt>
      <trkpt lat="49.17012" lon="0.19763">
        <ele>130.1</ele>
        <time>2022-07-07T19:48:24Z</time>
      </trkpt>
      <trkpt lat="49.17003" lon="0.19756">
        <ele>130.3</ele>
        <time>2022-07-07T19:48:24Z</time>
      </trkpt>
      <trkpt lat="49.16915" lon="0.19508">
        <ele>135.1</ele>
        <time>2022-07-07T19:48:24Z</time>
      </trkpt>
      <trkpt lat="49.1691" lon="0.19494">
        <ele>135.4</ele>
        <time>2022-07-07T19:48:24Z</time>
      </trkpt>
      <trkpt lat="49.16903" lon="0.19479">
        <ele>135.9</ele>
        <time>2022-07-07T19:48:24Z</time>
      </trkpt>
      <trkpt lat="49.16861" lon="0.19471">
        <ele>136</ele>
        <time>2022-07-07T19:48:24Z</time>
      </trkpt>
      <trkpt lat="49.16816" lon="0.19459">
        <ele>136.6</ele>
        <time>2022-07-07T19:48:24Z</time>
      </trkpt>
      <trkpt lat="49.16785" lon="0.1945">
        <ele>137</ele>
        <time>2022-07-07T19:48:24Z</time>
      </trkpt>
      <trkpt lat="49.1678" lon="0.19449">
        <ele>137.1</ele>
        <time>2022-07-07T19:48:24Z</time>
      </trkpt>
      <trkpt lat="49.16725" lon="0.19434">
        <ele>137.2</ele>
        <time>2022-07-07T19:48:24Z</time>
      </trkpt>
      <trkpt lat="49.16666" lon="0.19416">
        <ele>136.9</ele>
        <time>2022-07-07T19:48:24Z</time>
      </trkpt>
      <trkpt lat="49.1661" lon="0.19404">
        <ele>136.3</ele>
        <time>2022-07-07T19:48:24Z</time>
      </trkpt>
      <trkpt lat="49.16604" lon="0.19401">
        <ele>136.4</ele>
        <time>2022-07-07T19:48:24Z</time>
      </trkpt>
      <trkpt lat="49.16599" lon="0.19396">
        <ele>136.5</ele>
        <time>2022-07-07T19:48:24Z</time>
      </trkpt>
      <trkpt lat="49.16595" lon="0.1939">
        <ele>136.5</ele>
        <time>2022-07-07T19:48:24Z</time>
      </trkpt>
      <trkpt lat="49.16593" lon="0.19384">
        <ele>136.6</ele>
        <time>2022-07-07T19:48:24Z</time>
      </trkpt>
      <trkpt lat="49.16579" lon="0.19316">
        <ele>138.3</ele>
        <time>2022-07-07T19:48:24Z</time>
      </trkpt>
      <trkpt lat="49.16565" lon="0.19253">
        <ele>139.9</ele>
        <time>2022-07-07T19:48:24Z</time>
      </trkpt>
      <trkpt lat="49.16552" lon="0.19192">
        <ele>141.4</ele>
        <time>2022-07-07T19:48:24Z</time>
      </trkpt>
      <trkpt lat="49.16532" lon="0.191">
        <ele>144.1</ele>
        <time>2022-07-07T19:48:24Z</time>
      </trkpt>
      <trkpt lat="49.16515" lon="0.19019">
        <ele>145.7</ele>
        <time>2022-07-07T19:48:24Z</time>
      </trkpt>
      <trkpt lat="49.16504" lon="0.18964">
        <ele>146.4</ele>
        <time>2022-07-07T19:48:24Z</time>
      </trkpt>
      <trkpt lat="49.16499" lon="0.18937">
        <ele>146.7</ele>
        <time>2022-07-07T19:48:24Z</time>
      </trkpt>
      <trkpt lat="49.16484" lon="0.18861">
        <ele>147.9</ele>
        <time>2022-07-07T19:48:24Z</time>
      </trkpt>
      <trkpt lat="49.16479" lon="0.18838">
        <ele>148.1</ele>
        <time>2022-07-07T19:48:24Z</time>
      </trkpt>
      <trkpt lat="49.16478" lon="0.1883">
        <ele>148.1</ele>
        <time>2022-07-07T19:48:24Z</time>
      </trkpt>
      <trkpt lat="49.16478" lon="0.1882">
        <ele>148.1</ele>
        <time>2022-07-07T19:48:24Z</time>
      </trkpt>
      <trkpt lat="49.16477" lon="0.18805">
        <ele>147.9</ele>
        <time>2022-07-07T19:48:24Z</time>
      </trkpt>
      <trkpt lat="49.16477" lon="0.18787">
        <ele>147.6</ele>
        <time>2022-07-07T19:48:24Z</time>
      </trkpt>
      <trkpt lat="49.16477" lon="0.18771">
        <ele>147.6</ele>
        <time>2022-07-07T19:48:24Z</time>
      </trkpt>
      <trkpt lat="49.16467" lon="0.18771">
        <ele>147.7</ele>
        <time>2022-07-07T19:48:24Z</time>
      </trkpt>
      <trkpt lat="49.16453" lon="0.18773">
        <ele>147.7</ele>
        <time>2022-07-07T19:48:24Z</time>
      </trkpt>
      <trkpt lat="49.16441" lon="0.18776">
        <ele>147.8</ele>
        <time>2022-07-07T19:48:24Z</time>
      </trkpt>
      <trkpt lat="49.16428" lon="0.1878">
        <ele>147.9</ele>
        <time>2022-07-07T19:48:24Z</time>
      </trkpt>
      <trkpt lat="49.1642" lon="0.18782">
        <ele>148.1</ele>
        <time>2022-07-07T19:48:24Z</time>
      </trkpt>
      <trkpt lat="49.16414" lon="0.18786">
        <ele>148</ele>
        <time>2022-07-07T19:48:24Z</time>
      </trkpt>
      <trkpt lat="49.16412" lon="0.18775">
        <ele>148.2</ele>
        <time>2022-07-07T19:48:24Z</time>
      </trkpt>
      <trkpt lat="49.1641" lon="0.18756">
        <ele>148.5</ele>
        <time>2022-07-07T19:48:24Z</time>
      </trkpt>
      <trkpt lat="49.16408" lon="0.18738">
        <ele>148.5</ele>
        <time>2022-07-07T19:48:24Z</time>
      </trkpt>
      <trkpt lat="49.16406" lon="0.18721">
        <ele>148.8</ele>
        <time>2022-07-07T19:48:24Z</time>
      </trkpt>
      <trkpt lat="49.16406" lon="0.18697">
        <ele>148.8</ele>
        <time>2022-07-07T19:48:24Z</time>
      </trkpt>
      <trkpt lat="49.16406" lon="0.18671">
        <ele>148.9</ele>
        <time>2022-07-07T19:48:24Z</time>
      </trkpt>
      <trkpt lat="49.16406" lon="0.18632">
        <ele>148.9</ele>
        <time>2022-07-07T19:48:24Z</time>
      </trkpt>
      <trkpt lat="49.16407" lon="0.18567">
        <ele>148.8</ele>
        <time>2022-07-07T19:48:24Z</time>
      </trkpt>
      <trkpt lat="49.1641" lon="0.18481">
        <ele>147.9</ele>
        <time>2022-07-07T19:48:24Z</time>
      </trkpt>
      <trkpt lat="49.16411" lon="0.18394">
        <ele>147</ele>
        <time>2022-07-07T19:48:24Z</time>
      </trkpt>
      <trkpt lat="49.16413" lon="0.1834">
        <ele>146</ele>
        <time>2022-07-07T19:48:24Z</time>
      </trkpt>
      <trkpt lat="49.16413" lon="0.18316">
        <ele>145.9</ele>
        <time>2022-07-07T19:48:24Z</time>
      </trkpt>
      <trkpt lat="49.16412" lon="0.18301">
        <ele>145.8</ele>
        <time>2022-07-07T19:48:24Z</time>
      </trkpt>
      <trkpt lat="49.16411" lon="0.18286">
        <ele>145.7</ele>
        <time>2022-07-07T19:48:24Z</time>
      </trkpt>
      <trkpt lat="49.16407" lon="0.18269">
        <ele>145.6</ele>
        <time>2022-07-07T19:48:24Z</time>
      </trkpt>
      <trkpt lat="49.16405" lon="0.18259">
        <ele>145.6</ele>
        <time>2022-07-07T19:48:24Z</time>
      </trkpt>
      <trkpt lat="49.16401" lon="0.18241">
        <ele>145.3</ele>
        <time>2022-07-07T19:48:24Z</time>
      </trkpt>
      <trkpt lat="49.16396" lon="0.18224">
        <ele>145.1</ele>
        <time>2022-07-07T19:48:24Z</time>
      </trkpt>
      <trkpt lat="49.16391" lon="0.18211">
        <ele>145.2</ele>
        <time>2022-07-07T19:48:24Z</time>
      </trkpt>
      <trkpt lat="49.16378" lon="0.18186">
        <ele>145.8</ele>
        <time>2022-07-07T19:48:24Z</time>
      </trkpt>
      <trkpt lat="49.16368" lon="0.18166">
        <ele>145.8</ele>
        <time>2022-07-07T19:48:24Z</time>
      </trkpt>
      <trkpt lat="49.16362" lon="0.18154">
        <ele>145.9</ele>
        <time>2022-07-07T19:48:24Z</time>
      </trkpt>
      <trkpt lat="49.16357" lon="0.18142">
        <ele>146.1</ele>
        <time>2022-07-07T19:48:24Z</time>
      </trkpt>
      <trkpt lat="49.16353" lon="0.18127">
        <ele>146.2</ele>
        <time>2022-07-07T19:48:24Z</time>
      </trkpt>
      <trkpt lat="49.16348" lon="0.18103">
        <ele>146.6</ele>
        <time>2022-07-07T19:48:24Z</time>
      </trkpt>
      <trkpt lat="49.16344" lon="0.18079">
        <ele>146.7</ele>
        <time>2022-07-07T19:48:24Z</time>
      </trkpt>
      <trkpt lat="49.16339" lon="0.18056">
        <ele>146.8</ele>
        <time>2022-07-07T19:48:24Z</time>
      </trkpt>
      <trkpt lat="49.16336" lon="0.1804">
        <ele>147</ele>
        <time>2022-07-07T19:48:24Z</time>
      </trkpt>
      <trkpt lat="49.16335" lon="0.18028">
        <ele>147.2</ele>
        <time>2022-07-07T19:48:24Z</time>
      </trkpt>
      <trkpt lat="49.16335" lon="0.18013">
        <ele>147.3</ele>
        <time>2022-07-07T19:48:24Z</time>
      </trkpt>
      <trkpt lat="49.16335" lon="0.17993">
        <ele>147.3</ele>
        <time>2022-07-07T19:48:24Z</time>
      </trkpt>
      <trkpt lat="49.16336" lon="0.17968">
        <ele>147.4</ele>
        <time>2022-07-07T19:48:24Z</time>
      </trkpt>
      <trkpt lat="49.16336" lon="0.17933">
        <ele>147.4</ele>
        <time>2022-07-07T19:48:24Z</time>
      </trkpt>
      <trkpt lat="49.16337" lon="0.17876">
        <ele>146.8</ele>
        <time>2022-07-07T19:48:24Z</time>
      </trkpt>
      <trkpt lat="49.16337" lon="0.17843">
        <ele>146.5</ele>
        <time>2022-07-07T19:48:24Z</time>
      </trkpt>
      <trkpt lat="49.16335" lon="0.17803">
        <ele>145.7</ele>
        <time>2022-07-07T19:48:24Z</time>
      </trkpt>
      <trkpt lat="49.16335" lon="0.17786">
        <ele>145.4</ele>
        <time>2022-07-07T19:48:24Z</time>
      </trkpt>
      <trkpt lat="49.16334" lon="0.17771">
        <ele>145.3</ele>
        <time>2022-07-07T19:48:24Z</time>
      </trkpt>
      <trkpt lat="49.16331" lon="0.17759">
        <ele>145.3</ele>
        <time>2022-07-07T19:48:24Z</time>
      </trkpt>
      <trkpt lat="49.16329" lon="0.17743">
        <ele>145.2</ele>
        <time>2022-07-07T19:48:24Z</time>
      </trkpt>
      <trkpt lat="49.16327" lon="0.1773">
        <ele>145.1</ele>
        <time>2022-07-07T19:48:24Z</time>
      </trkpt>
      <trkpt lat="49.16325" lon="0.1771">
        <ele>145</ele>
        <time>2022-07-07T19:48:24Z</time>
      </trkpt>
      <trkpt lat="49.16324" lon="0.17695">
        <ele>145</ele>
        <time>2022-07-07T19:48:24Z</time>
      </trkpt>
      <trkpt lat="49.16322" lon="0.17682">
        <ele>144.9</ele>
        <time>2022-07-07T19:48:24Z</time>
      </trkpt>
      <trkpt lat="49.16319" lon="0.1767">
        <ele>144.8</ele>
        <time>2022-07-07T19:48:24Z</time>
      </trkpt>
      <trkpt lat="49.16314" lon="0.17651">
        <ele>144.6</ele>
        <time>2022-07-07T19:48:24Z</time>
      </trkpt>
      <trkpt lat="49.16309" lon="0.17635">
        <ele>144.6</ele>
        <time>2022-07-07T19:48:24Z</time>
      </trkpt>
      <trkpt lat="49.16298" lon="0.17606">
        <ele>144.5</ele>
        <time>2022-07-07T19:48:24Z</time>
      </trkpt>
      <trkpt lat="49.16291" lon="0.17588">
        <ele>144.3</ele>
        <time>2022-07-07T19:48:24Z</time>
      </trkpt>
      <trkpt lat="49.16285" lon="0.17572">
        <ele>144.2</ele>
        <time>2022-07-07T19:48:24Z</time>
      </trkpt>
      <trkpt lat="49.16273" lon="0.17547">
        <ele>144.1</ele>
        <time>2022-07-07T19:48:24Z</time>
      </trkpt>
      <trkpt lat="49.16259" lon="0.17523">
        <ele>143.9</ele>
        <time>2022-07-07T19:48:24Z</time>
      </trkpt>
      <trkpt lat="49.1624" lon="0.17491">
        <ele>143.8</ele>
        <time>2022-07-07T19:48:24Z</time>
      </trkpt>
      <trkpt lat="49.16223" lon="0.17459">
        <ele>143.7</ele>
        <time>2022-07-07T19:48:24Z</time>
      </trkpt>
      <trkpt lat="49.16215" lon="0.17438">
        <ele>143.8</ele>
        <time>2022-07-07T19:48:24Z</time>
      </trkpt>
      <trkpt lat="49.1621" lon="0.17429">
        <ele>143.6</ele>
        <time>2022-07-07T19:48:24Z</time>
      </trkpt>
      <trkpt lat="49.16205" lon="0.17422">
        <ele>143.3</ele>
        <time>2022-07-07T19:48:24Z</time>
      </trkpt>
      <trkpt lat="49.16197" lon="0.17417">
        <ele>143.2</ele>
        <time>2022-07-07T19:48:24Z</time>
      </trkpt>
      <trkpt lat="49.16208" lon="0.17385">
        <ele>142.9</ele>
        <time>2022-07-07T19:48:24Z</time>
      </trkpt>
      <trkpt lat="49.16218" lon="0.17357">
        <ele>142.7</ele>
        <time>2022-07-07T19:48:24Z</time>
      </trkpt>
      <trkpt lat="49.16227" lon="0.17335">
        <ele>142.3</ele>
        <time>2022-07-07T19:48:24Z</time>
      </trkpt>
      <trkpt lat="49.16232" lon="0.17319">
        <ele>142.1</ele>
        <time>2022-07-07T19:48:24Z</time>
      </trkpt>
      <trkpt lat="49.16238" lon="0.17299">
        <ele>142.3</ele>
        <time>2022-07-07T19:48:24Z</time>
      </trkpt>
      <trkpt lat="49.16252" lon="0.17244">
        <ele>141.7</ele>
        <time>2022-07-07T19:48:24Z</time>
      </trkpt>
      <trkpt lat="49.16263" lon="0.1721">
        <ele>141.2</ele>
        <time>2022-07-07T19:48:24Z</time>
      </trkpt>
      <trkpt lat="49.16272" lon="0.17168">
        <ele>140.5</ele>
        <time>2022-07-07T19:48:24Z</time>
      </trkpt>
      <trkpt lat="49.1628" lon="0.17126">
        <ele>139</ele>
        <time>2022-07-07T19:48:24Z</time>
      </trkpt>
      <trkpt lat="49.16288" lon="0.17074">
        <ele>137.4</ele>
        <time>2022-07-07T19:48:24Z</time>
      </trkpt>
      <trkpt lat="49.16292" lon="0.17052">
        <ele>136.9</ele>
        <time>2022-07-07T19:48:24Z</time>
      </trkpt>
      <trkpt lat="49.16304" lon="0.16997">
        <ele>135.9</ele>
        <time>2022-07-07T19:48:24Z</time>
      </trkpt>
      <trkpt lat="49.16311" lon="0.16966">
        <ele>135.2</ele>
        <time>2022-07-07T19:48:24Z</time>
      </trkpt>
      <trkpt lat="49.16322" lon="0.16942">
        <ele>134.7</ele>
        <time>2022-07-07T19:48:24Z</time>
      </trkpt>
      <trkpt lat="49.16336" lon="0.16914">
        <ele>134.1</ele>
        <time>2022-07-07T19:48:24Z</time>
      </trkpt>
      <trkpt lat="49.16358" lon="0.16872">
        <ele>132.5</ele>
        <time>2022-07-07T19:48:24Z</time>
      </trkpt>
      <trkpt lat="49.16371" lon="0.16844">
        <ele>130.8</ele>
        <time>2022-07-07T19:48:24Z</time>
      </trkpt>
      <trkpt lat="49.16378" lon="0.16827">
        <ele>129.9</ele>
        <time>2022-07-07T19:48:24Z</time>
      </trkpt>
      <trkpt lat="49.16384" lon="0.16812">
        <ele>128.8</ele>
        <time>2022-07-07T19:48:24Z</time>
      </trkpt>
      <trkpt lat="49.1639" lon="0.16796">
        <ele>127</ele>
        <time>2022-07-07T19:48:24Z</time>
      </trkpt>
      <trkpt lat="49.16407" lon="0.16772">
        <ele>127</ele>
        <time>2022-07-07T19:48:24Z</time>
      </trkpt>
      <trkpt lat="49.16422" lon="0.1675">
        <ele>126.6</ele>
        <time>2022-07-07T19:48:24Z</time>
      </trkpt>
      <trkpt lat="49.16438" lon="0.16729">
        <ele>125.9</ele>
        <time>2022-07-07T19:48:24Z</time>
      </trkpt>
      <trkpt lat="49.16454" lon="0.16705">
        <ele>123.7</ele>
        <time>2022-07-07T19:48:24Z</time>
      </trkpt>
      <trkpt lat="49.16467" lon="0.16681">
        <ele>120.9</ele>
        <time>2022-07-07T19:48:24Z</time>
      </trkpt>
      <trkpt lat="49.16482" lon="0.16664">
        <ele>121</ele>
        <time>2022-07-07T19:48:24Z</time>
      </trkpt>
      <trkpt lat="49.16502" lon="0.16622">
        <ele>115.1</ele>
        <time>2022-07-07T19:48:24Z</time>
      </trkpt>
      <trkpt lat="49.16518" lon="0.16585">
        <ele>110.5</ele>
        <time>2022-07-07T19:48:24Z</time>
      </trkpt>
      <trkpt lat="49.16526" lon="0.16568">
        <ele>108.6</ele>
        <time>2022-07-07T19:48:24Z</time>
      </trkpt>
      <trkpt lat="49.16542" lon="0.16531">
        <ele>104.4</ele>
        <time>2022-07-07T19:48:24Z</time>
      </trkpt>
      <trkpt lat="49.16559" lon="0.16492">
        <ele>99.2</ele>
        <time>2022-07-07T19:48:24Z</time>
      </trkpt>
      <trkpt lat="49.16572" lon="0.16453">
        <ele>95.8</ele>
        <time>2022-07-07T19:48:24Z</time>
      </trkpt>
      <trkpt lat="49.16573" lon="0.1643">
        <ele>93.8</ele>
        <time>2022-07-07T19:48:24Z</time>
      </trkpt>
      <trkpt lat="49.16576" lon="0.16412">
        <ele>91.4</ele>
        <time>2022-07-07T19:48:24Z</time>
      </trkpt>
      <trkpt lat="49.16584" lon="0.16376">
        <ele>84.7</ele>
        <time>2022-07-07T19:48:24Z</time>
      </trkpt>
      <trkpt lat="49.16587" lon="0.16351">
        <ele>83.4</ele>
        <time>2022-07-07T19:48:24Z</time>
      </trkpt>
      <trkpt lat="49.16588" lon="0.16342">
        <ele>83.1</ele>
        <time>2022-07-07T19:48:24Z</time>
      </trkpt>
      <trkpt lat="49.1659" lon="0.16333">
        <ele>83</ele>
        <time>2022-07-07T19:48:24Z</time>
      </trkpt>
      <trkpt lat="49.16594" lon="0.16324">
        <ele>83</ele>
        <time>2022-07-07T19:48:24Z</time>
      </trkpt>
      <trkpt lat="49.16599" lon="0.16316">
        <ele>83</ele>
        <time>2022-07-07T19:48:24Z</time>
      </trkpt>
      <trkpt lat="49.16604" lon="0.16306">
        <ele>82.9</ele>
        <time>2022-07-07T19:48:24Z</time>
      </trkpt>
      <trkpt lat="49.1661" lon="0.16295">
        <ele>83.3</ele>
        <time>2022-07-07T19:48:24Z</time>
      </trkpt>
      <trkpt lat="49.16614" lon="0.16285">
        <ele>83.5</ele>
        <time>2022-07-07T19:48:24Z</time>
      </trkpt>
      <trkpt lat="49.16618" lon="0.16273">
        <ele>83.7</ele>
        <time>2022-07-07T19:48:24Z</time>
      </trkpt>
      <trkpt lat="49.16621" lon="0.16262">
        <ele>83.9</ele>
        <time>2022-07-07T19:48:24Z</time>
      </trkpt>
      <trkpt lat="49.16623" lon="0.16247">
        <ele>84.5</ele>
        <time>2022-07-07T19:48:24Z</time>
      </trkpt>
      <trkpt lat="49.16602" lon="0.16242">
        <ele>85</ele>
        <time>2022-07-07T19:48:24Z</time>
      </trkpt>
      <trkpt lat="49.16587" lon="0.16237">
        <ele>85.6</ele>
        <time>2022-07-07T19:48:24Z</time>
      </trkpt>
      <trkpt lat="49.1657" lon="0.16229">
        <ele>85.7</ele>
        <time>2022-07-07T19:48:24Z</time>
      </trkpt>
      <trkpt lat="49.16558" lon="0.16222">
        <ele>86.2</ele>
        <time>2022-07-07T19:48:24Z</time>
      </trkpt>
      <trkpt lat="49.16547" lon="0.16215">
        <ele>86.2</ele>
        <time>2022-07-07T19:48:24Z</time>
      </trkpt>
      <trkpt lat="49.16539" lon="0.16207">
        <ele>86.6</ele>
        <time>2022-07-07T19:48:24Z</time>
      </trkpt>
      <trkpt lat="49.16525" lon="0.16191">
        <ele>87.2</ele>
        <time>2022-07-07T19:48:24Z</time>
      </trkpt>
      <trkpt lat="49.16506" lon="0.16167">
        <ele>87.2</ele>
        <time>2022-07-07T19:48:24Z</time>
      </trkpt>
      <trkpt lat="49.16491" lon="0.16151">
        <ele>86.8</ele>
        <time>2022-07-07T19:48:24Z</time>
      </trkpt>
      <trkpt lat="49.16483" lon="0.16143">
        <ele>86.8</ele>
        <time>2022-07-07T19:48:24Z</time>
      </trkpt>
      <trkpt lat="49.16474" lon="0.16136">
        <ele>87.1</ele>
        <time>2022-07-07T19:48:24Z</time>
      </trkpt>
      <trkpt lat="49.16465" lon="0.1613">
        <ele>87.1</ele>
        <time>2022-07-07T19:48:24Z</time>
      </trkpt>
      <trkpt lat="49.16457" lon="0.16127">
        <ele>87.3</ele>
        <time>2022-07-07T19:48:24Z</time>
      </trkpt>
      <trkpt lat="49.16445" lon="0.16121">
        <ele>87.5</ele>
        <time>2022-07-07T19:48:24Z</time>
      </trkpt>
      <trkpt lat="49.16435" lon="0.16114">
        <ele>88.3</ele>
        <time>2022-07-07T19:48:24Z</time>
      </trkpt>
      <trkpt lat="49.16428" lon="0.16107">
        <ele>88.5</ele>
        <time>2022-07-07T19:48:24Z</time>
      </trkpt>
      <trkpt lat="49.16421" lon="0.16096">
        <ele>89</ele>
        <time>2022-07-07T19:48:24Z</time>
      </trkpt>
      <trkpt lat="49.16416" lon="0.16085">
        <ele>89</ele>
        <time>2022-07-07T19:48:24Z</time>
      </trkpt>
      <trkpt lat="49.16412" lon="0.16075">
        <ele>89.7</ele>
        <time>2022-07-07T19:48:24Z</time>
      </trkpt>
      <trkpt lat="49.16408" lon="0.1607">
        <ele>89.8</ele>
        <time>2022-07-07T19:48:24Z</time>
      </trkpt>
      <trkpt lat="49.16403" lon="0.16058">
        <ele>90.2</ele>
        <time>2022-07-07T19:48:24Z</time>
      </trkpt>
      <trkpt lat="49.16393" lon="0.1604">
        <ele>90.4</ele>
        <time>2022-07-07T19:48:24Z</time>
      </trkpt>
      <trkpt lat="49.16382" lon="0.16026">
        <ele>90.6</ele>
        <time>2022-07-07T19:48:24Z</time>
      </trkpt>
      <trkpt lat="49.16366" lon="0.16011">
        <ele>91</ele>
        <time>2022-07-07T19:48:24Z</time>
      </trkpt>
      <trkpt lat="49.16339" lon="0.15987">
        <ele>91.6</ele>
        <time>2022-07-07T19:48:24Z</time>
      </trkpt>
      <trkpt lat="49.16313" lon="0.15961">
        <ele>91.3</ele>
        <time>2022-07-07T19:48:24Z</time>
      </trkpt>
      <trkpt lat="49.16298" lon="0.15939">
        <ele>91.5</ele>
        <time>2022-07-07T19:48:24Z</time>
      </trkpt>
      <trkpt lat="49.16273" lon="0.15905">
        <ele>92.5</ele>
        <time>2022-07-07T19:48:24Z</time>
      </trkpt>
      <trkpt lat="49.16259" lon="0.15877">
        <ele>93.7</ele>
        <time>2022-07-07T19:48:24Z</time>
      </trkpt>
      <trkpt lat="49.16246" lon="0.15849">
        <ele>94.3</ele>
        <time>2022-07-07T19:48:24Z</time>
      </trkpt>
      <trkpt lat="49.16237" lon="0.1582">
        <ele>94.5</ele>
        <time>2022-07-07T19:48:24Z</time>
      </trkpt>
      <trkpt lat="49.16229" lon="0.15781">
        <ele>94.7</ele>
        <time>2022-07-07T19:48:24Z</time>
      </trkpt>
      <trkpt lat="49.1622" lon="0.15747">
        <ele>94.5</ele>
        <time>2022-07-07T19:48:24Z</time>
      </trkpt>
      <trkpt lat="49.16216" lon="0.15732">
        <ele>94.4</ele>
        <time>2022-07-07T19:48:24Z</time>
      </trkpt>
      <trkpt lat="49.16211" lon="0.15718">
        <ele>94.3</ele>
        <time>2022-07-07T19:48:24Z</time>
      </trkpt>
      <trkpt lat="49.16203" lon="0.15704">
        <ele>93.9</ele>
        <time>2022-07-07T19:48:24Z</time>
      </trkpt>
      <trkpt lat="49.16192" lon="0.1569">
        <ele>93.7</ele>
        <time>2022-07-07T19:48:24Z</time>
      </trkpt>
      <trkpt lat="49.16188" lon="0.15684">
        <ele>93.8</ele>
        <time>2022-07-07T19:48:24Z</time>
      </trkpt>
      <trkpt lat="49.1614" lon="0.15628">
        <ele>95</ele>
        <time>2022-07-07T19:48:24Z</time>
      </trkpt>
      <trkpt lat="49.16118" lon="0.15604">
        <ele>95.7</ele>
        <time>2022-07-07T19:48:24Z</time>
      </trkpt>
      <trkpt lat="49.16109" lon="0.15595">
        <ele>96.2</ele>
        <time>2022-07-07T19:48:24Z</time>
      </trkpt>
      <trkpt lat="49.1611" lon="0.15587">
        <ele>96.4</ele>
        <time>2022-07-07T19:48:24Z</time>
      </trkpt>
      <trkpt lat="49.16109" lon="0.15577">
        <ele>97.1</ele>
        <time>2022-07-07T19:48:24Z</time>
      </trkpt>
      <trkpt lat="49.16108" lon="0.15568">
        <ele>97.6</ele>
        <time>2022-07-07T19:48:24Z</time>
      </trkpt>
      <trkpt lat="49.16106" lon="0.15553">
        <ele>98.3</ele>
        <time>2022-07-07T19:48:24Z</time>
      </trkpt>
      <trkpt lat="49.16094" lon="0.15478">
        <ele>102.6</ele>
        <time>2022-07-07T19:48:24Z</time>
      </trkpt>
      <trkpt lat="49.16087" lon="0.15446">
        <ele>103.7</ele>
        <time>2022-07-07T19:48:24Z</time>
      </trkpt>
      <trkpt lat="49.16083" lon="0.15429">
        <ele>105.1</ele>
        <time>2022-07-07T19:48:24Z</time>
      </trkpt>
      <trkpt lat="49.16075" lon="0.15407">
        <ele>106.8</ele>
        <time>2022-07-07T19:48:24Z</time>
      </trkpt>
      <trkpt lat="49.16069" lon="0.15395">
        <ele>107.1</ele>
        <time>2022-07-07T19:48:24Z</time>
      </trkpt>
      <trkpt lat="49.1606" lon="0.15383">
        <ele>107.8</ele>
        <time>2022-07-07T19:48:24Z</time>
      </trkpt>
      <trkpt lat="49.16046" lon="0.15371">
        <ele>109.8</ele>
        <time>2022-07-07T19:48:24Z</time>
      </trkpt>
      <trkpt lat="49.16025" lon="0.15359">
        <ele>111.6</ele>
        <time>2022-07-07T19:48:24Z</time>
      </trkpt>
      <trkpt lat="49.15987" lon="0.15342">
        <ele>115.7</ele>
        <time>2022-07-07T19:48:24Z</time>
      </trkpt>
      <trkpt lat="49.15982" lon="0.15339">
        <ele>116.5</ele>
        <time>2022-07-07T19:48:24Z</time>
      </trkpt>
      <trkpt lat="49.15972" lon="0.15333">
        <ele>117.9</ele>
        <time>2022-07-07T19:48:24Z</time>
      </trkpt>
      <trkpt lat="49.15957" lon="0.15323">
        <ele>119.8</ele>
        <time>2022-07-07T19:48:24Z</time>
      </trkpt>
      <trkpt lat="49.15944" lon="0.15309">
        <ele>121.5</ele>
        <time>2022-07-07T19:48:24Z</time>
      </trkpt>
      <trkpt lat="49.15929" lon="0.15283">
        <ele>122.5</ele>
        <time>2022-07-07T19:48:24Z</time>
      </trkpt>
      <trkpt lat="49.15908" lon="0.15231">
        <ele>124.5</ele>
        <time>2022-07-07T19:48:24Z</time>
      </trkpt>
      <trkpt lat="49.15867" lon="0.15113">
        <ele>127.5</ele>
        <time>2022-07-07T19:48:24Z</time>
      </trkpt>
      <trkpt lat="49.15827" lon="0.15011">
        <ele>132.3</ele>
        <time>2022-07-07T19:48:24Z</time>
      </trkpt>
      <trkpt lat="49.15781" lon="0.14903">
        <ele>137.1</ele>
        <time>2022-07-07T19:48:24Z</time>
      </trkpt>
      <trkpt lat="49.15736" lon="0.14791">
        <ele>141</ele>
        <time>2022-07-07T19:48:24Z</time>
      </trkpt>
      <trkpt lat="49.15695" lon="0.14691">
        <ele>144.2</ele>
        <time>2022-07-07T19:48:24Z</time>
      </trkpt>
      <trkpt lat="49.15643" lon="0.14572">
        <ele>146.4</ele>
        <time>2022-07-07T19:48:24Z</time>
      </trkpt>
      <trkpt lat="49.15617" lon="0.14508">
        <ele>147.3</ele>
        <time>2022-07-07T19:48:24Z</time>
      </trkpt>
      <trkpt lat="49.15553" lon="0.14365">
        <ele>149.4</ele>
        <time>2022-07-07T19:48:24Z</time>
      </trkpt>
      <trkpt lat="49.15514" lon="0.14278">
        <ele>150</ele>
        <time>2022-07-07T19:48:24Z</time>
      </trkpt>
      <trkpt lat="49.15503" lon="0.14254">
        <ele>150.2</ele>
        <time>2022-07-07T19:48:24Z</time>
      </trkpt>
      <trkpt lat="49.15482" lon="0.14215">
        <ele>150.6</ele>
        <time>2022-07-07T19:48:24Z</time>
      </trkpt>
      <trkpt lat="49.15446" lon="0.14154">
        <ele>151.2</ele>
        <time>2022-07-07T19:48:24Z</time>
      </trkpt>
      <trkpt lat="49.15403" lon="0.14083">
        <ele>151.9</ele>
        <time>2022-07-07T19:48:24Z</time>
      </trkpt>
      <trkpt lat="49.15385" lon="0.14051">
        <ele>152.3</ele>
        <time>2022-07-07T19:48:24Z</time>
      </trkpt>
      <trkpt lat="49.15379" lon="0.14039">
        <ele>152.5</ele>
        <time>2022-07-07T19:48:24Z</time>
      </trkpt>
      <trkpt lat="49.15369" lon="0.1402">
        <ele>152.5</ele>
        <time>2022-07-07T19:48:24Z</time>
      </trkpt>
      <trkpt lat="49.15356" lon="0.13983">
        <ele>153.1</ele>
        <time>2022-07-07T19:48:24Z</time>
      </trkpt>
      <trkpt lat="49.1534" lon="0.1392">
        <ele>153.8</ele>
        <time>2022-07-07T19:48:24Z</time>
      </trkpt>
      <trkpt lat="49.1532" lon="0.13849">
        <ele>154.3</ele>
        <time>2022-07-07T19:48:24Z</time>
      </trkpt>
      <trkpt lat="49.15301" lon="0.13779">
        <ele>155</ele>
        <time>2022-07-07T19:48:24Z</time>
      </trkpt>
      <trkpt lat="49.15291" lon="0.13741">
        <ele>155.5</ele>
        <time>2022-07-07T19:48:24Z</time>
      </trkpt>
      <trkpt lat="49.15283" lon="0.1371">
        <ele>155.8</ele>
        <time>2022-07-07T19:48:24Z</time>
      </trkpt>
      <trkpt lat="49.15278" lon="0.13696">
        <ele>156</ele>
        <time>2022-07-07T19:48:24Z</time>
      </trkpt>
      <trkpt lat="49.15269" lon="0.13672">
        <ele>156.5</ele>
        <time>2022-07-07T19:48:24Z</time>
      </trkpt>
      <trkpt lat="49.15261" lon="0.13656">
        <ele>156.6</ele>
        <time>2022-07-07T19:48:24Z</time>
      </trkpt>
      <trkpt lat="49.15251" lon="0.13637">
        <ele>157.1</ele>
        <time>2022-07-07T19:48:24Z</time>
      </trkpt>
      <trkpt lat="49.15242" lon="0.1362">
        <ele>157.4</ele>
        <time>2022-07-07T19:48:24Z</time>
      </trkpt>
      <trkpt lat="49.1523" lon="0.13603">
        <ele>158</ele>
        <time>2022-07-07T19:48:24Z</time>
      </trkpt>
      <trkpt lat="49.15214" lon="0.13583">
        <ele>158.6</ele>
        <time>2022-07-07T19:48:24Z</time>
      </trkpt>
      <trkpt lat="49.15206" lon="0.13575">
        <ele>159</ele>
        <time>2022-07-07T19:48:24Z</time>
      </trkpt>
      <trkpt lat="49.15195" lon="0.13568">
        <ele>159.3</ele>
        <time>2022-07-07T19:48:24Z</time>
      </trkpt>
      <trkpt lat="49.15201" lon="0.13549">
        <ele>159.6</ele>
        <time>2022-07-07T19:48:24Z</time>
      </trkpt>
      <trkpt lat="49.15207" lon="0.13519">
        <ele>159.8</ele>
        <time>2022-07-07T19:48:24Z</time>
      </trkpt>
      <trkpt lat="49.15198" lon="0.1351">
        <ele>160</ele>
        <time>2022-07-07T19:48:24Z</time>
      </trkpt>
      <trkpt lat="49.15185" lon="0.13491">
        <ele>160.8</ele>
        <time>2022-07-07T19:48:24Z</time>
      </trkpt>
      <trkpt lat="49.1517" lon="0.1347">
        <ele>161.8</ele>
        <time>2022-07-07T19:48:24Z</time>
      </trkpt>
      <trkpt lat="49.15163" lon="0.13459">
        <ele>161.8</ele>
        <time>2022-07-07T19:48:24Z</time>
      </trkpt>
      <trkpt lat="49.15159" lon="0.13451">
        <ele>162</ele>
        <time>2022-07-07T19:48:24Z</time>
      </trkpt>
      <trkpt lat="49.15157" lon="0.13444">
        <ele>162.1</ele>
        <time>2022-07-07T19:48:24Z</time>
      </trkpt>
      <trkpt lat="49.15155" lon="0.13434">
        <ele>162.3</ele>
        <time>2022-07-07T19:48:24Z</time>
      </trkpt>
      <trkpt lat="49.15151" lon="0.134">
        <ele>162.8</ele>
        <time>2022-07-07T19:48:24Z</time>
      </trkpt>
      <trkpt lat="49.15145" lon="0.13334">
        <ele>164.3</ele>
        <time>2022-07-07T19:48:24Z</time>
      </trkpt>
      <trkpt lat="49.15135" lon="0.13249">
        <ele>165.6</ele>
        <time>2022-07-07T19:48:24Z</time>
      </trkpt>
      <trkpt lat="49.15123" lon="0.13179">
        <ele>165.9</ele>
        <time>2022-07-07T19:48:24Z</time>
      </trkpt>
      <trkpt lat="49.15121" lon="0.13169">
        <ele>165.9</ele>
        <time>2022-07-07T19:48:24Z</time>
      </trkpt>
      <trkpt lat="49.15114" lon="0.13155">
        <ele>166.1</ele>
        <time>2022-07-07T19:48:24Z</time>
      </trkpt>
      <trkpt lat="49.15093" lon="0.13121">
        <ele>166.1</ele>
        <time>2022-07-07T19:48:24Z</time>
      </trkpt>
      <trkpt lat="49.15085" lon="0.13107">
        <ele>165.7</ele>
        <time>2022-07-07T19:48:24Z</time>
      </trkpt>
      <trkpt lat="49.15083" lon="0.13098">
        <ele>165.7</ele>
        <time>2022-07-07T19:48:24Z</time>
      </trkpt>
      <trkpt lat="49.15083" lon="0.13062">
        <ele>165.5</ele>
        <time>2022-07-07T19:48:24Z</time>
      </trkpt>
      <trkpt lat="49.15083" lon="0.12989">
        <ele>165.3</ele>
        <time>2022-07-07T19:48:24Z</time>
      </trkpt>
      <trkpt lat="49.15082" lon="0.12927">
        <ele>164.7</ele>
        <time>2022-07-07T19:48:24Z</time>
      </trkpt>
      <trkpt lat="49.15082" lon="0.12886">
        <ele>164</ele>
        <time>2022-07-07T19:48:24Z</time>
      </trkpt>
      <trkpt lat="49.15084" lon="0.12851">
        <ele>163.3</ele>
        <time>2022-07-07T19:48:24Z</time>
      </trkpt>
      <trkpt lat="49.15085" lon="0.12815">
        <ele>162.6</ele>
        <time>2022-07-07T19:48:24Z</time>
      </trkpt>
      <trkpt lat="49.15082" lon="0.12767">
        <ele>161.9</ele>
        <time>2022-07-07T19:48:24Z</time>
      </trkpt>
      <trkpt lat="49.15073" lon="0.12696">
        <ele>160.5</ele>
        <time>2022-07-07T19:48:24Z</time>
      </trkpt>
      <trkpt lat="49.15067" lon="0.12652">
        <ele>159</ele>
        <time>2022-07-07T19:48:24Z</time>
      </trkpt>
      <trkpt lat="49.15062" lon="0.1263">
        <ele>158.3</ele>
        <time>2022-07-07T19:48:24Z</time>
      </trkpt>
      <trkpt lat="49.15053" lon="0.12632">
        <ele>158.2</ele>
        <time>2022-07-07T19:48:24Z</time>
      </trkpt>
      <trkpt lat="49.15039" lon="0.12632">
        <ele>157.8</ele>
        <time>2022-07-07T19:48:24Z</time>
      </trkpt>
      <trkpt lat="49.15023" lon="0.12626">
        <ele>157.7</ele>
        <time>2022-07-07T19:48:24Z</time>
      </trkpt>
      <trkpt lat="49.14998" lon="0.12601">
        <ele>157.7</ele>
        <time>2022-07-07T19:48:24Z</time>
      </trkpt>
      <trkpt lat="49.14966" lon="0.12556">
        <ele>156.7</ele>
        <time>2022-07-07T19:48:24Z</time>
      </trkpt>
      <trkpt lat="49.14942" lon="0.12515">
        <ele>156.4</ele>
        <time>2022-07-07T19:48:24Z</time>
      </trkpt>
      <trkpt lat="49.14933" lon="0.12501">
        <ele>156</ele>
        <time>2022-07-07T19:48:24Z</time>
      </trkpt>
      <trkpt lat="49.1493" lon="0.12495">
        <ele>155.9</ele>
        <time>2022-07-07T19:48:24Z</time>
      </trkpt>
      <trkpt lat="49.14912" lon="0.12462">
        <ele>155.8</ele>
        <time>2022-07-07T19:48:24Z</time>
      </trkpt>
      <trkpt lat="49.14885" lon="0.12393">
        <ele>155.4</ele>
        <time>2022-07-07T19:48:24Z</time>
      </trkpt>
      <trkpt lat="49.1487" lon="0.12347">
        <ele>155.2</ele>
        <time>2022-07-07T19:48:24Z</time>
      </trkpt>
      <trkpt lat="49.14833" lon="0.12238">
        <ele>154.7</ele>
        <time>2022-07-07T19:48:24Z</time>
      </trkpt>
      <trkpt lat="49.14813" lon="0.1218">
        <ele>156.3</ele>
        <time>2022-07-07T19:48:24Z</time>
      </trkpt>
      <trkpt lat="49.14826" lon="0.12159">
        <ele>155.3</ele>
        <time>2022-07-07T19:48:24Z</time>
      </trkpt>
      <trkpt lat="49.14816" lon="0.12103">
        <ele>155.2</ele>
        <time>2022-07-07T19:48:24Z</time>
      </trkpt>
      <trkpt lat="49.14808" lon="0.12037">
        <ele>154.7</ele>
        <time>2022-07-07T19:48:24Z</time>
      </trkpt>
      <trkpt lat="49.14806" lon="0.12011">
        <ele>155</ele>
        <time>2022-07-07T19:48:24Z</time>
      </trkpt>
      <trkpt lat="49.14806" lon="0.11984">
        <ele>154.9</ele>
        <time>2022-07-07T19:48:24Z</time>
      </trkpt>
      <trkpt lat="49.14805" lon="0.11951">
        <ele>155</ele>
        <time>2022-07-07T19:48:24Z</time>
      </trkpt>
      <trkpt lat="49.14804" lon="0.11918">
        <ele>155.2</ele>
        <time>2022-07-07T19:48:24Z</time>
      </trkpt>
      <trkpt lat="49.14802" lon="0.11887">
        <ele>155.4</ele>
        <time>2022-07-07T19:48:24Z</time>
      </trkpt>
      <trkpt lat="49.14796" lon="0.11827">
        <ele>155.4</ele>
        <time>2022-07-07T19:48:24Z</time>
      </trkpt>
      <trkpt lat="49.14794" lon="0.11794">
        <ele>155</ele>
        <time>2022-07-07T19:48:24Z</time>
      </trkpt>
      <trkpt lat="49.14792" lon="0.11757">
        <ele>155.4</ele>
        <time>2022-07-07T19:48:24Z</time>
      </trkpt>
      <trkpt lat="49.14789" lon="0.11729">
        <ele>155.8</ele>
        <time>2022-07-07T19:48:24Z</time>
      </trkpt>
      <trkpt lat="49.14786" lon="0.11706">
        <ele>155.6</ele>
        <time>2022-07-07T19:48:24Z</time>
      </trkpt>
      <trkpt lat="49.14778" lon="0.11669">
        <ele>155.7</ele>
        <time>2022-07-07T19:48:24Z</time>
      </trkpt>
      <trkpt lat="49.14761" lon="0.11595">
        <ele>156</ele>
        <time>2022-07-07T19:48:24Z</time>
      </trkpt>
      <trkpt lat="49.14749" lon="0.11537">
        <ele>156.4</ele>
        <time>2022-07-07T19:48:24Z</time>
      </trkpt>
      <trkpt lat="49.14742" lon="0.11484">
        <ele>156.5</ele>
        <time>2022-07-07T19:48:24Z</time>
      </trkpt>
      <trkpt lat="49.14737" lon="0.11435">
        <ele>156.2</ele>
        <time>2022-07-07T19:48:24Z</time>
      </trkpt>
      <trkpt lat="49.14735" lon="0.11396">
        <ele>156</ele>
        <time>2022-07-07T19:48:24Z</time>
      </trkpt>
      <trkpt lat="49.14735" lon="0.11383">
        <ele>155.9</ele>
        <time>2022-07-07T19:48:24Z</time>
      </trkpt>
      <trkpt lat="49.14735" lon="0.11363">
        <ele>155.6</ele>
        <time>2022-07-07T19:48:24Z</time>
      </trkpt>
      <trkpt lat="49.14738" lon="0.11335">
        <ele>154.9</ele>
        <time>2022-07-07T19:48:24Z</time>
      </trkpt>
      <trkpt lat="49.14738" lon="0.11322">
        <ele>154.9</ele>
        <time>2022-07-07T19:48:24Z</time>
      </trkpt>
      <trkpt lat="49.14738" lon="0.11304">
        <ele>155.1</ele>
        <time>2022-07-07T19:48:24Z</time>
      </trkpt>
      <trkpt lat="49.14736" lon="0.11297">
        <ele>155.2</ele>
        <time>2022-07-07T19:48:24Z</time>
      </trkpt>
      <trkpt lat="49.14733" lon="0.11291">
        <ele>155.5</ele>
        <time>2022-07-07T19:48:24Z</time>
      </trkpt>
      <trkpt lat="49.14723" lon="0.11289">
        <ele>156.1</ele>
        <time>2022-07-07T19:48:24Z</time>
      </trkpt>
      <trkpt lat="49.14703" lon="0.11297">
        <ele>157.3</ele>
        <time>2022-07-07T19:48:24Z</time>
      </trkpt>
      <trkpt lat="49.14662" lon="0.11311">
        <ele>157</ele>
        <time>2022-07-07T19:48:24Z</time>
      </trkpt>
      <trkpt lat="49.14663" lon="0.113">
        <ele>157</ele>
        <time>2022-07-07T19:48:24Z</time>
      </trkpt>
      <trkpt lat="49.14666" lon="0.11239">
        <ele>157</ele>
        <time>2022-07-07T19:48:24Z</time>
      </trkpt>
      <trkpt lat="49.14672" lon="0.11205">
        <ele>157</ele>
        <time>2022-07-07T19:48:24Z</time>
      </trkpt>
      <trkpt lat="49.14678" lon="0.11178">
        <ele>157</ele>
        <time>2022-07-07T19:48:24Z</time>
      </trkpt>
      <trkpt lat="49.14694" lon="0.11102">
        <ele>157</ele>
        <time>2022-07-07T19:48:24Z</time>
      </trkpt>
      <trkpt lat="49.14709" lon="0.11033">
        <ele>157</ele>
        <time>2022-07-07T19:48:24Z</time>
      </trkpt>
      <trkpt lat="49.14719" lon="0.10994">
        <ele>156.8</ele>
        <time>2022-07-07T19:48:24Z</time>
      </trkpt>
      <trkpt lat="49.14731" lon="0.1094">
        <ele>157</ele>
        <time>2022-07-07T19:48:24Z</time>
      </trkpt>
      <trkpt lat="49.14747" lon="0.10866">
        <ele>157.2</ele>
        <time>2022-07-07T19:48:24Z</time>
      </trkpt>
      <trkpt lat="49.14752" lon="0.10836">
        <ele>157.2</ele>
        <time>2022-07-07T19:48:24Z</time>
      </trkpt>
      <trkpt lat="49.14754" lon="0.10817">
        <ele>157.2</ele>
        <time>2022-07-07T19:48:24Z</time>
      </trkpt>
      <trkpt lat="49.14754" lon="0.10801">
        <ele>157.2</ele>
        <time>2022-07-07T19:48:24Z</time>
      </trkpt>
      <trkpt lat="49.14752" lon="0.10774">
        <ele>157.5</ele>
        <time>2022-07-07T19:48:24Z</time>
      </trkpt>
      <trkpt lat="49.1475" lon="0.10757">
        <ele>157.5</ele>
        <time>2022-07-07T19:48:24Z</time>
      </trkpt>
      <trkpt lat="49.14751" lon="0.10731">
        <ele>157.6</ele>
        <time>2022-07-07T19:48:24Z</time>
      </trkpt>
      <trkpt lat="49.14755" lon="0.10674">
        <ele>157.9</ele>
        <time>2022-07-07T19:48:24Z</time>
      </trkpt>
      <trkpt lat="49.14762" lon="0.10583">
        <ele>158</ele>
        <time>2022-07-07T19:48:24Z</time>
      </trkpt>
      <trkpt lat="49.14769" lon="0.10484">
        <ele>158.5</ele>
        <time>2022-07-07T19:48:24Z</time>
      </trkpt>
      <trkpt lat="49.1477" lon="0.10471">
        <ele>158.7</ele>
        <time>2022-07-07T19:48:24Z</time>
      </trkpt>
      <trkpt lat="49.14773" lon="0.10425">
        <ele>159.4</ele>
        <time>2022-07-07T19:48:24Z</time>
      </trkpt>
      <trkpt lat="49.14777" lon="0.10373">
        <ele>159.9</ele>
        <time>2022-07-07T19:48:24Z</time>
      </trkpt>
      <trkpt lat="49.1478" lon="0.10341">
        <ele>160.1</ele>
        <time>2022-07-07T19:48:24Z</time>
      </trkpt>
      <trkpt lat="49.14783" lon="0.10322">
        <ele>160</ele>
        <time>2022-07-07T19:48:24Z</time>
      </trkpt>
      <trkpt lat="49.1479" lon="0.10292">
        <ele>159.4</ele>
        <time>2022-07-07T19:48:24Z</time>
      </trkpt>
      <trkpt lat="49.14794" lon="0.10269">
        <ele>159.3</ele>
        <time>2022-07-07T19:48:24Z</time>
      </trkpt>
      <trkpt lat="49.14795" lon="0.10258">
        <ele>159.4</ele>
        <time>2022-07-07T19:48:24Z</time>
      </trkpt>
      <trkpt lat="49.14796" lon="0.10247">
        <ele>159.4</ele>
        <time>2022-07-07T19:48:24Z</time>
      </trkpt>
      <trkpt lat="49.14797" lon="0.10232">
        <ele>159.4</ele>
        <time>2022-07-07T19:48:24Z</time>
      </trkpt>
      <trkpt lat="49.14795" lon="0.10203">
        <ele>159.2</ele>
        <time>2022-07-07T19:48:24Z</time>
      </trkpt>
      <trkpt lat="49.14792" lon="0.10114">
        <ele>158.6</ele>
        <time>2022-07-07T19:48:24Z</time>
      </trkpt>
      <trkpt lat="49.14786" lon="0.10032">
        <ele>157.4</ele>
        <time>2022-07-07T19:48:24Z</time>
      </trkpt>
      <trkpt lat="49.14779" lon="0.09948">
        <ele>156.1</ele>
        <time>2022-07-07T19:48:24Z</time>
      </trkpt>
      <trkpt lat="49.14771" lon="0.09853">
        <ele>154.7</ele>
        <time>2022-07-07T19:48:24Z</time>
      </trkpt>
      <trkpt lat="49.1476" lon="0.0975">
        <ele>152.7</ele>
        <time>2022-07-07T19:48:24Z</time>
      </trkpt>
      <trkpt lat="49.14757" lon="0.09726">
        <ele>152.8</ele>
        <time>2022-07-07T19:48:24Z</time>
      </trkpt>
      <trkpt lat="49.14754" lon="0.09709">
        <ele>152.6</ele>
        <time>2022-07-07T19:48:24Z</time>
      </trkpt>
      <trkpt lat="49.14747" lon="0.09681">
        <ele>152</ele>
        <time>2022-07-07T19:48:24Z</time>
      </trkpt>
      <trkpt lat="49.14738" lon="0.09654">
        <ele>152.4</ele>
        <time>2022-07-07T19:48:24Z</time>
      </trkpt>
      <trkpt lat="49.14718" lon="0.09591">
        <ele>152.5</ele>
        <time>2022-07-07T19:48:24Z</time>
      </trkpt>
      <trkpt lat="49.14698" lon="0.09524">
        <ele>152.9</ele>
        <time>2022-07-07T19:48:24Z</time>
      </trkpt>
      <trkpt lat="49.14674" lon="0.09454">
        <ele>152.8</ele>
        <time>2022-07-07T19:48:24Z</time>
      </trkpt>
      <trkpt lat="49.14652" lon="0.09391">
        <ele>153.3</ele>
        <time>2022-07-07T19:48:24Z</time>
      </trkpt>
      <trkpt lat="49.14647" lon="0.09373">
        <ele>153.3</ele>
        <time>2022-07-07T19:48:24Z</time>
      </trkpt>
      <trkpt lat="49.14638" lon="0.09338">
        <ele>153.8</ele>
        <time>2022-07-07T19:48:24Z</time>
      </trkpt>
      <trkpt lat="49.14634" lon="0.09322">
        <ele>153.8</ele>
        <time>2022-07-07T19:48:24Z</time>
      </trkpt>
      <trkpt lat="49.14624" lon="0.09287">
        <ele>154.4</ele>
        <time>2022-07-07T19:48:24Z</time>
      </trkpt>
      <trkpt lat="49.14612" lon="0.09246">
        <ele>154.7</ele>
        <time>2022-07-07T19:48:24Z</time>
      </trkpt>
      <trkpt lat="49.14606" lon="0.09227">
        <ele>155</ele>
        <time>2022-07-07T19:48:24Z</time>
      </trkpt>
      <trkpt lat="49.14598" lon="0.09202">
        <ele>155.2</ele>
        <time>2022-07-07T19:48:24Z</time>
      </trkpt>
      <trkpt lat="49.14578" lon="0.09146">
        <ele>155.8</ele>
        <time>2022-07-07T19:48:24Z</time>
      </trkpt>
      <trkpt lat="49.14558" lon="0.0909">
        <ele>155.8</ele>
        <time>2022-07-07T19:48:24Z</time>
      </trkpt>
      <trkpt lat="49.14544" lon="0.09044">
        <ele>155.8</ele>
        <time>2022-07-07T19:48:24Z</time>
      </trkpt>
      <trkpt lat="49.14535" lon="0.0901">
        <ele>155.8</ele>
        <time>2022-07-07T19:48:24Z</time>
      </trkpt>
      <trkpt lat="49.14532" lon="0.09">
        <ele>155.8</ele>
        <time>2022-07-07T19:48:24Z</time>
      </trkpt>
      <trkpt lat="49.14523" lon="0.08963">
        <ele>155.9</ele>
        <time>2022-07-07T19:48:24Z</time>
      </trkpt>
      <trkpt lat="49.14514" lon="0.08925">
        <ele>156</ele>
        <time>2022-07-07T19:48:24Z</time>
      </trkpt>
      <trkpt lat="49.14503" lon="0.08865">
        <ele>155.8</ele>
        <time>2022-07-07T19:48:24Z</time>
      </trkpt>
      <trkpt lat="49.14496" lon="0.08828">
        <ele>155.8</ele>
        <time>2022-07-07T19:48:24Z</time>
      </trkpt>
      <trkpt lat="49.14491" lon="0.08802">
        <ele>155.8</ele>
        <time>2022-07-07T19:48:24Z</time>
      </trkpt>
      <trkpt lat="49.14486" lon="0.08784">
        <ele>155.8</ele>
        <time>2022-07-07T19:48:24Z</time>
      </trkpt>
      <trkpt lat="49.1448" lon="0.08761">
        <ele>155.9</ele>
        <time>2022-07-07T19:48:24Z</time>
      </trkpt>
      <trkpt lat="49.14478" lon="0.08753">
        <ele>155.8</ele>
        <time>2022-07-07T19:48:24Z</time>
      </trkpt>
      <trkpt lat="49.14475" lon="0.08743">
        <ele>155.8</ele>
        <time>2022-07-07T19:48:24Z</time>
      </trkpt>
      <trkpt lat="49.14467" lon="0.08727">
        <ele>155.9</ele>
        <time>2022-07-07T19:48:24Z</time>
      </trkpt>
      <trkpt lat="49.14461" lon="0.08713">
        <ele>155.8</ele>
        <time>2022-07-07T19:48:24Z</time>
      </trkpt>
      <trkpt lat="49.14441" lon="0.08676">
        <ele>155.8</ele>
        <time>2022-07-07T19:48:24Z</time>
      </trkpt>
      <trkpt lat="49.14415" lon="0.08627">
        <ele>156.2</ele>
        <time>2022-07-07T19:48:24Z</time>
      </trkpt>
      <trkpt lat="49.14372" lon="0.08547">
        <ele>156.9</ele>
        <time>2022-07-07T19:48:24Z</time>
      </trkpt>
      <trkpt lat="49.14325" lon="0.08458">
        <ele>156.8</ele>
        <time>2022-07-07T19:48:24Z</time>
      </trkpt>
      <trkpt lat="49.14304" lon="0.0842">
        <ele>156.8</ele>
        <time>2022-07-07T19:48:24Z</time>
      </trkpt>
      <trkpt lat="49.14289" lon="0.08398">
        <ele>156.9</ele>
        <time>2022-07-07T19:48:24Z</time>
      </trkpt>
      <trkpt lat="49.14276" lon="0.08381">
        <ele>157</ele>
        <time>2022-07-07T19:48:24Z</time>
      </trkpt>
      <trkpt lat="49.14246" lon="0.08346">
        <ele>157.5</ele>
        <time>2022-07-07T19:48:24Z</time>
      </trkpt>
      <trkpt lat="49.14214" lon="0.08311">
        <ele>157.7</ele>
        <time>2022-07-07T19:48:24Z</time>
      </trkpt>
      <trkpt lat="49.14193" lon="0.08293">
        <ele>157.7</ele>
        <time>2022-07-07T19:48:24Z</time>
      </trkpt>
      <trkpt lat="49.14163" lon="0.08274">
        <ele>158.2</ele>
        <time>2022-07-07T19:48:24Z</time>
      </trkpt>
      <trkpt lat="49.14163" lon="0.08217">
        <ele>158.3</ele>
        <time>2022-07-07T19:48:24Z</time>
      </trkpt>
      <trkpt lat="49.14163" lon="0.08208">
        <ele>158.4</ele>
        <time>2022-07-07T19:48:24Z</time>
      </trkpt>
      <trkpt lat="49.14161" lon="0.0811">
        <ele>158.6</ele>
        <time>2022-07-07T19:48:24Z</time>
      </trkpt>
      <trkpt lat="49.14161" lon="0.08035">
        <ele>159</ele>
        <time>2022-07-07T19:48:24Z</time>
      </trkpt>
      <trkpt lat="49.1416" lon="0.07871">
        <ele>159.5</ele>
        <time>2022-07-07T19:48:24Z</time>
      </trkpt>
      <trkpt lat="49.14159" lon="0.0771">
        <ele>160.2</ele>
        <time>2022-07-07T19:48:24Z</time>
      </trkpt>
      <trkpt lat="49.14158" lon="0.07614">
        <ele>160.7</ele>
        <time>2022-07-07T19:48:24Z</time>
      </trkpt>
      <trkpt lat="49.14158" lon="0.0757">
        <ele>161.1</ele>
        <time>2022-07-07T19:48:24Z</time>
      </trkpt>
      <trkpt lat="49.14157" lon="0.07461">
        <ele>161.4</ele>
        <time>2022-07-07T19:48:24Z</time>
      </trkpt>
      <trkpt lat="49.14156" lon="0.07264">
        <ele>161.6</ele>
        <time>2022-07-07T19:48:24Z</time>
      </trkpt>
      <trkpt lat="49.14155" lon="0.0714">
        <ele>161.2</ele>
        <time>2022-07-07T19:48:24Z</time>
      </trkpt>
      <trkpt lat="49.14154" lon="0.07087">
        <ele>160.8</ele>
        <time>2022-07-07T19:48:24Z</time>
      </trkpt>
      <trkpt lat="49.14153" lon="0.06893">
        <ele>159.7</ele>
        <time>2022-07-07T19:48:24Z</time>
      </trkpt>
      <trkpt lat="49.14152" lon="0.0677">
        <ele>159</ele>
        <time>2022-07-07T19:48:24Z</time>
      </trkpt>
      <trkpt lat="49.14151" lon="0.06731">
        <ele>158.8</ele>
        <time>2022-07-07T19:48:24Z</time>
      </trkpt>
      <trkpt lat="49.1415" lon="0.06609">
        <ele>158.3</ele>
        <time>2022-07-07T19:48:24Z</time>
      </trkpt>
      <trkpt lat="49.1415" lon="0.06531">
        <ele>157.7</ele>
        <time>2022-07-07T19:48:24Z</time>
      </trkpt>
      <trkpt lat="49.14147" lon="0.06428">
        <ele>156.9</ele>
        <time>2022-07-07T19:48:24Z</time>
      </trkpt>
      <trkpt lat="49.14143" lon="0.06333">
        <ele>156.2</ele>
        <time>2022-07-07T19:48:24Z</time>
      </trkpt>
      <trkpt lat="49.14137" lon="0.06259">
        <ele>155.3</ele>
        <time>2022-07-07T19:48:24Z</time>
      </trkpt>
      <trkpt lat="49.14132" lon="0.06208">
        <ele>154.6</ele>
        <time>2022-07-07T19:48:24Z</time>
      </trkpt>
      <trkpt lat="49.1413" lon="0.06187">
        <ele>154.4</ele>
        <time>2022-07-07T19:48:24Z</time>
      </trkpt>
      <trkpt lat="49.14123" lon="0.06123">
        <ele>154</ele>
        <time>2022-07-07T19:48:24Z</time>
      </trkpt>
      <trkpt lat="49.14113" lon="0.0604">
        <ele>153.4</ele>
        <time>2022-07-07T19:48:24Z</time>
      </trkpt>
      <trkpt lat="49.14101" lon="0.05938">
        <ele>152.3</ele>
        <time>2022-07-07T19:48:24Z</time>
      </trkpt>
      <trkpt lat="49.14094" lon="0.05887">
        <ele>151.8</ele>
        <time>2022-07-07T19:48:24Z</time>
      </trkpt>
      <trkpt lat="49.14082" lon="0.05798">
        <ele>151.2</ele>
        <time>2022-07-07T19:48:24Z</time>
      </trkpt>
      <trkpt lat="49.14069" lon="0.05692">
        <ele>150.3</ele>
        <time>2022-07-07T19:48:24Z</time>
      </trkpt>
      <trkpt lat="49.14058" lon="0.05612">
        <ele>149.6</ele>
        <time>2022-07-07T19:48:24Z</time>
      </trkpt>
      <trkpt lat="49.14053" lon="0.05568">
        <ele>149.4</ele>
        <time>2022-07-07T19:48:24Z</time>
      </trkpt>
      <trkpt lat="49.14046" lon="0.05514">
        <ele>149.1</ele>
        <time>2022-07-07T19:48:24Z</time>
      </trkpt>
      <trkpt lat="49.14042" lon="0.05494">
        <ele>148.9</ele>
        <time>2022-07-07T19:48:24Z</time>
      </trkpt>
      <trkpt lat="49.14032" lon="0.0543">
        <ele>148.6</ele>
        <time>2022-07-07T19:48:24Z</time>
      </trkpt>
      <trkpt lat="49.14016" lon="0.05336">
        <ele>148</ele>
        <time>2022-07-07T19:48:24Z</time>
      </trkpt>
      <trkpt lat="49.14014" lon="0.05325">
        <ele>148</ele>
        <time>2022-07-07T19:48:24Z</time>
      </trkpt>
      <trkpt lat="49.13999" lon="0.05249">
        <ele>147.9</ele>
        <time>2022-07-07T19:48:24Z</time>
      </trkpt>
      <trkpt lat="49.13992" lon="0.05213">
        <ele>147.8</ele>
        <time>2022-07-07T19:48:24Z</time>
      </trkpt>
      <trkpt lat="49.13982" lon="0.05164">
        <ele>147.6</ele>
        <time>2022-07-07T19:48:24Z</time>
      </trkpt>
      <trkpt lat="49.13979" lon="0.05142">
        <ele>147.6</ele>
        <time>2022-07-07T19:48:24Z</time>
      </trkpt>
      <trkpt lat="49.13972" lon="0.05105">
        <ele>147.7</ele>
        <time>2022-07-07T19:48:24Z</time>
      </trkpt>
      <trkpt lat="49.1396" lon="0.05017">
        <ele>147.5</ele>
        <time>2022-07-07T19:48:24Z</time>
      </trkpt>
      <trkpt lat="49.1395" lon="0.0491">
        <ele>147.1</ele>
        <time>2022-07-07T19:48:24Z</time>
      </trkpt>
      <trkpt lat="49.13942" lon="0.04806">
        <ele>146.2</ele>
        <time>2022-07-07T19:48:24Z</time>
      </trkpt>
      <trkpt lat="49.13934" lon="0.047">
        <ele>145.3</ele>
        <time>2022-07-07T19:48:24Z</time>
      </trkpt>
      <trkpt lat="49.13928" lon="0.04604">
        <ele>144.6</ele>
        <time>2022-07-07T19:48:24Z</time>
      </trkpt>
      <trkpt lat="49.13926" lon="0.04567">
        <ele>144.7</ele>
        <time>2022-07-07T19:48:24Z</time>
      </trkpt>
      <trkpt lat="49.13926" lon="0.0452">
        <ele>144.9</ele>
        <time>2022-07-07T19:48:24Z</time>
      </trkpt>
      <trkpt lat="49.13927" lon="0.04474">
        <ele>145.3</ele>
        <time>2022-07-07T19:48:24Z</time>
      </trkpt>
      <trkpt lat="49.13932" lon="0.04398">
        <ele>145.6</ele>
        <time>2022-07-07T19:48:24Z</time>
      </trkpt>
      <trkpt lat="49.13941" lon="0.04274">
        <ele>145</ele>
        <time>2022-07-07T19:48:24Z</time>
      </trkpt>
      <trkpt lat="49.13951" lon="0.04157">
        <ele>143.1</ele>
        <time>2022-07-07T19:48:24Z</time>
      </trkpt>
      <trkpt lat="49.13954" lon="0.04116">
        <ele>142.4</ele>
        <time>2022-07-07T19:48:24Z</time>
      </trkpt>
      <trkpt lat="49.13964" lon="0.04015">
        <ele>142.9</ele>
        <time>2022-07-07T19:48:24Z</time>
      </trkpt>
      <trkpt lat="49.13972" lon="0.0397">
        <ele>143.9</ele>
        <time>2022-07-07T19:48:24Z</time>
      </trkpt>
      <trkpt lat="49.1398" lon="0.03936">
        <ele>144.8</ele>
        <time>2022-07-07T19:48:24Z</time>
      </trkpt>
      <trkpt lat="49.13984" lon="0.03914">
        <ele>145.2</ele>
        <time>2022-07-07T19:48:24Z</time>
      </trkpt>
      <trkpt lat="49.13988" lon="0.03901">
        <ele>145.5</ele>
        <time>2022-07-07T19:48:24Z</time>
      </trkpt>
      <trkpt lat="49.13992" lon="0.03885">
        <ele>145.8</ele>
        <time>2022-07-07T19:48:24Z</time>
      </trkpt>
      <trkpt lat="49.14003" lon="0.03851">
        <ele>146.2</ele>
        <time>2022-07-07T19:48:24Z</time>
      </trkpt>
      <trkpt lat="49.14015" lon="0.0381">
        <ele>146.6</ele>
        <time>2022-07-07T19:48:24Z</time>
      </trkpt>
      <trkpt lat="49.14041" lon="0.0373">
        <ele>146.8</ele>
        <time>2022-07-07T19:48:24Z</time>
      </trkpt>
      <trkpt lat="49.1405" lon="0.03705">
        <ele>146.8</ele>
        <time>2022-07-07T19:48:24Z</time>
      </trkpt>
      <trkpt lat="49.14066" lon="0.03655">
        <ele>147.1</ele>
        <time>2022-07-07T19:48:24Z</time>
      </trkpt>
      <trkpt lat="49.14084" lon="0.03598">
        <ele>146.9</ele>
        <time>2022-07-07T19:48:24Z</time>
      </trkpt>
      <trkpt lat="49.14108" lon="0.03518">
        <ele>147</ele>
        <time>2022-07-07T19:48:24Z</time>
      </trkpt>
      <trkpt lat="49.14117" lon="0.03489">
        <ele>147.1</ele>
        <time>2022-07-07T19:48:24Z</time>
      </trkpt>
      <trkpt lat="49.14132" lon="0.03436">
        <ele>147.4</ele>
        <time>2022-07-07T19:48:24Z</time>
      </trkpt>
      <trkpt lat="49.14145" lon="0.03391">
        <ele>147.6</ele>
        <time>2022-07-07T19:48:24Z</time>
      </trkpt>
      <trkpt lat="49.14156" lon="0.03349">
        <ele>147.8</ele>
        <time>2022-07-07T19:48:24Z</time>
      </trkpt>
      <trkpt lat="49.14165" lon="0.03315">
        <ele>148</ele>
        <time>2022-07-07T19:48:24Z</time>
      </trkpt>
      <trkpt lat="49.14172" lon="0.03285">
        <ele>148.3</ele>
        <time>2022-07-07T19:48:24Z</time>
      </trkpt>
      <trkpt lat="49.14177" lon="0.03256">
        <ele>148.3</ele>
        <time>2022-07-07T19:48:24Z</time>
      </trkpt>
      <trkpt lat="49.14181" lon="0.03232">
        <ele>148.2</ele>
        <time>2022-07-07T19:48:24Z</time>
      </trkpt>
      <trkpt lat="49.14184" lon="0.03201">
        <ele>147.9</ele>
        <time>2022-07-07T19:48:24Z</time>
      </trkpt>
      <trkpt lat="49.14187" lon="0.03165">
        <ele>147.6</ele>
        <time>2022-07-07T19:48:24Z</time>
      </trkpt>
      <trkpt lat="49.1419" lon="0.03124">
        <ele>146.9</ele>
        <time>2022-07-07T19:48:24Z</time>
      </trkpt>
      <trkpt lat="49.14193" lon="0.03082">
        <ele>146.3</ele>
        <time>2022-07-07T19:48:24Z</time>
      </trkpt>
      <trkpt lat="49.14194" lon="0.03049">
        <ele>145.8</ele>
        <time>2022-07-07T19:48:24Z</time>
      </trkpt>
      <trkpt lat="49.14195" lon="0.03028">
        <ele>145.4</ele>
        <time>2022-07-07T19:48:24Z</time>
      </trkpt>
      <trkpt lat="49.14195" lon="0.03013">
        <ele>145.1</ele>
        <time>2022-07-07T19:48:24Z</time>
      </trkpt>
      <trkpt lat="49.14194" lon="0.02998">
        <ele>144.8</ele>
        <time>2022-07-07T19:48:24Z</time>
      </trkpt>
      <trkpt lat="49.14191" lon="0.02975">
        <ele>144.3</ele>
        <time>2022-07-07T19:48:24Z</time>
      </trkpt>
      <trkpt lat="49.1419" lon="0.02965">
        <ele>144.1</ele>
        <time>2022-07-07T19:48:24Z</time>
      </trkpt>
      <trkpt lat="49.14188" lon="0.02955">
        <ele>144</ele>
        <time>2022-07-07T19:48:24Z</time>
      </trkpt>
      <trkpt lat="49.14181" lon="0.02928">
        <ele>143.6</ele>
        <time>2022-07-07T19:48:24Z</time>
      </trkpt>
      <trkpt lat="49.14173" lon="0.02899">
        <ele>143.1</ele>
        <time>2022-07-07T19:48:24Z</time>
      </trkpt>
      <trkpt lat="49.14167" lon="0.02879">
        <ele>142.6</ele>
        <time>2022-07-07T19:48:24Z</time>
      </trkpt>
      <trkpt lat="49.14161" lon="0.02857">
        <ele>142.2</ele>
        <time>2022-07-07T19:48:24Z</time>
      </trkpt>
      <trkpt lat="49.14147" lon="0.02809">
        <ele>141.1</ele>
        <time>2022-07-07T19:48:24Z</time>
      </trkpt>
      <trkpt lat="49.14141" lon="0.0279">
        <ele>140.7</ele>
        <time>2022-07-07T19:48:24Z</time>
      </trkpt>
      <trkpt lat="49.14136" lon="0.02769">
        <ele>139.8</ele>
        <time>2022-07-07T19:48:24Z</time>
      </trkpt>
      <trkpt lat="49.14128" lon="0.02738">
        <ele>138.6</ele>
        <time>2022-07-07T19:48:24Z</time>
      </trkpt>
      <trkpt lat="49.14124" lon="0.02715">
        <ele>137.8</ele>
        <time>2022-07-07T19:48:24Z</time>
      </trkpt>
      <trkpt lat="49.14122" lon="0.02696">
        <ele>137</ele>
        <time>2022-07-07T19:48:24Z</time>
      </trkpt>
      <trkpt lat="49.1412" lon="0.02672">
        <ele>136.6</ele>
        <time>2022-07-07T19:48:24Z</time>
      </trkpt>
      <trkpt lat="49.1412" lon="0.02651">
        <ele>135.7</ele>
        <time>2022-07-07T19:48:24Z</time>
      </trkpt>
      <trkpt lat="49.1412" lon="0.02626">
        <ele>134.7</ele>
        <time>2022-07-07T19:48:24Z</time>
      </trkpt>
      <trkpt lat="49.14121" lon="0.02598">
        <ele>133.5</ele>
        <time>2022-07-07T19:48:24Z</time>
      </trkpt>
      <trkpt lat="49.14122" lon="0.02578">
        <ele>132.9</ele>
        <time>2022-07-07T19:48:24Z</time>
      </trkpt>
      <trkpt lat="49.14123" lon="0.02569">
        <ele>132.6</ele>
        <time>2022-07-07T19:48:24Z</time>
      </trkpt>
      <trkpt lat="49.14125" lon="0.02541">
        <ele>131.8</ele>
        <time>2022-07-07T19:48:24Z</time>
      </trkpt>
      <trkpt lat="49.14127" lon="0.02512">
        <ele>130.8</ele>
        <time>2022-07-07T19:48:24Z</time>
      </trkpt>
      <trkpt lat="49.14131" lon="0.02486">
        <ele>129.9</ele>
        <time>2022-07-07T19:48:24Z</time>
      </trkpt>
      <trkpt lat="49.14135" lon="0.02458">
        <ele>129.2</ele>
        <time>2022-07-07T19:48:24Z</time>
      </trkpt>
      <trkpt lat="49.14137" lon="0.02439">
        <ele>128.7</ele>
        <time>2022-07-07T19:48:24Z</time>
      </trkpt>
      <trkpt lat="49.14137" lon="0.02422">
        <ele>126.7</ele>
        <time>2022-07-07T19:48:24Z</time>
      </trkpt>
      <trkpt lat="49.14137" lon="0.02406">
        <ele>124.4</ele>
        <time>2022-07-07T19:48:24Z</time>
      </trkpt>
      <trkpt lat="49.14135" lon="0.02385">
        <ele>122.5</ele>
        <time>2022-07-07T19:48:24Z</time>
      </trkpt>
      <trkpt lat="49.14133" lon="0.02364">
        <ele>120.9</ele>
        <time>2022-07-07T19:48:24Z</time>
      </trkpt>
      <trkpt lat="49.14132" lon="0.0235">
        <ele>120</ele>
        <time>2022-07-07T19:48:24Z</time>
      </trkpt>
      <trkpt lat="49.14132" lon="0.02337">
        <ele>119</ele>
        <time>2022-07-07T19:48:24Z</time>
      </trkpt>
      <trkpt lat="49.14133" lon="0.02323">
        <ele>118</ele>
        <time>2022-07-07T19:48:24Z</time>
      </trkpt>
      <trkpt lat="49.14136" lon="0.02308">
        <ele>117.3</ele>
        <time>2022-07-07T19:48:24Z</time>
      </trkpt>
      <trkpt lat="49.14139" lon="0.02291">
        <ele>115.7</ele>
        <time>2022-07-07T19:48:24Z</time>
      </trkpt>
      <trkpt lat="49.14144" lon="0.02271">
        <ele>113.2</ele>
        <time>2022-07-07T19:48:24Z</time>
      </trkpt>
      <trkpt lat="49.14151" lon="0.02249">
        <ele>111.1</ele>
        <time>2022-07-07T19:48:24Z</time>
      </trkpt>
      <trkpt lat="49.14155" lon="0.02233">
        <ele>109.5</ele>
        <time>2022-07-07T19:48:24Z</time>
      </trkpt>
      <trkpt lat="49.14157" lon="0.02219">
        <ele>108.3</ele>
        <time>2022-07-07T19:48:24Z</time>
      </trkpt>
      <trkpt lat="49.14158" lon="0.02205">
        <ele>107</ele>
        <time>2022-07-07T19:48:24Z</time>
      </trkpt>
      <trkpt lat="49.14158" lon="0.02191">
        <ele>105.6</ele>
        <time>2022-07-07T19:48:24Z</time>
      </trkpt>
      <trkpt lat="49.14158" lon="0.02183">
        <ele>104.7</ele>
        <time>2022-07-07T19:48:24Z</time>
      </trkpt>
      <trkpt lat="49.14157" lon="0.02173">
        <ele>103.9</ele>
        <time>2022-07-07T19:48:24Z</time>
      </trkpt>
      <trkpt lat="49.14155" lon="0.02151">
        <ele>102.1</ele>
        <time>2022-07-07T19:48:24Z</time>
      </trkpt>
      <trkpt lat="49.14152" lon="0.02125">
        <ele>101.1</ele>
        <time>2022-07-07T19:48:24Z</time>
      </trkpt>
      <trkpt lat="49.1415" lon="0.02103">
        <ele>98.9</ele>
        <time>2022-07-07T19:48:24Z</time>
      </trkpt>
      <trkpt lat="49.14148" lon="0.02081">
        <ele>96</ele>
        <time>2022-07-07T19:48:24Z</time>
      </trkpt>
      <trkpt lat="49.14147" lon="0.02062">
        <ele>94.3</ele>
        <time>2022-07-07T19:48:24Z</time>
      </trkpt>
      <trkpt lat="49.14146" lon="0.0204">
        <ele>92</ele>
        <time>2022-07-07T19:48:24Z</time>
      </trkpt>
      <trkpt lat="49.14147" lon="0.02017">
        <ele>89.6</ele>
        <time>2022-07-07T19:48:24Z</time>
      </trkpt>
      <trkpt lat="49.14148" lon="0.01993">
        <ele>87.8</ele>
        <time>2022-07-07T19:48:24Z</time>
      </trkpt>
      <trkpt lat="49.14148" lon="0.01977">
        <ele>87.1</ele>
        <time>2022-07-07T19:48:24Z</time>
      </trkpt>
      <trkpt lat="49.14147" lon="0.01963">
        <ele>85.8</ele>
        <time>2022-07-07T19:48:24Z</time>
      </trkpt>
      <trkpt lat="49.14146" lon="0.0195">
        <ele>83.8</ele>
        <time>2022-07-07T19:48:24Z</time>
      </trkpt>
      <trkpt lat="49.14144" lon="0.01936">
        <ele>82.3</ele>
        <time>2022-07-07T19:48:24Z</time>
      </trkpt>
      <trkpt lat="49.14141" lon="0.01921">
        <ele>81</ele>
        <time>2022-07-07T19:48:24Z</time>
      </trkpt>
      <trkpt lat="49.14136" lon="0.01896">
        <ele>78.7</ele>
        <time>2022-07-07T19:48:24Z</time>
      </trkpt>
      <trkpt lat="49.1413" lon="0.01869">
        <ele>76.6</ele>
        <time>2022-07-07T19:48:24Z</time>
      </trkpt>
      <trkpt lat="49.14126" lon="0.01842">
        <ele>73.7</ele>
        <time>2022-07-07T19:48:24Z</time>
      </trkpt>
      <trkpt lat="49.14122" lon="0.01817">
        <ele>71</ele>
        <time>2022-07-07T19:48:24Z</time>
      </trkpt>
      <trkpt lat="49.14117" lon="0.01793">
        <ele>68.7</ele>
        <time>2022-07-07T19:48:24Z</time>
      </trkpt>
      <trkpt lat="49.14114" lon="0.01776">
        <ele>67.4</ele>
        <time>2022-07-07T19:48:24Z</time>
      </trkpt>
      <trkpt lat="49.14107" lon="0.01747">
        <ele>65.8</ele>
        <time>2022-07-07T19:48:24Z</time>
      </trkpt>
      <trkpt lat="49.141" lon="0.0172">
        <ele>64.6</ele>
        <time>2022-07-07T19:48:24Z</time>
      </trkpt>
      <trkpt lat="49.14096" lon="0.01694">
        <ele>63.5</ele>
        <time>2022-07-07T19:48:24Z</time>
      </trkpt>
      <trkpt lat="49.14093" lon="0.01672">
        <ele>62.6</ele>
        <time>2022-07-07T19:48:24Z</time>
      </trkpt>
      <trkpt lat="49.14092" lon="0.01653">
        <ele>61.8</ele>
        <time>2022-07-07T19:48:24Z</time>
      </trkpt>
      <trkpt lat="49.14091" lon="0.01635">
        <ele>60.8</ele>
        <time>2022-07-07T19:48:24Z</time>
      </trkpt>
      <trkpt lat="49.1409" lon="0.01616">
        <ele>59.9</ele>
        <time>2022-07-07T19:48:24Z</time>
      </trkpt>
      <trkpt lat="49.1409" lon="0.01599">
        <ele>58.8</ele>
        <time>2022-07-07T19:48:24Z</time>
      </trkpt>
      <trkpt lat="49.14091" lon="0.01581">
        <ele>57.3</ele>
        <time>2022-07-07T19:48:24Z</time>
      </trkpt>
      <trkpt lat="49.14092" lon="0.01561">
        <ele>55.6</ele>
        <time>2022-07-07T19:48:24Z</time>
      </trkpt>
      <trkpt lat="49.14094" lon="0.01541">
        <ele>54.4</ele>
        <time>2022-07-07T19:48:24Z</time>
      </trkpt>
      <trkpt lat="49.14097" lon="0.01524">
        <ele>53.2</ele>
        <time>2022-07-07T19:48:24Z</time>
      </trkpt>
      <trkpt lat="49.14101" lon="0.01506">
        <ele>51.9</ele>
        <time>2022-07-07T19:48:24Z</time>
      </trkpt>
      <trkpt lat="49.14106" lon="0.01488">
        <ele>51</ele>
        <time>2022-07-07T19:48:24Z</time>
      </trkpt>
      <trkpt lat="49.14113" lon="0.0147">
        <ele>49.8</ele>
        <time>2022-07-07T19:48:24Z</time>
      </trkpt>
      <trkpt lat="49.14122" lon="0.01449">
        <ele>48.3</ele>
        <time>2022-07-07T19:48:24Z</time>
      </trkpt>
      <trkpt lat="49.1413" lon="0.01425">
        <ele>47</ele>
        <time>2022-07-07T19:48:24Z</time>
      </trkpt>
      <trkpt lat="49.14135" lon="0.01407">
        <ele>45.9</ele>
        <time>2022-07-07T19:48:24Z</time>
      </trkpt>
      <trkpt lat="49.14141" lon="0.01383">
        <ele>44.7</ele>
        <time>2022-07-07T19:48:24Z</time>
      </trkpt>
      <trkpt lat="49.14146" lon="0.01361">
        <ele>43.6</ele>
        <time>2022-07-07T19:48:24Z</time>
      </trkpt>
      <trkpt lat="49.14151" lon="0.01335">
        <ele>42.3</ele>
        <time>2022-07-07T19:48:24Z</time>
      </trkpt>
      <trkpt lat="49.14153" lon="0.01317">
        <ele>41.2</ele>
        <time>2022-07-07T19:48:24Z</time>
      </trkpt>
      <trkpt lat="49.14155" lon="0.01298">
        <ele>40.1</ele>
        <time>2022-07-07T19:48:24Z</time>
      </trkpt>
      <trkpt lat="49.14156" lon="0.01276">
        <ele>39</ele>
        <time>2022-07-07T19:48:24Z</time>
      </trkpt>
      <trkpt lat="49.14157" lon="0.01255">
        <ele>38.4</ele>
        <time>2022-07-07T19:48:24Z</time>
      </trkpt>
      <trkpt lat="49.14157" lon="0.01228">
        <ele>37.7</ele>
        <time>2022-07-07T19:48:24Z</time>
      </trkpt>
      <trkpt lat="49.14157" lon="0.01216">
        <ele>37.2</ele>
        <time>2022-07-07T19:48:24Z</time>
      </trkpt>
      <trkpt lat="49.14156" lon="0.01201">
        <ele>36.8</ele>
        <time>2022-07-07T19:48:24Z</time>
      </trkpt>
      <trkpt lat="49.14154" lon="0.01172">
        <ele>36.3</ele>
        <time>2022-07-07T19:48:24Z</time>
      </trkpt>
      <trkpt lat="49.14151" lon="0.01139">
        <ele>35.4</ele>
        <time>2022-07-07T19:48:24Z</time>
      </trkpt>
      <trkpt lat="49.14147" lon="0.01103">
        <ele>34.7</ele>
        <time>2022-07-07T19:48:24Z</time>
      </trkpt>
      <trkpt lat="49.14142" lon="0.01063">
        <ele>33.9</ele>
        <time>2022-07-07T19:48:24Z</time>
      </trkpt>
      <trkpt lat="49.14138" lon="0.01031">
        <ele>33.5</ele>
        <time>2022-07-07T19:48:24Z</time>
      </trkpt>
      <trkpt lat="49.14132" lon="0.00995">
        <ele>33</ele>
        <time>2022-07-07T19:48:24Z</time>
      </trkpt>
      <trkpt lat="49.14125" lon="0.00955">
        <ele>32.6</ele>
        <time>2022-07-07T19:48:24Z</time>
      </trkpt>
      <trkpt lat="49.14119" lon="0.00922">
        <ele>32.3</ele>
        <time>2022-07-07T19:48:24Z</time>
      </trkpt>
      <trkpt lat="49.14112" lon="0.00891">
        <ele>31.9</ele>
        <time>2022-07-07T19:48:24Z</time>
      </trkpt>
      <trkpt lat="49.14105" lon="0.00857">
        <ele>31.5</ele>
        <time>2022-07-07T19:48:24Z</time>
      </trkpt>
      <trkpt lat="49.14098" lon="0.00819">
        <ele>31</ele>
        <time>2022-07-07T19:48:24Z</time>
      </trkpt>
      <trkpt lat="49.14093" lon="0.0079">
        <ele>30.5</ele>
        <time>2022-07-07T19:48:24Z</time>
      </trkpt>
      <trkpt lat="49.1409" lon="0.00763">
        <ele>29.9</ele>
        <time>2022-07-07T19:48:24Z</time>
      </trkpt>
      <trkpt lat="49.14087" lon="0.00735">
        <ele>29.4</ele>
        <time>2022-07-07T19:48:24Z</time>
      </trkpt>
      <trkpt lat="49.14085" lon="0.00704">
        <ele>29</ele>
        <time>2022-07-07T19:48:24Z</time>
      </trkpt>
      <trkpt lat="49.14084" lon="0.00676">
        <ele>28.5</ele>
        <time>2022-07-07T19:48:24Z</time>
      </trkpt>
      <trkpt lat="49.14083" lon="0.00646">
        <ele>28</ele>
        <time>2022-07-07T19:48:24Z</time>
      </trkpt>
      <trkpt lat="49.14083" lon="0.00614">
        <ele>27.7</ele>
        <time>2022-07-07T19:48:24Z</time>
      </trkpt>
      <trkpt lat="49.14083" lon="0.00584">
        <ele>27.3</ele>
        <time>2022-07-07T19:48:24Z</time>
      </trkpt>
      <trkpt lat="49.14083" lon="0.00566">
        <ele>27.1</ele>
        <time>2022-07-07T19:48:24Z</time>
      </trkpt>
      <trkpt lat="49.14084" lon="0.00458">
        <ele>25.9</ele>
        <time>2022-07-07T19:48:24Z</time>
      </trkpt>
      <trkpt lat="49.14084" lon="0.00256">
        <ele>23.2</ele>
        <time>2022-07-07T19:48:24Z</time>
      </trkpt>
      <trkpt lat="49.14084" lon="0.00108">
        <ele>21.5</ele>
        <time>2022-07-07T19:48:24Z</time>
      </trkpt>
      <trkpt lat="49.14083" lon="6.0E-5">
        <ele>20.3</ele>
        <time>2022-07-07T19:48:24Z</time>
      </trkpt>
      <trkpt lat="49.14083" lon="-0.00047">
        <ele>19.7</ele>
        <time>2022-07-07T19:48:24Z</time>
      </trkpt>
      <trkpt lat="49.14082" lon="-0.00134">
        <ele>18.7</ele>
        <time>2022-07-07T19:48:24Z</time>
      </trkpt>
      <trkpt lat="49.1408" lon="-0.00252">
        <ele>17.5</ele>
        <time>2022-07-07T19:48:24Z</time>
      </trkpt>
      <trkpt lat="49.14076" lon="-0.00358">
        <ele>16.4</ele>
        <time>2022-07-07T19:48:24Z</time>
      </trkpt>
      <trkpt lat="49.14075" lon="-0.00372">
        <ele>16.3</ele>
        <time>2022-07-07T19:48:24Z</time>
      </trkpt>
      <trkpt lat="49.14072" lon="-0.00499">
        <ele>15.5</ele>
        <time>2022-07-07T19:48:24Z</time>
      </trkpt>
      <trkpt lat="49.14072" lon="-0.00514">
        <ele>15.4</ele>
        <time>2022-07-07T19:48:24Z</time>
      </trkpt>
      <trkpt lat="49.1407" lon="-0.00575">
        <ele>15.1</ele>
        <time>2022-07-07T19:48:24Z</time>
      </trkpt>
      <trkpt lat="49.14068" lon="-0.00619">
        <ele>14.9</ele>
        <time>2022-07-07T19:48:24Z</time>
      </trkpt>
      <trkpt lat="49.14068" lon="-0.00642">
        <ele>14.8</ele>
        <time>2022-07-07T19:48:24Z</time>
      </trkpt>
      <trkpt lat="49.14066" lon="-0.0072">
        <ele>14.4</ele>
        <time>2022-07-07T19:48:24Z</time>
      </trkpt>
      <trkpt lat="49.14065" lon="-0.00771">
        <ele>14.1</ele>
        <time>2022-07-07T19:48:24Z</time>
      </trkpt>
      <trkpt lat="49.14065" lon="-0.00784">
        <ele>14.1</ele>
        <time>2022-07-07T19:48:24Z</time>
      </trkpt>
      <trkpt lat="49.14066" lon="-0.00795">
        <ele>14.1</ele>
        <time>2022-07-07T19:48:24Z</time>
      </trkpt>
      <trkpt lat="49.14067" lon="-0.00804">
        <ele>14.1</ele>
        <time>2022-07-07T19:48:24Z</time>
      </trkpt>
      <trkpt lat="49.14068" lon="-0.00814">
        <ele>14.1</ele>
        <time>2022-07-07T19:48:24Z</time>
      </trkpt>
      <trkpt lat="49.14069" lon="-0.00824">
        <ele>13.8</ele>
        <time>2022-07-07T19:48:24Z</time>
      </trkpt>
      <trkpt lat="49.14073" lon="-0.00832">
        <ele>13.7</ele>
        <time>2022-07-07T19:48:24Z</time>
      </trkpt>
      <trkpt lat="49.14079" lon="-0.0084">
        <ele>13.3</ele>
        <time>2022-07-07T19:48:24Z</time>
      </trkpt>
      <trkpt lat="49.14083" lon="-0.00847">
        <ele>13.1</ele>
        <time>2022-07-07T19:48:24Z</time>
      </trkpt>
      <trkpt lat="49.14088" lon="-0.00855">
        <ele>13.1</ele>
        <time>2022-07-07T19:48:24Z</time>
      </trkpt>
      <trkpt lat="49.1409" lon="-0.00866">
        <ele>13.2</ele>
        <time>2022-07-07T19:48:24Z</time>
      </trkpt>
      <trkpt lat="49.14092" lon="-0.00876">
        <ele>13.2</ele>
        <time>2022-07-07T19:48:24Z</time>
      </trkpt>
      <trkpt lat="49.14091" lon="-0.00887">
        <ele>13.4</ele>
        <time>2022-07-07T19:48:24Z</time>
      </trkpt>
      <trkpt lat="49.1409" lon="-0.00896">
        <ele>13.5</ele>
        <time>2022-07-07T19:48:24Z</time>
      </trkpt>
      <trkpt lat="49.14087" lon="-0.00905">
        <ele>13.4</ele>
        <time>2022-07-07T19:48:24Z</time>
      </trkpt>
      <trkpt lat="49.14082" lon="-0.00913">
        <ele>13.5</ele>
        <time>2022-07-07T19:48:24Z</time>
      </trkpt>
      <trkpt lat="49.14077" lon="-0.0092">
        <ele>13.6</ele>
        <time>2022-07-07T19:48:24Z</time>
      </trkpt>
      <trkpt lat="49.14071" lon="-0.00924">
        <ele>13.7</ele>
        <time>2022-07-07T19:48:24Z</time>
      </trkpt>
      <trkpt lat="49.14067" lon="-0.00932">
        <ele>13.8</ele>
        <time>2022-07-07T19:48:24Z</time>
      </trkpt>
      <trkpt lat="49.14063" lon="-0.00942">
        <ele>13.9</ele>
        <time>2022-07-07T19:48:24Z</time>
      </trkpt>
      <trkpt lat="49.14061" lon="-0.00954">
        <ele>13.7</ele>
        <time>2022-07-07T19:48:24Z</time>
      </trkpt>
      <trkpt lat="49.1406" lon="-0.00967">
        <ele>13.6</ele>
        <time>2022-07-07T19:48:24Z</time>
      </trkpt>
      <trkpt lat="49.1406" lon="-0.0098">
        <ele>13.4</ele>
        <time>2022-07-07T19:48:24Z</time>
      </trkpt>
      <trkpt lat="49.14059" lon="-0.00994">
        <ele>13.2</ele>
        <time>2022-07-07T19:48:24Z</time>
      </trkpt>
      <trkpt lat="49.14059" lon="-0.01008">
        <ele>13.1</ele>
        <time>2022-07-07T19:48:24Z</time>
      </trkpt>
      <trkpt lat="49.14058" lon="-0.01016">
        <ele>13.1</ele>
        <time>2022-07-07T19:48:24Z</time>
      </trkpt>
      <trkpt lat="49.14059" lon="-0.01008">
        <ele>13.1</ele>
        <time>2022-07-07T19:48:24Z</time>
      </trkpt>
      <trkpt lat="49.14059" lon="-0.00994">
        <ele>13.2</ele>
        <time>2022-07-07T19:48:24Z</time>
      </trkpt>
      <trkpt lat="49.1406" lon="-0.0098">
        <ele>13.4</ele>
        <time>2022-07-07T19:48:24Z</time>
      </trkpt>
      <trkpt lat="49.1406" lon="-0.00967">
        <ele>13.6</ele>
        <time>2022-07-07T19:48:24Z</time>
      </trkpt>
      <trkpt lat="49.14061" lon="-0.00954">
        <ele>13.7</ele>
        <time>2022-07-07T19:48:24Z</time>
      </trkpt>
      <trkpt lat="49.14063" lon="-0.00942">
        <ele>13.9</ele>
        <time>2022-07-07T19:48:24Z</time>
      </trkpt>
      <trkpt lat="49.14067" lon="-0.00932">
        <ele>13.8</ele>
        <time>2022-07-07T19:48:24Z</time>
      </trkpt>
      <trkpt lat="49.14071" lon="-0.00924">
        <ele>13.7</ele>
        <time>2022-07-07T19:48:24Z</time>
      </trkpt>
      <trkpt lat="49.14077" lon="-0.0092">
        <ele>13.6</ele>
        <time>2022-07-07T19:48:24Z</time>
      </trkpt>
      <trkpt lat="49.14082" lon="-0.00913">
        <ele>13.5</ele>
        <time>2022-07-07T19:48:24Z</time>
      </trkpt>
      <trkpt lat="49.14093" lon="-0.00905">
        <ele>13.4</ele>
        <time>2022-07-07T19:48:24Z</time>
      </trkpt>
      <trkpt lat="49.14101" lon="-0.00904">
        <ele>13.2</ele>
        <time>2022-07-07T19:48:24Z</time>
      </trkpt>
      <trkpt lat="49.14109" lon="-0.00904">
        <ele>13.1</ele>
        <time>2022-07-07T19:48:24Z</time>
      </trkpt>
      <trkpt lat="49.14117" lon="-0.00906">
        <ele>12.9</ele>
        <time>2022-07-07T19:48:24Z</time>
      </trkpt>
      <trkpt lat="49.14126" lon="-0.00908">
        <ele>12.8</ele>
        <time>2022-07-07T19:48:24Z</time>
      </trkpt>
      <trkpt lat="49.14131" lon="-0.00909">
        <ele>12.7</ele>
        <time>2022-07-07T19:48:24Z</time>
      </trkpt>
      <trkpt lat="49.14182" lon="-0.00932">
        <ele>12.3</ele>
        <time>2022-07-07T19:48:24Z</time>
      </trkpt>
      <trkpt lat="49.14194" lon="-0.00937">
        <ele>12.1</ele>
        <time>2022-07-07T19:48:24Z</time>
      </trkpt>
      <trkpt lat="49.14205" lon="-0.00941">
        <ele>12</ele>
        <time>2022-07-07T19:48:24Z</time>
      </trkpt>
      <trkpt lat="49.14216" lon="-0.00946">
        <ele>11.9</ele>
        <time>2022-07-07T19:48:24Z</time>
      </trkpt>
      <trkpt lat="49.14227" lon="-0.00951">
        <ele>11.8</ele>
        <time>2022-07-07T19:48:24Z</time>
      </trkpt>
      <trkpt lat="49.14238" lon="-0.00955">
        <ele>11.7</ele>
        <time>2022-07-07T19:48:24Z</time>
      </trkpt>
      <trkpt lat="49.14248" lon="-0.00958">
        <ele>11.8</ele>
        <time>2022-07-07T19:48:24Z</time>
      </trkpt>
      <trkpt lat="49.14259" lon="-0.0096">
        <ele>11.8</ele>
        <time>2022-07-07T19:48:24Z</time>
      </trkpt>
      <trkpt lat="49.1427" lon="-0.00959">
        <ele>11.7</ele>
        <time>2022-07-07T19:48:24Z</time>
      </trkpt>
      <trkpt lat="49.14281" lon="-0.00959">
        <ele>11.7</ele>
        <time>2022-07-07T19:48:24Z</time>
      </trkpt>
      <trkpt lat="49.14291" lon="-0.00958">
        <ele>11.6</ele>
        <time>2022-07-07T19:48:24Z</time>
      </trkpt>
      <trkpt lat="49.14303" lon="-0.00958">
        <ele>11.5</ele>
        <time>2022-07-07T19:48:24Z</time>
      </trkpt>
      <trkpt lat="49.14314" lon="-0.00957">
        <ele>11.6</ele>
        <time>2022-07-07T19:48:24Z</time>
      </trkpt>
      <trkpt lat="49.14335" lon="-0.00957">
        <ele>11.4</ele>
        <time>2022-07-07T19:48:24Z</time>
      </trkpt>
      <trkpt lat="49.14385" lon="-0.00956">
        <ele>10.4</ele>
        <time>2022-07-07T19:48:24Z</time>
      </trkpt>
      <trkpt lat="49.14481" lon="-0.00951">
        <ele>9.7</ele>
        <time>2022-07-07T19:48:24Z</time>
      </trkpt>
      <trkpt lat="49.14574" lon="-0.00946">
        <ele>9.9</ele>
        <time>2022-07-07T19:48:24Z</time>
      </trkpt>
      <trkpt lat="49.14671" lon="-0.00937">
        <ele>10.7</ele>
        <time>2022-07-07T19:48:24Z</time>
      </trkpt>
      <trkpt lat="49.14724" lon="-0.00929">
        <ele>12.1</ele>
        <time>2022-07-07T19:48:24Z</time>
      </trkpt>
      <trkpt lat="49.14735" lon="-0.00927">
        <ele>12.2</ele>
        <time>2022-07-07T19:48:24Z</time>
      </trkpt>
      <trkpt lat="49.14789" lon="-0.00914">
        <ele>12.8</ele>
        <time>2022-07-07T19:48:24Z</time>
      </trkpt>
      <trkpt lat="49.14854" lon="-0.00895">
        <ele>13.2</ele>
        <time>2022-07-07T19:48:24Z</time>
      </trkpt>
      <trkpt lat="49.14878" lon="-0.00888">
        <ele>13.2</ele>
        <time>2022-07-07T19:48:24Z</time>
      </trkpt>
      <trkpt lat="49.14902" lon="-0.00881">
        <ele>12.8</ele>
        <time>2022-07-07T19:48:24Z</time>
      </trkpt>
      <trkpt lat="49.14968" lon="-0.0086">
        <ele>12.5</ele>
        <time>2022-07-07T19:48:24Z</time>
      </trkpt>
      <trkpt lat="49.15042" lon="-0.00839">
        <ele>13.5</ele>
        <time>2022-07-07T19:48:24Z</time>
      </trkpt>
      <trkpt lat="49.15087" lon="-0.00827">
        <ele>14.1</ele>
        <time>2022-07-07T19:48:24Z</time>
      </trkpt>
      <trkpt lat="49.15156" lon="-0.00807">
        <ele>14.9</ele>
        <time>2022-07-07T19:48:24Z</time>
      </trkpt>
      <trkpt lat="49.15184" lon="-0.00798">
        <ele>15.2</ele>
        <time>2022-07-07T19:48:24Z</time>
      </trkpt>
      <trkpt lat="49.15201" lon="-0.00793">
        <ele>15.4</ele>
        <time>2022-07-07T19:48:24Z</time>
      </trkpt>
      <trkpt lat="49.15315" lon="-0.00755">
        <ele>16.6</ele>
        <time>2022-07-07T19:48:24Z</time>
      </trkpt>
      <trkpt lat="49.15358" lon="-0.00742">
        <ele>17</ele>
        <time>2022-07-07T19:48:24Z</time>
      </trkpt>
      <trkpt lat="49.15363" lon="-0.0074">
        <ele>17</ele>
        <time>2022-07-07T19:48:24Z</time>
      </trkpt>
      <trkpt lat="49.1543" lon="-0.0072">
        <ele>16.7</ele>
        <time>2022-07-07T19:48:24Z</time>
      </trkpt>
      <trkpt lat="49.15485" lon="-0.00705">
        <ele>16.4</ele>
        <time>2022-07-07T19:48:24Z</time>
      </trkpt>
      <trkpt lat="49.15509" lon="-0.00695">
        <ele>16.2</ele>
        <time>2022-07-07T19:48:24Z</time>
      </trkpt>
      <trkpt lat="49.1553" lon="-0.00685">
        <ele>16.2</ele>
        <time>2022-07-07T19:48:24Z</time>
      </trkpt>
      <trkpt lat="49.1555" lon="-0.00672">
        <ele>16.2</ele>
        <time>2022-07-07T19:48:24Z</time>
      </trkpt>
      <trkpt lat="49.15579" lon="-0.00647">
        <ele>16.4</ele>
        <time>2022-07-07T19:48:24Z</time>
      </trkpt>
      <trkpt lat="49.15589" lon="-0.00637">
        <ele>16.7</ele>
        <time>2022-07-07T19:48:24Z</time>
      </trkpt>
      <trkpt lat="49.15623" lon="-0.00601">
        <ele>17.5</ele>
        <time>2022-07-07T19:48:24Z</time>
      </trkpt>
      <trkpt lat="49.1565" lon="-0.00571">
        <ele>18.3</ele>
        <time>2022-07-07T19:48:24Z</time>
      </trkpt>
      <trkpt lat="49.15699" lon="-0.0052">
        <ele>19.2</ele>
        <time>2022-07-07T19:48:24Z</time>
      </trkpt>
      <trkpt lat="49.15732" lon="-0.00486">
        <ele>18.9</ele>
        <time>2022-07-07T19:48:24Z</time>
      </trkpt>
      <trkpt lat="49.15749" lon="-0.00471">
        <ele>18.7</ele>
        <time>2022-07-07T19:48:24Z</time>
      </trkpt>
      <trkpt lat="49.15755" lon="-0.00466">
        <ele>18.6</ele>
        <time>2022-07-07T19:48:24Z</time>
      </trkpt>
      <trkpt lat="49.15791" lon="-0.00443">
        <ele>17.4</ele>
        <time>2022-07-07T19:48:24Z</time>
      </trkpt>
      <trkpt lat="49.15867" lon="-0.00408">
        <ele>16.1</ele>
        <time>2022-07-07T19:48:24Z</time>
      </trkpt>
      <trkpt lat="49.15939" lon="-0.0038">
        <ele>15.9</ele>
        <time>2022-07-07T19:48:24Z</time>
      </trkpt>
      <trkpt lat="49.15945" lon="-0.00378">
        <ele>16</ele>
        <time>2022-07-07T19:48:24Z</time>
      </trkpt>
      <trkpt lat="49.15984" lon="-0.00358">
        <ele>16.3</ele>
        <time>2022-07-07T19:48:24Z</time>
      </trkpt>
      <trkpt lat="49.16035" lon="-0.00332">
        <ele>17.6</ele>
        <time>2022-07-07T19:48:24Z</time>
      </trkpt>
      <trkpt lat="49.16078" lon="-0.00304">
        <ele>18.6</ele>
        <time>2022-07-07T19:48:24Z</time>
      </trkpt>
      <trkpt lat="49.16123" lon="-0.0027">
        <ele>19.3</ele>
        <time>2022-07-07T19:48:24Z</time>
      </trkpt>
      <trkpt lat="49.16175" lon="-0.00229">
        <ele>19.7</ele>
        <time>2022-07-07T19:48:24Z</time>
      </trkpt>
      <trkpt lat="49.16204" lon="-0.00205">
        <ele>19.7</ele>
        <time>2022-07-07T19:48:24Z</time>
      </trkpt>
      <trkpt lat="49.1622" lon="-0.0019">
        <ele>19.7</ele>
        <time>2022-07-07T19:48:24Z</time>
      </trkpt>
      <trkpt lat="49.16239" lon="-0.00172">
        <ele>19.6</ele>
        <time>2022-07-07T19:48:24Z</time>
      </trkpt>
      <trkpt lat="49.16268" lon="-0.00142">
        <ele>19.3</ele>
        <time>2022-07-07T19:48:24Z</time>
      </trkpt>
      <trkpt lat="49.163" lon="-0.00107">
        <ele>19.3</ele>
        <time>2022-07-07T19:48:24Z</time>
      </trkpt>
      <trkpt lat="49.16319" lon="-0.00087">
        <ele>19</ele>
        <time>2022-07-07T19:48:24Z</time>
      </trkpt>
      <trkpt lat="49.16369" lon="-0.00032">
        <ele>19.2</ele>
        <time>2022-07-07T19:48:24Z</time>
      </trkpt>
      <trkpt lat="49.16443" lon="0.00047">
        <ele>19.5</ele>
        <time>2022-07-07T19:48:24Z</time>
      </trkpt>
      <trkpt lat="49.16513" lon="0.00123">
        <ele>18.5</ele>
        <time>2022-07-07T19:48:24Z</time>
      </trkpt>
      <trkpt lat="49.16556" lon="0.00169">
        <ele>17.6</ele>
        <time>2022-07-07T19:48:24Z</time>
      </trkpt>
      <trkpt lat="49.16564" lon="0.00178">
        <ele>17.4</ele>
        <time>2022-07-07T19:48:24Z</time>
      </trkpt>
      <trkpt lat="49.16595" lon="0.00213">
        <ele>17.4</ele>
        <time>2022-07-07T19:48:24Z</time>
      </trkpt>
      <trkpt lat="49.1662" lon="0.00239">
        <ele>18</ele>
        <time>2022-07-07T19:48:24Z</time>
      </trkpt>
      <trkpt lat="49.16641" lon="0.00262">
        <ele>18.7</ele>
        <time>2022-07-07T19:48:24Z</time>
      </trkpt>
      <trkpt lat="49.1668" lon="0.00305">
        <ele>20.2</ele>
        <time>2022-07-07T19:48:24Z</time>
      </trkpt>
      <trkpt lat="49.16709" lon="0.00336">
        <ele>21.2</ele>
        <time>2022-07-07T19:48:24Z</time>
      </trkpt>
      <trkpt lat="49.16723" lon="0.0035">
        <ele>21.6</ele>
        <time>2022-07-07T19:48:24Z</time>
      </trkpt>
      <trkpt lat="49.16737" lon="0.00366">
        <ele>22.3</ele>
        <time>2022-07-07T19:48:24Z</time>
      </trkpt>
      <trkpt lat="49.16762" lon="0.00393">
        <ele>22.6</ele>
        <time>2022-07-07T19:48:24Z</time>
      </trkpt>
      <trkpt lat="49.168" lon="0.00433">
        <ele>21.7</ele>
        <time>2022-07-07T19:48:24Z</time>
      </trkpt>
      <trkpt lat="49.16835" lon="0.00471">
        <ele>21.1</ele>
        <time>2022-07-07T19:48:24Z</time>
      </trkpt>
      <trkpt lat="49.16855" lon="0.0049">
        <ele>20.5</ele>
        <time>2022-07-07T19:48:24Z</time>
      </trkpt>
      <trkpt lat="49.16882" lon="0.00515">
        <ele>20</ele>
        <time>2022-07-07T19:48:24Z</time>
      </trkpt>
      <trkpt lat="49.1692" lon="0.00546">
        <ele>19.6</ele>
        <time>2022-07-07T19:48:24Z</time>
      </trkpt>
      <trkpt lat="49.16969" lon="0.00585">
        <ele>19.8</ele>
        <time>2022-07-07T19:48:24Z</time>
      </trkpt>
      <trkpt lat="49.17027" lon="0.00631">
        <ele>20.4</ele>
        <time>2022-07-07T19:48:24Z</time>
      </trkpt>
      <trkpt lat="49.1705" lon="0.00649">
        <ele>20.6</ele>
        <time>2022-07-07T19:48:24Z</time>
      </trkpt>
      <trkpt lat="49.17069" lon="0.00666">
        <ele>20.8</ele>
        <time>2022-07-07T19:48:24Z</time>
      </trkpt>
      <trkpt lat="49.17094" lon="0.00689">
        <ele>20.9</ele>
        <time>2022-07-07T19:48:24Z</time>
      </trkpt>
      <trkpt lat="49.17133" lon="0.00731">
        <ele>21.4</ele>
        <time>2022-07-07T19:48:24Z</time>
      </trkpt>
      <trkpt lat="49.17165" lon="0.00768">
        <ele>21.8</ele>
        <time>2022-07-07T19:48:24Z</time>
      </trkpt>
      <trkpt lat="49.17171" lon="0.00774">
        <ele>21.8</ele>
        <time>2022-07-07T19:48:24Z</time>
      </trkpt>
      <trkpt lat="49.17176" lon="0.00764">
        <ele>21.9</ele>
        <time>2022-07-07T19:48:24Z</time>
      </trkpt>
      <trkpt lat="49.17183" lon="0.00755">
        <ele>21.3</ele>
        <time>2022-07-07T19:48:24Z</time>
      </trkpt>
      <trkpt lat="49.17192" lon="0.00744">
        <ele>21.2</ele>
        <time>2022-07-07T19:48:24Z</time>
      </trkpt>
      <trkpt lat="49.17201" lon="0.00734">
        <ele>21.4</ele>
        <time>2022-07-07T19:48:24Z</time>
      </trkpt>
      <trkpt lat="49.17209" lon="0.00724">
        <ele>21.3</ele>
        <time>2022-07-07T19:48:24Z</time>
      </trkpt>
      <trkpt lat="49.17215" lon="0.00712">
        <ele>21.2</ele>
        <time>2022-07-07T19:48:24Z</time>
      </trkpt>
      <trkpt lat="49.17222" lon="0.00698">
        <ele>21</ele>
        <time>2022-07-07T19:48:24Z</time>
      </trkpt>
      <trkpt lat="49.1723" lon="0.00684">
        <ele>20.8</ele>
        <time>2022-07-07T19:48:24Z</time>
      </trkpt>
      <trkpt lat="49.17237" lon="0.00673">
        <ele>20.6</ele>
        <time>2022-07-07T19:48:24Z</time>
      </trkpt>
      <trkpt lat="49.17246" lon="0.00662">
        <ele>20.5</ele>
        <time>2022-07-07T19:48:24Z</time>
      </trkpt>
      <trkpt lat="49.17256" lon="0.0065">
        <ele>20.4</ele>
        <time>2022-07-07T19:48:24Z</time>
      </trkpt>
      <trkpt lat="49.17267" lon="0.00637">
        <ele>20.1</ele>
        <time>2022-07-07T19:48:24Z</time>
      </trkpt>
      <trkpt lat="49.17277" lon="0.00624">
        <ele>20</ele>
        <time>2022-07-07T19:48:24Z</time>
      </trkpt>
      <trkpt lat="49.17308" lon="0.00589">
        <ele>20</ele>
        <time>2022-07-07T19:48:24Z</time>
      </trkpt>
      <trkpt lat="49.17317" lon="0.0058">
        <ele>20.6</ele>
        <time>2022-07-07T19:48:24Z</time>
      </trkpt>
      <trkpt lat="49.17324" lon="0.0057">
        <ele>20.3</ele>
        <time>2022-07-07T19:48:24Z</time>
      </trkpt>
      <trkpt lat="49.17333" lon="0.00553">
        <ele>19.6</ele>
        <time>2022-07-07T19:48:24Z</time>
      </trkpt>
      <trkpt lat="49.17343" lon="0.00529">
        <ele>19.3</ele>
        <time>2022-07-07T19:48:24Z</time>
      </trkpt>
      <trkpt lat="49.17364" lon="0.00479">
        <ele>18.9</ele>
        <time>2022-07-07T19:48:24Z</time>
      </trkpt>
      <trkpt lat="49.17367" lon="0.0047">
        <ele>18.8</ele>
        <time>2022-07-07T19:48:24Z</time>
      </trkpt>
      <trkpt lat="49.1737" lon="0.0046">
        <ele>18.8</ele>
        <time>2022-07-07T19:48:24Z</time>
      </trkpt>
      <trkpt lat="49.17372" lon="0.0045">
        <ele>18.7</ele>
        <time>2022-07-07T19:48:24Z</time>
      </trkpt>
      <trkpt lat="49.17372" lon="0.00441">
        <ele>18.6</ele>
        <time>2022-07-07T19:48:24Z</time>
      </trkpt>
      <trkpt lat="49.1737" lon="0.00428">
        <ele>18.4</ele>
        <time>2022-07-07T19:48:24Z</time>
      </trkpt>
      <trkpt lat="49.17368" lon="0.00411">
        <ele>18.3</ele>
        <time>2022-07-07T19:48:24Z</time>
      </trkpt>
      <trkpt lat="49.17365" lon="0.00398">
        <ele>18.2</ele>
        <time>2022-07-07T19:48:24Z</time>
      </trkpt>
      <trkpt lat="49.17363" lon="0.00387">
        <ele>18.1</ele>
        <time>2022-07-07T19:48:24Z</time>
      </trkpt>
      <trkpt lat="49.17363" lon="0.00372">
        <ele>17.9</ele>
        <time>2022-07-07T19:48:24Z</time>
      </trkpt>
      <trkpt lat="49.17366" lon="0.00365">
        <ele>17.9</ele>
        <time>2022-07-07T19:48:24Z</time>
      </trkpt>
      <trkpt lat="49.17375" lon="0.0035">
        <ele>17.6</ele>
        <time>2022-07-07T19:48:24Z</time>
      </trkpt>
      <trkpt lat="49.17385" lon="0.00331">
        <ele>17.3</ele>
        <time>2022-07-07T19:48:24Z</time>
      </trkpt>
      <trkpt lat="49.17408" lon="0.00289">
        <ele>17.1</ele>
        <time>2022-07-07T19:48:24Z</time>
      </trkpt>
      <trkpt lat="49.17452" lon="0.00227">
        <ele>16.2</ele>
        <time>2022-07-07T19:48:24Z</time>
      </trkpt>
      <trkpt lat="49.1747" lon="0.00205">
        <ele>16.1</ele>
        <time>2022-07-07T19:48:24Z</time>
      </trkpt>
      <trkpt lat="49.17481" lon="0.00192">
        <ele>16.3</ele>
        <time>2022-07-07T19:48:24Z</time>
      </trkpt>
      <trkpt lat="49.17486" lon="0.00181">
        <ele>16.3</ele>
        <time>2022-07-07T19:48:24Z</time>
      </trkpt>
      <trkpt lat="49.17502" lon="0.00154">
        <ele>16.3</ele>
        <time>2022-07-07T19:48:24Z</time>
      </trkpt>
      <trkpt lat="49.17529" lon="0.00099">
        <ele>16.3</ele>
        <time>2022-07-07T19:48:24Z</time>
      </trkpt>
      <trkpt lat="49.17534" lon="0.0009">
        <ele>16.5</ele>
        <time>2022-07-07T19:48:24Z</time>
      </trkpt>
      <trkpt lat="49.17565" lon="0.00076">
        <ele>16.9</ele>
        <time>2022-07-07T19:48:24Z</time>
      </trkpt>
      <trkpt lat="49.17571" lon="0.00071">
        <ele>16.9</ele>
        <time>2022-07-07T19:48:24Z</time>
      </trkpt>
      <trkpt lat="49.17592" lon="0.00047">
        <ele>17</ele>
        <time>2022-07-07T19:48:24Z</time>
      </trkpt>
      <trkpt lat="49.17602" lon="0.00036">
        <ele>17.1</ele>
        <time>2022-07-07T19:48:24Z</time>
      </trkpt>
      <trkpt lat="49.17633" lon="5.0E-5">
        <ele>17.5</ele>
        <time>2022-07-07T19:48:24Z</time>
      </trkpt>
      <trkpt lat="49.17659" lon="-0.00014">
        <ele>18</ele>
        <time>2022-07-07T19:48:24Z</time>
      </trkpt>
      <trkpt lat="49.17667" lon="-0.0002">
        <ele>18.1</ele>
        <time>2022-07-07T19:48:24Z</time>
      </trkpt>
      <trkpt lat="49.17682" lon="-0.00033">
        <ele>18.3</ele>
        <time>2022-07-07T19:48:24Z</time>
      </trkpt>
      <trkpt lat="49.17702" lon="-0.00049">
        <ele>18.8</ele>
        <time>2022-07-07T19:48:24Z</time>
      </trkpt>
      <trkpt lat="49.17709" lon="-0.00062">
        <ele>19.2</ele>
        <time>2022-07-07T19:48:24Z</time>
      </trkpt>
      <trkpt lat="49.17729" lon="-0.00104">
        <ele>20</ele>
        <time>2022-07-07T19:48:24Z</time>
      </trkpt>
      <trkpt lat="49.17751" lon="-0.00143">
        <ele>21.3</ele>
        <time>2022-07-07T19:48:24Z</time>
      </trkpt>
      <trkpt lat="49.17755" lon="-0.00151">
        <ele>21.3</ele>
        <time>2022-07-07T19:48:24Z</time>
      </trkpt>
      <trkpt lat="49.17764" lon="-0.00159">
        <ele>22</ele>
        <time>2022-07-07T19:48:24Z</time>
      </trkpt>
      <trkpt lat="49.17769" lon="-0.00162">
        <ele>22.2</ele>
        <time>2022-07-07T19:48:24Z</time>
      </trkpt>
      <trkpt lat="49.17809" lon="-0.0018">
        <ele>24.8</ele>
        <time>2022-07-07T19:48:24Z</time>
      </trkpt>
      <trkpt lat="49.17854" lon="-0.002">
        <ele>30</ele>
        <time>2022-07-07T19:48:24Z</time>
      </trkpt>
      <trkpt lat="49.179" lon="-0.0022">
        <ele>33.9</ele>
        <time>2022-07-07T19:48:24Z</time>
      </trkpt>
      <trkpt lat="49.17925" lon="-0.00231">
        <ele>35.2</ele>
        <time>2022-07-07T19:48:24Z</time>
      </trkpt>
      <trkpt lat="49.17954" lon="-0.00245">
        <ele>35.3</ele>
        <time>2022-07-07T19:48:24Z</time>
      </trkpt>
      <trkpt lat="49.17974" lon="-0.00252">
        <ele>35.2</ele>
        <time>2022-07-07T19:48:24Z</time>
      </trkpt>
      <trkpt lat="49.18007" lon="-0.00262">
        <ele>34.5</ele>
        <time>2022-07-07T19:48:24Z</time>
      </trkpt>
      <trkpt lat="49.18061" lon="-0.00271">
        <ele>32.6</ele>
        <time>2022-07-07T19:48:24Z</time>
      </trkpt>
      <trkpt lat="49.18075" lon="-0.00279">
        <ele>32.5</ele>
        <time>2022-07-07T19:48:24Z</time>
      </trkpt>
      <trkpt lat="49.1809" lon="-0.00285">
        <ele>33.1</ele>
        <time>2022-07-07T19:48:24Z</time>
      </trkpt>
      <trkpt lat="49.18162" lon="-0.00306">
        <ele>32.1</ele>
        <time>2022-07-07T19:48:24Z</time>
      </trkpt>
      <trkpt lat="49.18216" lon="-0.0032">
        <ele>31.5</ele>
        <time>2022-07-07T19:48:24Z</time>
      </trkpt>
      <trkpt lat="49.18254" lon="-0.00331">
        <ele>31</ele>
        <time>2022-07-07T19:48:24Z</time>
      </trkpt>
      <trkpt lat="49.1829" lon="-0.00341">
        <ele>30</ele>
        <time>2022-07-07T19:48:24Z</time>
      </trkpt>
      <trkpt lat="49.1833" lon="-0.0035">
        <ele>29</ele>
        <time>2022-07-07T19:48:24Z</time>
      </trkpt>
      <trkpt lat="49.1836" lon="-0.00353">
        <ele>28.2</ele>
        <time>2022-07-07T19:48:24Z</time>
      </trkpt>
      <trkpt lat="49.18396" lon="-0.00354">
        <ele>27.4</ele>
        <time>2022-07-07T19:48:24Z</time>
      </trkpt>
      <trkpt lat="49.1846" lon="-0.00351">
        <ele>25.1</ele>
        <time>2022-07-07T19:48:24Z</time>
      </trkpt>
      <trkpt lat="49.18522" lon="-0.00348">
        <ele>23</ele>
        <time>2022-07-07T19:48:24Z</time>
      </trkpt>
      <trkpt lat="49.18561" lon="-0.00346">
        <ele>21.4</ele>
        <time>2022-07-07T19:48:24Z</time>
      </trkpt>
      <trkpt lat="49.18645" lon="-0.00343">
        <ele>20.6</ele>
        <time>2022-07-07T19:48:24Z</time>
      </trkpt>
      <trkpt lat="49.18656" lon="-0.00342">
        <ele>20.7</ele>
        <time>2022-07-07T19:48:24Z</time>
      </trkpt>
      <trkpt lat="49.18671" lon="-0.00341">
        <ele>21</ele>
        <time>2022-07-07T19:48:24Z</time>
      </trkpt>
      <trkpt lat="49.18688" lon="-0.0034">
        <ele>20.6</ele>
        <time>2022-07-07T19:48:24Z</time>
      </trkpt>
      <trkpt lat="49.18696" lon="-0.00342">
        <ele>20.4</ele>
        <time>2022-07-07T19:48:24Z</time>
      </trkpt>
      <trkpt lat="49.18709" lon="-0.00348">
        <ele>20.2</ele>
        <time>2022-07-07T19:48:24Z</time>
      </trkpt>
      <trkpt lat="49.18727" lon="-0.00358">
        <ele>20.2</ele>
        <time>2022-07-07T19:48:24Z</time>
      </trkpt>
      <trkpt lat="49.18782" lon="-0.0039">
        <ele>20.1</ele>
        <time>2022-07-07T19:48:24Z</time>
      </trkpt>
      <trkpt lat="49.1884" lon="-0.00427">
        <ele>20.2</ele>
        <time>2022-07-07T19:48:24Z</time>
      </trkpt>
      <trkpt lat="49.18861" lon="-0.0044">
        <ele>20.1</ele>
        <time>2022-07-07T19:48:24Z</time>
      </trkpt>
      <trkpt lat="49.1888" lon="-0.00447">
        <ele>20.2</ele>
        <time>2022-07-07T19:48:24Z</time>
      </trkpt>
      <trkpt lat="49.18929" lon="-0.00456">
        <ele>19.8</ele>
        <time>2022-07-07T19:48:24Z</time>
      </trkpt>
      <trkpt lat="49.18962" lon="-0.00468">
        <ele>20.1</ele>
        <time>2022-07-07T19:48:24Z</time>
      </trkpt>
      <trkpt lat="49.18977" lon="-0.00478">
        <ele>20</ele>
        <time>2022-07-07T19:48:24Z</time>
      </trkpt>
      <trkpt lat="49.1899" lon="-0.00486">
        <ele>20.1</ele>
        <time>2022-07-07T19:48:24Z</time>
      </trkpt>
      <trkpt lat="49.19008" lon="-0.00488">
        <ele>20.3</ele>
        <time>2022-07-07T19:48:24Z</time>
      </trkpt>
      <trkpt lat="49.19034" lon="-0.00482">
        <ele>20.5</ele>
        <time>2022-07-07T19:48:24Z</time>
      </trkpt>
      <trkpt lat="49.19054" lon="-0.00477">
        <ele>21.5</ele>
        <time>2022-07-07T19:48:24Z</time>
      </trkpt>
      <trkpt lat="49.19095" lon="-0.00469">
        <ele>23.8</ele>
        <time>2022-07-07T19:48:24Z</time>
      </trkpt>
      <trkpt lat="49.19114" lon="-0.00466">
        <ele>24.7</ele>
        <time>2022-07-07T19:48:24Z</time>
      </trkpt>
      <trkpt lat="49.19131" lon="-0.00465">
        <ele>25.2</ele>
        <time>2022-07-07T19:48:24Z</time>
      </trkpt>
      <trkpt lat="49.19165" lon="-0.00471">
        <ele>27.3</ele>
        <time>2022-07-07T19:48:24Z</time>
      </trkpt>
      <trkpt lat="49.19179" lon="-0.00478">
        <ele>28.1</ele>
        <time>2022-07-07T19:48:24Z</time>
      </trkpt>
      <trkpt lat="49.19224" lon="-0.00492">
        <ele>30.2</ele>
        <time>2022-07-07T19:48:24Z</time>
      </trkpt>
      <trkpt lat="49.19229" lon="-0.00494">
        <ele>30.5</ele>
        <time>2022-07-07T19:48:24Z</time>
      </trkpt>
      <trkpt lat="49.19263" lon="-0.00511">
        <ele>32</ele>
        <time>2022-07-07T19:48:24Z</time>
      </trkpt>
      <trkpt lat="49.19278" lon="-0.00517">
        <ele>32.5</ele>
        <time>2022-07-07T19:48:24Z</time>
      </trkpt>
      <trkpt lat="49.19284" lon="-0.00513">
        <ele>33.1</ele>
        <time>2022-07-07T19:48:24Z</time>
      </trkpt>
      <trkpt lat="49.19294" lon="-0.00512">
        <ele>33.7</ele>
        <time>2022-07-07T19:48:24Z</time>
      </trkpt>
      <trkpt lat="49.19313" lon="-0.00515">
        <ele>35.4</ele>
        <time>2022-07-07T19:48:24Z</time>
      </trkpt>
      <trkpt lat="49.19398" lon="-0.00574">
        <ele>40.5</ele>
        <time>2022-07-07T19:48:24Z</time>
      </trkpt>
      <trkpt lat="49.1942" lon="-0.00585">
        <ele>42.1</ele>
        <time>2022-07-07T19:48:24Z</time>
      </trkpt>
      <trkpt lat="49.1943" lon="-0.00588">
        <ele>42.6</ele>
        <time>2022-07-07T19:48:24Z</time>
      </trkpt>
      <trkpt lat="49.19458" lon="-0.00586">
        <ele>43.9</ele>
        <time>2022-07-07T19:48:24Z</time>
      </trkpt>
      <trkpt lat="49.1948" lon="-0.0059">
        <ele>45.1</ele>
        <time>2022-07-07T19:48:24Z</time>
      </trkpt>
      <trkpt lat="49.19535" lon="-0.00619">
        <ele>48.5</ele>
        <time>2022-07-07T19:48:24Z</time>
      </trkpt>
      <trkpt lat="49.19599" lon="-0.00656">
        <ele>56.6</ele>
        <time>2022-07-07T19:48:24Z</time>
      </trkpt>
      <trkpt lat="49.19608" lon="-0.00661">
        <ele>57.5</ele>
        <time>2022-07-07T19:48:24Z</time>
      </trkpt>
      <trkpt lat="49.19641" lon="-0.00672">
        <ele>60.7</ele>
        <time>2022-07-07T19:48:24Z</time>
      </trkpt>
      <trkpt lat="49.19706" lon="-0.00693">
        <ele>65</ele>
        <time>2022-07-07T19:48:24Z</time>
      </trkpt>
      <trkpt lat="49.1973" lon="-0.00694">
        <ele>66.9</ele>
        <time>2022-07-07T19:48:24Z</time>
      </trkpt>
      <trkpt lat="49.19745" lon="-0.00697">
        <ele>68.3</ele>
        <time>2022-07-07T19:48:24Z</time>
      </trkpt>
      <trkpt lat="49.19784" lon="-0.00703">
        <ele>72.4</ele>
        <time>2022-07-07T19:48:24Z</time>
      </trkpt>
      <trkpt lat="49.19839" lon="-0.00705">
        <ele>76.7</ele>
        <time>2022-07-07T19:48:24Z</time>
      </trkpt>
      <trkpt lat="49.19855" lon="-0.00703">
        <ele>77.9</ele>
        <time>2022-07-07T19:48:24Z</time>
      </trkpt>
      <trkpt lat="49.19866" lon="-0.00699">
        <ele>78.4</ele>
        <time>2022-07-07T19:48:24Z</time>
      </trkpt>
      <trkpt lat="49.19948" lon="-0.0066">
        <ele>83.7</ele>
        <time>2022-07-07T19:48:24Z</time>
      </trkpt>
      <trkpt lat="49.20033" lon="-0.00619">
        <ele>91</ele>
        <time>2022-07-07T19:48:24Z</time>
      </trkpt>
      <trkpt lat="49.2007" lon="-0.00603">
        <ele>96.4</ele>
        <time>2022-07-07T19:48:24Z</time>
      </trkpt>
      <trkpt lat="49.20109" lon="-0.00586">
        <ele>98.6</ele>
        <time>2022-07-07T19:48:24Z</time>
      </trkpt>
      <trkpt lat="49.20113" lon="-0.00609">
        <ele>100.3</ele>
        <time>2022-07-07T19:48:24Z</time>
      </trkpt>
      <trkpt lat="49.20117" lon="-0.00626">
        <ele>102.2</ele>
        <time>2022-07-07T19:48:24Z</time>
      </trkpt>
      <trkpt lat="49.20122" lon="-0.00645">
        <ele>105</ele>
        <time>2022-07-07T19:48:24Z</time>
      </trkpt>
      <trkpt lat="49.20136" lon="-0.0069">
        <ele>108.3</ele>
        <time>2022-07-07T19:48:24Z</time>
      </trkpt>
      <trkpt lat="49.20156" lon="-0.00749">
        <ele>112.7</ele>
        <time>2022-07-07T19:48:24Z</time>
      </trkpt>
      <trkpt lat="49.20162" lon="-0.00766">
        <ele>114.2</ele>
        <time>2022-07-07T19:48:24Z</time>
      </trkpt>
      <trkpt lat="49.20173" lon="-0.00798">
        <ele>117.6</ele>
        <time>2022-07-07T19:48:24Z</time>
      </trkpt>
      <trkpt lat="49.20177" lon="-0.00817">
        <ele>119.1</ele>
        <time>2022-07-07T19:48:24Z</time>
      </trkpt>
      <trkpt lat="49.2018" lon="-0.00836">
        <ele>120.3</ele>
        <time>2022-07-07T19:48:24Z</time>
      </trkpt>
      <trkpt lat="49.20182" lon="-0.00852">
        <ele>121.1</ele>
        <time>2022-07-07T19:48:24Z</time>
      </trkpt>
      <trkpt lat="49.20192" lon="-0.01009">
        <ele>126.8</ele>
        <time>2022-07-07T19:48:24Z</time>
      </trkpt>
      <trkpt lat="49.20198" lon="-0.01097">
        <ele>132.1</ele>
        <time>2022-07-07T19:48:24Z</time>
      </trkpt>
      <trkpt lat="49.20201" lon="-0.01184">
        <ele>132.5</ele>
        <time>2022-07-07T19:48:24Z</time>
      </trkpt>
      <trkpt lat="49.20203" lon="-0.012">
        <ele>133.4</ele>
        <time>2022-07-07T19:48:24Z</time>
      </trkpt>
      <trkpt lat="49.20213" lon="-0.01295">
        <ele>135.3</ele>
        <time>2022-07-07T19:48:24Z</time>
      </trkpt>
      <trkpt lat="49.20216" lon="-0.01313">
        <ele>135.9</ele>
        <time>2022-07-07T19:48:24Z</time>
      </trkpt>
      <trkpt lat="49.2023" lon="-0.01414">
        <ele>138.9</ele>
        <time>2022-07-07T19:48:24Z</time>
      </trkpt>
      <trkpt lat="49.20239" lon="-0.01482">
        <ele>140</ele>
        <time>2022-07-07T19:48:24Z</time>
      </trkpt>
      <trkpt lat="49.20242" lon="-0.01495">
        <ele>140.3</ele>
        <time>2022-07-07T19:48:24Z</time>
      </trkpt>
      <trkpt lat="49.20254" lon="-0.01553">
        <ele>140.9</ele>
        <time>2022-07-07T19:48:24Z</time>
      </trkpt>
      <trkpt lat="49.20267" lon="-0.0161">
        <ele>140.8</ele>
        <time>2022-07-07T19:48:24Z</time>
      </trkpt>
      <trkpt lat="49.20279" lon="-0.01657">
        <ele>140.9</ele>
        <time>2022-07-07T19:48:24Z</time>
      </trkpt>
      <trkpt lat="49.20294" lon="-0.01725">
        <ele>141.2</ele>
        <time>2022-07-07T19:48:24Z</time>
      </trkpt>
      <trkpt lat="49.20301" lon="-0.01776">
        <ele>141.4</ele>
        <time>2022-07-07T19:48:24Z</time>
      </trkpt>
      <trkpt lat="49.20302" lon="-0.01792">
        <ele>141.5</ele>
        <time>2022-07-07T19:48:24Z</time>
      </trkpt>
      <trkpt lat="49.20305" lon="-0.01817">
        <ele>141.5</ele>
        <time>2022-07-07T19:48:24Z</time>
      </trkpt>
      <trkpt lat="49.20306" lon="-0.01836">
        <ele>141.3</ele>
        <time>2022-07-07T19:48:24Z</time>
      </trkpt>
      <trkpt lat="49.2031" lon="-0.01872">
        <ele>141.4</ele>
        <time>2022-07-07T19:48:24Z</time>
      </trkpt>
      <trkpt lat="49.20319" lon="-0.01937">
        <ele>141.1</ele>
        <time>2022-07-07T19:48:24Z</time>
      </trkpt>
      <trkpt lat="49.20322" lon="-0.01952">
        <ele>141.1</ele>
        <time>2022-07-07T19:48:24Z</time>
      </trkpt>
      <trkpt lat="49.20343" lon="-0.02017">
        <ele>141.1</ele>
        <time>2022-07-07T19:48:24Z</time>
      </trkpt>
      <trkpt lat="49.20347" lon="-0.02029">
        <ele>141.1</ele>
        <time>2022-07-07T19:48:24Z</time>
      </trkpt>
      <trkpt lat="49.20362" lon="-0.02083">
        <ele>140.6</ele>
        <time>2022-07-07T19:48:24Z</time>
      </trkpt>
      <trkpt lat="49.20371" lon="-0.02108">
        <ele>140.4</ele>
        <time>2022-07-07T19:48:24Z</time>
      </trkpt>
      <trkpt lat="49.20378" lon="-0.02122">
        <ele>140.4</ele>
        <time>2022-07-07T19:48:24Z</time>
      </trkpt>
      <trkpt lat="49.20385" lon="-0.02136">
        <ele>140.3</ele>
        <time>2022-07-07T19:48:24Z</time>
      </trkpt>
      <trkpt lat="49.204" lon="-0.02154">
        <ele>140.5</ele>
        <time>2022-07-07T19:48:24Z</time>
      </trkpt>
      <trkpt lat="49.20405" lon="-0.02158">
        <ele>140.5</ele>
        <time>2022-07-07T19:48:24Z</time>
      </trkpt>
      <trkpt lat="49.20418" lon="-0.02163">
        <ele>140.2</ele>
        <time>2022-07-07T19:48:24Z</time>
      </trkpt>
      <trkpt lat="49.20426" lon="-0.02164">
        <ele>140</ele>
        <time>2022-07-07T19:48:24Z</time>
      </trkpt>
      <trkpt lat="49.20525" lon="-0.02156">
        <ele>139.6</ele>
        <time>2022-07-07T19:48:24Z</time>
      </trkpt>
      <trkpt lat="49.20653" lon="-0.02145">
        <ele>140.1</ele>
        <time>2022-07-07T19:48:24Z</time>
      </trkpt>
      <trkpt lat="49.20732" lon="-0.02137">
        <ele>138.9</ele>
        <time>2022-07-07T19:48:24Z</time>
      </trkpt>
      <trkpt lat="49.2075" lon="-0.02136">
        <ele>138.5</ele>
        <time>2022-07-07T19:48:24Z</time>
      </trkpt>
      <trkpt lat="49.20789" lon="-0.02135">
        <ele>137.9</ele>
        <time>2022-07-07T19:48:24Z</time>
      </trkpt>
      <trkpt lat="49.20807" lon="-0.02134">
        <ele>137.4</ele>
        <time>2022-07-07T19:48:24Z</time>
      </trkpt>
      <trkpt lat="49.20818" lon="-0.02134">
        <ele>137</ele>
        <time>2022-07-07T19:48:24Z</time>
      </trkpt>
      <trkpt lat="49.20889" lon="-0.02132">
        <ele>135.9</ele>
        <time>2022-07-07T19:48:24Z</time>
      </trkpt>
      <trkpt lat="49.20915" lon="-0.02132">
        <ele>135.2</ele>
        <time>2022-07-07T19:48:24Z</time>
      </trkpt>
      <trkpt lat="49.20949" lon="-0.02133">
        <ele>134.2</ele>
        <time>2022-07-07T19:48:24Z</time>
      </trkpt>
      <trkpt lat="49.20977" lon="-0.02137">
        <ele>132.8</ele>
        <time>2022-07-07T19:48:24Z</time>
      </trkpt>
      <trkpt lat="49.20989" lon="-0.02143">
        <ele>132.6</ele>
        <time>2022-07-07T19:48:24Z</time>
      </trkpt>
      <trkpt lat="49.21" lon="-0.02153">
        <ele>132.5</ele>
        <time>2022-07-07T19:48:24Z</time>
      </trkpt>
      <trkpt lat="49.2101" lon="-0.02166">
        <ele>132.2</ele>
        <time>2022-07-07T19:48:24Z</time>
      </trkpt>
      <trkpt lat="49.21026" lon="-0.02199">
        <ele>131.2</ele>
        <time>2022-07-07T19:48:24Z</time>
      </trkpt>
      <trkpt lat="49.21041" lon="-0.02233">
        <ele>130.4</ele>
        <time>2022-07-07T19:48:24Z</time>
      </trkpt>
      <trkpt lat="49.21051" lon="-0.02257">
        <ele>129.9</ele>
        <time>2022-07-07T19:48:24Z</time>
      </trkpt>
      <trkpt lat="49.2106" lon="-0.02274">
        <ele>129.2</ele>
        <time>2022-07-07T19:48:24Z</time>
      </trkpt>
      <trkpt lat="49.21071" lon="-0.02292">
        <ele>128.8</ele>
        <time>2022-07-07T19:48:24Z</time>
      </trkpt>
      <trkpt lat="49.21084" lon="-0.02309">
        <ele>128.1</ele>
        <time>2022-07-07T19:48:24Z</time>
      </trkpt>
      <trkpt lat="49.21091" lon="-0.02321">
        <ele>127.7</ele>
        <time>2022-07-07T19:48:24Z</time>
      </trkpt>
      <trkpt lat="49.21129" lon="-0.02407">
        <ele>124.7</ele>
        <time>2022-07-07T19:48:24Z</time>
      </trkpt>
      <trkpt lat="49.21135" lon="-0.02421">
        <ele>124.4</ele>
        <time>2022-07-07T19:48:24Z</time>
      </trkpt>
      <trkpt lat="49.2115" lon="-0.02446">
        <ele>124.8</ele>
        <time>2022-07-07T19:48:24Z</time>
      </trkpt>
      <trkpt lat="49.21174" lon="-0.02478">
        <ele>126</ele>
        <time>2022-07-07T19:48:24Z</time>
      </trkpt>
      <trkpt lat="49.21187" lon="-0.02492">
        <ele>126.3</ele>
        <time>2022-07-07T19:48:24Z</time>
      </trkpt>
      <trkpt lat="49.21199" lon="-0.02504">
        <ele>126.7</ele>
        <time>2022-07-07T19:48:24Z</time>
      </trkpt>
      <trkpt lat="49.21212" lon="-0.02514">
        <ele>127.1</ele>
        <time>2022-07-07T19:48:24Z</time>
      </trkpt>
      <trkpt lat="49.21224" lon="-0.02523">
        <ele>127.1</ele>
        <time>2022-07-07T19:48:24Z</time>
      </trkpt>
      <trkpt lat="49.21238" lon="-0.02532">
        <ele>127.2</ele>
        <time>2022-07-07T19:48:24Z</time>
      </trkpt>
      <trkpt lat="49.21265" lon="-0.02546">
        <ele>127</ele>
        <time>2022-07-07T19:48:24Z</time>
      </trkpt>
      <trkpt lat="49.21299" lon="-0.02561">
        <ele>126.6</ele>
        <time>2022-07-07T19:48:24Z</time>
      </trkpt>
      <trkpt lat="49.21329" lon="-0.02576">
        <ele>126.3</ele>
        <time>2022-07-07T19:48:24Z</time>
      </trkpt>
      <trkpt lat="49.21351" lon="-0.02587">
        <ele>126.2</ele>
        <time>2022-07-07T19:48:24Z</time>
      </trkpt>
      <trkpt lat="49.21364" lon="-0.02594">
        <ele>126</ele>
        <time>2022-07-07T19:48:24Z</time>
      </trkpt>
      <trkpt lat="49.2138" lon="-0.02606">
        <ele>125.7</ele>
        <time>2022-07-07T19:48:24Z</time>
      </trkpt>
      <trkpt lat="49.21405" lon="-0.02626">
        <ele>125.2</ele>
        <time>2022-07-07T19:48:24Z</time>
      </trkpt>
      <trkpt lat="49.2145" lon="-0.02663">
        <ele>124.2</ele>
        <time>2022-07-07T19:48:24Z</time>
      </trkpt>
      <trkpt lat="49.21481" lon="-0.02687">
        <ele>123</ele>
        <time>2022-07-07T19:48:24Z</time>
      </trkpt>
      <trkpt lat="49.21548" lon="-0.02743">
        <ele>120.9</ele>
        <time>2022-07-07T19:48:24Z</time>
      </trkpt>
      <trkpt lat="49.21569" lon="-0.02758">
        <ele>117.7</ele>
        <time>2022-07-07T19:48:24Z</time>
      </trkpt>
      <trkpt lat="49.21586" lon="-0.02769">
        <ele>116.5</ele>
        <time>2022-07-07T19:48:24Z</time>
      </trkpt>
      <trkpt lat="49.21614" lon="-0.0278">
        <ele>112.6</ele>
        <time>2022-07-07T19:48:24Z</time>
      </trkpt>
      <trkpt lat="49.21621" lon="-0.02782">
        <ele>112.3</ele>
        <time>2022-07-07T19:48:24Z</time>
      </trkpt>
      <trkpt lat="49.21637" lon="-0.02786">
        <ele>111</ele>
        <time>2022-07-07T19:48:24Z</time>
      </trkpt>
      <trkpt lat="49.21669" lon="-0.02786">
        <ele>107.5</ele>
        <time>2022-07-07T19:48:24Z</time>
      </trkpt>
      <trkpt lat="49.21701" lon="-0.02779">
        <ele>103</ele>
        <time>2022-07-07T19:48:24Z</time>
      </trkpt>
      <trkpt lat="49.21709" lon="-0.02775">
        <ele>102.1</ele>
        <time>2022-07-07T19:48:24Z</time>
      </trkpt>
      <trkpt lat="49.21749" lon="-0.02757">
        <ele>98.5</ele>
        <time>2022-07-07T19:48:24Z</time>
      </trkpt>
      <trkpt lat="49.2178" lon="-0.02744">
        <ele>95.2</ele>
        <time>2022-07-07T19:48:24Z</time>
      </trkpt>
      <trkpt lat="49.21883" lon="-0.02717">
        <ele>81.9</ele>
        <time>2022-07-07T19:48:24Z</time>
      </trkpt>
      <trkpt lat="49.21913" lon="-0.02707">
        <ele>78.6</ele>
        <time>2022-07-07T19:48:24Z</time>
      </trkpt>
      <trkpt lat="49.21948" lon="-0.02699">
        <ele>75.4</ele>
        <time>2022-07-07T19:48:24Z</time>
      </trkpt>
      <trkpt lat="49.21985" lon="-0.0269">
        <ele>72.5</ele>
        <time>2022-07-07T19:48:24Z</time>
      </trkpt>
      <trkpt lat="49.22014" lon="-0.02686">
        <ele>70.1</ele>
        <time>2022-07-07T19:48:24Z</time>
      </trkpt>
      <trkpt lat="49.22028" lon="-0.02685">
        <ele>68.9</ele>
        <time>2022-07-07T19:48:24Z</time>
      </trkpt>
      <trkpt lat="49.22041" lon="-0.02685">
        <ele>67.1</ele>
        <time>2022-07-07T19:48:24Z</time>
      </trkpt>
      <trkpt lat="49.22052" lon="-0.02685">
        <ele>65.5</ele>
        <time>2022-07-07T19:48:24Z</time>
      </trkpt>
      <trkpt lat="49.22064" lon="-0.02688">
        <ele>64.6</ele>
        <time>2022-07-07T19:48:24Z</time>
      </trkpt>
      <trkpt lat="49.22073" lon="-0.02692">
        <ele>64.2</ele>
        <time>2022-07-07T19:48:24Z</time>
      </trkpt>
      <trkpt lat="49.22086" lon="-0.02699">
        <ele>63.2</ele>
        <time>2022-07-07T19:48:24Z</time>
      </trkpt>
      <trkpt lat="49.221" lon="-0.02711">
        <ele>62.7</ele>
        <time>2022-07-07T19:48:24Z</time>
      </trkpt>
      <trkpt lat="49.22136" lon="-0.02748">
        <ele>62.2</ele>
        <time>2022-07-07T19:48:24Z</time>
      </trkpt>
      <trkpt lat="49.22153" lon="-0.02758">
        <ele>60.7</ele>
        <time>2022-07-07T19:48:24Z</time>
      </trkpt>
      <trkpt lat="49.22191" lon="-0.02779">
        <ele>56.6</ele>
        <time>2022-07-07T19:48:24Z</time>
      </trkpt>
      <trkpt lat="49.22217" lon="-0.02792">
        <ele>53</ele>
        <time>2022-07-07T19:48:24Z</time>
      </trkpt>
      <trkpt lat="49.22258" lon="-0.02811">
        <ele>49.2</ele>
        <time>2022-07-07T19:48:24Z</time>
      </trkpt>
      <trkpt lat="49.22271" lon="-0.02815">
        <ele>48.1</ele>
        <time>2022-07-07T19:48:24Z</time>
      </trkpt>
      <trkpt lat="49.22303" lon="-0.02828">
        <ele>46.3</ele>
        <time>2022-07-07T19:48:24Z</time>
      </trkpt>
      <trkpt lat="49.2233" lon="-0.02835">
        <ele>45.1</ele>
        <time>2022-07-07T19:48:24Z</time>
      </trkpt>
      <trkpt lat="49.2235" lon="-0.02844">
        <ele>44.5</ele>
        <time>2022-07-07T19:48:24Z</time>
      </trkpt>
      <trkpt lat="49.22377" lon="-0.02855">
        <ele>43.8</ele>
        <time>2022-07-07T19:48:24Z</time>
      </trkpt>
      <trkpt lat="49.22393" lon="-0.02864">
        <ele>44.1</ele>
        <time>2022-07-07T19:48:24Z</time>
      </trkpt>
      <trkpt lat="49.22419" lon="-0.02886">
        <ele>41.7</ele>
        <time>2022-07-07T19:48:24Z</time>
      </trkpt>
      <trkpt lat="49.22449" lon="-0.02911">
        <ele>38.7</ele>
        <time>2022-07-07T19:48:24Z</time>
      </trkpt>
      <trkpt lat="49.22473" lon="-0.02934">
        <ele>36.5</ele>
        <time>2022-07-07T19:48:24Z</time>
      </trkpt>
      <trkpt lat="49.22487" lon="-0.02951">
        <ele>35.9</ele>
        <time>2022-07-07T19:48:24Z</time>
      </trkpt>
      <trkpt lat="49.22497" lon="-0.02962">
        <ele>35.5</ele>
        <time>2022-07-07T19:48:24Z</time>
      </trkpt>
      <trkpt lat="49.22523" lon="-0.02995">
        <ele>34.2</ele>
        <time>2022-07-07T19:48:24Z</time>
      </trkpt>
      <trkpt lat="49.22538" lon="-0.03015">
        <ele>33.5</ele>
        <time>2022-07-07T19:48:24Z</time>
      </trkpt>
      <trkpt lat="49.2255" lon="-0.0303">
        <ele>33</ele>
        <time>2022-07-07T19:48:24Z</time>
      </trkpt>
      <trkpt lat="49.22562" lon="-0.03048">
        <ele>32.7</ele>
        <time>2022-07-07T19:48:24Z</time>
      </trkpt>
      <trkpt lat="49.22568" lon="-0.03059">
        <ele>32.6</ele>
        <time>2022-07-07T19:48:24Z</time>
      </trkpt>
      <trkpt lat="49.22575" lon="-0.03077">
        <ele>32.2</ele>
        <time>2022-07-07T19:48:24Z</time>
      </trkpt>
      <trkpt lat="49.22579" lon="-0.03092">
        <ele>32.2</ele>
        <time>2022-07-07T19:48:24Z</time>
      </trkpt>
      <trkpt lat="49.22624" lon="-0.03096">
        <ele>29.6</ele>
        <time>2022-07-07T19:48:24Z</time>
      </trkpt>
      <trkpt lat="49.22629" lon="-0.03096">
        <ele>29.4</ele>
        <time>2022-07-07T19:48:24Z</time>
      </trkpt>
      <trkpt lat="49.22646" lon="-0.03098">
        <ele>29.3</ele>
        <time>2022-07-07T19:48:24Z</time>
      </trkpt>
      <trkpt lat="49.22693" lon="-0.0309">
        <ele>29.8</ele>
        <time>2022-07-07T19:48:24Z</time>
      </trkpt>
      <trkpt lat="49.22711" lon="-0.03089">
        <ele>29.7</ele>
        <time>2022-07-07T19:48:24Z</time>
      </trkpt>
      <trkpt lat="49.22723" lon="-0.03093">
        <ele>29.7</ele>
        <time>2022-07-07T19:48:24Z</time>
      </trkpt>
      <trkpt lat="49.22735" lon="-0.03102">
        <ele>30.2</ele>
        <time>2022-07-07T19:48:24Z</time>
      </trkpt>
      <trkpt lat="49.22751" lon="-0.03123">
        <ele>31.5</ele>
        <time>2022-07-07T19:48:24Z</time>
      </trkpt>
      <trkpt lat="49.22771" lon="-0.03149">
        <ele>32.7</ele>
        <time>2022-07-07T19:48:24Z</time>
      </trkpt>
      <trkpt lat="49.22783" lon="-0.03158">
        <ele>33.8</ele>
        <time>2022-07-07T19:48:24Z</time>
      </trkpt>
      <trkpt lat="49.22798" lon="-0.03164">
        <ele>35.5</ele>
        <time>2022-07-07T19:48:24Z</time>
      </trkpt>
      <trkpt lat="49.22833" lon="-0.0317">
        <ele>39</ele>
        <time>2022-07-07T19:48:24Z</time>
      </trkpt>
      <trkpt lat="49.22848" lon="-0.0317">
        <ele>39.9</ele>
        <time>2022-07-07T19:48:24Z</time>
      </trkpt>
      <trkpt lat="49.22859" lon="-0.03166">
        <ele>41.1</ele>
        <time>2022-07-07T19:48:24Z</time>
      </trkpt>
      <trkpt lat="49.22866" lon="-0.03159">
        <ele>41.6</ele>
        <time>2022-07-07T19:48:24Z</time>
      </trkpt>
      <trkpt lat="49.22877" lon="-0.0315">
        <ele>42.4</ele>
        <time>2022-07-07T19:48:24Z</time>
      </trkpt>
      <trkpt lat="49.22882" lon="-0.03142">
        <ele>42.6</ele>
        <time>2022-07-07T19:48:24Z</time>
      </trkpt>
      <trkpt lat="49.22894" lon="-0.03113">
        <ele>44.1</ele>
        <time>2022-07-07T19:48:24Z</time>
      </trkpt>
      <trkpt lat="49.22905" lon="-0.03087">
        <ele>45.4</ele>
        <time>2022-07-07T19:48:24Z</time>
      </trkpt>
      <trkpt lat="49.22909" lon="-0.03073">
        <ele>45.5</ele>
        <time>2022-07-07T19:48:24Z</time>
      </trkpt>
      <trkpt lat="49.22917" lon="-0.0305">
        <ele>46.5</ele>
        <time>2022-07-07T19:48:24Z</time>
      </trkpt>
      <trkpt lat="49.22921" lon="-0.03034">
        <ele>47.1</ele>
        <time>2022-07-07T19:48:24Z</time>
      </trkpt>
      <trkpt lat="49.22946" lon="-0.02909">
        <ele>50.6</ele>
        <time>2022-07-07T19:48:24Z</time>
      </trkpt>
      <trkpt lat="49.22969" lon="-0.02892">
        <ele>52.7</ele>
        <time>2022-07-07T19:48:24Z</time>
      </trkpt>
      <trkpt lat="49.22983" lon="-0.02876">
        <ele>55.2</ele>
        <time>2022-07-07T19:48:24Z</time>
      </trkpt>
      <trkpt lat="49.22994" lon="-0.02869">
        <ele>56.5</ele>
        <time>2022-07-07T19:48:24Z</time>
      </trkpt>
      <trkpt lat="49.23015" lon="-0.02848">
        <ele>58.8</ele>
        <time>2022-07-07T19:48:24Z</time>
      </trkpt>
      <trkpt lat="49.23027" lon="-0.02835">
        <ele>60.2</ele>
        <time>2022-07-07T19:48:24Z</time>
      </trkpt>
      <trkpt lat="49.23041" lon="-0.02827">
        <ele>60.8</ele>
        <time>2022-07-07T19:48:24Z</time>
      </trkpt>
      <trkpt lat="49.23053" lon="-0.02814">
        <ele>61.8</ele>
        <time>2022-07-07T19:48:24Z</time>
      </trkpt>
      <trkpt lat="49.23064" lon="-0.02806">
        <ele>62.6</ele>
        <time>2022-07-07T19:48:24Z</time>
      </trkpt>
      <trkpt lat="49.23076" lon="-0.02794">
        <ele>63.3</ele>
        <time>2022-07-07T19:48:24Z</time>
      </trkpt>
      <trkpt lat="49.23083" lon="-0.02781">
        <ele>64.6</ele>
        <time>2022-07-07T19:48:24Z</time>
      </trkpt>
      <trkpt lat="49.23093" lon="-0.0277">
        <ele>66.1</ele>
        <time>2022-07-07T19:48:24Z</time>
      </trkpt>
      <trkpt lat="49.23098" lon="-0.02763">
        <ele>67.3</ele>
        <time>2022-07-07T19:48:24Z</time>
      </trkpt>
      <trkpt lat="49.23107" lon="-0.02771">
        <ele>66.2</ele>
        <time>2022-07-07T19:48:24Z</time>
      </trkpt>
      <trkpt lat="49.23118" lon="-0.02778">
        <ele>65.2</ele>
        <time>2022-07-07T19:48:24Z</time>
      </trkpt>
      <trkpt lat="49.23132" lon="-0.02783">
        <ele>64.5</ele>
        <time>2022-07-07T19:48:24Z</time>
      </trkpt>
      <trkpt lat="49.23159" lon="-0.02782">
        <ele>65.1</ele>
        <time>2022-07-07T19:48:24Z</time>
      </trkpt>
      <trkpt lat="49.23175" lon="-0.02783">
        <ele>65.9</ele>
        <time>2022-07-07T19:48:24Z</time>
      </trkpt>
      <trkpt lat="49.23181" lon="-0.02786">
        <ele>65.4</ele>
        <time>2022-07-07T19:48:24Z</time>
      </trkpt>
      <trkpt lat="49.23185" lon="-0.0279">
        <ele>64.7</ele>
        <time>2022-07-07T19:48:24Z</time>
      </trkpt>
      <trkpt lat="49.23193" lon="-0.02791">
        <ele>64.7</ele>
        <time>2022-07-07T19:48:24Z</time>
      </trkpt>
      <trkpt lat="49.23201" lon="-0.02788">
        <ele>65.3</ele>
        <time>2022-07-07T19:48:24Z</time>
      </trkpt>
      <trkpt lat="49.2321" lon="-0.02781">
        <ele>65.5</ele>
        <time>2022-07-07T19:48:24Z</time>
      </trkpt>
      <trkpt lat="49.23216" lon="-0.0278">
        <ele>66</ele>
        <time>2022-07-07T19:48:24Z</time>
      </trkpt>
      <trkpt lat="49.23225" lon="-0.02779">
        <ele>65.9</ele>
        <time>2022-07-07T19:48:24Z</time>
      </trkpt>
      <trkpt lat="49.23234" lon="-0.02779">
        <ele>65.8</ele>
        <time>2022-07-07T19:48:24Z</time>
      </trkpt>
      <trkpt lat="49.23242" lon="-0.02779">
        <ele>65.9</ele>
        <time>2022-07-07T19:48:24Z</time>
      </trkpt>
      <trkpt lat="49.23249" lon="-0.02779">
        <ele>66.1</ele>
        <time>2022-07-07T19:48:24Z</time>
      </trkpt>
      <trkpt lat="49.2326" lon="-0.02776">
        <ele>66.7</ele>
        <time>2022-07-07T19:48:24Z</time>
      </trkpt>
      <trkpt lat="49.23275" lon="-0.02768">
        <ele>66.9</ele>
        <time>2022-07-07T19:48:24Z</time>
      </trkpt>
      <trkpt lat="49.23282" lon="-0.02758">
        <ele>67.7</ele>
        <time>2022-07-07T19:48:24Z</time>
      </trkpt>
      <trkpt lat="49.23311" lon="-0.02746">
        <ele>68.2</ele>
        <time>2022-07-07T19:48:24Z</time>
      </trkpt>
      <trkpt lat="49.23325" lon="-0.02739">
        <ele>68.2</ele>
        <time>2022-07-07T19:48:24Z</time>
      </trkpt>
      <trkpt lat="49.23336" lon="-0.02739">
        <ele>68.5</ele>
        <time>2022-07-07T19:48:24Z</time>
      </trkpt>
      <trkpt lat="49.23358" lon="-0.02737">
        <ele>69.6</ele>
        <time>2022-07-07T19:48:24Z</time>
      </trkpt>
      <trkpt lat="49.23368" lon="-0.02762">
        <ele>67.1</ele>
        <time>2022-07-07T19:48:24Z</time>
      </trkpt>
      <trkpt lat="49.23367" lon="-0.02774">
        <ele>66.6</ele>
        <time>2022-07-07T19:48:24Z</time>
      </trkpt>
      <trkpt lat="49.23375" lon="-0.02833">
        <ele>64.3</ele>
        <time>2022-07-07T19:48:24Z</time>
      </trkpt>
      <trkpt lat="49.23384" lon="-0.02881">
        <ele>62.3</ele>
        <time>2022-07-07T19:48:24Z</time>
      </trkpt>
      <trkpt lat="49.23388" lon="-0.02896">
        <ele>61.1</ele>
        <time>2022-07-07T19:48:24Z</time>
      </trkpt>
      <trkpt lat="49.23393" lon="-0.02906">
        <ele>60.2</ele>
        <time>2022-07-07T19:48:24Z</time>
      </trkpt>
      <trkpt lat="49.23411" lon="-0.02935">
        <ele>58.8</ele>
        <time>2022-07-07T19:48:24Z</time>
      </trkpt>
      <trkpt lat="49.23423" lon="-0.02949">
        <ele>58.2</ele>
        <time>2022-07-07T19:48:24Z</time>
      </trkpt>
      <trkpt lat="49.23442" lon="-0.02972">
        <ele>57.3</ele>
        <time>2022-07-07T19:48:24Z</time>
      </trkpt>
      <trkpt lat="49.23471" lon="-0.03">
        <ele>57.2</ele>
        <time>2022-07-07T19:48:24Z</time>
      </trkpt>
      <trkpt lat="49.23506" lon="-0.03028">
        <ele>57.1</ele>
        <time>2022-07-07T19:48:24Z</time>
      </trkpt>
      <trkpt lat="49.23537" lon="-0.03056">
        <ele>55.1</ele>
        <time>2022-07-07T19:48:24Z</time>
      </trkpt>
      <trkpt lat="49.23565" lon="-0.03085">
        <ele>52.4</ele>
        <time>2022-07-07T19:48:24Z</time>
      </trkpt>
      <trkpt lat="49.23586" lon="-0.03104">
        <ele>50.5</ele>
        <time>2022-07-07T19:48:24Z</time>
      </trkpt>
      <trkpt lat="49.23598" lon="-0.03113">
        <ele>49.2</ele>
        <time>2022-07-07T19:48:24Z</time>
      </trkpt>
      <trkpt lat="49.23616" lon="-0.03122">
        <ele>47.5</ele>
        <time>2022-07-07T19:48:24Z</time>
      </trkpt>
      <trkpt lat="49.23623" lon="-0.03125">
        <ele>46.9</ele>
        <time>2022-07-07T19:48:24Z</time>
      </trkpt>
      <trkpt lat="49.2365" lon="-0.03135">
        <ele>45.6</ele>
        <time>2022-07-07T19:48:24Z</time>
      </trkpt>
      <trkpt lat="49.23674" lon="-0.03149">
        <ele>42.6</ele>
        <time>2022-07-07T19:48:24Z</time>
      </trkpt>
      <trkpt lat="49.23685" lon="-0.03155">
        <ele>41.4</ele>
        <time>2022-07-07T19:48:24Z</time>
      </trkpt>
      <trkpt lat="49.23701" lon="-0.03167">
        <ele>40.2</ele>
        <time>2022-07-07T19:48:24Z</time>
      </trkpt>
      <trkpt lat="49.23715" lon="-0.03125">
        <ele>40</ele>
        <time>2022-07-07T19:48:24Z</time>
      </trkpt>
      <trkpt lat="49.23779" lon="-0.02945">
        <ele>37</ele>
        <time>2022-07-07T19:48:24Z</time>
      </trkpt>
      <trkpt lat="49.23862" lon="-0.02704">
        <ele>32.7</ele>
        <time>2022-07-07T19:48:24Z</time>
      </trkpt>
      <trkpt lat="49.23916" lon="-0.02551">
        <ele>30.5</ele>
        <time>2022-07-07T19:48:24Z</time>
      </trkpt>
      <trkpt lat="49.23991" lon="-0.02339">
        <ele>29</ele>
        <time>2022-07-07T19:48:24Z</time>
      </trkpt>
      <trkpt lat="49.24033" lon="-0.02217">
        <ele>28.8</ele>
        <time>2022-07-07T19:48:24Z</time>
      </trkpt>
      <trkpt lat="49.24125" lon="-0.01955">
        <ele>32.1</ele>
        <time>2022-07-07T19:48:24Z</time>
      </trkpt>
      <trkpt lat="49.24175" lon="-0.01813">
        <ele>34.3</ele>
        <time>2022-07-07T19:48:24Z</time>
      </trkpt>
      <trkpt lat="49.24248" lon="-0.016">
        <ele>34.6</ele>
        <time>2022-07-07T19:48:24Z</time>
      </trkpt>
      <trkpt lat="49.24252" lon="-0.01589">
        <ele>34.3</ele>
        <time>2022-07-07T19:48:24Z</time>
      </trkpt>
      <trkpt lat="49.24319" lon="-0.01399">
        <ele>33.6</ele>
        <time>2022-07-07T19:48:24Z</time>
      </trkpt>
      <trkpt lat="49.24363" lon="-0.01274">
        <ele>31.8</ele>
        <time>2022-07-07T19:48:24Z</time>
      </trkpt>
      <trkpt lat="49.2442" lon="-0.01289">
        <ele>31.2</ele>
        <time>2022-07-07T19:48:24Z</time>
      </trkpt>
      <trkpt lat="49.24517" lon="-0.01316">
        <ele>33.6</ele>
        <time>2022-07-07T19:48:24Z</time>
      </trkpt>
      <trkpt lat="49.24557" lon="-0.01327">
        <ele>33.3</ele>
        <time>2022-07-07T19:48:24Z</time>
      </trkpt>
      <trkpt lat="49.24605" lon="-0.01341">
        <ele>32.1</ele>
        <time>2022-07-07T19:48:24Z</time>
      </trkpt>
      <trkpt lat="49.2461" lon="-0.01342">
        <ele>32</ele>
        <time>2022-07-07T19:48:24Z</time>
      </trkpt>
      <trkpt lat="49.24737" lon="-0.0138">
        <ele>27.5</ele>
        <time>2022-07-07T19:48:24Z</time>
      </trkpt>
      <trkpt lat="49.24747" lon="-0.01383">
        <ele>27.4</ele>
        <time>2022-07-07T19:48:24Z</time>
      </trkpt>
      <trkpt lat="49.24782" lon="-0.0139">
        <ele>27.3</ele>
        <time>2022-07-07T19:48:24Z</time>
      </trkpt>
      <trkpt lat="49.24791" lon="-0.01393">
        <ele>27.1</ele>
        <time>2022-07-07T19:48:24Z</time>
      </trkpt>
      <trkpt lat="49.24786" lon="-0.0137">
        <ele>26.9</ele>
        <time>2022-07-07T19:48:24Z</time>
      </trkpt>
      <trkpt lat="49.24777" lon="-0.0134">
        <ele>26.4</ele>
        <time>2022-07-07T19:48:24Z</time>
      </trkpt>
      <trkpt lat="49.24774" lon="-0.01329">
        <ele>26.3</ele>
        <time>2022-07-07T19:48:24Z</time>
      </trkpt>
      <trkpt lat="49.24768" lon="-0.01316">
        <ele>26.3</ele>
        <time>2022-07-07T19:48:24Z</time>
      </trkpt>
      <trkpt lat="49.2476" lon="-0.01304">
        <ele>26.1</ele>
        <time>2022-07-07T19:48:24Z</time>
      </trkpt>
      <trkpt lat="49.24756" lon="-0.01298">
        <ele>26</ele>
        <time>2022-07-07T19:48:24Z</time>
      </trkpt>
      <trkpt lat="49.24768" lon="-0.01293">
        <ele>26</ele>
        <time>2022-07-07T19:48:24Z</time>
      </trkpt>
      <trkpt lat="49.24778" lon="-0.01293">
        <ele>26</ele>
        <time>2022-07-07T19:48:24Z</time>
      </trkpt>
      <trkpt lat="49.24786" lon="-0.01295">
        <ele>26.2</ele>
        <time>2022-07-07T19:48:24Z</time>
      </trkpt>
      <trkpt lat="49.24795" lon="-0.01299">
        <ele>26.3</ele>
        <time>2022-07-07T19:48:24Z</time>
      </trkpt>
      <trkpt lat="49.2481" lon="-0.01311">
        <ele>26.5</ele>
        <time>2022-07-07T19:48:24Z</time>
      </trkpt>
      <trkpt lat="49.24818" lon="-0.01316">
        <ele>26.7</ele>
        <time>2022-07-07T19:48:24Z</time>
      </trkpt>
      <trkpt lat="49.24825" lon="-0.01315">
        <ele>26.7</ele>
        <time>2022-07-07T19:48:24Z</time>
      </trkpt>
      <trkpt lat="49.2483" lon="-0.01312">
        <ele>26.9</ele>
        <time>2022-07-07T19:48:24Z</time>
      </trkpt>
      <trkpt lat="49.24834" lon="-0.01307">
        <ele>27.1</ele>
        <time>2022-07-07T19:48:24Z</time>
      </trkpt>
      <trkpt lat="49.24841" lon="-0.01289">
        <ele>27.7</ele>
        <time>2022-07-07T19:48:24Z</time>
      </trkpt>
      <trkpt lat="49.24846" lon="-0.0127">
        <ele>28.7</ele>
        <time>2022-07-07T19:48:24Z</time>
      </trkpt>
      <trkpt lat="49.2485" lon="-0.01263">
        <ele>29.5</ele>
        <time>2022-07-07T19:48:24Z</time>
      </trkpt>
      <trkpt lat="49.24858" lon="-0.01261">
        <ele>30.5</ele>
        <time>2022-07-07T19:48:24Z</time>
      </trkpt>
      <trkpt lat="49.24867" lon="-0.01261">
        <ele>30.9</ele>
        <time>2022-07-07T19:48:24Z</time>
      </trkpt>
      <trkpt lat="49.2489" lon="-0.01264">
        <ele>32</ele>
        <time>2022-07-07T19:48:24Z</time>
      </trkpt>
      <trkpt lat="49.24899" lon="-0.01266">
        <ele>32.6</ele>
        <time>2022-07-07T19:48:24Z</time>
      </trkpt>
      <trkpt lat="49.24914" lon="-0.0127">
        <ele>33.5</ele>
        <time>2022-07-07T19:48:24Z</time>
      </trkpt>
      <trkpt lat="49.24945" lon="-0.01275">
        <ele>35.2</ele>
        <time>2022-07-07T19:48:24Z</time>
      </trkpt>
      <trkpt lat="49.24965" lon="-0.01277">
        <ele>36.5</ele>
        <time>2022-07-07T19:48:24Z</time>
      </trkpt>
      <trkpt lat="49.24976" lon="-0.01277">
        <ele>37</ele>
        <time>2022-07-07T19:48:24Z</time>
      </trkpt>
      <trkpt lat="49.24984" lon="-0.01275">
        <ele>37.5</ele>
        <time>2022-07-07T19:48:24Z</time>
      </trkpt>
      <trkpt lat="49.24995" lon="-0.01271">
        <ele>38.2</ele>
        <time>2022-07-07T19:48:24Z</time>
      </trkpt>
      <trkpt lat="49.25034" lon="-0.01251">
        <ele>40.8</ele>
        <time>2022-07-07T19:48:24Z</time>
      </trkpt>
      <trkpt lat="49.25088" lon="-0.01232">
        <ele>42</ele>
        <time>2022-07-07T19:48:24Z</time>
      </trkpt>
      <trkpt lat="49.25097" lon="-0.01231">
        <ele>42.7</ele>
        <time>2022-07-07T19:48:24Z</time>
      </trkpt>
      <trkpt lat="49.25113" lon="-0.0123">
        <ele>43.7</ele>
        <time>2022-07-07T19:48:24Z</time>
      </trkpt>
      <trkpt lat="49.25138" lon="-0.0123">
        <ele>45.3</ele>
        <time>2022-07-07T19:48:24Z</time>
      </trkpt>
      <trkpt lat="49.25169" lon="-0.01232">
        <ele>46.9</ele>
        <time>2022-07-07T19:48:24Z</time>
      </trkpt>
      <trkpt lat="49.25183" lon="-0.01236">
        <ele>47.5</ele>
        <time>2022-07-07T19:48:24Z</time>
      </trkpt>
      <trkpt lat="49.25195" lon="-0.01242">
        <ele>48.5</ele>
        <time>2022-07-07T19:48:24Z</time>
      </trkpt>
      <trkpt lat="49.25213" lon="-0.01255">
        <ele>49.6</ele>
        <time>2022-07-07T19:48:24Z</time>
      </trkpt>
      <trkpt lat="49.25219" lon="-0.01258">
        <ele>50.1</ele>
        <time>2022-07-07T19:48:24Z</time>
      </trkpt>
      <trkpt lat="49.25229" lon="-0.01263">
        <ele>50.5</ele>
        <time>2022-07-07T19:48:24Z</time>
      </trkpt>
      <trkpt lat="49.25254" lon="-0.0127">
        <ele>53</ele>
        <time>2022-07-07T19:48:24Z</time>
      </trkpt>
      <trkpt lat="49.25267" lon="-0.01272">
        <ele>54.3</ele>
        <time>2022-07-07T19:48:24Z</time>
      </trkpt>
      <trkpt lat="49.25277" lon="-0.01272">
        <ele>54.9</ele>
        <time>2022-07-07T19:48:24Z</time>
      </trkpt>
      <trkpt lat="49.25282" lon="-0.0127">
        <ele>55.3</ele>
        <time>2022-07-07T19:48:24Z</time>
      </trkpt>
      <trkpt lat="49.25291" lon="-0.01267">
        <ele>55.9</ele>
        <time>2022-07-07T19:48:24Z</time>
      </trkpt>
      <trkpt lat="49.25317" lon="-0.01253">
        <ele>59.8</ele>
        <time>2022-07-07T19:48:24Z</time>
      </trkpt>
      <trkpt lat="49.25334" lon="-0.01242">
        <ele>62.9</ele>
        <time>2022-07-07T19:48:24Z</time>
      </trkpt>
      <trkpt lat="49.25342" lon="-0.0124">
        <ele>63.8</ele>
        <time>2022-07-07T19:48:24Z</time>
      </trkpt>
      <trkpt lat="49.25384" lon="-0.0124">
        <ele>71.3</ele>
        <time>2022-07-07T19:48:24Z</time>
      </trkpt>
      <trkpt lat="49.25406" lon="-0.01238">
        <ele>76</ele>
        <time>2022-07-07T19:48:24Z</time>
      </trkpt>
      <trkpt lat="49.25421" lon="-0.01238">
        <ele>80.2</ele>
        <time>2022-07-07T19:48:24Z</time>
      </trkpt>
      <trkpt lat="49.25435" lon="-0.0124">
        <ele>83.5</ele>
        <time>2022-07-07T19:48:24Z</time>
      </trkpt>
      <trkpt lat="49.25443" lon="-0.01243">
        <ele>85.9</ele>
        <time>2022-07-07T19:48:24Z</time>
      </trkpt>
      <trkpt lat="49.25455" lon="-0.01251">
        <ele>89.6</ele>
        <time>2022-07-07T19:48:24Z</time>
      </trkpt>
      <trkpt lat="49.25485" lon="-0.01268">
        <ele>96.2</ele>
        <time>2022-07-07T19:48:24Z</time>
      </trkpt>
      <trkpt lat="49.2549" lon="-0.0127">
        <ele>96.9</ele>
        <time>2022-07-07T19:48:24Z</time>
      </trkpt>
      <trkpt lat="49.25503" lon="-0.01273">
        <ele>98.6</ele>
        <time>2022-07-07T19:48:24Z</time>
      </trkpt>
      <trkpt lat="49.25519" lon="-0.01275">
        <ele>100.2</ele>
        <time>2022-07-07T19:48:24Z</time>
      </trkpt>
      <trkpt lat="49.25543" lon="-0.01284">
        <ele>102.5</ele>
        <time>2022-07-07T19:48:24Z</time>
      </trkpt>
      <trkpt lat="49.25596" lon="-0.01294">
        <ele>111</ele>
        <time>2022-07-07T19:48:24Z</time>
      </trkpt>
      <trkpt lat="49.25608" lon="-0.01299">
        <ele>112.6</ele>
        <time>2022-07-07T19:48:24Z</time>
      </trkpt>
      <trkpt lat="49.25614" lon="-0.01301">
        <ele>113.4</ele>
        <time>2022-07-07T19:48:24Z</time>
      </trkpt>
      <trkpt lat="49.2563" lon="-0.01302">
        <ele>113.7</ele>
        <time>2022-07-07T19:48:24Z</time>
      </trkpt>
      <trkpt lat="49.25639" lon="-0.01299">
        <ele>114</ele>
        <time>2022-07-07T19:48:24Z</time>
      </trkpt>
      <trkpt lat="49.2565" lon="-0.01295">
        <ele>114.4</ele>
        <time>2022-07-07T19:48:24Z</time>
      </trkpt>
      <trkpt lat="49.25714" lon="-0.01269">
        <ele>117.9</ele>
        <time>2022-07-07T19:48:24Z</time>
      </trkpt>
      <trkpt lat="49.2573" lon="-0.01263">
        <ele>118</ele>
        <time>2022-07-07T19:48:24Z</time>
      </trkpt>
      <trkpt lat="49.25737" lon="-0.01258">
        <ele>118.2</ele>
        <time>2022-07-07T19:48:24Z</time>
      </trkpt>
      <trkpt lat="49.25781" lon="-0.01224">
        <ele>123.6</ele>
        <time>2022-07-07T19:48:24Z</time>
      </trkpt>
      <trkpt lat="49.25823" lon="-0.01191">
        <ele>124.6</ele>
        <time>2022-07-07T19:48:24Z</time>
      </trkpt>
      <trkpt lat="49.25837" lon="-0.01176">
        <ele>125.4</ele>
        <time>2022-07-07T19:48:24Z</time>
      </trkpt>
      <trkpt lat="49.25841" lon="-0.01172">
        <ele>125.4</ele>
        <time>2022-07-07T19:48:24Z</time>
      </trkpt>
      <trkpt lat="49.25845" lon="-0.01162">
        <ele>125.2</ele>
        <time>2022-07-07T19:48:24Z</time>
      </trkpt>
      <trkpt lat="49.25855" lon="-0.01069">
        <ele>122.4</ele>
        <time>2022-07-07T19:48:24Z</time>
      </trkpt>
      <trkpt lat="49.25857" lon="-0.01043">
        <ele>120.2</ele>
        <time>2022-07-07T19:48:24Z</time>
      </trkpt>
      <trkpt lat="49.2586" lon="-0.00998">
        <ele>120.1</ele>
        <time>2022-07-07T19:48:24Z</time>
      </trkpt>
      <trkpt lat="49.2586" lon="-0.00987">
        <ele>120.2</ele>
        <time>2022-07-07T19:48:24Z</time>
      </trkpt>
      <trkpt lat="49.25861" lon="-0.00957">
        <ele>120.3</ele>
        <time>2022-07-07T19:48:24Z</time>
      </trkpt>
      <trkpt lat="49.25861" lon="-0.00879">
        <ele>121.5</ele>
        <time>2022-07-07T19:48:24Z</time>
      </trkpt>
      <trkpt lat="49.25863" lon="-0.00867">
        <ele>121.8</ele>
        <time>2022-07-07T19:48:24Z</time>
      </trkpt>
      <trkpt lat="49.25864" lon="-0.00852">
        <ele>121.3</ele>
        <time>2022-07-07T19:48:24Z</time>
      </trkpt>
      <trkpt lat="49.25874" lon="-0.00798">
        <ele>118.9</ele>
        <time>2022-07-07T19:48:24Z</time>
      </trkpt>
      <trkpt lat="49.25888" lon="-0.00755">
        <ele>121.8</ele>
        <time>2022-07-07T19:48:24Z</time>
      </trkpt>
      <trkpt lat="49.25911" lon="-0.0069">
        <ele>123.8</ele>
        <time>2022-07-07T19:48:24Z</time>
      </trkpt>
      <trkpt lat="49.25923" lon="-0.00661">
        <ele>124.3</ele>
        <time>2022-07-07T19:48:24Z</time>
      </trkpt>
      <trkpt lat="49.25943" lon="-0.00693">
        <ele>124.8</ele>
        <time>2022-07-07T19:48:24Z</time>
      </trkpt>
      <trkpt lat="49.25955" lon="-0.00714">
        <ele>124.9</ele>
        <time>2022-07-07T19:48:24Z</time>
      </trkpt>
      <trkpt lat="49.25973" lon="-0.00752">
        <ele>124.6</ele>
        <time>2022-07-07T19:48:24Z</time>
      </trkpt>
      <trkpt lat="49.26002" lon="-0.00836">
        <ele>125.1</ele>
        <time>2022-07-07T19:48:24Z</time>
      </trkpt>
      <trkpt lat="49.26015" lon="-0.00861">
        <ele>125.3</ele>
        <time>2022-07-07T19:48:24Z</time>
      </trkpt>
      <trkpt lat="49.26025" lon="-0.0087">
        <ele>125.7</ele>
        <time>2022-07-07T19:48:24Z</time>
      </trkpt>
      <trkpt lat="49.26088" lon="-0.00918">
        <ele>127.2</ele>
        <time>2022-07-07T19:48:24Z</time>
      </trkpt>
      <trkpt lat="49.261" lon="-0.00928">
        <ele>128.2</ele>
        <time>2022-07-07T19:48:24Z</time>
      </trkpt>
      <trkpt lat="49.26126" lon="-0.00946">
        <ele>129.3</ele>
        <time>2022-07-07T19:48:24Z</time>
      </trkpt>
      <trkpt lat="49.26141" lon="-0.00952">
        <ele>129.7</ele>
        <time>2022-07-07T19:48:24Z</time>
      </trkpt>
      <trkpt lat="49.26236" lon="-0.00989">
        <ele>132.1</ele>
        <time>2022-07-07T19:48:24Z</time>
      </trkpt>
      <trkpt lat="49.26268" lon="-0.01">
        <ele>132.2</ele>
        <time>2022-07-07T19:48:24Z</time>
      </trkpt>
      <trkpt lat="49.26305" lon="-0.01008">
        <ele>131.4</ele>
        <time>2022-07-07T19:48:24Z</time>
      </trkpt>
      <trkpt lat="49.26339" lon="-0.01011">
        <ele>131.1</ele>
        <time>2022-07-07T19:48:24Z</time>
      </trkpt>
      <trkpt lat="49.26365" lon="-0.01019">
        <ele>131.4</ele>
        <time>2022-07-07T19:48:24Z</time>
      </trkpt>
      <trkpt lat="49.26386" lon="-0.01027">
        <ele>131.2</ele>
        <time>2022-07-07T19:48:24Z</time>
      </trkpt>
      <trkpt lat="49.26394" lon="-0.01033">
        <ele>131.1</ele>
        <time>2022-07-07T19:48:24Z</time>
      </trkpt>
      <trkpt lat="49.26448" lon="-0.01049">
        <ele>131.9</ele>
        <time>2022-07-07T19:48:24Z</time>
      </trkpt>
      <trkpt lat="49.26463" lon="-0.0105">
        <ele>132.2</ele>
        <time>2022-07-07T19:48:24Z</time>
      </trkpt>
      <trkpt lat="49.26499" lon="-0.01043">
        <ele>132.8</ele>
        <time>2022-07-07T19:48:24Z</time>
      </trkpt>
      <trkpt lat="49.26511" lon="-0.01041">
        <ele>132.7</ele>
        <time>2022-07-07T19:48:24Z</time>
      </trkpt>
      <trkpt lat="49.26526" lon="-0.01041">
        <ele>132.7</ele>
        <time>2022-07-07T19:48:24Z</time>
      </trkpt>
      <trkpt lat="49.26543" lon="-0.01044">
        <ele>132.9</ele>
        <time>2022-07-07T19:48:24Z</time>
      </trkpt>
      <trkpt lat="49.26561" lon="-0.0105">
        <ele>133.2</ele>
        <time>2022-07-07T19:48:24Z</time>
      </trkpt>
      <trkpt lat="49.2659" lon="-0.0107">
        <ele>133.7</ele>
        <time>2022-07-07T19:48:24Z</time>
      </trkpt>
      <trkpt lat="49.26612" lon="-0.0109">
        <ele>134.3</ele>
        <time>2022-07-07T19:48:24Z</time>
      </trkpt>
      <trkpt lat="49.26623" lon="-0.01099">
        <ele>134.6</ele>
        <time>2022-07-07T19:48:24Z</time>
      </trkpt>
      <trkpt lat="49.26641" lon="-0.01113">
        <ele>134.7</ele>
        <time>2022-07-07T19:48:24Z</time>
      </trkpt>
      <trkpt lat="49.26678" lon="-0.0114">
        <ele>134.3</ele>
        <time>2022-07-07T19:48:24Z</time>
      </trkpt>
      <trkpt lat="49.26713" lon="-0.01162">
        <ele>134.8</ele>
        <time>2022-07-07T19:48:24Z</time>
      </trkpt>
      <trkpt lat="49.26756" lon="-0.01185">
        <ele>135.3</ele>
        <time>2022-07-07T19:48:24Z</time>
      </trkpt>
      <trkpt lat="49.26778" lon="-0.012">
        <ele>136.2</ele>
        <time>2022-07-07T19:48:24Z</time>
      </trkpt>
      <trkpt lat="49.26798" lon="-0.01222">
        <ele>137.2</ele>
        <time>2022-07-07T19:48:24Z</time>
      </trkpt>
      <trkpt lat="49.26806" lon="-0.0123">
        <ele>137.3</ele>
        <time>2022-07-07T19:48:24Z</time>
      </trkpt>
      <trkpt lat="49.26828" lon="-0.01263">
        <ele>137.6</ele>
        <time>2022-07-07T19:48:24Z</time>
      </trkpt>
      <trkpt lat="49.26841" lon="-0.01274">
        <ele>137.6</ele>
        <time>2022-07-07T19:48:24Z</time>
      </trkpt>
      <trkpt lat="49.26867" lon="-0.01287">
        <ele>137.6</ele>
        <time>2022-07-07T19:48:24Z</time>
      </trkpt>
      <trkpt lat="49.26874" lon="-0.01289">
        <ele>137.6</ele>
        <time>2022-07-07T19:48:24Z</time>
      </trkpt>
      <trkpt lat="49.26891" lon="-0.01293">
        <ele>137.8</ele>
        <time>2022-07-07T19:48:24Z</time>
      </trkpt>
      <trkpt lat="49.26902" lon="-0.01293">
        <ele>137.8</ele>
        <time>2022-07-07T19:48:24Z</time>
      </trkpt>
      <trkpt lat="49.26953" lon="-0.01295">
        <ele>138</ele>
        <time>2022-07-07T19:48:24Z</time>
      </trkpt>
      <trkpt lat="49.26964" lon="-0.01299">
        <ele>137.9</ele>
        <time>2022-07-07T19:48:24Z</time>
      </trkpt>
      <trkpt lat="49.26984" lon="-0.01307">
        <ele>138</ele>
        <time>2022-07-07T19:48:24Z</time>
      </trkpt>
      <trkpt lat="49.27042" lon="-0.01338">
        <ele>139.4</ele>
        <time>2022-07-07T19:48:24Z</time>
      </trkpt>
      <trkpt lat="49.27058" lon="-0.0135">
        <ele>139.4</ele>
        <time>2022-07-07T19:48:24Z</time>
      </trkpt>
      <trkpt lat="49.27064" lon="-0.01355">
        <ele>139.2</ele>
        <time>2022-07-07T19:48:24Z</time>
      </trkpt>
      <trkpt lat="49.27073" lon="-0.01365">
        <ele>139.4</ele>
        <time>2022-07-07T19:48:24Z</time>
      </trkpt>
      <trkpt lat="49.27137" lon="-0.01426">
        <ele>138.5</ele>
        <time>2022-07-07T19:48:24Z</time>
      </trkpt>
      <trkpt lat="49.27146" lon="-0.0143">
        <ele>138.8</ele>
        <time>2022-07-07T19:48:24Z</time>
      </trkpt>
      <trkpt lat="49.2716" lon="-0.01428">
        <ele>139</ele>
        <time>2022-07-07T19:48:24Z</time>
      </trkpt>
      <trkpt lat="49.2717" lon="-0.01425">
        <ele>139.1</ele>
        <time>2022-07-07T19:48:24Z</time>
      </trkpt>
      <trkpt lat="49.27242" lon="-0.01398">
        <ele>140.3</ele>
        <time>2022-07-07T19:48:24Z</time>
      </trkpt>
      <trkpt lat="49.27286" lon="-0.01384">
        <ele>140.9</ele>
        <time>2022-07-07T19:48:24Z</time>
      </trkpt>
      <trkpt lat="49.27315" lon="-0.01375">
        <ele>140.9</ele>
        <time>2022-07-07T19:48:24Z</time>
      </trkpt>
      <trkpt lat="49.27472" lon="-0.01346">
        <ele>142.4</ele>
        <time>2022-07-07T19:48:24Z</time>
      </trkpt>
      <trkpt lat="49.27544" lon="-0.01331">
        <ele>143</ele>
        <time>2022-07-07T19:48:24Z</time>
      </trkpt>
      <trkpt lat="49.27573" lon="-0.01327">
        <ele>142.9</ele>
        <time>2022-07-07T19:48:24Z</time>
      </trkpt>
      <trkpt lat="49.27595" lon="-0.01324">
        <ele>143.1</ele>
        <time>2022-07-07T19:48:24Z</time>
      </trkpt>
      <trkpt lat="49.27602" lon="-0.01326">
        <ele>143.2</ele>
        <time>2022-07-07T19:48:24Z</time>
      </trkpt>
      <trkpt lat="49.27612" lon="-0.01331">
        <ele>143</ele>
        <time>2022-07-07T19:48:24Z</time>
      </trkpt>
      <trkpt lat="49.27658" lon="-0.01263">
        <ele>142.6</ele>
        <time>2022-07-07T19:48:24Z</time>
      </trkpt>
      <trkpt lat="49.27723" lon="-0.01171">
        <ele>141.7</ele>
        <time>2022-07-07T19:48:24Z</time>
      </trkpt>
      <trkpt lat="49.27756" lon="-0.01119">
        <ele>141.2</ele>
        <time>2022-07-07T19:48:24Z</time>
      </trkpt>
      <trkpt lat="49.27771" lon="-0.01089">
        <ele>140.8</ele>
        <time>2022-07-07T19:48:24Z</time>
      </trkpt>
      <trkpt lat="49.27776" lon="-0.01079">
        <ele>140.7</ele>
        <time>2022-07-07T19:48:24Z</time>
      </trkpt>
      <trkpt lat="49.27798" lon="-0.01029">
        <ele>140.1</ele>
        <time>2022-07-07T19:48:24Z</time>
      </trkpt>
      <trkpt lat="49.27815" lon="-0.00981">
        <ele>139.7</ele>
        <time>2022-07-07T19:48:24Z</time>
      </trkpt>
      <trkpt lat="49.27829" lon="-0.00932">
        <ele>139.5</ele>
        <time>2022-07-07T19:48:24Z</time>
      </trkpt>
      <trkpt lat="49.27841" lon="-0.00884">
        <ele>139.2</ele>
        <time>2022-07-07T19:48:24Z</time>
      </trkpt>
      <trkpt lat="49.27848" lon="-0.00846">
        <ele>139</ele>
        <time>2022-07-07T19:48:24Z</time>
      </trkpt>
      <trkpt lat="49.27853" lon="-0.00804">
        <ele>138.7</ele>
        <time>2022-07-07T19:48:24Z</time>
      </trkpt>
      <trkpt lat="49.27867" lon="-0.00695">
        <ele>138.1</ele>
        <time>2022-07-07T19:48:24Z</time>
      </trkpt>
      <trkpt lat="49.27868" lon="-0.00685">
        <ele>138</ele>
        <time>2022-07-07T19:48:24Z</time>
      </trkpt>
      <trkpt lat="49.27872" lon="-0.00641">
        <ele>138.3</ele>
        <time>2022-07-07T19:48:24Z</time>
      </trkpt>
      <trkpt lat="49.27873" lon="-0.00614">
        <ele>138.1</ele>
        <time>2022-07-07T19:48:24Z</time>
      </trkpt>
      <trkpt lat="49.27873" lon="-0.00601">
        <ele>138</ele>
        <time>2022-07-07T19:48:24Z</time>
      </trkpt>
      <trkpt lat="49.27875" lon="-0.00553">
        <ele>138.4</ele>
        <time>2022-07-07T19:48:24Z</time>
      </trkpt>
      <trkpt lat="49.27875" lon="-0.00526">
        <ele>138.5</ele>
        <time>2022-07-07T19:48:24Z</time>
      </trkpt>
      <trkpt lat="49.27876" lon="-0.00501">
        <ele>138.8</ele>
        <time>2022-07-07T19:48:24Z</time>
      </trkpt>
      <trkpt lat="49.27878" lon="-0.00473">
        <ele>139.3</ele>
        <time>2022-07-07T19:48:24Z</time>
      </trkpt>
      <trkpt lat="49.27882" lon="-0.00441">
        <ele>139.6</ele>
        <time>2022-07-07T19:48:24Z</time>
      </trkpt>
      <trkpt lat="49.27887" lon="-0.0042">
        <ele>140</ele>
        <time>2022-07-07T19:48:24Z</time>
      </trkpt>
      <trkpt lat="49.27889" lon="-0.00408">
        <ele>140.2</ele>
        <time>2022-07-07T19:48:24Z</time>
      </trkpt>
      <trkpt lat="49.279" lon="-0.00375">
        <ele>141.3</ele>
        <time>2022-07-07T19:48:24Z</time>
      </trkpt>
      <trkpt lat="49.27903" lon="-0.00365">
        <ele>141.7</ele>
        <time>2022-07-07T19:48:24Z</time>
      </trkpt>
      <trkpt lat="49.27906" lon="-0.00358">
        <ele>142</ele>
        <time>2022-07-07T19:48:24Z</time>
      </trkpt>
      <trkpt lat="49.2791" lon="-0.00349">
        <ele>142.3</ele>
        <time>2022-07-07T19:48:24Z</time>
      </trkpt>
      <trkpt lat="49.27921" lon="-0.00328">
        <ele>143.1</ele>
        <time>2022-07-07T19:48:24Z</time>
      </trkpt>
      <trkpt lat="49.27934" lon="-0.00306">
        <ele>143.9</ele>
        <time>2022-07-07T19:48:24Z</time>
      </trkpt>
      <trkpt lat="49.27949" lon="-0.00283">
        <ele>144.8</ele>
        <time>2022-07-07T19:48:24Z</time>
      </trkpt>
      <trkpt lat="49.27983" lon="-0.00235">
        <ele>145.9</ele>
        <time>2022-07-07T19:48:24Z</time>
      </trkpt>
      <trkpt lat="49.27994" lon="-0.00218">
        <ele>146.4</ele>
        <time>2022-07-07T19:48:24Z</time>
      </trkpt>
      <trkpt lat="49.28014" lon="-0.00191">
        <ele>146.9</ele>
        <time>2022-07-07T19:48:24Z</time>
      </trkpt>
      <trkpt lat="49.28028" lon="-0.0017">
        <ele>147.2</ele>
        <time>2022-07-07T19:48:24Z</time>
      </trkpt>
      <trkpt lat="49.28039" lon="-0.00156">
        <ele>147.4</ele>
        <time>2022-07-07T19:48:24Z</time>
      </trkpt>
      <trkpt lat="49.28049" lon="-0.00139">
        <ele>147.4</ele>
        <time>2022-07-07T19:48:24Z</time>
      </trkpt>
      <trkpt lat="49.28073" lon="-0.00102">
        <ele>147.3</ele>
        <time>2022-07-07T19:48:24Z</time>
      </trkpt>
      <trkpt lat="49.28098" lon="-0.00061">
        <ele>147.1</ele>
        <time>2022-07-07T19:48:24Z</time>
      </trkpt>
      <trkpt lat="49.28124" lon="-0.0002">
        <ele>147</ele>
        <time>2022-07-07T19:48:24Z</time>
      </trkpt>
      <trkpt lat="49.28132" lon="-0.00011">
        <ele>146.9</ele>
        <time>2022-07-07T19:48:24Z</time>
      </trkpt>
      <trkpt lat="49.28136" lon="-6.0E-5">
        <ele>146.8</ele>
        <time>2022-07-07T19:48:24Z</time>
      </trkpt>
      <trkpt lat="49.28141" lon="-3.0E-5">
        <ele>146.6</ele>
        <time>2022-07-07T19:48:24Z</time>
      </trkpt>
      <trkpt lat="49.28148" lon="0">
        <ele>146.6</ele>
        <time>2022-07-07T19:48:24Z</time>
      </trkpt>
      <trkpt lat="49.28155" lon="2.0E-5">
        <ele>146.3</ele>
        <time>2022-07-07T19:48:24Z</time>
      </trkpt>
      <trkpt lat="49.2816" lon="8.0E-5">
        <ele>146.2</ele>
        <time>2022-07-07T19:48:24Z</time>
      </trkpt>
      <trkpt lat="49.28163" lon="0.0002">
        <ele>146.1</ele>
        <time>2022-07-07T19:48:24Z</time>
      </trkpt>
      <trkpt lat="49.28165" lon="0.00028">
        <ele>146.1</ele>
        <time>2022-07-07T19:48:24Z</time>
      </trkpt>
      <trkpt lat="49.28167" lon="0.00036">
        <ele>145.9</ele>
        <time>2022-07-07T19:48:24Z</time>
      </trkpt>
      <trkpt lat="49.2817" lon="0.00043">
        <ele>145.8</ele>
        <time>2022-07-07T19:48:24Z</time>
      </trkpt>
      <trkpt lat="49.28173" lon="0.0005">
        <ele>145.6</ele>
        <time>2022-07-07T19:48:24Z</time>
      </trkpt>
      <trkpt lat="49.28176" lon="0.00056">
        <ele>145.4</ele>
        <time>2022-07-07T19:48:24Z</time>
      </trkpt>
      <trkpt lat="49.28179" lon="0.00064">
        <ele>145.4</ele>
        <time>2022-07-07T19:48:24Z</time>
      </trkpt>
      <trkpt lat="49.28221" lon="0.00122">
        <ele>143.7</ele>
        <time>2022-07-07T19:48:24Z</time>
      </trkpt>
      <trkpt lat="49.28254" lon="0.00168">
        <ele>142.6</ele>
        <time>2022-07-07T19:48:24Z</time>
      </trkpt>
      <trkpt lat="49.28293" lon="0.00226">
        <ele>141.5</ele>
        <time>2022-07-07T19:48:24Z</time>
      </trkpt>
      <trkpt lat="49.28348" lon="0.00306">
        <ele>139.4</ele>
        <time>2022-07-07T19:48:24Z</time>
      </trkpt>
      <trkpt lat="49.28393" lon="0.00373">
        <ele>137.6</ele>
        <time>2022-07-07T19:48:24Z</time>
      </trkpt>
      <trkpt lat="49.28411" lon="0.00399">
        <ele>137.2</ele>
        <time>2022-07-07T19:48:24Z</time>
      </trkpt>
      <trkpt lat="49.28438" lon="0.00439">
        <ele>136.3</ele>
        <time>2022-07-07T19:48:24Z</time>
      </trkpt>
      <trkpt lat="49.28484" lon="0.00507">
        <ele>135.5</ele>
        <time>2022-07-07T19:48:24Z</time>
      </trkpt>
      <trkpt lat="49.28521" lon="0.00562">
        <ele>135.2</ele>
        <time>2022-07-07T19:48:24Z</time>
      </trkpt>
      <trkpt lat="49.28567" lon="0.0063">
        <ele>135.6</ele>
        <time>2022-07-07T19:48:24Z</time>
      </trkpt>
      <trkpt lat="49.28608" lon="0.00691">
        <ele>135.1</ele>
        <time>2022-07-07T19:48:24Z</time>
      </trkpt>
      <trkpt lat="49.28626" lon="0.00716">
        <ele>134.9</ele>
        <time>2022-07-07T19:48:24Z</time>
      </trkpt>
      <trkpt lat="49.28631" lon="0.00723">
        <ele>134.6</ele>
        <time>2022-07-07T19:48:24Z</time>
      </trkpt>
      <trkpt lat="49.28704" lon="0.00809">
        <ele>134.8</ele>
        <time>2022-07-07T19:48:24Z</time>
      </trkpt>
      <trkpt lat="49.28748" lon="0.00859">
        <ele>134.8</ele>
        <time>2022-07-07T19:48:24Z</time>
      </trkpt>
      <trkpt lat="49.28791" lon="0.00907">
        <ele>135.1</ele>
        <time>2022-07-07T19:48:24Z</time>
      </trkpt>
      <trkpt lat="49.28821" lon="0.00939">
        <ele>135.2</ele>
        <time>2022-07-07T19:48:24Z</time>
      </trkpt>
      <trkpt lat="49.28847" lon="0.00967">
        <ele>135</ele>
        <time>2022-07-07T19:48:24Z</time>
      </trkpt>
      <trkpt lat="49.28882" lon="0.01003">
        <ele>134.5</ele>
        <time>2022-07-07T19:48:24Z</time>
      </trkpt>
      <trkpt lat="49.28899" lon="0.0102">
        <ele>134.2</ele>
        <time>2022-07-07T19:48:24Z</time>
      </trkpt>
      <trkpt lat="49.28911" lon="0.01033">
        <ele>134.1</ele>
        <time>2022-07-07T19:48:24Z</time>
      </trkpt>
      <trkpt lat="49.28917" lon="0.0104">
        <ele>134.1</ele>
        <time>2022-07-07T19:48:24Z</time>
      </trkpt>
      <trkpt lat="49.28923" lon="0.01047">
        <ele>134.1</ele>
        <time>2022-07-07T19:48:24Z</time>
      </trkpt>
      <trkpt lat="49.28927" lon="0.01053">
        <ele>133.9</ele>
        <time>2022-07-07T19:48:24Z</time>
      </trkpt>
      <trkpt lat="49.28932" lon="0.01059">
        <ele>133.9</ele>
        <time>2022-07-07T19:48:24Z</time>
      </trkpt>
      <trkpt lat="49.28936" lon="0.01065">
        <ele>133.7</ele>
        <time>2022-07-07T19:48:24Z</time>
      </trkpt>
      <trkpt lat="49.2894" lon="0.01072">
        <ele>133.7</ele>
        <time>2022-07-07T19:48:24Z</time>
      </trkpt>
      <trkpt lat="49.28945" lon="0.01078">
        <ele>133.5</ele>
        <time>2022-07-07T19:48:24Z</time>
      </trkpt>
      <trkpt lat="49.2895" lon="0.01087">
        <ele>133.4</ele>
        <time>2022-07-07T19:48:24Z</time>
      </trkpt>
      <trkpt lat="49.28954" lon="0.01095">
        <ele>133.3</ele>
        <time>2022-07-07T19:48:24Z</time>
      </trkpt>
      <trkpt lat="49.2896" lon="0.01105">
        <ele>133.4</ele>
        <time>2022-07-07T19:48:24Z</time>
      </trkpt>
      <trkpt lat="49.28967" lon="0.01118">
        <ele>133.4</ele>
        <time>2022-07-07T19:48:24Z</time>
      </trkpt>
      <trkpt lat="49.28977" lon="0.01135">
        <ele>132.8</ele>
        <time>2022-07-07T19:48:24Z</time>
      </trkpt>
      <trkpt lat="49.28986" lon="0.01153">
        <ele>132.3</ele>
        <time>2022-07-07T19:48:24Z</time>
      </trkpt>
      <trkpt lat="49.28996" lon="0.01171">
        <ele>132.4</ele>
        <time>2022-07-07T19:48:24Z</time>
      </trkpt>
      <trkpt lat="49.29005" lon="0.01185">
        <ele>132.2</ele>
        <time>2022-07-07T19:48:24Z</time>
      </trkpt>
      <trkpt lat="49.29012" lon="0.01197">
        <ele>132.4</ele>
        <time>2022-07-07T19:48:24Z</time>
      </trkpt>
      <trkpt lat="49.29018" lon="0.01205">
        <ele>132.2</ele>
        <time>2022-07-07T19:48:24Z</time>
      </trkpt>
      <trkpt lat="49.29022" lon="0.0121">
        <ele>132.1</ele>
        <time>2022-07-07T19:48:24Z</time>
      </trkpt>
      <trkpt lat="49.29034" lon="0.01227">
        <ele>132.2</ele>
        <time>2022-07-07T19:48:24Z</time>
      </trkpt>
      <trkpt lat="49.29044" lon="0.01238">
        <ele>132.3</ele>
        <time>2022-07-07T19:48:24Z</time>
      </trkpt>
      <trkpt lat="49.29054" lon="0.0125">
        <ele>132.1</ele>
        <time>2022-07-07T19:48:24Z</time>
      </trkpt>
      <trkpt lat="49.29065" lon="0.01261">
        <ele>132.2</ele>
        <time>2022-07-07T19:48:24Z</time>
      </trkpt>
      <trkpt lat="49.29078" lon="0.01273">
        <ele>132.1</ele>
        <time>2022-07-07T19:48:24Z</time>
      </trkpt>
      <trkpt lat="49.29089" lon="0.01285">
        <ele>132</ele>
        <time>2022-07-07T19:48:24Z</time>
      </trkpt>
      <trkpt lat="49.29103" lon="0.01297">
        <ele>132.3</ele>
        <time>2022-07-07T19:48:24Z</time>
      </trkpt>
      <trkpt lat="49.29115" lon="0.01308">
        <ele>132.4</ele>
        <time>2022-07-07T19:48:24Z</time>
      </trkpt>
      <trkpt lat="49.29141" lon="0.01332">
        <ele>132.4</ele>
        <time>2022-07-07T19:48:24Z</time>
      </trkpt>
      <trkpt lat="49.29157" lon="0.01347">
        <ele>132.4</ele>
        <time>2022-07-07T19:48:24Z</time>
      </trkpt>
      <trkpt lat="49.29175" lon="0.01369">
        <ele>132.2</ele>
        <time>2022-07-07T19:48:24Z</time>
      </trkpt>
      <trkpt lat="49.29196" lon="0.01397">
        <ele>131.9</ele>
        <time>2022-07-07T19:48:24Z</time>
      </trkpt>
      <trkpt lat="49.29214" lon="0.01423">
        <ele>131.4</ele>
        <time>2022-07-07T19:48:24Z</time>
      </trkpt>
      <trkpt lat="49.29232" lon="0.01454">
        <ele>130.9</ele>
        <time>2022-07-07T19:48:24Z</time>
      </trkpt>
      <trkpt lat="49.29248" lon="0.01477">
        <ele>130.5</ele>
        <time>2022-07-07T19:48:24Z</time>
      </trkpt>
      <trkpt lat="49.29252" lon="0.01484">
        <ele>130.4</ele>
        <time>2022-07-07T19:48:24Z</time>
      </trkpt>
      <trkpt lat="49.29267" lon="0.01511">
        <ele>129.8</ele>
        <time>2022-07-07T19:48:24Z</time>
      </trkpt>
      <trkpt lat="49.29293" lon="0.01558">
        <ele>128.9</ele>
        <time>2022-07-07T19:48:24Z</time>
      </trkpt>
      <trkpt lat="49.29309" lon="0.01588">
        <ele>128.3</ele>
        <time>2022-07-07T19:48:24Z</time>
      </trkpt>
      <trkpt lat="49.2932" lon="0.01608">
        <ele>128</ele>
        <time>2022-07-07T19:48:24Z</time>
      </trkpt>
      <trkpt lat="49.29331" lon="0.0163">
        <ele>128</ele>
        <time>2022-07-07T19:48:24Z</time>
      </trkpt>
      <trkpt lat="49.29343" lon="0.01654">
        <ele>128.4</ele>
        <time>2022-07-07T19:48:24Z</time>
      </trkpt>
      <trkpt lat="49.29353" lon="0.01676">
        <ele>128.6</ele>
        <time>2022-07-07T19:48:24Z</time>
      </trkpt>
      <trkpt lat="49.29362" lon="0.01696">
        <ele>129.1</ele>
        <time>2022-07-07T19:48:24Z</time>
      </trkpt>
      <trkpt lat="49.29372" lon="0.01721">
        <ele>129.3</ele>
        <time>2022-07-07T19:48:24Z</time>
      </trkpt>
      <trkpt lat="49.2938" lon="0.01742">
        <ele>129.4</ele>
        <time>2022-07-07T19:48:24Z</time>
      </trkpt>
      <trkpt lat="49.29385" lon="0.01757">
        <ele>129.4</ele>
        <time>2022-07-07T19:48:24Z</time>
      </trkpt>
      <trkpt lat="49.29402" lon="0.01804">
        <ele>129.7</ele>
        <time>2022-07-07T19:48:24Z</time>
      </trkpt>
      <trkpt lat="49.29423" lon="0.01863">
        <ele>129.4</ele>
        <time>2022-07-07T19:48:24Z</time>
      </trkpt>
      <trkpt lat="49.29447" lon="0.01924">
        <ele>128.9</ele>
        <time>2022-07-07T19:48:24Z</time>
      </trkpt>
      <trkpt lat="49.29464" lon="0.01968">
        <ele>128.8</ele>
        <time>2022-07-07T19:48:24Z</time>
      </trkpt>
      <trkpt lat="49.2948" lon="0.02">
        <ele>128.1</ele>
        <time>2022-07-07T19:48:24Z</time>
      </trkpt>
      <trkpt lat="49.29495" lon="0.02027">
        <ele>127.7</ele>
        <time>2022-07-07T19:48:24Z</time>
      </trkpt>
      <trkpt lat="49.29508" lon="0.02043">
        <ele>127.1</ele>
        <time>2022-07-07T19:48:24Z</time>
      </trkpt>
      <trkpt lat="49.29529" lon="0.02066">
        <ele>126.4</ele>
        <time>2022-07-07T19:48:24Z</time>
      </trkpt>
      <trkpt lat="49.29552" lon="0.02085">
        <ele>127</ele>
        <time>2022-07-07T19:48:24Z</time>
      </trkpt>
      <trkpt lat="49.2957" lon="0.02097">
        <ele>127.8</ele>
        <time>2022-07-07T19:48:24Z</time>
      </trkpt>
      <trkpt lat="49.2962" lon="0.02136">
        <ele>128.7</ele>
        <time>2022-07-07T19:48:24Z</time>
      </trkpt>
      <trkpt lat="49.29641" lon="0.02154">
        <ele>128.9</ele>
        <time>2022-07-07T19:48:24Z</time>
      </trkpt>
      <trkpt lat="49.29681" lon="0.02187">
        <ele>128.4</ele>
        <time>2022-07-07T19:48:24Z</time>
      </trkpt>
      <trkpt lat="49.29695" lon="0.02198">
        <ele>128</ele>
        <time>2022-07-07T19:48:24Z</time>
      </trkpt>
      <trkpt lat="49.29731" lon="0.02231">
        <ele>127.6</ele>
        <time>2022-07-07T19:48:24Z</time>
      </trkpt>
      <trkpt lat="49.29748" lon="0.02249">
        <ele>127.5</ele>
        <time>2022-07-07T19:48:24Z</time>
      </trkpt>
      <trkpt lat="49.29767" lon="0.02268">
        <ele>127.3</ele>
        <time>2022-07-07T19:48:24Z</time>
      </trkpt>
      <trkpt lat="49.29792" lon="0.02295">
        <ele>127.3</ele>
        <time>2022-07-07T19:48:24Z</time>
      </trkpt>
      <trkpt lat="49.29811" lon="0.02318">
        <ele>127.2</ele>
        <time>2022-07-07T19:48:24Z</time>
      </trkpt>
      <trkpt lat="49.29826" lon="0.02335">
        <ele>127.2</ele>
        <time>2022-07-07T19:48:24Z</time>
      </trkpt>
      <trkpt lat="49.29874" lon="0.02388">
        <ele>127.7</ele>
        <time>2022-07-07T19:48:24Z</time>
      </trkpt>
      <trkpt lat="49.29914" lon="0.02433">
        <ele>127.4</ele>
        <time>2022-07-07T19:48:24Z</time>
      </trkpt>
      <trkpt lat="49.29953" lon="0.02478">
        <ele>126.7</ele>
        <time>2022-07-07T19:48:24Z</time>
      </trkpt>
      <trkpt lat="49.29957" lon="0.02483">
        <ele>126.7</ele>
        <time>2022-07-07T19:48:24Z</time>
      </trkpt>
      <trkpt lat="49.30004" lon="0.02536">
        <ele>126</ele>
        <time>2022-07-07T19:48:24Z</time>
      </trkpt>
      <trkpt lat="49.30012" lon="0.02545">
        <ele>125.8</ele>
        <time>2022-07-07T19:48:24Z</time>
      </trkpt>
      <trkpt lat="49.3002" lon="0.0254">
        <ele>125.9</ele>
        <time>2022-07-07T19:48:24Z</time>
      </trkpt>
      <trkpt lat="49.30033" lon="0.02523">
        <ele>126</ele>
        <time>2022-07-07T19:48:24Z</time>
      </trkpt>
      <trkpt lat="49.30039" lon="0.02514">
        <ele>126.3</ele>
        <time>2022-07-07T19:48:24Z</time>
      </trkpt>
      <trkpt lat="49.30049" lon="0.02491">
        <ele>126.6</ele>
        <time>2022-07-07T19:48:24Z</time>
      </trkpt>
      <trkpt lat="49.30083" lon="0.02416">
        <ele>127.8</ele>
        <time>2022-07-07T19:48:24Z</time>
      </trkpt>
      <trkpt lat="49.30104" lon="0.02373">
        <ele>128</ele>
        <time>2022-07-07T19:48:24Z</time>
      </trkpt>
      <trkpt lat="49.30115" lon="0.02354">
        <ele>128</ele>
        <time>2022-07-07T19:48:24Z</time>
      </trkpt>
      <trkpt lat="49.30123" lon="0.02342">
        <ele>128.2</ele>
        <time>2022-07-07T19:48:24Z</time>
      </trkpt>
      <trkpt lat="49.30132" lon="0.02332">
        <ele>128.4</ele>
        <time>2022-07-07T19:48:24Z</time>
      </trkpt>
      <trkpt lat="49.30145" lon="0.02319">
        <ele>128.6</ele>
        <time>2022-07-07T19:48:24Z</time>
      </trkpt>
      <trkpt lat="49.30159" lon="0.02304">
        <ele>128.9</ele>
        <time>2022-07-07T19:48:24Z</time>
      </trkpt>
      <trkpt lat="49.3017" lon="0.02293">
        <ele>128.8</ele>
        <time>2022-07-07T19:48:24Z</time>
      </trkpt>
      <trkpt lat="49.30183" lon="0.02278">
        <ele>128.8</ele>
        <time>2022-07-07T19:48:24Z</time>
      </trkpt>
      <trkpt lat="49.30197" lon="0.02261">
        <ele>128.5</ele>
        <time>2022-07-07T19:48:24Z</time>
      </trkpt>
      <trkpt lat="49.30214" lon="0.02239">
        <ele>128.4</ele>
        <time>2022-07-07T19:48:24Z</time>
      </trkpt>
      <trkpt lat="49.30231" lon="0.02215">
        <ele>128</ele>
        <time>2022-07-07T19:48:24Z</time>
      </trkpt>
      <trkpt lat="49.30253" lon="0.02184">
        <ele>127.7</ele>
        <time>2022-07-07T19:48:24Z</time>
      </trkpt>
      <trkpt lat="49.30276" lon="0.02153">
        <ele>127.1</ele>
        <time>2022-07-07T19:48:24Z</time>
      </trkpt>
      <trkpt lat="49.303" lon="0.02123">
        <ele>126.7</ele>
        <time>2022-07-07T19:48:24Z</time>
      </trkpt>
      <trkpt lat="49.30317" lon="0.02105">
        <ele>126.3</ele>
        <time>2022-07-07T19:48:24Z</time>
      </trkpt>
      <trkpt lat="49.30326" lon="0.02095">
        <ele>126</ele>
        <time>2022-07-07T19:48:24Z</time>
      </trkpt>
      <trkpt lat="49.30334" lon="0.02087">
        <ele>125.7</ele>
        <time>2022-07-07T19:48:24Z</time>
      </trkpt>
      <trkpt lat="49.30347" lon="0.02074">
        <ele>125.4</ele>
        <time>2022-07-07T19:48:24Z</time>
      </trkpt>
      <trkpt lat="49.3036" lon="0.02063">
        <ele>125.1</ele>
        <time>2022-07-07T19:48:24Z</time>
      </trkpt>
      <trkpt lat="49.3037" lon="0.02056">
        <ele>124.9</ele>
        <time>2022-07-07T19:48:24Z</time>
      </trkpt>
      <trkpt lat="49.3038" lon="0.02051">
        <ele>124.6</ele>
        <time>2022-07-07T19:48:24Z</time>
      </trkpt>
      <trkpt lat="49.3039" lon="0.02046">
        <ele>124.4</ele>
        <time>2022-07-07T19:48:24Z</time>
      </trkpt>
      <trkpt lat="49.30405" lon="0.02041">
        <ele>124.1</ele>
        <time>2022-07-07T19:48:24Z</time>
      </trkpt>
      <trkpt lat="49.3042" lon="0.02037">
        <ele>123.7</ele>
        <time>2022-07-07T19:48:24Z</time>
      </trkpt>
      <trkpt lat="49.30435" lon="0.02035">
        <ele>123.3</ele>
        <time>2022-07-07T19:48:24Z</time>
      </trkpt>
      <trkpt lat="49.30454" lon="0.02035">
        <ele>122.4</ele>
        <time>2022-07-07T19:48:24Z</time>
      </trkpt>
      <trkpt lat="49.30477" lon="0.02035">
        <ele>121.5</ele>
        <time>2022-07-07T19:48:24Z</time>
      </trkpt>
      <trkpt lat="49.30501" lon="0.02037">
        <ele>120.6</ele>
        <time>2022-07-07T19:48:24Z</time>
      </trkpt>
      <trkpt lat="49.30515" lon="0.02036">
        <ele>120.1</ele>
        <time>2022-07-07T19:48:24Z</time>
      </trkpt>
      <trkpt lat="49.30526" lon="0.02034">
        <ele>119.8</ele>
        <time>2022-07-07T19:48:24Z</time>
      </trkpt>
      <trkpt lat="49.30538" lon="0.02031">
        <ele>119</ele>
        <time>2022-07-07T19:48:24Z</time>
      </trkpt>
      <trkpt lat="49.30551" lon="0.02027">
        <ele>117.7</ele>
        <time>2022-07-07T19:48:24Z</time>
      </trkpt>
      <trkpt lat="49.30561" lon="0.02023">
        <ele>116.9</ele>
        <time>2022-07-07T19:48:24Z</time>
      </trkpt>
      <trkpt lat="49.30573" lon="0.02016">
        <ele>115.8</ele>
        <time>2022-07-07T19:48:24Z</time>
      </trkpt>
      <trkpt lat="49.30584" lon="0.02009">
        <ele>115.2</ele>
        <time>2022-07-07T19:48:24Z</time>
      </trkpt>
      <trkpt lat="49.30593" lon="0.02">
        <ele>114.9</ele>
        <time>2022-07-07T19:48:24Z</time>
      </trkpt>
      <trkpt lat="49.30607" lon="0.01987">
        <ele>113.9</ele>
        <time>2022-07-07T19:48:24Z</time>
      </trkpt>
      <trkpt lat="49.30621" lon="0.01972">
        <ele>112.9</ele>
        <time>2022-07-07T19:48:24Z</time>
      </trkpt>
      <trkpt lat="49.30633" lon="0.01956">
        <ele>111.6</ele>
        <time>2022-07-07T19:48:24Z</time>
      </trkpt>
      <trkpt lat="49.30644" lon="0.0194">
        <ele>109.9</ele>
        <time>2022-07-07T19:48:24Z</time>
      </trkpt>
      <trkpt lat="49.3064" lon="0.01929">
        <ele>110.1</ele>
        <time>2022-07-07T19:48:24Z</time>
      </trkpt>
      <trkpt lat="49.30621" lon="0.01875">
        <ele>112.7</ele>
        <time>2022-07-07T19:48:24Z</time>
      </trkpt>
    </trkseg>
  </trk>
</gpx>